<?xml version='1.0' encoding='UTF-8'?><gpx version="1.1" creator="JPX - https://github.com/jenetics/jpx" xmlns="http://www.topografix.com/GPX/1/1"><trk><trkseg><trkpt lat="40.42988164154248" lon="15.734296751777112"><ele>827.0000000000001</ele><time>2026-05-02T12:20:32Z</time></trkpt><trkpt lat="40.429906047078866" lon="15.734377819184955"><ele>827.0</ele><time>2026-05-02T12:20:35Z</time></trkpt><trkpt lat="40.429886448166926" lon="15.734503493900224"><ele>827.0</ele><time>2026-05-02T12:22:03.998Z</time></trkpt><trkpt lat="40.429911452244774" lon="15.73459654266623"><ele>827.0</ele><time>2026-05-02T12:22:05.998Z</time></trkpt><trkpt lat="40.429887614401196" lon="15.73468109196932"><ele>827.0000000000001</ele><time>2026-05-02T12:22:08.998Z</time></trkpt><trkpt lat="40.42983708659872" lon="15.734799856127102"><ele>827.0</ele><time>2026-05-02T12:22:13Z</time></trkpt><trkpt lat="40.429770521234474" lon="15.734808620385312"><ele>827.0000000000001</ele><time>2026-05-02T12:22:14Z</time></trkpt><trkpt lat="40.42969206277331" lon="15.734858640235215"><ele>827.0</ele><time>2026-05-02T12:22:16Z</time></trkpt><trkpt lat="40.429609081820985" lon="15.734922891779323"><ele>827.0</ele><time>2026-05-02T12:22:18Z</time></trkpt><trkpt lat="40.42952260625406" lon="15.73498623118347"><ele>827.0</ele><time>2026-05-02T12:22:20Z</time></trkpt><trkpt lat="40.42945876650321" lon="15.735050746930918"><ele>827.0000000000001</ele><time>2026-05-02T12:22:24Z</time></trkpt><trkpt lat="40.42945896974576" lon="15.735150499622694"><ele>827.0</ele><time>2026-05-02T12:22:26Z</time></trkpt><trkpt lat="40.42952612261547" lon="15.735234339376326"><ele>825.8333333333334</ele><time>2026-05-02T12:22:29Z</time></trkpt><trkpt lat="40.42955979358466" lon="15.735306496062229"><ele>824.6666666666667</ele><time>2026-05-02T12:22:31Z</time></trkpt><trkpt lat="40.429608889333835" lon="15.735390526279694"><ele>823.5</ele><time>2026-05-02T12:22:33Z</time></trkpt><trkpt lat="40.42965900490079" lon="15.735486887209952"><ele>822.3333333333333</ele><time>2026-05-02T12:22:35Z</time></trkpt><trkpt lat="40.429705071091554" lon="15.735576971866154"><ele>821.1666666666666</ele><time>2026-05-02T12:22:37Z</time></trkpt><trkpt lat="40.42975882873668" lon="15.73566724941373"><ele>820.0</ele><time>2026-05-02T12:22:39Z</time></trkpt><trkpt lat="40.42981465892906" lon="15.735744809274134"><ele>819.9999999999999</ele><time>2026-05-02T12:22:41Z</time></trkpt><trkpt lat="40.42984710344102" lon="15.735851158932503"><ele>820.0</ele><time>2026-05-02T12:22:43Z</time></trkpt><trkpt lat="40.42980041464609" lon="15.735935547892899"><ele>820.0</ele><time>2026-05-02T12:22:45Z</time></trkpt><trkpt lat="40.429728735454674" lon="15.735974442130798"><ele>820.0</ele><time>2026-05-02T12:22:47Z</time></trkpt><trkpt lat="40.42962991770521" lon="15.735997702261457"><ele>819.9999999999999</ele><time>2026-05-02T12:22:49Z</time></trkpt><trkpt lat="40.42956369135511" lon="15.736047154758495"><ele>820.0</ele><time>2026-05-02T12:22:51Z</time></trkpt><trkpt lat="40.42949979468632" lon="15.736112356986817"><ele>818.4</ele><time>2026-05-02T12:22:53Z</time></trkpt><trkpt lat="40.429440279761565" lon="15.736204017577812"><ele>816.8</ele><time>2026-05-02T12:22:54.999Z</time></trkpt><trkpt lat="40.42938807148488" lon="15.73633058443138"><ele>815.2</ele><time>2026-05-02T12:22:56.999Z</time></trkpt><trkpt lat="40.42930849892158" lon="15.73643139567883"><ele>813.6</ele><time>2026-05-02T12:22:58.999Z</time></trkpt><trkpt lat="40.4292711894413" lon="15.736549339004954"><ele>812.0</ele><time>2026-05-02T12:23:00.999Z</time></trkpt><trkpt lat="40.42921295710263" lon="15.736634409571373"><ele>812.0000000000001</ele><time>2026-05-02T12:23:03.999Z</time></trkpt><trkpt lat="40.429142523459674" lon="15.736671812583804"><ele>812.0</ele><time>2026-05-02T12:23:06.999Z</time></trkpt><trkpt lat="40.42910975853301" lon="15.736581744921255"><ele>812.0</ele><time>2026-05-02T12:27:26.999Z</time></trkpt><trkpt lat="40.42913509660128" lon="15.73665821422797"><ele>812.0</ele><time>2026-05-02T12:27:29.999Z</time></trkpt><trkpt lat="40.4291299163286" lon="15.736771890779211"><ele>812.0000000000001</ele><time>2026-05-02T12:29:20.999Z</time></trkpt><trkpt lat="40.42909326480138" lon="15.736886960792756"><ele>812.0</ele><time>2026-05-02T12:29:23.999Z</time></trkpt><trkpt lat="40.42904005398529" lon="15.736982730471109"><ele>812.8333333333334</ele><time>2026-05-02T12:29:25.999Z</time></trkpt><trkpt lat="40.42899048466267" lon="15.737091606089006"><ele>813.6666666666667</ele><time>2026-05-02T12:29:27.999Z</time></trkpt><trkpt lat="40.42891572366302" lon="15.737208783849432"><ele>814.5</ele><time>2026-05-02T12:29:29.999Z</time></trkpt><trkpt lat="40.42890720067514" lon="15.737305736026656"><ele>815.3333333333333</ele><time>2026-05-02T12:29:31.999Z</time></trkpt><trkpt lat="40.42887157761614" lon="15.737379529610386"><ele>816.1666666666666</ele><time>2026-05-02T12:29:33.999Z</time></trkpt><trkpt lat="40.428832031095816" lon="15.737453429802498"><ele>817.0</ele><time>2026-05-02T12:29:35.999Z</time></trkpt><trkpt lat="40.42877763613055" lon="15.737526419799595"><ele>816.9999999999999</ele><time>2026-05-02T12:29:37.999Z</time></trkpt><trkpt lat="40.42873121498498" lon="15.737596832290006"><ele>817.0</ele><time>2026-05-02T12:29:39.999Z</time></trkpt><trkpt lat="40.428683868265274" lon="15.737663860283615"><ele>817.0</ele><time>2026-05-02T12:29:41.999Z</time></trkpt><trkpt lat="40.42863991536515" lon="15.737732884781176"><ele>817.0</ele><time>2026-05-02T12:29:44.999Z</time></trkpt><trkpt lat="40.428692812677156" lon="15.737671697298612"><ele>816.9999999999999</ele><time>2026-05-02T12:29:59.998Z</time></trkpt><trkpt lat="40.42874933155592" lon="15.737611604740191"><ele>817.0</ele><time>2026-05-02T12:30:01.998Z</time></trkpt><trkpt lat="40.428806358001864" lon="15.7374697485206"><ele>814.3333333333333</ele><time>2026-05-02T12:30:03.998Z</time></trkpt><trkpt lat="40.42886893440745" lon="15.737390671786304"><ele>811.6666666666666</ele><time>2026-05-02T12:30:05.998Z</time></trkpt><trkpt lat="40.4289198092853" lon="15.73729172674134"><ele>809.0</ele><time>2026-05-02T12:30:07.998Z</time></trkpt><trkpt lat="40.428972799601425" lon="15.737208981981928"><ele>806.3333333333333</ele><time>2026-05-02T12:30:09.998Z</time></trkpt><trkpt lat="40.42903600889428" lon="15.737154399457634"><ele>803.6666666666666</ele><time>2026-05-02T12:30:12.998Z</time></trkpt><trkpt lat="40.42906404104963" lon="15.737075559698399"><ele>801.0</ele><time>2026-05-02T12:30:17.998Z</time></trkpt><trkpt lat="40.42898221204913" lon="15.737143879966496"><ele>801.0</ele><time>2026-05-02T12:30:55Z</time></trkpt><trkpt lat="40.428928053871864" lon="15.737262228160366"><ele>801.0</ele><time>2026-05-02T12:30:57Z</time></trkpt><trkpt lat="40.42887706329412" lon="15.737324690688387"><ele>801.0</ele><time>2026-05-02T12:30:58Z</time></trkpt><trkpt lat="40.42879020303855" lon="15.73744434933842"><ele>801.0</ele><time>2026-05-02T12:31:00Z</time></trkpt><trkpt lat="40.42872332019396" lon="15.737555157515642"><ele>801.0</ele><time>2026-05-02T12:31:02Z</time></trkpt><trkpt lat="40.42865996553689" lon="15.737653048784036"><ele>800.0</ele><time>2026-05-02T12:31:04Z</time></trkpt><trkpt lat="40.4285876073636" lon="15.73775581644975"><ele>799.0</ele><time>2026-05-02T12:31:06Z</time></trkpt><trkpt lat="40.428543312727165" lon="15.737814798846186"><ele>798.0</ele><time>2026-05-02T12:31:07Z</time></trkpt><trkpt lat="40.42849414027089" lon="15.737877339982596"><ele>797.0</ele><time>2026-05-02T12:31:08Z</time></trkpt><trkpt lat="40.42841147862567" lon="15.737966626307644"><ele>796.0</ele><time>2026-05-02T12:31:10Z</time></trkpt><trkpt lat="40.42830605963391" lon="15.738048131512617"><ele>796.0</ele><time>2026-05-02T12:31:12Z</time></trkpt><trkpt lat="40.428198534439616" lon="15.738108179383842"><ele>796.0</ele><time>2026-05-02T12:31:14Z</time></trkpt><trkpt lat="40.42813420897631" lon="15.738153836929385"><ele>796.0</ele><time>2026-05-02T12:31:15Z</time></trkpt><trkpt lat="40.42803836908287" lon="15.73817908892582"><ele>796.0</ele><time>2026-05-02T12:31:16.999Z</time></trkpt><trkpt lat="40.42795317595132" lon="15.73821788963305"><ele>796.0</ele><time>2026-05-02T12:31:17.999Z</time></trkpt><trkpt lat="40.42788051333643" lon="15.738227193165757"><ele>795.9999999999999</ele><time>2026-05-02T12:31:18.999Z</time></trkpt><trkpt lat="40.42780350665992" lon="15.7382266864126"><ele>796.0</ele><time>2026-05-02T12:31:19.999Z</time></trkpt><trkpt lat="40.427727006126716" lon="15.73822829521515"><ele>796.0</ele><time>2026-05-02T12:31:20.999Z</time></trkpt><trkpt lat="40.42763933862357" lon="15.738237272345854"><ele>796.0</ele><time>2026-05-02T12:31:21.999Z</time></trkpt><trkpt lat="40.4275551321343" lon="15.738236236599414"><ele>795.9999999999999</ele><time>2026-05-02T12:31:22.999Z</time></trkpt><trkpt lat="40.42748107221782" lon="15.73823332521301"><ele>796.0</ele><time>2026-05-02T12:31:23.999Z</time></trkpt><trkpt lat="40.427398509067196" lon="15.738221764782917"><ele>795.9999999999999</ele><time>2026-05-02T12:31:24.999Z</time></trkpt><trkpt lat="40.42732400757071" lon="15.738220880877465"><ele>796.0</ele><time>2026-05-02T12:31:25.999Z</time></trkpt><trkpt lat="40.42724096766919" lon="15.73822275282825"><ele>796.0</ele><time>2026-05-02T12:31:26.999Z</time></trkpt><trkpt lat="40.42716633531101" lon="15.738227907126118"><ele>796.0</ele><time>2026-05-02T12:31:27.999Z</time></trkpt><trkpt lat="40.42709293730387" lon="15.73822423998865"><ele>796.0</ele><time>2026-05-02T12:31:28.999Z</time></trkpt><trkpt lat="40.427019400281786" lon="15.738228250443044"><ele>795.9999999999999</ele><time>2026-05-02T12:31:29.999Z</time></trkpt><trkpt lat="40.42695090984135" lon="15.738237641544702"><ele>796.0</ele><time>2026-05-02T12:31:30.999Z</time></trkpt><trkpt lat="40.426882620566055" lon="15.738242958659834"><ele>794.8</ele><time>2026-05-02T12:31:31.999Z</time></trkpt><trkpt lat="40.426754590388626" lon="15.738259266035781"><ele>793.5999999999999</ele><time>2026-05-02T12:31:33.999Z</time></trkpt><trkpt lat="40.42667731489807" lon="15.738240090268693"><ele>792.4</ele><time>2026-05-02T12:31:34.999Z</time></trkpt><trkpt lat="40.42659809918031" lon="15.73819625867827"><ele>791.2</ele><time>2026-05-02T12:31:35.999Z</time></trkpt><trkpt lat="40.426532563577126" lon="15.73813045157547"><ele>790.0</ele><time>2026-05-02T12:31:36.999Z</time></trkpt><trkpt lat="40.426469132078076" lon="15.73806960344731"><ele>789.9999999999999</ele><time>2026-05-02T12:31:37.999Z</time></trkpt><trkpt lat="40.42642140012362" lon="15.73798811831499"><ele>790.0</ele><time>2026-05-02T12:31:38.999Z</time></trkpt><trkpt lat="40.426370462426014" lon="15.737910070714694"><ele>790.0</ele><time>2026-05-02T12:31:39.999Z</time></trkpt><trkpt lat="40.42632839663218" lon="15.73783486269263"><ele>790.0</ele><time>2026-05-02T12:31:40.999Z</time></trkpt><trkpt lat="40.426294297737584" lon="15.737738074716837"><ele>789.9999999999999</ele><time>2026-05-02T12:31:41.999Z</time></trkpt><trkpt lat="40.42626594238478" lon="15.737651874185318"><ele>790.0</ele><time>2026-05-02T12:31:42.999Z</time></trkpt><trkpt lat="40.42623260202224" lon="15.73756992275736"><ele>790.8333333333333</ele><time>2026-05-02T12:31:43.999Z</time></trkpt><trkpt lat="40.42620030943456" lon="15.737494309597675"><ele>791.6666666666666</ele><time>2026-05-02T12:31:44.999Z</time></trkpt><trkpt lat="40.426164873626455" lon="15.737424658849077"><ele>792.5</ele><time>2026-05-02T12:31:45.999Z</time></trkpt><trkpt lat="40.426132928315404" lon="15.737332726285311"><ele>793.3333333333333</ele><time>2026-05-02T12:31:46.999Z</time></trkpt><trkpt lat="40.42608392816164" lon="15.73719632260019"><ele>794.1666666666666</ele><time>2026-05-02T12:31:48.999Z</time></trkpt><trkpt lat="40.426049534419086" lon="15.737117872522193"><ele>795.0</ele><time>2026-05-02T12:31:49.999Z</time></trkpt><trkpt lat="40.42601322611589" lon="15.73703710514574"><ele>795.0</ele><time>2026-05-02T12:31:50.999Z</time></trkpt><trkpt lat="40.425978586381056" lon="15.736950737964257"><ele>795.0</ele><time>2026-05-02T12:31:51.999Z</time></trkpt><trkpt lat="40.42595758084664" lon="15.736868646086101"><ele>795.0</ele><time>2026-05-02T12:31:52.999Z</time></trkpt><trkpt lat="40.42592330898581" lon="15.73677401945696"><ele>795.0</ele><time>2026-05-02T12:31:54.999Z</time></trkpt><trkpt lat="40.42589724734753" lon="15.736665049680258"><ele>795.0</ele><time>2026-05-02T12:31:57.999Z</time></trkpt><trkpt lat="40.42594806453772" lon="15.736608148249356"><ele>795.0</ele><time>2026-05-02T12:32:00.999Z</time></trkpt><trkpt lat="40.42602678490676" lon="15.736563459500324"><ele>795.2</ele><time>2026-05-02T12:32:03.998Z</time></trkpt><trkpt lat="40.42611152130984" lon="15.73654428540159"><ele>795.4</ele><time>2026-05-02T12:32:05.998Z</time></trkpt><trkpt lat="40.42617662526161" lon="15.736464370626816"><ele>795.5999999999999</ele><time>2026-05-02T12:32:07.998Z</time></trkpt><trkpt lat="40.42623783054922" lon="15.736430940067754"><ele>795.8</ele><time>2026-05-02T12:32:11.998Z</time></trkpt><trkpt lat="40.42640525615437" lon="15.736331436866141"><ele>796.0</ele><time>2026-05-02T12:37:50.999Z</time></trkpt><trkpt lat="40.42647096895852" lon="15.736437391003328"><ele>796.0</ele><time>2026-05-02T12:37:58.999Z</time></trkpt><trkpt lat="40.42636894773697" lon="15.736485524082369"><ele>796.0</ele><time>2026-05-02T12:38:01.999Z</time></trkpt><trkpt lat="40.42625239971528" lon="15.736484134055736"><ele>796.0</ele><time>2026-05-02T12:38:03.999Z</time></trkpt><trkpt lat="40.42617137340948" lon="15.736486061705667"><ele>796.0</ele><time>2026-05-02T12:38:04.999Z</time></trkpt><trkpt lat="40.426095568134" lon="15.736489937861963"><ele>796.0</ele><time>2026-05-02T12:38:05.999Z</time></trkpt><trkpt lat="40.4259993088914" lon="15.736497323484384"><ele>796.0</ele><time>2026-05-02T12:38:07.999Z</time></trkpt><trkpt lat="40.425901276646" lon="15.736478686593488"><ele>796.0</ele><time>2026-05-02T12:38:09.999Z</time></trkpt><trkpt lat="40.425828313702624" lon="15.736463568393056"><ele>796.0</ele><time>2026-05-02T12:38:11.999Z</time></trkpt><trkpt lat="40.42581476338501" lon="15.736627985965981"><ele>796.0</ele><time>2026-05-02T12:38:13.999Z</time></trkpt><trkpt lat="40.4258719527536" lon="15.736755886668632"><ele>796.0</ele><time>2026-05-02T12:38:15.999Z</time></trkpt><trkpt lat="40.42590842670795" lon="15.736867291718523"><ele>795.8</ele><time>2026-05-02T12:38:16.998Z</time></trkpt><trkpt lat="40.4259296386087" lon="15.736989002686439"><ele>795.5999999999999</ele><time>2026-05-02T12:38:17.998Z</time></trkpt><trkpt lat="40.42601464289968" lon="15.737087308005544"><ele>795.4</ele><time>2026-05-02T12:38:18.998Z</time></trkpt><trkpt lat="40.42607083119586" lon="15.737198325556923"><ele>795.2</ele><time>2026-05-02T12:38:19.998Z</time></trkpt><trkpt lat="40.42611744541862" lon="15.73729671040485"><ele>795.0</ele><time>2026-05-02T12:38:20.998Z</time></trkpt><trkpt lat="40.42616239229997" lon="15.737403661402197"><ele>795.0</ele><time>2026-05-02T12:38:21.998Z</time></trkpt><trkpt lat="40.42619661352054" lon="15.737517890321453"><ele>795.0</ele><time>2026-05-02T12:38:22.998Z</time></trkpt><trkpt lat="40.42622253926545" lon="15.73763804718722"><ele>795.0</ele><time>2026-05-02T12:38:23.998Z</time></trkpt><trkpt lat="40.42628763786084" lon="15.737714977264792"><ele>795.0</ele><time>2026-05-02T12:38:24.998Z</time></trkpt><trkpt lat="40.4263292269559" lon="15.737827780470836"><ele>795.0</ele><time>2026-05-02T12:38:25.998Z</time></trkpt><trkpt lat="40.426374505527335" lon="15.7379500363465"><ele>794.1666666666666</ele><time>2026-05-02T12:38:26.998Z</time></trkpt><trkpt lat="40.42642104339678" lon="15.738042892754805"><ele>793.3333333333333</ele><time>2026-05-02T12:38:27.998Z</time></trkpt><trkpt lat="40.42648864932252" lon="15.738133525308996"><ele>792.5</ele><time>2026-05-02T12:38:28.998Z</time></trkpt><trkpt lat="40.426565836151276" lon="15.738211653580585"><ele>791.6666666666666</ele><time>2026-05-02T12:38:29.998Z</time></trkpt><trkpt lat="40.426643740930736" lon="15.738264294515298"><ele>790.8333333333333</ele><time>2026-05-02T12:38:30.998Z</time></trkpt><trkpt lat="40.42671780256244" lon="15.738287765385117"><ele>790.0</ele><time>2026-05-02T12:38:31.998Z</time></trkpt><trkpt lat="40.4267949957463" lon="15.738295712482191"><ele>789.9999999999999</ele><time>2026-05-02T12:38:32.998Z</time></trkpt><trkpt lat="40.426879996260695" lon="15.738289548694231"><ele>790.0</ele><time>2026-05-02T12:38:33.998Z</time></trkpt><trkpt lat="40.42696039167579" lon="15.738270934412926"><ele>790.0</ele><time>2026-05-02T12:38:34.998Z</time></trkpt><trkpt lat="40.42704350053916" lon="15.738257981232369"><ele>790.0</ele><time>2026-05-02T12:38:35.998Z</time></trkpt><trkpt lat="40.42711711758554" lon="15.738256583158302"><ele>789.9999999999999</ele><time>2026-05-02T12:38:36.998Z</time></trkpt><trkpt lat="40.427206506386554" lon="15.738263992535302"><ele>790.0</ele><time>2026-05-02T12:38:37.998Z</time></trkpt><trkpt lat="40.427273223604935" lon="15.738265747399224"><ele>790.9999999999999</ele><time>2026-05-02T12:38:38.998Z</time></trkpt><trkpt lat="40.42734328052672" lon="15.738249628825356"><ele>792.0</ele><time>2026-05-02T12:38:39.998Z</time></trkpt><trkpt lat="40.427413018664325" lon="15.738253189183201"><ele>793.0</ele><time>2026-05-02T12:38:40.998Z</time></trkpt><trkpt lat="40.4274873372935" lon="15.738254747122879"><ele>794.0</ele><time>2026-05-02T12:38:41.998Z</time></trkpt><trkpt lat="40.42756108282185" lon="15.738261426951539"><ele>794.9999999999999</ele><time>2026-05-02T12:38:42.998Z</time></trkpt><trkpt lat="40.427658081479834" lon="15.738269503292507"><ele>796.0</ele><time>2026-05-02T12:38:43.998Z</time></trkpt><trkpt lat="40.42773514533602" lon="15.738262809811404"><ele>795.9999999999999</ele><time>2026-05-02T12:38:44.998Z</time></trkpt><trkpt lat="40.42782016202786" lon="15.738259828029822"><ele>796.0</ele><time>2026-05-02T12:38:45.998Z</time></trkpt><trkpt lat="40.42789111163907" lon="15.738264262345563"><ele>796.0</ele><time>2026-05-02T12:38:46.998Z</time></trkpt><trkpt lat="40.427987006070026" lon="15.738273483419638"><ele>796.0</ele><time>2026-05-02T12:38:48.998Z</time></trkpt><trkpt lat="40.42805630121002" lon="15.738198921632705"><ele>795.9999999999999</ele><time>2026-05-02T12:39:38.999Z</time></trkpt><trkpt lat="40.428149883923126" lon="15.7381547082582"><ele>796.0</ele><time>2026-05-02T12:39:39.999Z</time></trkpt><trkpt lat="40.42825632665931" lon="15.738088266211998"><ele>796.0</ele><time>2026-05-02T12:39:40.999Z</time></trkpt><trkpt lat="40.428425271761846" lon="15.738000319132183"><ele>796.0</ele><time>2026-05-02T12:39:41.999Z</time></trkpt><trkpt lat="40.42856686989313" lon="15.73785711509867"><ele>796.0</ele><time>2026-05-02T12:39:42.999Z</time></trkpt><trkpt lat="40.42868544497651" lon="15.737718837027435"><ele>797.25</ele><time>2026-05-02T12:39:43.999Z</time></trkpt><trkpt lat="40.42877850659706" lon="15.737570573934613"><ele>798.5</ele><time>2026-05-02T12:39:44.999Z</time></trkpt><trkpt lat="40.42886077599533" lon="15.737429038214241"><ele>799.75</ele><time>2026-05-02T12:39:45.999Z</time></trkpt><trkpt lat="40.42891788251284" lon="15.737319267122286"><ele>801.0</ele><time>2026-05-02T12:39:46.999Z</time></trkpt><trkpt lat="40.42899021806498" lon="15.737215854752131"><ele>801.0</ele><time>2026-05-02T12:39:47.999Z</time></trkpt><trkpt lat="40.42904391103047" lon="15.737086946212573"><ele>801.0</ele><time>2026-05-02T12:39:48.999Z</time></trkpt><trkpt lat="40.42910419663079" lon="15.736937189884822"><ele>801.0</ele><time>2026-05-02T12:39:49.999Z</time></trkpt><trkpt lat="40.42915479082696" lon="15.73681937270796"><ele>801.0</ele><time>2026-05-02T12:39:50.999Z</time></trkpt><trkpt lat="40.429217403893574" lon="15.736724711053267"><ele>801.0</ele><time>2026-05-02T12:39:51.999Z</time></trkpt><trkpt lat="40.42926144252209" lon="15.736636914732506"><ele>803.1999999999999</ele><time>2026-05-02T12:39:52.999Z</time></trkpt><trkpt lat="40.42930960046867" lon="15.73654090607339"><ele>805.4</ele><time>2026-05-02T12:39:53.999Z</time></trkpt><trkpt lat="40.42935761759675" lon="15.736446847607255"><ele>807.6</ele><time>2026-05-02T12:39:54.999Z</time></trkpt><trkpt lat="40.42941226596306" lon="15.736341540837007"><ele>809.8</ele><time>2026-05-02T12:39:55.999Z</time></trkpt><trkpt lat="40.42947406048602" lon="15.736239294081244"><ele>812.0</ele><time>2026-05-02T12:39:56.999Z</time></trkpt><trkpt lat="40.429549115957926" lon="15.73610749422451"><ele>812.8</ele><time>2026-05-02T12:39:57.999Z</time></trkpt><trkpt lat="40.42964046965623" lon="15.736017770887516"><ele>813.6</ele><time>2026-05-02T12:39:58.999Z</time></trkpt><trkpt lat="40.429757159846545" lon="15.735957997632596"><ele>814.4</ele><time>2026-05-02T12:39:59.999Z</time></trkpt><trkpt lat="40.42985060508799" lon="15.735943261782527"><ele>815.1999999999999</ele><time>2026-05-02T12:40:00.999Z</time></trkpt><trkpt lat="40.42995474339466" lon="15.735993935875982"><ele>816.0</ele><time>2026-05-02T12:40:01.999Z</time></trkpt><trkpt lat="40.430041761367775" lon="15.73604238262886"><ele>814.8</ele><time>2026-05-02T12:40:02.999Z</time></trkpt><trkpt lat="40.4301143436821" lon="15.736155771277414"><ele>813.5999999999999</ele><time>2026-05-02T12:40:03.999Z</time></trkpt><trkpt lat="40.43019097552043" lon="15.736227507008575"><ele>812.4</ele><time>2026-05-02T12:40:04.999Z</time></trkpt><trkpt lat="40.43023983852957" lon="15.736317923254717"><ele>811.2</ele><time>2026-05-02T12:40:05.999Z</time></trkpt><trkpt lat="40.43030366239943" lon="15.736461027348836"><ele>810.0</ele><time>2026-05-02T12:40:07.999Z</time></trkpt><trkpt lat="40.43030639510151" lon="15.736604829161418"><ele>810.0</ele><time>2026-05-02T12:40:08.999Z</time></trkpt><trkpt lat="40.43032518075442" lon="15.736702461365942"><ele>810.0</ele><time>2026-05-02T12:40:09.999Z</time></trkpt><trkpt lat="40.43032990348499" lon="15.736805316099348"><ele>810.0</ele><time>2026-05-02T12:40:11.999Z</time></trkpt><trkpt lat="40.4302606357384" lon="15.736835965766534"><ele>810.0</ele><time>2026-05-02T12:40:12.999Z</time></trkpt><trkpt lat="40.43018970956111" lon="15.736896998958333"><ele>810.0</ele><time>2026-05-02T12:40:13.999Z</time></trkpt><trkpt lat="40.43017641807367" lon="15.737074353585534"><ele>810.0</ele><time>2026-05-02T12:40:15.999Z</time></trkpt><trkpt lat="40.430236276189554" lon="15.737142003074446"><ele>811.6</ele><time>2026-05-02T12:40:16.999Z</time></trkpt><trkpt lat="40.43030674316138" lon="15.737227994517673"><ele>813.2</ele><time>2026-05-02T12:40:17.999Z</time></trkpt><trkpt lat="40.43038552385033" lon="15.737298523829084"><ele>814.8</ele><time>2026-05-02T12:40:18.999Z</time></trkpt><trkpt lat="40.43051373197282" lon="15.737351658803854"><ele>816.4</ele><time>2026-05-02T12:40:19.999Z</time></trkpt><trkpt lat="40.43060822365795" lon="15.737424573066694"><ele>818.0</ele><time>2026-05-02T12:40:20.999Z</time></trkpt><trkpt lat="40.43068963991946" lon="15.7374807274832"><ele>818.0</ele><time>2026-05-02T12:40:21.998Z</time></trkpt><trkpt lat="40.43075649686719" lon="15.73758857137833"><ele>818.0</ele><time>2026-05-02T12:40:22.998Z</time></trkpt><trkpt lat="40.430801122649704" lon="15.737656969921387"><ele>818.0</ele><time>2026-05-02T12:40:23.998Z</time></trkpt><trkpt lat="40.430821191932594" lon="15.737800708236474"><ele>818.0</ele><time>2026-05-02T12:40:24.998Z</time></trkpt><trkpt lat="40.430900973717186" lon="15.73788643750492"><ele>818.0</ele><time>2026-05-02T12:40:27.998Z</time></trkpt><trkpt lat="40.43101503251612" lon="15.737974898720465"><ele>816.4</ele><time>2026-05-02T12:40:29.998Z</time></trkpt><trkpt lat="40.4311401970079" lon="15.738064105662575"><ele>814.8</ele><time>2026-05-02T12:40:30.998Z</time></trkpt><trkpt lat="40.4312273300962" lon="15.738094520500779"><ele>813.2</ele><time>2026-05-02T12:40:31.998Z</time></trkpt><trkpt lat="40.43129939286897" lon="15.738141871385237"><ele>811.6</ele><time>2026-05-02T12:40:32.998Z</time></trkpt><trkpt lat="40.43135919056213" lon="15.738217090620465"><ele>810.0</ele><time>2026-05-02T12:40:34.998Z</time></trkpt><trkpt lat="40.43141096455561" lon="15.738265960749667"><ele>810.0</ele><time>2026-05-02T12:40:37.998Z</time></trkpt><trkpt lat="40.43135801882887" lon="15.7383467637007"><ele>810.0</ele><time>2026-05-02T12:40:45.998Z</time></trkpt><trkpt lat="40.43135121880826" lon="15.738437970914665"><ele>810.0</ele><time>2026-05-02T12:40:48.998Z</time></trkpt><trkpt lat="40.43137360111822" lon="15.738553887596487"><ele>810.0</ele><time>2026-05-02T12:40:50.998Z</time></trkpt><trkpt lat="40.431386807566234" lon="15.73865213917573"><ele>810.0</ele><time>2026-05-02T12:40:52.998Z</time></trkpt><trkpt lat="40.43141211962394" lon="15.7387404438465"><ele>810.0</ele><time>2026-05-02T12:40:54.998Z</time></trkpt><trkpt lat="40.4314254474304" lon="15.738833572485223"><ele>805.8</ele><time>2026-05-02T12:40:56.998Z</time></trkpt><trkpt lat="40.43148636955583" lon="15.73890665602327"><ele>801.6</ele><time>2026-05-02T12:41:12Z</time></trkpt><trkpt lat="40.431542948517325" lon="15.73897777449068"><ele>797.4000000000001</ele><time>2026-05-02T12:41:33Z</time></trkpt><trkpt lat="40.4316145738517" lon="15.739036712268593"><ele>793.2</ele><time>2026-05-02T12:41:36Z</time></trkpt><trkpt lat="40.43171889098474" lon="15.73908442487367"><ele>789.0</ele><time>2026-05-02T12:41:38Z</time></trkpt><trkpt lat="40.43181187281627" lon="15.739126635346022"><ele>789.0</ele><time>2026-05-02T12:41:40Z</time></trkpt><trkpt lat="40.43193208223686" lon="15.739184683731446"><ele>789.0</ele><time>2026-05-02T12:41:41.999Z</time></trkpt><trkpt lat="40.43205004969765" lon="15.739140858671739"><ele>789.0</ele><time>2026-05-02T12:41:42.999Z</time></trkpt><trkpt lat="40.432138149205464" lon="15.73911312106341"><ele>789.0</ele><time>2026-05-02T12:41:43.999Z</time></trkpt><trkpt lat="40.43222967099846" lon="15.739106093921718"><ele>789.0</ele><time>2026-05-02T12:41:44.999Z</time></trkpt><trkpt lat="40.43232037503963" lon="15.739079725873587"><ele>790.2</ele><time>2026-05-02T12:41:45.999Z</time></trkpt><trkpt lat="40.43240100484197" lon="15.739077001300725"><ele>791.4000000000001</ele><time>2026-05-02T12:41:46.999Z</time></trkpt><trkpt lat="40.432481162731925" lon="15.739190375330955"><ele>792.6</ele><time>2026-05-02T12:41:48.999Z</time></trkpt><trkpt lat="40.43249695457077" lon="15.739287063249797"><ele>793.8</ele><time>2026-05-02T12:41:49.999Z</time></trkpt><trkpt lat="40.43250668432809" lon="15.739399988478787"><ele>795.0</ele><time>2026-05-02T12:41:50.999Z</time></trkpt><trkpt lat="40.432469973230255" lon="15.739510655655524"><ele>795.0</ele><time>2026-05-02T12:41:51.999Z</time></trkpt><trkpt lat="40.432435862750644" lon="15.739641694597761"><ele>795.0</ele><time>2026-05-02T12:41:52.999Z</time></trkpt><trkpt lat="40.43238445069587" lon="15.739785014865353"><ele>795.0</ele><time>2026-05-02T12:41:53.999Z</time></trkpt><trkpt lat="40.43237010116955" lon="15.739883538290423"><ele>795.0</ele><time>2026-05-02T12:41:54.999Z</time></trkpt><trkpt lat="40.43235767747444" lon="15.740001544066955"><ele>795.0</ele><time>2026-05-02T12:41:55.999Z</time></trkpt><trkpt lat="40.43241228305956" lon="15.740112898606238"><ele>795.0</ele><time>2026-05-02T12:41:56.999Z</time></trkpt><trkpt lat="40.43241690425486" lon="15.740198612810651"><ele>795.0</ele><time>2026-05-02T12:41:57.999Z</time></trkpt><trkpt lat="40.43240015522159" lon="15.740326483666001"><ele>795.0</ele><time>2026-05-02T12:41:59.999Z</time></trkpt><trkpt lat="40.43237343636907" lon="15.74041064019196"><ele>795.0</ele><time>2026-05-02T12:42:03.999Z</time></trkpt><trkpt lat="40.43232202210992" lon="15.740504121269394"><ele>795.0</ele><time>2026-05-02T12:42:12.999Z</time></trkpt><trkpt lat="40.43234058462525" lon="15.740653454250525"><ele>795.0</ele><time>2026-05-02T12:42:21.999Z</time></trkpt><trkpt lat="40.43239107760661" lon="15.740750661548851"><ele>794.0</ele><time>2026-05-02T12:42:22.999Z</time></trkpt><trkpt lat="40.432456847407046" lon="15.740874152371179"><ele>793.0</ele><time>2026-05-02T12:42:24.999Z</time></trkpt><trkpt lat="40.432534204760124" lon="15.740985733199505"><ele>792.0</ele><time>2026-05-02T12:42:26.999Z</time></trkpt><trkpt lat="40.43264506346551" lon="15.741029580055296"><ele>791.0</ele><time>2026-05-02T12:42:28.998Z</time></trkpt><trkpt lat="40.43271363117806" lon="15.741045788532558"><ele>790.0</ele><time>2026-05-02T12:42:29.998Z</time></trkpt><trkpt lat="40.43284632131778" lon="15.741033648183757"><ele>790.0</ele><time>2026-05-02T12:42:30.998Z</time></trkpt><trkpt lat="40.432943131816835" lon="15.741027160907276"><ele>790.0</ele><time>2026-05-02T12:42:31.998Z</time></trkpt><trkpt lat="40.43305012541599" lon="15.741082051348569"><ele>790.0</ele><time>2026-05-02T12:42:32.998Z</time></trkpt><trkpt lat="40.43314594913547" lon="15.741103999743281"><ele>790.0</ele><time>2026-05-02T12:42:33.998Z</time></trkpt><trkpt lat="40.43322072954239" lon="15.741172540447101"><ele>790.0</ele><time>2026-05-02T12:42:34.998Z</time></trkpt><trkpt lat="40.43329000301678" lon="15.741287040954889"><ele>790.4999999999999</ele><time>2026-05-02T12:42:35.998Z</time></trkpt><trkpt lat="40.433342661324055" lon="15.741406095616666"><ele>791.0</ele><time>2026-05-02T12:42:36.998Z</time></trkpt><trkpt lat="40.4333702908176" lon="15.741496302348416"><ele>791.5</ele><time>2026-05-02T12:42:37.998Z</time></trkpt><trkpt lat="40.433380248537716" lon="15.741617693203084"><ele>792.0</ele><time>2026-05-02T12:42:39.998Z</time></trkpt><trkpt lat="40.4333654992808" lon="15.741719885843231"><ele>792.4999999999999</ele><time>2026-05-02T12:42:41.998Z</time></trkpt><trkpt lat="40.4333487162618" lon="15.741809997660344"><ele>793.0</ele><time>2026-05-02T12:42:45.998Z</time></trkpt><trkpt lat="40.43338250600238" lon="15.741889363411751"><ele>793.4</ele><time>2026-05-02T12:42:47.998Z</time></trkpt><trkpt lat="40.43341398647836" lon="15.74205774618947"><ele>793.8</ele><time>2026-05-02T12:42:49.998Z</time></trkpt><trkpt lat="40.43344596849649" lon="15.742129775154385"><ele>794.2</ele><time>2026-05-02T12:42:50.998Z</time></trkpt><trkpt lat="40.433500794004175" lon="15.742247222120307"><ele>794.6</ele><time>2026-05-02T12:42:52.998Z</time></trkpt><trkpt lat="40.43354160652219" lon="15.742357005613975"><ele>795.0</ele><time>2026-05-02T12:42:54.998Z</time></trkpt><trkpt lat="40.43356011148065" lon="15.742506436349984"><ele>795.0</ele><time>2026-05-02T12:42:56.998Z</time></trkpt><trkpt lat="40.43361990993693" lon="15.742632654831342"><ele>795.0</ele><time>2026-05-02T12:42:58.998Z</time></trkpt><trkpt lat="40.43365929407303" lon="15.742771711564723"><ele>795.0</ele><time>2026-05-02T12:43:00.998Z</time></trkpt><trkpt lat="40.43368427130666" lon="15.742848979412623"><ele>795.0</ele><time>2026-05-02T12:43:01.998Z</time></trkpt><trkpt lat="40.433733015137406" lon="15.742975195477879"><ele>795.0</ele><time>2026-05-02T12:43:03.998Z</time></trkpt><trkpt lat="40.43376710631591" lon="15.743063011002588"><ele>795.8333333333334</ele><time>2026-05-02T12:43:05.998Z</time></trkpt><trkpt lat="40.43379741945521" lon="15.743139139896567"><ele>796.6666666666667</ele><time>2026-05-02T12:43:13Z</time></trkpt><trkpt lat="40.4338703817972" lon="15.743256799668362"><ele>797.5</ele><time>2026-05-02T12:43:15Z</time></trkpt><trkpt lat="40.4339115150497" lon="15.743320620908465"><ele>798.3333333333334</ele><time>2026-05-02T12:43:16Z</time></trkpt><trkpt lat="40.43395621748588" lon="15.74339374735996"><ele>799.1666666666667</ele><time>2026-05-02T12:43:17Z</time></trkpt><trkpt lat="40.43400247981353" lon="15.743506172668967"><ele>800.0</ele><time>2026-05-02T12:43:19Z</time></trkpt><trkpt lat="40.43405586328755" lon="15.743601167302122"><ele>803.6</ele><time>2026-05-02T12:43:23Z</time></trkpt><trkpt lat="40.43409828755756" lon="15.743670343319163"><ele>807.2</ele><time>2026-05-02T12:43:24Z</time></trkpt><trkpt lat="40.43417420133538" lon="15.743760351713716"><ele>810.8</ele><time>2026-05-02T12:43:25Z</time></trkpt><trkpt lat="40.43422122155762" lon="15.743848996928115"><ele>814.4</ele><time>2026-05-02T12:43:26Z</time></trkpt><trkpt lat="40.43430544512328" lon="15.743939624752766"><ele>818.0</ele><time>2026-05-02T12:43:28Z</time></trkpt><trkpt lat="40.43438696273202" lon="15.744025790887806"><ele>818.0000000000001</ele><time>2026-05-02T12:43:30Z</time></trkpt><trkpt lat="40.43444309107758" lon="15.744112852390812"><ele>818.0</ele><time>2026-05-02T12:43:32Z</time></trkpt><trkpt lat="40.434489505535296" lon="15.744231956073227"><ele>818.0</ele><time>2026-05-02T12:43:34Z</time></trkpt><trkpt lat="40.43456835696677" lon="15.744313021862226"><ele>818.0</ele><time>2026-05-02T12:43:36Z</time></trkpt><trkpt lat="40.43459900959889" lon="15.744391301941581"><ele>818.0000000000001</ele><time>2026-05-02T12:43:37Z</time></trkpt><trkpt lat="40.434604535886855" lon="15.74448509248864"><ele>818.0</ele><time>2026-05-02T12:43:40Z</time></trkpt><trkpt lat="40.43468976462902" lon="15.74469352335501"><ele>819.3333333333334</ele><time>2026-05-02T12:43:42Z</time></trkpt><trkpt lat="40.43474876262448" lon="15.744756799063731"><ele>820.6666666666667</ele><time>2026-05-02T12:43:43Z</time></trkpt><trkpt lat="40.434806943518225" lon="15.744806752059768"><ele>822.0</ele><time>2026-05-02T12:43:44Z</time></trkpt><trkpt lat="40.43487214409854" lon="15.744870634723087"><ele>823.3333333333333</ele><time>2026-05-02T12:43:45Z</time></trkpt><trkpt lat="40.43494459187308" lon="15.744926017519012"><ele>824.6666666666666</ele><time>2026-05-02T12:43:46Z</time></trkpt><trkpt lat="40.43500679366067" lon="15.744994555181359"><ele>826.0</ele><time>2026-05-02T12:43:47Z</time></trkpt><trkpt lat="40.43506498139717" lon="15.745085198819654"><ele>825.9999999999999</ele><time>2026-05-02T12:43:49Z</time></trkpt><trkpt lat="40.43514034350606" lon="15.744976965528657"><ele>826.0</ele><time>2026-05-02T12:43:49.999Z</time></trkpt><trkpt lat="40.43520098515648" lon="15.744855529962159"><ele>826.0</ele><time>2026-05-02T12:43:51.999Z</time></trkpt><trkpt lat="40.43526747083435" lon="15.744815519764169"><ele>826.0</ele><time>2026-05-02T12:44:54.998Z</time></trkpt><trkpt lat="40.43533474336882" lon="15.744781419820015"><ele>825.9999999999999</ele><time>2026-05-02T12:44:57.998Z</time></trkpt><trkpt lat="40.435343489759056" lon="15.744681418349039"><ele>826.0</ele><time>2026-05-02T12:45:01.998Z</time></trkpt><trkpt lat="40.43528024095431" lon="15.744712277048956"><ele>826.0</ele><time>2026-05-02T12:45:04.998Z</time></trkpt><trkpt lat="40.435229841356204" lon="15.744864849939201"><ele>826.0</ele><time>2026-05-02T12:45:06.998Z</time></trkpt><trkpt lat="40.435174309218354" lon="15.74494694283924"><ele>826.0</ele><time>2026-05-02T12:45:07.998Z</time></trkpt><trkpt lat="40.43511747331185" lon="15.745054008739286"><ele>826.0</ele><time>2026-05-02T12:45:09.998Z</time></trkpt><trkpt lat="40.435133886892345" lon="15.74517957423779"><ele>826.0</ele><time>2026-05-02T12:45:11.998Z</time></trkpt><trkpt lat="40.43520636340235" lon="15.745196497521583"><ele>826.0</ele><time>2026-05-02T12:45:12.998Z</time></trkpt><trkpt lat="40.43530321274988" lon="15.745262650612165"><ele>826.0</ele><time>2026-05-02T12:45:14.998Z</time></trkpt><trkpt lat="40.43539545762301" lon="15.745325991557065"><ele>826.0</ele><time>2026-05-02T12:45:16.998Z</time></trkpt><trkpt lat="40.4354836731157" lon="15.745358131427006"><ele>826.0</ele><time>2026-05-02T12:45:19Z</time></trkpt><trkpt lat="40.43555356651413" lon="15.74542410330286"><ele>826.0</ele><time>2026-05-02T12:45:21Z</time></trkpt><trkpt lat="40.435618789663636" lon="15.745442095679808"><ele>825.9999999999999</ele><time>2026-05-02T12:45:23Z</time></trkpt><trkpt lat="40.435688688981344" lon="15.745530055209246"><ele>826.0</ele><time>2026-05-02T12:45:26Z</time></trkpt><trkpt lat="40.43574684536105" lon="15.745570126647229"><ele>826.0</ele><time>2026-05-02T12:45:27Z</time></trkpt><trkpt lat="40.43582658759759" lon="15.745558139502267"><ele>826.0</ele><time>2026-05-02T12:45:29Z</time></trkpt><trkpt lat="40.43588811718011" lon="15.745631329401883"><ele>825.9999999999999</ele><time>2026-05-02T12:45:31Z</time></trkpt><trkpt lat="40.435951398743455" lon="15.74573379677427"><ele>826.0</ele><time>2026-05-02T12:45:33Z</time></trkpt><trkpt lat="40.436009629560246" lon="15.74584180505055"><ele>825.9999999999999</ele><time>2026-05-02T12:45:35Z</time></trkpt><trkpt lat="40.436040817324624" lon="15.745921354667189"><ele>826.0</ele><time>2026-05-02T12:45:38Z</time></trkpt><trkpt lat="40.43602375913092" lon="15.745815692362195"><ele>826.0</ele><time>2026-05-02T12:46:12.999Z</time></trkpt><trkpt lat="40.43596652273968" lon="15.74571819314283"><ele>826.0</ele><time>2026-05-02T12:46:14.999Z</time></trkpt><trkpt lat="40.43591836201051" lon="15.745645245825552"><ele>825.9999999999999</ele><time>2026-05-02T12:46:16.999Z</time></trkpt><trkpt lat="40.43585349402772" lon="15.74559247573756"><ele>826.0</ele><time>2026-05-02T12:46:18.999Z</time></trkpt><trkpt lat="40.4357794499621" lon="15.745563988301997"><ele>825.9999999999999</ele><time>2026-05-02T12:46:20.999Z</time></trkpt><trkpt lat="40.43567277061792" lon="15.74551609874953"><ele>826.0</ele><time>2026-05-02T12:46:22.999Z</time></trkpt><trkpt lat="40.43556916637951" lon="15.745441726885078"><ele>826.0</ele><time>2026-05-02T12:46:24.999Z</time></trkpt><trkpt lat="40.43550493119552" lon="15.745401597284012"><ele>826.0</ele><time>2026-05-02T12:46:25.999Z</time></trkpt><trkpt lat="40.435445631748195" lon="15.745341417756997"><ele>825.9999999999999</ele><time>2026-05-02T12:46:26.999Z</time></trkpt><trkpt lat="40.43539161415543" lon="15.745296869241454"><ele>826.0</ele><time>2026-05-02T12:46:27.999Z</time></trkpt><trkpt lat="40.43528597370104" lon="15.745230832157766"><ele>826.0</ele><time>2026-05-02T12:46:29.999Z</time></trkpt><trkpt lat="40.43522920203111" lon="15.745193396662136"><ele>826.0</ele><time>2026-05-02T12:46:30.999Z</time></trkpt><trkpt lat="40.43515338377952" lon="15.745122600867095"><ele>826.0</ele><time>2026-05-02T12:46:32.999Z</time></trkpt><trkpt lat="40.43512743570417" lon="15.745007567819112"><ele>826.0</ele><time>2026-05-02T12:46:34.999Z</time></trkpt><trkpt lat="40.43517775503474" lon="15.74494299443896"><ele>826.0</ele><time>2026-05-02T12:46:35.999Z</time></trkpt><trkpt lat="40.43525823683645" lon="15.744805380051135"><ele>825.9999999999999</ele><time>2026-05-02T12:46:37.999Z</time></trkpt><trkpt lat="40.43532374793697" lon="15.744712539118257"><ele>826.0</ele><time>2026-05-02T12:46:38.998Z</time></trkpt><trkpt lat="40.43536884510272" lon="15.744651357952764"><ele>826.0</ele><time>2026-05-02T12:46:39.998Z</time></trkpt><trkpt lat="40.43546052796872" lon="15.744555240844782"><ele>826.0</ele><time>2026-05-02T12:46:41.998Z</time></trkpt><trkpt lat="40.43550695131496" lon="15.744481057916454"><ele>825.9999999999999</ele><time>2026-05-02T12:46:42.998Z</time></trkpt><trkpt lat="40.435547212255884" lon="15.744405725595424"><ele>826.0</ele><time>2026-05-02T12:46:43.998Z</time></trkpt><trkpt lat="40.43558513703703" lon="15.74430259019988"><ele>826.1999999999999</ele><time>2026-05-02T12:46:44.998Z</time></trkpt><trkpt lat="40.435585558526505" lon="15.744196455389604"><ele>826.4</ele><time>2026-05-02T12:46:45.998Z</time></trkpt><trkpt lat="40.43561631502576" lon="15.744016042850156"><ele>826.6</ele><time>2026-05-02T12:46:47.998Z</time></trkpt><trkpt lat="40.43562204248386" lon="15.743926535916156"><ele>826.8</ele><time>2026-05-02T12:46:48.998Z</time></trkpt><trkpt lat="40.43562751386424" lon="15.7438408337728"><ele>827.0</ele><time>2026-05-02T12:46:49.998Z</time></trkpt><trkpt lat="40.43564418058672" lon="15.743660377153308"><ele>827.8</ele><time>2026-05-02T12:46:51.998Z</time></trkpt><trkpt lat="40.43565725570817" lon="15.743535287362551"><ele>828.6</ele><time>2026-05-02T12:46:52.998Z</time></trkpt><trkpt lat="40.43566800153845" lon="15.743363225030842"><ele>829.4</ele><time>2026-05-02T12:46:54.998Z</time></trkpt><trkpt lat="40.43567908303759" lon="15.743197955041344"><ele>830.1999999999999</ele><time>2026-05-02T12:46:56.998Z</time></trkpt><trkpt lat="40.43568978981506" lon="15.743103133551154"><ele>831.0</ele><time>2026-05-02T12:46:57.998Z</time></trkpt><trkpt lat="40.43570160902577" lon="15.743011679413799"><ele>831.0</ele><time>2026-05-02T12:46:58.998Z</time></trkpt><trkpt lat="40.4357069123608" lon="15.74291107222241"><ele>831.0</ele><time>2026-05-02T12:46:59.998Z</time></trkpt><trkpt lat="40.43574214697303" lon="15.742825382021078"><ele>831.0</ele><time>2026-05-02T12:47:00.998Z</time></trkpt><trkpt lat="40.4357676668537" lon="15.74271998489304"><ele>831.0</ele><time>2026-05-02T12:47:01.998Z</time></trkpt><trkpt lat="40.435789888792826" lon="15.742635455047495"><ele>831.0</ele><time>2026-05-02T12:47:02.998Z</time></trkpt><trkpt lat="40.435858425437964" lon="15.74248796347992"><ele>831.0</ele><time>2026-05-02T12:47:04.998Z</time></trkpt><trkpt lat="40.43589896148105" lon="15.742410526489984"><ele>831.0</ele><time>2026-05-02T12:47:05.998Z</time></trkpt><trkpt lat="40.43594500269422" lon="15.742322572899324"><ele>831.0</ele><time>2026-05-02T12:47:06.998Z</time></trkpt><trkpt lat="40.43599082243078" lon="15.742236612642317"><ele>831.0</ele><time>2026-05-02T12:47:07.998Z</time></trkpt><trkpt lat="40.4360602000048" lon="15.742109250004882"><ele>831.0</ele><time>2026-05-02T12:47:08.998Z</time></trkpt><trkpt lat="40.43615329376162" lon="15.741951155930737"><ele>831.0</ele><time>2026-05-02T12:47:09.998Z</time></trkpt><trkpt lat="40.43627860316358" lon="15.741805042571182"><ele>834.1999999999999</ele><time>2026-05-02T12:47:10.998Z</time></trkpt><trkpt lat="40.436386192870884" lon="15.741691636413782"><ele>837.4</ele><time>2026-05-02T12:47:11.998Z</time></trkpt><trkpt lat="40.43645053726772" lon="15.741602273127775"><ele>840.6</ele><time>2026-05-02T12:47:12.998Z</time></trkpt><trkpt lat="40.43645679699233" lon="15.741698863571145"><ele>843.8</ele><time>2026-05-02T12:47:15.998Z</time></trkpt><trkpt lat="40.43644374920203" lon="15.741797736553446"><ele>847.0</ele><time>2026-05-02T12:47:16.998Z</time></trkpt><trkpt lat="40.43647052031763" lon="15.741880299200355"><ele>846.3333333333333</ele><time>2026-05-02T12:47:17.998Z</time></trkpt><trkpt lat="40.436496474578945" lon="15.74197103645988"><ele>845.6666666666666</ele><time>2026-05-02T12:47:18.998Z</time></trkpt><trkpt lat="40.436539936674414" lon="15.742049013786666"><ele>845.0</ele><time>2026-05-02T12:47:19.998Z</time></trkpt><trkpt lat="40.43658878119943" lon="15.742126138804483"><ele>844.3333333333333</ele><time>2026-05-02T12:47:20.998Z</time></trkpt><trkpt lat="40.43663719679157" lon="15.742195862300013"><ele>843.6666666666666</ele><time>2026-05-02T12:47:21.998Z</time></trkpt><trkpt lat="40.43668600368076" lon="15.74229693676858"><ele>843.0</ele><time>2026-05-02T12:47:24Z</time></trkpt><trkpt lat="40.436749152123085" lon="15.742413505143785"><ele>843.0</ele><time>2026-05-02T12:47:26Z</time></trkpt><trkpt lat="40.43682290386629" lon="15.742515263244046"><ele>843.0</ele><time>2026-05-02T12:47:28Z</time></trkpt><trkpt lat="40.43688845242094" lon="15.742570979515083"><ele>843.0</ele><time>2026-05-02T12:47:29Z</time></trkpt><trkpt lat="40.43694576074039" lon="15.742640350747033"><ele>843.0</ele><time>2026-05-02T12:47:30Z</time></trkpt><trkpt lat="40.436992538836975" lon="15.742720460576736"><ele>843.0</ele><time>2026-05-02T12:47:31Z</time></trkpt><trkpt lat="40.4370447123594" lon="15.742794139158947"><ele>843.0</ele><time>2026-05-02T12:47:32Z</time></trkpt><trkpt lat="40.437101471483025" lon="15.742853468709566"><ele>842.5999999999999</ele><time>2026-05-02T12:47:33Z</time></trkpt><trkpt lat="40.4371657552794" lon="15.742907877963711"><ele>842.1999999999999</ele><time>2026-05-02T12:47:34Z</time></trkpt><trkpt lat="40.437206406163675" lon="15.742976050861795"><ele>841.8</ele><time>2026-05-02T12:47:35Z</time></trkpt><trkpt lat="40.43728730450386" lon="15.743042986645216"><ele>841.4</ele><time>2026-05-02T12:47:36Z</time></trkpt><trkpt lat="40.437405224812046" lon="15.743120126078729"><ele>841.0</ele><time>2026-05-02T12:47:37Z</time></trkpt><trkpt lat="40.43750139041141" lon="15.743178222787755"><ele>841.0</ele><time>2026-05-02T12:47:38Z</time></trkpt><trkpt lat="40.43758613312865" lon="15.743226920797442"><ele>841.0</ele><time>2026-05-02T12:47:39Z</time></trkpt><trkpt lat="40.43768233402617" lon="15.743295414130962"><ele>841.0</ele><time>2026-05-02T12:47:40Z</time></trkpt><trkpt lat="40.437770660405484" lon="15.743373198050394"><ele>841.0</ele><time>2026-05-02T12:47:41Z</time></trkpt><trkpt lat="40.43783950416475" lon="15.743449447339612"><ele>841.0</ele><time>2026-05-02T12:47:42Z</time></trkpt><trkpt lat="40.43790073197917" lon="15.743599957559418"><ele>840.1999999999999</ele><time>2026-05-02T12:47:44Z</time></trkpt><trkpt lat="40.43791373305816" lon="15.743706344572775"><ele>839.4</ele><time>2026-05-02T12:47:45Z</time></trkpt><trkpt lat="40.43795246135095" lon="15.743833530718607"><ele>838.6</ele><time>2026-05-02T12:47:46Z</time></trkpt><trkpt lat="40.437960691995755" lon="15.743952112707845"><ele>837.8</ele><time>2026-05-02T12:47:47Z</time></trkpt><trkpt lat="40.43794349643272" lon="15.744098057319748"><ele>837.0</ele><time>2026-05-02T12:47:49Z</time></trkpt><trkpt lat="40.437997790079464" lon="15.744174157678035"><ele>837.4000000000001</ele><time>2026-05-02T12:47:51Z</time></trkpt><trkpt lat="40.43808487587209" lon="15.744252589803152"><ele>837.8000000000001</ele><time>2026-05-02T12:47:53Z</time></trkpt><trkpt lat="40.43812224667105" lon="15.744359389813976"><ele>838.2</ele><time>2026-05-02T12:47:55Z</time></trkpt><trkpt lat="40.43803347691239" lon="15.744472625784207"><ele>838.6</ele><time>2026-05-02T12:47:57Z</time></trkpt><trkpt lat="40.437963414034385" lon="15.744583491070333"><ele>839.0</ele><time>2026-05-02T12:47:58Z</time></trkpt><trkpt lat="40.437899483855425" lon="15.744682155680842"><ele>837.5000000000001</ele><time>2026-05-02T12:47:58.999Z</time></trkpt><trkpt lat="40.43787452593309" lon="15.744767270783404"><ele>836.0</ele><time>2026-05-02T12:47:59.999Z</time></trkpt><trkpt lat="40.437855799382326" lon="15.744855419554865"><ele>834.5</ele><time>2026-05-02T12:48:00.999Z</time></trkpt><trkpt lat="40.437824664571174" lon="15.744973554217548"><ele>833.0</ele><time>2026-05-02T12:48:01.999Z</time></trkpt><trkpt lat="40.43776953498287" lon="15.74508217307037"><ele>831.5000000000001</ele><time>2026-05-02T12:48:03.999Z</time></trkpt><trkpt lat="40.43772132630116" lon="15.745212285663465"><ele>830.0</ele><time>2026-05-02T12:48:05.999Z</time></trkpt><trkpt lat="40.43775289257757" lon="15.745287630169019"><ele>827.8</ele><time>2026-05-02T12:48:06.999Z</time></trkpt><trkpt lat="40.43784325123081" lon="15.74536129872255"><ele>825.6</ele><time>2026-05-02T12:48:08.999Z</time></trkpt><trkpt lat="40.43791438220855" lon="15.745364662478426"><ele>823.4000000000001</ele><time>2026-05-02T12:48:09.999Z</time></trkpt><trkpt lat="40.43798688855906" lon="15.745357441254036"><ele>821.2</ele><time>2026-05-02T12:48:10.999Z</time></trkpt><trkpt lat="40.43808398360966" lon="15.7453639160272"><ele>819.0</ele><time>2026-05-02T12:48:11.999Z</time></trkpt><trkpt lat="40.43819744755179" lon="15.74533356778695"><ele>819.0</ele><time>2026-05-02T12:48:12.999Z</time></trkpt><trkpt lat="40.43831285592901" lon="15.745325971351463"><ele>819.0</ele><time>2026-05-02T12:48:13.999Z</time></trkpt><trkpt lat="40.438417589725454" lon="15.745343984071171"><ele>819.0</ele><time>2026-05-02T12:48:14.999Z</time></trkpt><trkpt lat="40.43850605886948" lon="15.745376175424603"><ele>819.0</ele><time>2026-05-02T12:48:15.999Z</time></trkpt><trkpt lat="40.438605609748414" lon="15.745374872624753"><ele>819.0</ele><time>2026-05-02T12:48:16.999Z</time></trkpt><trkpt lat="40.438705608029515" lon="15.745400025364779"><ele>819.0</ele><time>2026-05-02T12:48:17.999Z</time></trkpt><trkpt lat="40.438785294596364" lon="15.745448892876448"><ele>819.0</ele><time>2026-05-02T12:48:18.999Z</time></trkpt><trkpt lat="40.43886171306987" lon="15.745438498925704"><ele>819.0</ele><time>2026-05-02T12:48:19.999Z</time></trkpt><trkpt lat="40.43895961886658" lon="15.74546677441497"><ele>819.0</ele><time>2026-05-02T12:48:20.999Z</time></trkpt><trkpt lat="40.43903619359013" lon="15.745477206675973"><ele>819.0</ele><time>2026-05-02T12:48:21.999Z</time></trkpt><trkpt lat="40.439053590678355" lon="15.74564371216873"><ele>819.0</ele><time>2026-05-02T12:48:25.999Z</time></trkpt><trkpt lat="40.43895127484212" lon="15.745676673875394"><ele>819.0</ele><time>2026-05-02T12:48:27.999Z</time></trkpt><trkpt lat="40.43888502323084" lon="15.745699013871315"><ele>819.0</ele><time>2026-05-02T12:48:28.999Z</time></trkpt><trkpt lat="40.43880586734709" lon="15.745743975258815"><ele>819.0</ele><time>2026-05-02T12:48:29.999Z</time></trkpt><trkpt lat="40.438746295300646" lon="15.745777584698136"><ele>819.0</ele><time>2026-05-02T12:48:30.999Z</time></trkpt><trkpt lat="40.43868918204767" lon="15.745821162322981"><ele>819.0</ele><time>2026-05-02T12:48:31.999Z</time></trkpt><trkpt lat="40.438638816812905" lon="15.745876734180236"><ele>819.0</ele><time>2026-05-02T12:48:32.999Z</time></trkpt><trkpt lat="40.438572428238835" lon="15.745950872459685"><ele>819.0</ele><time>2026-05-02T12:48:34.999Z</time></trkpt><trkpt lat="40.43852185872396" lon="15.746007178541783"><ele>819.0</ele><time>2026-05-02T12:48:36.999Z</time></trkpt><trkpt lat="40.438482890521186" lon="15.746101619203777"><ele>819.0</ele><time>2026-05-02T12:48:40.999Z</time></trkpt><trkpt lat="40.43844423130506" lon="15.746205397686694"><ele>819.0</ele><time>2026-05-02T12:48:43.999Z</time></trkpt><trkpt lat="40.43835482853455" lon="15.74625896765198"><ele>819.0</ele><time>2026-05-02T12:48:45.999Z</time></trkpt><trkpt lat="40.43826010262911" lon="15.74629118062654"><ele>817.5</ele><time>2026-05-02T12:48:47.999Z</time></trkpt><trkpt lat="40.43817873300779" lon="15.746286988699543"><ele>816.0</ele><time>2026-05-02T12:48:50.998Z</time></trkpt><trkpt lat="40.43811307913072" lon="15.746309642504015"><ele>814.5</ele><time>2026-05-02T12:48:52.998Z</time></trkpt><trkpt lat="40.43804849965374" lon="15.74635577636628"><ele>813.0</ele><time>2026-05-02T12:48:54.998Z</time></trkpt><trkpt lat="40.43799240653079" lon="15.74646063078585"><ele>811.5</ele><time>2026-05-02T12:48:58.998Z</time></trkpt><trkpt lat="40.43794512011627" lon="15.746523902069267"><ele>810.0</ele><time>2026-05-02T12:48:59.998Z</time></trkpt><trkpt lat="40.43786280873778" lon="15.746609893666832"><ele>809.7142857142857</ele><time>2026-05-02T12:49:01.998Z</time></trkpt><trkpt lat="40.43780795539364" lon="15.74665092298184"><ele>809.4285714285714</ele><time>2026-05-02T12:49:02.998Z</time></trkpt><trkpt lat="40.43778197019993" lon="15.746731659054271"><ele>809.1428571428571</ele><time>2026-05-02T12:56:23Z</time></trkpt><trkpt lat="40.43783423709513" lon="15.746781246959099"><ele>808.8571428571429</ele><time>2026-05-02T12:56:37.999Z</time></trkpt><trkpt lat="40.43776513022802" lon="15.746769970094121"><ele>808.5714285714286</ele><time>2026-05-02T12:58:19Z</time></trkpt><trkpt lat="40.43771629910714" lon="15.746712616919144"><ele>808.2857142857142</ele><time>2026-05-02T12:58:25Z</time></trkpt><trkpt lat="40.437667295842054" lon="15.746771420436918"><ele>808.0</ele><time>2026-05-02T12:59:19.999Z</time></trkpt><trkpt lat="40.43761241748931" lon="15.746820511235654"><ele>808.0</ele><time>2026-05-02T12:59:46.998Z</time></trkpt><trkpt lat="40.43754809184637" lon="15.746864015198666"><ele>808.0</ele><time>2026-05-02T13:00:26Z</time></trkpt><trkpt lat="40.437481335738696" lon="15.746850999800902"><ele>808.0</ele><time>2026-05-02T13:01:29.998Z</time></trkpt><trkpt lat="40.437550860857286" lon="15.746832741146305"><ele>808.0</ele><time>2026-05-02T13:01:47.998Z</time></trkpt><trkpt lat="40.43759798396967" lon="15.746768913659048"><ele>808.0</ele><time>2026-05-02T13:01:56.998Z</time></trkpt><trkpt lat="40.43766610619942" lon="15.746730609948504"><ele>808.0</ele><time>2026-05-02T13:02:17Z</time></trkpt><trkpt lat="40.43771700857241" lon="15.746659907384302"><ele>808.0</ele><time>2026-05-02T13:02:33Z</time></trkpt><trkpt lat="40.43775820973782" lon="15.746572598529312"><ele>807.9999999999999</ele><time>2026-05-02T13:05:48.998Z</time></trkpt><trkpt lat="40.43781325201763" lon="15.746510817258166"><ele>808.0</ele><time>2026-05-02T13:05:50.998Z</time></trkpt><trkpt lat="40.437864232437214" lon="15.746452579969096"><ele>808.0</ele><time>2026-05-02T13:05:52.998Z</time></trkpt><trkpt lat="40.437925265962754" lon="15.746398708917555"><ele>808.0</ele><time>2026-05-02T13:05:54.998Z</time></trkpt><trkpt lat="40.437999411502076" lon="15.74634891669176"><ele>807.9999999999999</ele><time>2026-05-02T13:05:57.998Z</time></trkpt><trkpt lat="40.43806986157132" lon="15.7462993569499"><ele>808.0</ele><time>2026-05-02T13:05:59.998Z</time></trkpt><trkpt lat="40.43814821208583" lon="15.74628523462473"><ele>808.3333333333333</ele><time>2026-05-02T13:06:01.998Z</time></trkpt><trkpt lat="40.438241997402564" lon="15.746281364204235"><ele>808.6666666666666</ele><time>2026-05-02T13:06:03.998Z</time></trkpt><trkpt lat="40.43832554695208" lon="15.746259429994788"><ele>809.0</ele><time>2026-05-02T13:06:05.998Z</time></trkpt><trkpt lat="40.43841174553444" lon="15.746221058710269"><ele>809.3333333333333</ele><time>2026-05-02T13:06:07.998Z</time></trkpt><trkpt lat="40.43845423125379" lon="15.746120111985865"><ele>809.6666666666666</ele><time>2026-05-02T13:06:10.998Z</time></trkpt><trkpt lat="40.43839869254734" lon="15.74606575836998"><ele>810.0</ele><time>2026-05-02T13:06:26Z</time></trkpt><trkpt lat="40.43831415667473" lon="15.746064225083469"><ele>810.0</ele><time>2026-05-02T13:06:28Z</time></trkpt><trkpt lat="40.43824444869914" lon="15.746074196337142"><ele>810.0</ele><time>2026-05-02T13:06:29Z</time></trkpt><trkpt lat="40.43812092766793" lon="15.7460855258587"><ele>810.0</ele><time>2026-05-02T13:06:31Z</time></trkpt><trkpt lat="40.438048380352996" lon="15.74610608731061"><ele>810.0</ele><time>2026-05-02T13:06:32Z</time></trkpt><trkpt lat="40.437987992230134" lon="15.74612981772824"><ele>810.0</ele><time>2026-05-02T13:06:33Z</time></trkpt><trkpt lat="40.43787534018912" lon="15.746153329944567"><ele>810.0</ele><time>2026-05-02T13:06:35Z</time></trkpt><trkpt lat="40.43781258130752" lon="15.746166724237257"><ele>809.6</ele><time>2026-05-02T13:06:36Z</time></trkpt><trkpt lat="40.43774887537494" lon="15.746180448118476"><ele>809.2</ele><time>2026-05-02T13:06:37Z</time></trkpt><trkpt lat="40.43763762217549" lon="15.7461974819276"><ele>808.8</ele><time>2026-05-02T13:06:39Z</time></trkpt><trkpt lat="40.43755675632233" lon="15.746207491803629"><ele>808.4</ele><time>2026-05-02T13:06:41Z</time></trkpt><trkpt lat="40.43746594214831" lon="15.746211182265505"><ele>808.0</ele><time>2026-05-02T13:06:43Z</time></trkpt><trkpt lat="40.43736849256153" lon="15.746248271510817"><ele>807.9999999999999</ele><time>2026-05-02T13:06:45Z</time></trkpt><trkpt lat="40.43729212879927" lon="15.746247068531519"><ele>808.0</ele><time>2026-05-02T13:06:47Z</time></trkpt><trkpt lat="40.437197352773765" lon="15.746258092248343"><ele>808.0</ele><time>2026-05-02T13:06:49Z</time></trkpt><trkpt lat="40.43711044358754" lon="15.74634823868672"><ele>808.0</ele><time>2026-05-02T13:06:51Z</time></trkpt><trkpt lat="40.43703276356566" lon="15.746414271283316"><ele>807.9999999999999</ele><time>2026-05-02T13:06:53Z</time></trkpt><trkpt lat="40.436969880510915" lon="15.746449746057497"><ele>808.0</ele><time>2026-05-02T13:06:55Z</time></trkpt><trkpt lat="40.436908924672295" lon="15.746514992547349"><ele>808.1666666666666</ele><time>2026-05-02T13:06:56.999Z</time></trkpt><trkpt lat="40.436827673374744" lon="15.746564398330781"><ele>808.3333333333333</ele><time>2026-05-02T13:06:58.999Z</time></trkpt><trkpt lat="40.436751503414904" lon="15.746613343582704"><ele>808.5</ele><time>2026-05-02T13:07:00.999Z</time></trkpt><trkpt lat="40.43667275182237" lon="15.746691344979233"><ele>808.6666666666667</ele><time>2026-05-02T13:07:03.999Z</time></trkpt><trkpt lat="40.436617223229696" lon="15.74676630715465"><ele>808.8333333333334</ele><time>2026-05-02T13:07:05.999Z</time></trkpt><trkpt lat="40.43657873691698" lon="15.74684497287513"><ele>809.0</ele><time>2026-05-02T13:07:07.999Z</time></trkpt><trkpt lat="40.43655854366128" lon="15.746936801966452"><ele>808.4000000000001</ele><time>2026-05-02T13:07:10.999Z</time></trkpt><trkpt lat="40.43652239648302" lon="15.747028837680727"><ele>807.8</ele><time>2026-05-02T13:07:16.999Z</time></trkpt><trkpt lat="40.43645896742561" lon="15.747102766410316"><ele>807.2</ele><time>2026-05-02T13:07:19.999Z</time></trkpt><trkpt lat="40.43636599171438" lon="15.747122135881572"><ele>806.5999999999999</ele><time>2026-05-02T13:07:23.999Z</time></trkpt><trkpt lat="40.43623846473971" lon="15.747199340475698"><ele>806.0</ele><time>2026-05-02T13:07:25.999Z</time></trkpt><trkpt lat="40.43617457242842" lon="15.747215480951313"><ele>806.0</ele><time>2026-05-02T13:07:26.999Z</time></trkpt><trkpt lat="40.43607267192682" lon="15.747220464312464"><ele>806.0</ele><time>2026-05-02T13:07:28.999Z</time></trkpt><trkpt lat="40.435966000736435" lon="15.747196059190788"><ele>806.0</ele><time>2026-05-02T13:07:30.999Z</time></trkpt><trkpt lat="40.43589190432084" lon="15.747168372029906"><ele>806.0</ele><time>2026-05-02T13:07:32.999Z</time></trkpt><trkpt lat="40.43579328805341" lon="15.74719199757335"><ele>806.0</ele><time>2026-05-02T13:07:43.999Z</time></trkpt><trkpt lat="40.43572551210988" lon="15.74721641279757"><ele>806.0</ele><time>2026-05-02T13:07:47.998Z</time></trkpt><trkpt lat="40.435659649587656" lon="15.747196117557815"><ele>806.0</ele><time>2026-05-02T13:07:50.998Z</time></trkpt><trkpt lat="40.435589122316465" lon="15.747193382832837"><ele>806.0</ele><time>2026-05-02T13:07:53.998Z</time></trkpt><trkpt lat="40.43549775587051" lon="15.747265430388282"><ele>806.0</ele><time>2026-05-02T13:08:12.998Z</time></trkpt><trkpt lat="40.43539665844475" lon="15.747060322535633"><ele>806.0</ele><time>2026-05-02T13:08:17.998Z</time></trkpt><trkpt lat="40.43532251618916" lon="15.747055869975595"><ele>806.0000000000001</ele><time>2026-05-02T13:08:19.998Z</time></trkpt><trkpt lat="40.4352219307731" lon="15.747016344039869"><ele>806.0</ele><time>2026-05-02T13:08:21.998Z</time></trkpt><trkpt lat="40.4351365390779" lon="15.74696168582098"><ele>806.0</ele><time>2026-05-02T13:08:25Z</time></trkpt><trkpt lat="40.435075886753175" lon="15.746910018635177"><ele>806.0</ele><time>2026-05-02T13:08:27Z</time></trkpt><trkpt lat="40.43499591778071" lon="15.746857938781666"><ele>806.0000000000001</ele><time>2026-05-02T13:08:29Z</time></trkpt><trkpt lat="40.434914736250285" lon="15.746902082121485"><ele>806.0</ele><time>2026-05-02T13:08:31Z</time></trkpt><trkpt lat="40.434844914308954" lon="15.746947283466817"><ele>806.0000000000001</ele><time>2026-05-02T13:08:35Z</time></trkpt><trkpt lat="40.43477460040574" lon="15.746923958284013"><ele>806.0</ele><time>2026-05-02T13:08:38Z</time></trkpt><trkpt lat="40.43468148407677" lon="15.746849699219087"><ele>806.0</ele><time>2026-05-02T13:08:42Z</time></trkpt><trkpt lat="40.43459930805624" lon="15.74681177702049"><ele>806.0</ele><time>2026-05-02T13:08:44Z</time></trkpt><trkpt lat="40.43450563227015" lon="15.746783733823523"><ele>806.0000000000001</ele><time>2026-05-02T13:08:46Z</time></trkpt><trkpt lat="40.434428096388054" lon="15.74675050473319"><ele>806.0</ele><time>2026-05-02T13:08:48Z</time></trkpt><trkpt lat="40.43436346992602" lon="15.746746104194505"><ele>804.5714285714286</ele><time>2026-05-02T13:08:49Z</time></trkpt><trkpt lat="40.43426102693163" lon="15.746741550355939"><ele>803.1428571428571</ele><time>2026-05-02T13:08:51Z</time></trkpt><trkpt lat="40.43419707798963" lon="15.746750480621717"><ele>801.7142857142857</ele><time>2026-05-02T13:08:52Z</time></trkpt><trkpt lat="40.43411686825214" lon="15.746777580484379"><ele>800.2857142857142</ele><time>2026-05-02T13:08:54Z</time></trkpt><trkpt lat="40.43405369928739" lon="15.746781023769573"><ele>798.8571428571429</ele><time>2026-05-02T13:08:56Z</time></trkpt><trkpt lat="40.4339878186565" lon="15.746768509732478"><ele>797.4285714285713</ele><time>2026-05-02T13:08:58Z</time></trkpt><trkpt lat="40.433932496978485" lon="15.746719086497249"><ele>796.0</ele><time>2026-05-02T13:09:00.999Z</time></trkpt><trkpt lat="40.434054912337146" lon="15.746730663235937"><ele>795.9999999999999</ele><time>2026-05-02T13:09:15.999Z</time></trkpt><trkpt lat="40.43412724349341" lon="15.746734235970946"><ele>796.0</ele><time>2026-05-02T13:09:17.999Z</time></trkpt><trkpt lat="40.434222471244695" lon="15.74672531613068"><ele>796.0</ele><time>2026-05-02T13:09:18.999Z</time></trkpt><trkpt lat="40.43430796830704" lon="15.746718390610319"><ele>796.0</ele><time>2026-05-02T13:09:19.999Z</time></trkpt><trkpt lat="40.434378004655095" lon="15.746708235979217"><ele>795.9999999999999</ele><time>2026-05-02T13:09:20.999Z</time></trkpt><trkpt lat="40.43448939289012" lon="15.746746937021848"><ele>796.0</ele><time>2026-05-02T13:09:22.999Z</time></trkpt><trkpt lat="40.4345556727193" lon="15.746830534297642"><ele>795.9999999999999</ele><time>2026-05-02T13:09:24.999Z</time></trkpt><trkpt lat="40.434632647331895" lon="15.746841295192803"><ele>796.0</ele><time>2026-05-02T13:09:26.999Z</time></trkpt><trkpt lat="40.43470178359529" lon="15.746866323625182"><ele>796.0</ele><time>2026-05-02T13:09:28.999Z</time></trkpt><trkpt lat="40.434787032317736" lon="15.746914822313169"><ele>796.0</ele><time>2026-05-02T13:09:31.999Z</time></trkpt><trkpt lat="40.434851903498284" lon="15.746951880030412"><ele>795.9999999999999</ele><time>2026-05-02T13:09:33.999Z</time></trkpt><trkpt lat="40.43492464793899" lon="15.74692718257044"><ele>796.0</ele><time>2026-05-02T13:09:35.999Z</time></trkpt><trkpt lat="40.43500815201893" lon="15.746901755807242"><ele>796.4</ele><time>2026-05-02T13:09:37.999Z</time></trkpt><trkpt lat="40.43508753736382" lon="15.746898427338792"><ele>796.8</ele><time>2026-05-02T13:09:39.999Z</time></trkpt><trkpt lat="40.43513321238553" lon="15.74696029051707"><ele>797.1999999999999</ele><time>2026-05-02T13:09:41.999Z</time></trkpt><trkpt lat="40.43523404397518" lon="15.746994519819628"><ele>797.5999999999999</ele><time>2026-05-02T13:09:45.999Z</time></trkpt><trkpt lat="40.43533689548337" lon="15.747051636441064"><ele>798.0</ele><time>2026-05-02T13:09:48.998Z</time></trkpt><trkpt lat="40.435462327450225" lon="15.747120548440597"><ele>799.5999999999999</ele><time>2026-05-02T13:09:50.998Z</time></trkpt><trkpt lat="40.43554165917762" lon="15.747197854019001"><ele>801.1999999999999</ele><time>2026-05-02T13:09:52.998Z</time></trkpt><trkpt lat="40.43563479864197" lon="15.747204344752847"><ele>802.8</ele><time>2026-05-02T13:09:54.998Z</time></trkpt><trkpt lat="40.43572748602294" lon="15.747190753756145"><ele>804.4</ele><time>2026-05-02T13:09:56.998Z</time></trkpt><trkpt lat="40.43579720943977" lon="15.747152776822249"><ele>806.0</ele><time>2026-05-02T13:09:58.998Z</time></trkpt><trkpt lat="40.43589459403995" lon="15.747158712831679"><ele>806.0000000000001</ele><time>2026-05-02T13:10:00.998Z</time></trkpt><trkpt lat="40.435971429668065" lon="15.747183518908345"><ele>806.0</ele><time>2026-05-02T13:10:02.998Z</time></trkpt><trkpt lat="40.436082732186364" lon="15.747178723195802"><ele>806.0</ele><time>2026-05-02T13:10:05.998Z</time></trkpt><trkpt lat="40.436158379457005" lon="15.747185332657823"><ele>806.0</ele><time>2026-05-02T13:10:07.998Z</time></trkpt><trkpt lat="40.43623476504012" lon="15.747183569387158"><ele>806.0000000000001</ele><time>2026-05-02T13:10:09.998Z</time></trkpt><trkpt lat="40.43631872515249" lon="15.747147790975802"><ele>806.0</ele><time>2026-05-02T13:10:13.998Z</time></trkpt><trkpt lat="40.43637296390756" lon="15.74710306743341"><ele>806.0000000000001</ele><time>2026-05-02T13:10:17.998Z</time></trkpt><trkpt lat="40.436435098276405" lon="15.747086469333292"><ele>806.0</ele><time>2026-05-02T13:10:20.998Z</time></trkpt><trkpt lat="40.43649937582465" lon="15.747076542113412"><ele>806.0</ele><time>2026-05-02T13:10:24.998Z</time></trkpt><trkpt lat="40.43653762691194" lon="15.747010592568442"><ele>806.0</ele><time>2026-05-02T13:10:27.998Z</time></trkpt><trkpt lat="40.436544820608994" lon="15.746851260905393"><ele>806.0000000000001</ele><time>2026-05-02T13:10:30.999Z</time></trkpt><trkpt lat="40.43660272957088" lon="15.746780322310983"><ele>806.0</ele><time>2026-05-02T13:10:34.999Z</time></trkpt><trkpt lat="40.43665702490282" lon="15.746690467742642"><ele>806.5000000000001</ele><time>2026-05-02T13:10:36.999Z</time></trkpt><trkpt lat="40.43671302505188" lon="15.746652339189591"><ele>807.0</ele><time>2026-05-02T13:10:38.999Z</time></trkpt><trkpt lat="40.43679628638729" lon="15.746581039758137"><ele>807.5</ele><time>2026-05-02T13:10:39.999Z</time></trkpt><trkpt lat="40.43686972786929" lon="15.746542856092363"><ele>808.0</ele><time>2026-05-02T13:10:42Z</time></trkpt><trkpt lat="40.43694284783479" lon="15.746491158655195"><ele>808.5000000000001</ele><time>2026-05-02T13:10:44Z</time></trkpt><trkpt lat="40.43701395209379" lon="15.746435217316247"><ele>809.0</ele><time>2026-05-02T13:10:45.999Z</time></trkpt><trkpt lat="40.43708595576778" lon="15.746360561331251"><ele>808.8333333333334</ele><time>2026-05-02T13:10:47.999Z</time></trkpt><trkpt lat="40.43714657781154" lon="15.746314490216959"><ele>808.6666666666667</ele><time>2026-05-02T13:10:48.999Z</time></trkpt><trkpt lat="40.43721377087412" lon="15.746287861477217"><ele>808.5</ele><time>2026-05-02T13:10:49.999Z</time></trkpt><trkpt lat="40.43733105063807" lon="15.74629443296399"><ele>808.3333333333333</ele><time>2026-05-02T13:10:51.999Z</time></trkpt><trkpt lat="40.437415034156615" lon="15.746290988436362"><ele>808.1666666666666</ele><time>2026-05-02T13:10:53.999Z</time></trkpt><trkpt lat="40.43750303198984" lon="15.746234986264756"><ele>808.0</ele><time>2026-05-02T13:10:55.999Z</time></trkpt><trkpt lat="40.437582628551546" lon="15.746217062970215"><ele>807.9999999999999</ele><time>2026-05-02T13:10:57.999Z</time></trkpt><trkpt lat="40.437645884994375" lon="15.746202664140116"><ele>808.0</ele><time>2026-05-02T13:10:58.999Z</time></trkpt><trkpt lat="40.43771401636996" lon="15.74618885146367"><ele>808.0</ele><time>2026-05-02T13:10:59.999Z</time></trkpt><trkpt lat="40.43782101864647" lon="15.746163013568736"><ele>808.0</ele><time>2026-05-02T13:11:01.999Z</time></trkpt><trkpt lat="40.43788863398555" lon="15.74614708040906"><ele>807.9999999999999</ele><time>2026-05-02T13:11:02.999Z</time></trkpt><trkpt lat="40.437979039081014" lon="15.74613714942171"><ele>808.0</ele><time>2026-05-02T13:11:03.999Z</time></trkpt><trkpt lat="40.438043433735075" lon="15.746116365704712"><ele>808.5</ele><time>2026-05-02T13:11:04.999Z</time></trkpt><trkpt lat="40.43817790732228" lon="15.746095393050048"><ele>809.0</ele><time>2026-05-02T13:11:06.999Z</time></trkpt><trkpt lat="40.43830357735064" lon="15.746073868271454"><ele>809.5</ele><time>2026-05-02T13:11:08.999Z</time></trkpt><trkpt lat="40.438414985175946" lon="15.746094754967636"><ele>810.0</ele><time>2026-05-02T13:11:10.999Z</time></trkpt><trkpt lat="40.438505101982365" lon="15.746017391435048"><ele>811.5</ele><time>2026-05-02T13:11:12.999Z</time></trkpt><trkpt lat="40.43856484833016" lon="15.745940538036017"><ele>813.0</ele><time>2026-05-02T13:11:13.999Z</time></trkpt><trkpt lat="40.438620154388104" lon="15.745892874250076"><ele>814.5</ele><time>2026-05-02T13:11:14.999Z</time></trkpt><trkpt lat="40.438696134213934" lon="15.745844252100975"><ele>816.0</ele><time>2026-05-02T13:11:15.999Z</time></trkpt><trkpt lat="40.43876628418544" lon="15.745767528642693"><ele>817.5</ele><time>2026-05-02T13:11:16.999Z</time></trkpt><trkpt lat="40.43885456897083" lon="15.745731864715607"><ele>819.0</ele><time>2026-05-02T13:11:17.999Z</time></trkpt><trkpt lat="40.43891575277178" lon="15.745710927989618"><ele>819.0</ele><time>2026-05-02T13:11:18.999Z</time></trkpt><trkpt lat="40.43899007218891" lon="15.745725492898037"><ele>819.0</ele><time>2026-05-02T13:11:20.999Z</time></trkpt><trkpt lat="40.43902231298507" lon="15.745826116033383"><ele>819.0</ele><time>2026-05-02T13:11:22.999Z</time></trkpt><trkpt lat="40.439047048978445" lon="15.745941966593445"><ele>819.0</ele><time>2026-05-02T13:11:24.999Z</time></trkpt><trkpt lat="40.43909809024913" lon="15.746029668118293"><ele>819.0</ele><time>2026-05-02T13:11:26.999Z</time></trkpt><trkpt lat="40.43911223217603" lon="15.746125080301598"><ele>819.0</ele><time>2026-05-02T13:11:30.999Z</time></trkpt><trkpt lat="40.4390628833407" lon="15.746229534303849"><ele>818.7142857142857</ele><time>2026-05-02T13:11:33.999Z</time></trkpt><trkpt lat="40.43902158390476" lon="15.746297835203203"><ele>818.4285714285714</ele><time>2026-05-02T13:11:35.999Z</time></trkpt><trkpt lat="40.438965496831194" lon="15.746354673361425"><ele>818.1428571428571</ele><time>2026-05-02T13:11:36.999Z</time></trkpt><trkpt lat="40.43889429482554" lon="15.746391023613473"><ele>817.8571428571429</ele><time>2026-05-02T13:11:38.999Z</time></trkpt><trkpt lat="40.43881105851162" lon="15.746333526260042"><ele>817.5714285714286</ele><time>2026-05-02T13:12:05.998Z</time></trkpt><trkpt lat="40.438732987395134" lon="15.746338505696052"><ele>817.2857142857142</ele><time>2026-05-02T13:12:08.998Z</time></trkpt><trkpt lat="40.43867159457877" lon="15.746357339687124"><ele>817.0</ele><time>2026-05-02T13:12:17.998Z</time></trkpt><trkpt lat="40.4386339825953" lon="15.746430277492998"><ele>815.9999999999999</ele><time>2026-05-02T13:12:19.998Z</time></trkpt><trkpt lat="40.43856892000597" lon="15.746472702631525"><ele>815.0</ele><time>2026-05-02T13:12:22.998Z</time></trkpt><trkpt lat="40.43851259074859" lon="15.746392796633632"><ele>814.0</ele><time>2026-05-02T13:12:44.999Z</time></trkpt><trkpt lat="40.438448619198645" lon="15.746395140860702"><ele>813.0</ele><time>2026-05-02T13:12:48Z</time></trkpt><trkpt lat="40.438390938520776" lon="15.746430560578515"><ele>812.0</ele><time>2026-05-02T13:12:51Z</time></trkpt><trkpt lat="40.438326796931314" lon="15.746445695237217"><ele>810.9999999999999</ele><time>2026-05-02T13:12:55.999Z</time></trkpt><trkpt lat="40.4383226379355" lon="15.746528286363784"><ele>810.0</ele><time>2026-05-02T13:14:11.998Z</time></trkpt><trkpt lat="40.43831926554212" lon="15.746613924457035"><ele>809.9999999999999</ele><time>2026-05-02T13:14:27.998Z</time></trkpt><trkpt lat="40.43832312529564" lon="15.746706476902954"><ele>810.0</ele><time>2026-05-02T13:14:36.998Z</time></trkpt><trkpt lat="40.43825961464422" lon="15.74674972782912"><ele>810.0</ele><time>2026-05-02T13:14:49Z</time></trkpt><trkpt lat="40.43830530478833" lon="15.746808144625206"><ele>810.0</ele><time>2026-05-02T13:15:10Z</time></trkpt><trkpt lat="40.43828940170223" lon="15.746897182452734"><ele>810.0</ele><time>2026-05-02T13:15:30.999Z</time></trkpt><trkpt lat="40.43823178951676" lon="15.746970233075977"><ele>809.9999999999999</ele><time>2026-05-02T13:15:59.999Z</time></trkpt><trkpt lat="40.438250461483506" lon="15.746889676991268"><ele>810.0</ele><time>2026-05-02T13:18:35.998Z</time></trkpt><trkpt lat="40.43825126379881" lon="15.746802002314817"><ele>810.0</ele><time>2026-05-02T13:18:55Z</time></trkpt><trkpt lat="40.438244793508225" lon="15.746671965967755"><ele>810.0</ele><time>2026-05-02T13:19:19Z</time></trkpt><trkpt lat="40.43826015070401" lon="15.746590544856321"><ele>810.0</ele><time>2026-05-02T13:19:32Z</time></trkpt><trkpt lat="40.43828938339702" lon="15.746510648408739"><ele>810.0</ele><time>2026-05-02T13:19:53.999Z</time></trkpt><trkpt lat="40.43836603006345" lon="15.746441270082485"><ele>810.0</ele><time>2026-05-02T13:21:15Z</time></trkpt><trkpt lat="40.43841426987691" lon="15.746375256655915"><ele>810.0</ele><time>2026-05-02T13:21:17Z</time></trkpt><trkpt lat="40.43849852729486" lon="15.746415256429692"><ele>810.0</ele><time>2026-05-02T13:21:20Z</time></trkpt><trkpt lat="40.43857495856942" lon="15.746456960272926"><ele>810.0</ele><time>2026-05-02T13:21:23Z</time></trkpt><trkpt lat="40.43865908939311" lon="15.746361502632038"><ele>810.0</ele><time>2026-05-02T13:21:26Z</time></trkpt><trkpt lat="40.438715035197106" lon="15.746317644648805"><ele>810.0</ele><time>2026-05-02T13:21:28Z</time></trkpt><trkpt lat="40.43878279477965" lon="15.746337304910192"><ele>810.0</ele><time>2026-05-02T13:21:31Z</time></trkpt><trkpt lat="40.43891364138839" lon="15.74628166043254"><ele>811.1666666666666</ele><time>2026-05-02T13:21:35Z</time></trkpt><trkpt lat="40.43900934222103" lon="15.746208121103425"><ele>812.3333333333333</ele><time>2026-05-02T13:21:37Z</time></trkpt><trkpt lat="40.43904807773438" lon="15.746123459780444"><ele>813.5</ele><time>2026-05-02T13:21:39Z</time></trkpt><trkpt lat="40.439063615159995" lon="15.746026226794386"><ele>814.6666666666666</ele><time>2026-05-02T13:21:42Z</time></trkpt><trkpt lat="40.439034891167104" lon="15.745936574435543"><ele>815.8333333333333</ele><time>2026-05-02T13:21:43.999Z</time></trkpt><trkpt lat="40.43899247485936" lon="15.745838176464686"><ele>817.0</ele><time>2026-05-02T13:21:45.999Z</time></trkpt><trkpt lat="40.43898566298153" lon="15.745691857572755"><ele>817.3333333333333</ele><time>2026-05-02T13:21:47.999Z</time></trkpt><trkpt lat="40.438994609847164" lon="15.745600612929438"><ele>817.6666666666666</ele><time>2026-05-02T13:21:49.999Z</time></trkpt><trkpt lat="40.43902164944506" lon="15.745487902758471"><ele>818.0</ele><time>2026-05-02T13:21:51.999Z</time></trkpt><trkpt lat="40.43913789959759" lon="15.745497486681508"><ele>818.3333333333333</ele><time>2026-05-02T13:21:54.999Z</time></trkpt><trkpt lat="40.439235496948854" lon="15.745514302853572"><ele>818.6666666666666</ele><time>2026-05-02T13:21:56.999Z</time></trkpt><trkpt lat="40.4393044854155" lon="15.745528404315976"><ele>819.0</ele><time>2026-05-02T13:21:57.999Z</time></trkpt><trkpt lat="40.43938897477774" lon="15.74554058830633"><ele>819.0</ele><time>2026-05-02T13:21:59.999Z</time></trkpt><trkpt lat="40.43947914557499" lon="15.745558781837323"><ele>819.0</ele><time>2026-05-02T13:22:01.999Z</time></trkpt><trkpt lat="40.4395709152479" lon="15.745580645080738"><ele>819.0</ele><time>2026-05-02T13:22:03.999Z</time></trkpt><trkpt lat="40.43966107608151" lon="15.745599116353818"><ele>819.0</ele><time>2026-05-02T13:22:05.999Z</time></trkpt><trkpt lat="40.439757332759946" lon="15.745645904728342"><ele>819.0</ele><time>2026-05-02T13:22:07.999Z</time></trkpt><trkpt lat="40.43982963627757" lon="15.74567787529344"><ele>819.5</ele><time>2026-05-02T13:22:08.999Z</time></trkpt><trkpt lat="40.43990470312582" lon="15.745739923228854"><ele>820.0</ele><time>2026-05-02T13:22:09.999Z</time></trkpt><trkpt lat="40.43998573157375" lon="15.74577141424463"><ele>820.5</ele><time>2026-05-02T13:22:10.999Z</time></trkpt><trkpt lat="40.44006282292314" lon="15.745788445982084"><ele>821.0</ele><time>2026-05-02T13:22:11.999Z</time></trkpt><trkpt lat="40.44013889341801" lon="15.745819223478561"><ele>821.5</ele><time>2026-05-02T13:22:12.999Z</time></trkpt><trkpt lat="40.44021797581927" lon="15.74586800700171"><ele>822.0</ele><time>2026-05-02T13:22:13.999Z</time></trkpt><trkpt lat="40.44031002980621" lon="15.745926236170424"><ele>822.0</ele><time>2026-05-02T13:22:14.999Z</time></trkpt><trkpt lat="40.44040331565939" lon="15.745994649303622"><ele>822.0</ele><time>2026-05-02T13:22:15.999Z</time></trkpt><trkpt lat="40.440489301148475" lon="15.746091265394515"><ele>822.0</ele><time>2026-05-02T13:22:16.999Z</time></trkpt><trkpt lat="40.44060131679218" lon="15.746194642192794"><ele>822.0</ele><time>2026-05-02T13:22:17.999Z</time></trkpt><trkpt lat="40.440727806883615" lon="15.746267320093136"><ele>823.5</ele><time>2026-05-02T13:22:18.999Z</time></trkpt><trkpt lat="40.44083840055135" lon="15.746334152061895"><ele>825.0</ele><time>2026-05-02T13:22:19.999Z</time></trkpt><trkpt lat="40.440942436867616" lon="15.746412321689569"><ele>826.5</ele><time>2026-05-02T13:22:20.999Z</time></trkpt><trkpt lat="40.441048647458096" lon="15.746485158931492"><ele>828.0</ele><time>2026-05-02T13:22:21.999Z</time></trkpt><trkpt lat="40.441161250203585" lon="15.746584976872484"><ele>828.0</ele><time>2026-05-02T13:22:22.999Z</time></trkpt><trkpt lat="40.44126102928766" lon="15.74665366462869"><ele>828.0</ele><time>2026-05-02T13:22:23.999Z</time></trkpt><trkpt lat="40.44135491786439" lon="15.746725248324287"><ele>828.0</ele><time>2026-05-02T13:22:24.999Z</time></trkpt><trkpt lat="40.441434864720335" lon="15.746794826558665"><ele>828.0</ele><time>2026-05-02T13:22:25.999Z</time></trkpt><trkpt lat="40.441502495212305" lon="15.746888392453645"><ele>828.0</ele><time>2026-05-02T13:22:26.999Z</time></trkpt><trkpt lat="40.44154598711375" lon="15.746951183244446"><ele>829.3333333333334</ele><time>2026-05-02T13:22:27.999Z</time></trkpt><trkpt lat="40.441572600166104" lon="15.747043345274035"><ele>830.6666666666667</ele><time>2026-05-02T13:22:29.999Z</time></trkpt><trkpt lat="40.44158283896895" lon="15.747172163153131"><ele>832.0</ele><time>2026-05-02T13:22:31.999Z</time></trkpt><trkpt lat="40.4415699215531" lon="15.747256541960182"><ele>833.3333333333334</ele><time>2026-05-02T13:22:34.999Z</time></trkpt><trkpt lat="40.441461621174675" lon="15.747255453021932"><ele>834.6666666666667</ele><time>2026-05-02T13:22:36.998Z</time></trkpt><trkpt lat="40.44139480691058" lon="15.747232964997691"><ele>836.0</ele><time>2026-05-02T13:22:37.998Z</time></trkpt><trkpt lat="40.441279661522664" lon="15.7472128738501"><ele>836.0000000000001</ele><time>2026-05-02T13:22:39.998Z</time></trkpt><trkpt lat="40.441216632728704" lon="15.747204351051879"><ele>836.0</ele><time>2026-05-02T13:22:40.998Z</time></trkpt><trkpt lat="40.44112593653958" lon="15.747204412750145"><ele>836.0</ele><time>2026-05-02T13:22:42.998Z</time></trkpt><trkpt lat="40.441040808860826" lon="15.747221329712557"><ele>836.0</ele><time>2026-05-02T13:22:44.998Z</time></trkpt><trkpt lat="40.44103209101512" lon="15.747323733826759"><ele>836.0000000000001</ele><time>2026-05-02T13:23:09Z</time></trkpt><trkpt lat="40.440937116099825" lon="15.747402987388236"><ele>836.0</ele><time>2026-05-02T13:23:13Z</time></trkpt><trkpt lat="40.44089853812076" lon="15.7474791594397"><ele>836.0</ele><time>2026-05-02T13:23:16Z</time></trkpt><trkpt lat="40.4408033971957" lon="15.747562798734116"><ele>836.0</ele><time>2026-05-02T13:23:18Z</time></trkpt><trkpt lat="40.440736034152074" lon="15.747639714706482"><ele>836.0</ele><time>2026-05-02T13:23:20Z</time></trkpt><trkpt lat="40.44067418505527" lon="15.747680618457263"><ele>836.0</ele><time>2026-05-02T13:23:22Z</time></trkpt><trkpt lat="40.44060368464083" lon="15.747724806353272"><ele>836.0</ele><time>2026-05-02T13:23:24Z</time></trkpt><trkpt lat="40.44051011113658" lon="15.747765551741518"><ele>839.8333333333334</ele><time>2026-05-02T13:23:26Z</time></trkpt><trkpt lat="40.4404250678656" lon="15.747807830421738"><ele>843.6666666666667</ele><time>2026-05-02T13:23:28Z</time></trkpt><trkpt lat="40.440348362727214" lon="15.747876306631165"><ele>847.5</ele><time>2026-05-02T13:23:30Z</time></trkpt><trkpt lat="40.44029112294413" lon="15.747920871791063"><ele>851.3333333333333</ele><time>2026-05-02T13:24:35.998Z</time></trkpt><trkpt lat="40.44024178457536" lon="15.747848414887343"><ele>855.1666666666666</ele><time>2026-05-02T13:24:39.998Z</time></trkpt><trkpt lat="40.44015900503034" lon="15.747815371575387"><ele>859.0</ele><time>2026-05-02T13:24:42.998Z</time></trkpt><trkpt lat="40.44012286948697" lon="15.747743563568582"><ele>855.9999999999999</ele><time>2026-05-02T13:24:46.998Z</time></trkpt><trkpt lat="40.44005019038103" lon="15.747661831091406"><ele>853.0</ele><time>2026-05-02T13:24:49.998Z</time></trkpt><trkpt lat="40.44001277893445" lon="15.747591800391039"><ele>850.0</ele><time>2026-05-02T13:24:51.998Z</time></trkpt><trkpt lat="40.439974965137935" lon="15.747518536355324"><ele>847.0</ele><time>2026-05-02T13:24:55.998Z</time></trkpt><trkpt lat="40.43992016237444" lon="15.747469925119596"><ele>844.0</ele><time>2026-05-02T13:25:08.998Z</time></trkpt><trkpt lat="40.439847648799216" lon="15.747442560975106"><ele>840.9999999999999</ele><time>2026-05-02T13:25:13Z</time></trkpt><trkpt lat="40.43978530113538" lon="15.74747642172049"><ele>838.0</ele><time>2026-05-02T13:25:22Z</time></trkpt><trkpt lat="40.439722666458145" lon="15.747433101262883"><ele>837.9999999999999</ele><time>2026-05-02T13:25:26Z</time></trkpt><trkpt lat="40.43966716752725" lon="15.74738994733781"><ele>838.0</ele><time>2026-05-02T13:25:49.999Z</time></trkpt><trkpt lat="40.43959705621371" lon="15.747424638659275"><ele>838.0</ele><time>2026-05-02T13:25:54.999Z</time></trkpt><trkpt lat="40.439540178899165" lon="15.747517519544019"><ele>838.0</ele><time>2026-05-02T13:25:59.999Z</time></trkpt><trkpt lat="40.43948770795088" lon="15.74759353962219"><ele>837.9999999999999</ele><time>2026-05-02T13:26:03.999Z</time></trkpt><trkpt lat="40.439440028172584" lon="15.747666571012575"><ele>838.0</ele><time>2026-05-02T13:26:05.999Z</time></trkpt><trkpt lat="40.43940752044636" lon="15.747753529858876"><ele>841.4999999999999</ele><time>2026-05-02T13:26:07.999Z</time></trkpt><trkpt lat="40.439375746978335" lon="15.747828790222753"><ele>845.0</ele><time>2026-05-02T13:26:09.999Z</time></trkpt><trkpt lat="40.43933361598065" lon="15.747939103490653"><ele>848.5</ele><time>2026-05-02T13:26:12.999Z</time></trkpt><trkpt lat="40.43935024435471" lon="15.748025151340613"><ele>852.0</ele><time>2026-05-02T13:26:15.999Z</time></trkpt><trkpt lat="40.4393784879669" lon="15.7481042847035"><ele>855.4999999999999</ele><time>2026-05-02T13:26:17.999Z</time></trkpt><trkpt lat="40.4394159911445" lon="15.748210315956651"><ele>859.0</ele><time>2026-05-02T13:26:20.999Z</time></trkpt><trkpt lat="40.439441375571214" lon="15.748317402490416"><ele>858.9999999999999</ele><time>2026-05-02T13:26:22.999Z</time></trkpt><trkpt lat="40.439427343110175" lon="15.748451655051513"><ele>859.0</ele><time>2026-05-02T13:26:24.999Z</time></trkpt><trkpt lat="40.43942261668027" lon="15.748541640774695"><ele>859.0</ele><time>2026-05-02T13:26:27.999Z</time></trkpt><trkpt lat="40.439481562901705" lon="15.748646036161482"><ele>859.0</ele><time>2026-05-02T13:26:29.999Z</time></trkpt><trkpt lat="40.439559738927265" lon="15.748666650134233"><ele>858.9999999999999</ele><time>2026-05-02T13:26:32.999Z</time></trkpt><trkpt lat="40.439602690681006" lon="15.748748140535637"><ele>859.0</ele><time>2026-05-02T13:26:57.998Z</time></trkpt><trkpt lat="40.439647882567634" lon="15.748813534942126"><ele>862.1428571428571</ele><time>2026-05-02T13:27:01.998Z</time></trkpt><trkpt lat="40.43967714586538" lon="15.748888326221996"><ele>865.2857142857142</ele><time>2026-05-02T13:27:13.998Z</time></trkpt><trkpt lat="40.43973077439667" lon="15.748940022459983"><ele>868.4285714285713</ele><time>2026-05-02T13:27:36Z</time></trkpt><trkpt lat="40.43977479828071" lon="15.749020481830803"><ele>871.5714285714286</ele><time>2026-05-02T13:27:45Z</time></trkpt><trkpt lat="40.43982252358834" lon="15.749118030150184"><ele>874.7142857142858</ele><time>2026-05-02T13:27:51Z</time></trkpt><trkpt lat="40.439875022148826" lon="15.749163743275465"><ele>877.8571428571428</ele><time>2026-05-02T13:27:53Z</time></trkpt><trkpt lat="40.439945277354596" lon="15.749186399001148"><ele>881.0</ele><time>2026-05-02T13:27:57.999Z</time></trkpt><trkpt lat="40.439979203432074" lon="15.749270173231345"><ele>881.0</ele><time>2026-05-02T13:28:20.999Z</time></trkpt><trkpt lat="40.439929495877124" lon="15.749210746848737"><ele>881.0</ele><time>2026-05-02T13:31:31Z</time></trkpt><trkpt lat="40.43986561689956" lon="15.749168741233627"><ele>881.0</ele><time>2026-05-02T13:31:35Z</time></trkpt><trkpt lat="40.43979663399583" lon="15.749112134623685"><ele>881.0</ele><time>2026-05-02T13:31:38Z</time></trkpt><trkpt lat="40.43975117610477" lon="15.749034981178273"><ele>881.0</ele><time>2026-05-02T13:31:43Z</time></trkpt><trkpt lat="40.43969352057912" lon="15.74899007379846"><ele>881.0</ele><time>2026-05-02T13:31:47Z</time></trkpt><trkpt lat="40.439658267544694" lon="15.748917217646166"><ele>881.0</ele><time>2026-05-02T13:31:53Z</time></trkpt><trkpt lat="40.43960951295866" lon="15.748834564307625"><ele>880.1666666666667</ele><time>2026-05-02T13:31:57Z</time></trkpt><trkpt lat="40.43956563110605" lon="15.74876975735547"><ele>879.3333333333334</ele><time>2026-05-02T13:32:03Z</time></trkpt><trkpt lat="40.43951122057346" lon="15.74869609388089"><ele>878.5</ele><time>2026-05-02T13:32:06Z</time></trkpt><trkpt lat="40.43945852363324" lon="15.748638812322195"><ele>877.6666666666667</ele><time>2026-05-02T13:32:10Z</time></trkpt><trkpt lat="40.43941006534109" lon="15.748533805006911"><ele>876.8333333333334</ele><time>2026-05-02T13:32:14.999Z</time></trkpt><trkpt lat="40.43940079461135" lon="15.748451439621466"><ele>876.0</ele><time>2026-05-02T13:32:16.999Z</time></trkpt><trkpt lat="40.43939710453444" lon="15.748329898732624"><ele>873.1666666666666</ele><time>2026-05-02T13:32:18.999Z</time></trkpt><trkpt lat="40.43937856627884" lon="15.748233306222327"><ele>870.3333333333333</ele><time>2026-05-02T13:32:22.999Z</time></trkpt><trkpt lat="40.43934504201334" lon="15.748148132442822"><ele>867.5</ele><time>2026-05-02T13:32:26.999Z</time></trkpt><trkpt lat="40.43931248030158" lon="15.748066030913282"><ele>864.6666666666666</ele><time>2026-05-02T13:32:29.999Z</time></trkpt><trkpt lat="40.43930540175673" lon="15.747945595377576"><ele>861.8333333333333</ele><time>2026-05-02T13:32:32.999Z</time></trkpt><trkpt lat="40.43931451189202" lon="15.747818802140666"><ele>859.0</ele><time>2026-05-02T13:32:34.999Z</time></trkpt><trkpt lat="40.43933853523629" lon="15.747738344701741"><ele>855.4999999999999</ele><time>2026-05-02T13:32:37.999Z</time></trkpt><trkpt lat="40.43939028997473" lon="15.747635600657029"><ele>852.0</ele><time>2026-05-02T13:32:40.999Z</time></trkpt><trkpt lat="40.43944174706445" lon="15.7475698066682"><ele>848.5</ele><time>2026-05-02T13:32:41.999Z</time></trkpt><trkpt lat="40.43950717065609" lon="15.747456556339957"><ele>845.0</ele><time>2026-05-02T13:32:43.999Z</time></trkpt><trkpt lat="40.43957005909685" lon="15.747384209940284"><ele>841.4999999999999</ele><time>2026-05-02T13:32:46.999Z</time></trkpt><trkpt lat="40.43965312472687" lon="15.747342864751387"><ele>838.0</ele><time>2026-05-02T13:32:49.999Z</time></trkpt><trkpt lat="40.439712614290535" lon="15.747392982361385"><ele>838.0</ele><time>2026-05-02T13:32:55.999Z</time></trkpt><trkpt lat="40.43984984291457" lon="15.74741737030409"><ele>838.0</ele><time>2026-05-02T13:33:02.999Z</time></trkpt><trkpt lat="40.43992831073762" lon="15.747463209905945"><ele>838.0</ele><time>2026-05-02T13:33:05.998Z</time></trkpt><trkpt lat="40.44001543477747" lon="15.747577410931564"><ele>838.0</ele><time>2026-05-02T13:33:09.998Z</time></trkpt><trkpt lat="40.440079604979836" lon="15.747652546308089"><ele>838.0</ele><time>2026-05-02T13:33:11.998Z</time></trkpt><trkpt lat="40.440164153388494" lon="15.747760773609032"><ele>837.5999999999999</ele><time>2026-05-02T13:33:15.998Z</time></trkpt><trkpt lat="40.44024052066629" lon="15.747805135083341"><ele>837.1999999999999</ele><time>2026-05-02T13:33:17.998Z</time></trkpt><trkpt lat="40.440324898826454" lon="15.747798889741217"><ele>836.8</ele><time>2026-05-02T13:33:20.998Z</time></trkpt><trkpt lat="40.440434797622494" lon="15.747744121906429"><ele>836.4</ele><time>2026-05-02T13:33:22.998Z</time></trkpt><trkpt lat="40.44054114427175" lon="15.74768345989583"><ele>836.0</ele><time>2026-05-02T13:33:24.998Z</time></trkpt><trkpt lat="40.440636336034224" lon="15.747642779969242"><ele>836.0000000000001</ele><time>2026-05-02T13:33:26.998Z</time></trkpt><trkpt lat="40.44073736308321" lon="15.74754826135226"><ele>836.0</ele><time>2026-05-02T13:33:31.998Z</time></trkpt><trkpt lat="40.440800660022184" lon="15.74746644424894"><ele>836.0</ele><time>2026-05-02T13:33:33.998Z</time></trkpt><trkpt lat="40.44085432518476" lon="15.747418165888426"><ele>836.0</ele><time>2026-05-02T13:33:35.999Z</time></trkpt><trkpt lat="40.440920408747566" lon="15.74734088633453"><ele>836.0000000000001</ele><time>2026-05-02T13:33:38.999Z</time></trkpt><trkpt lat="40.440974933790265" lon="15.74728779402276"><ele>836.0</ele><time>2026-05-02T13:33:40.999Z</time></trkpt><trkpt lat="40.44101973774536" lon="15.747219764217666"><ele>836.0000000000001</ele><time>2026-05-02T13:33:42.999Z</time></trkpt><trkpt lat="40.44108098020602" lon="15.747187695158821"><ele>836.0</ele><time>2026-05-02T13:33:45.999Z</time></trkpt><trkpt lat="40.44119987233157" lon="15.747192364294888"><ele>836.0</ele><time>2026-05-02T13:33:47.999Z</time></trkpt><trkpt lat="40.44127356592348" lon="15.747201994255285"><ele>836.0</ele><time>2026-05-02T13:33:48.999Z</time></trkpt><trkpt lat="40.441351306154964" lon="15.747219338287042"><ele>836.0000000000001</ele><time>2026-05-02T13:33:49.999Z</time></trkpt><trkpt lat="40.44142239105423" lon="15.74724319868222"><ele>836.0</ele><time>2026-05-02T13:33:50.999Z</time></trkpt><trkpt lat="40.44151403421244" lon="15.747262938799386"><ele>836.25</ele><time>2026-05-02T13:33:52.999Z</time></trkpt><trkpt lat="40.44165539390042" lon="15.747446359061751"><ele>836.5</ele><time>2026-05-02T13:34:07.999Z</time></trkpt><trkpt lat="40.441684739383795" lon="15.747547068651631"><ele>836.75</ele><time>2026-05-02T13:34:09.999Z</time></trkpt><trkpt lat="40.44173130359695" lon="15.747651206048987"><ele>837.0</ele><time>2026-05-02T13:34:12.999Z</time></trkpt><trkpt lat="40.44179272840999" lon="15.747714797701953"><ele>838.6</ele><time>2026-05-02T13:34:37.999Z</time></trkpt><trkpt lat="40.44185233313618" lon="15.747782488928111"><ele>840.2</ele><time>2026-05-02T13:34:40.999Z</time></trkpt><trkpt lat="40.44193608029836" lon="15.747813674142915"><ele>841.8</ele><time>2026-05-02T13:34:56.998Z</time></trkpt><trkpt lat="40.44208377200706" lon="15.747774325733275"><ele>843.4</ele><time>2026-05-02T13:35:01.998Z</time></trkpt><trkpt lat="40.44216095004194" lon="15.747779798715529"><ele>845.0</ele><time>2026-05-02T13:35:02.998Z</time></trkpt><trkpt lat="40.44223477376837" lon="15.747818185063275"><ele>845.8333333333334</ele><time>2026-05-02T13:35:03.998Z</time></trkpt><trkpt lat="40.442291517376475" lon="15.747865121161528"><ele>846.6666666666667</ele><time>2026-05-02T13:35:04.998Z</time></trkpt><trkpt lat="40.44235648363734" lon="15.747921305359467"><ele>847.5</ele><time>2026-05-02T13:35:05.998Z</time></trkpt><trkpt lat="40.44242260938572" lon="15.747965998806832"><ele>848.3333333333333</ele><time>2026-05-02T13:35:06.998Z</time></trkpt><trkpt lat="40.442504251549074" lon="15.748016689809361"><ele>849.1666666666666</ele><time>2026-05-02T13:35:07.998Z</time></trkpt><trkpt lat="40.44260181756096" lon="15.748112474071725"><ele>850.0</ele><time>2026-05-02T13:35:08.998Z</time></trkpt><trkpt lat="40.4426971518891" lon="15.748221422024962"><ele>850.0</ele><time>2026-05-02T13:35:09.998Z</time></trkpt><trkpt lat="40.442757946405585" lon="15.748334464570158"><ele>850.0</ele><time>2026-05-02T13:35:10.998Z</time></trkpt><trkpt lat="40.44281940883335" lon="15.748396825865312"><ele>850.0</ele><time>2026-05-02T13:35:11.998Z</time></trkpt><trkpt lat="40.44296221158175" lon="15.748411268550301"><ele>850.0</ele><time>2026-05-02T13:35:13.998Z</time></trkpt><trkpt lat="40.443059657005676" lon="15.748410654364799"><ele>850.0</ele><time>2026-05-02T13:35:14.998Z</time></trkpt><trkpt lat="40.44315616132912" lon="15.74839016517639"><ele>851.4</ele><time>2026-05-02T13:35:15.998Z</time></trkpt><trkpt lat="40.443254916948966" lon="15.748413547836098"><ele>852.8</ele><time>2026-05-02T13:35:16.998Z</time></trkpt><trkpt lat="40.44336818884639" lon="15.748493803358365"><ele>854.2</ele><time>2026-05-02T13:35:17.998Z</time></trkpt><trkpt lat="40.44347111683946" lon="15.748565057971913"><ele>855.6</ele><time>2026-05-02T13:35:18.998Z</time></trkpt><trkpt lat="40.443564854925754" lon="15.748612323520067"><ele>857.0</ele><time>2026-05-02T13:35:19.998Z</time></trkpt><trkpt lat="40.44366268772169" lon="15.748641339319265"><ele>857.0000000000001</ele><time>2026-05-02T13:35:20.998Z</time></trkpt><trkpt lat="40.44374007772832" lon="15.748642706634888"><ele>857.0</ele><time>2026-05-02T13:35:21.998Z</time></trkpt><trkpt lat="40.44383879654632" lon="15.748661381577062"><ele>857.0</ele><time>2026-05-02T13:35:23.998Z</time></trkpt><trkpt lat="40.44394465282511" lon="15.748702586677611"><ele>857.0</ele><time>2026-05-02T13:35:25.998Z</time></trkpt><trkpt lat="40.44401318083197" lon="15.748714271237265"><ele>857.0000000000001</ele><time>2026-05-02T13:35:26.998Z</time></trkpt><trkpt lat="40.4440780676434" lon="15.748744588054596"><ele>857.0</ele><time>2026-05-02T13:35:27.998Z</time></trkpt><trkpt lat="40.444146403338515" lon="15.748784661786907"><ele>858.4000000000001</ele><time>2026-05-02T13:35:28.998Z</time></trkpt><trkpt lat="40.44420997942236" lon="15.748817587731478"><ele>859.8000000000001</ele><time>2026-05-02T13:35:29.998Z</time></trkpt><trkpt lat="40.44430203706012" lon="15.748862065861148"><ele>861.2</ele><time>2026-05-02T13:35:31.998Z</time></trkpt><trkpt lat="40.444409204666094" lon="15.748916528893702"><ele>862.6</ele><time>2026-05-02T13:35:33.998Z</time></trkpt><trkpt lat="40.444531131465894" lon="15.748956066426393"><ele>864.0</ele><time>2026-05-02T13:35:35.998Z</time></trkpt><trkpt lat="40.44459273713587" lon="15.748984421459435"><ele>865.5</ele><time>2026-05-02T13:35:36.998Z</time></trkpt><trkpt lat="40.444717007915116" lon="15.749024413026296"><ele>867.0</ele><time>2026-05-02T13:35:38.998Z</time></trkpt><trkpt lat="40.44478436968996" lon="15.749038487445418"><ele>868.5</ele><time>2026-05-02T13:35:39.998Z</time></trkpt><trkpt lat="40.44485333970061" lon="15.749054197723176"><ele>870.0</ele><time>2026-05-02T13:35:40.999Z</time></trkpt><trkpt lat="40.444916264249876" lon="15.749045822835782"><ele>871.5</ele><time>2026-05-02T13:35:41.999Z</time></trkpt><trkpt lat="40.444984127059854" lon="15.749034854881831"><ele>873.0</ele><time>2026-05-02T13:35:42.999Z</time></trkpt><trkpt lat="40.44505337006637" lon="15.74901728592157"><ele>872.9999999999999</ele><time>2026-05-02T13:35:44Z</time></trkpt><trkpt lat="40.44511856792626" lon="15.748978481723004"><ele>873.0</ele><time>2026-05-02T13:35:45Z</time></trkpt><trkpt lat="40.44518577012561" lon="15.748942922107455"><ele>873.0</ele><time>2026-05-02T13:35:46Z</time></trkpt><trkpt lat="40.4452484443457" lon="15.748907900759479"><ele>873.0</ele><time>2026-05-02T13:35:47Z</time></trkpt><trkpt lat="40.44531016177036" lon="15.748885792310091"><ele>873.0</ele><time>2026-05-02T13:35:48Z</time></trkpt><trkpt lat="40.445396303633046" lon="15.748895809870499"><ele>872.9999999999999</ele><time>2026-05-02T13:35:50Z</time></trkpt><trkpt lat="40.44547855725581" lon="15.748883029961172"><ele>873.0</ele><time>2026-05-02T13:36:22.999Z</time></trkpt><trkpt lat="40.44555554693003" lon="15.74894425213299"><ele>875.2</ele><time>2026-05-02T13:36:24.999Z</time></trkpt><trkpt lat="40.44563464043792" lon="15.749018273732721"><ele>877.4</ele><time>2026-05-02T13:36:26.999Z</time></trkpt><trkpt lat="40.445746343972566" lon="15.749032947465986"><ele>879.6000000000001</ele><time>2026-05-02T13:36:28.999Z</time></trkpt><trkpt lat="40.44583399284788" lon="15.748994795759856"><ele>881.8000000000001</ele><time>2026-05-02T13:36:30.999Z</time></trkpt><trkpt lat="40.44588959780914" lon="15.74893436603202"><ele>884.0</ele><time>2026-05-02T13:36:31.999Z</time></trkpt><trkpt lat="40.445995242381095" lon="15.748891492758052"><ele>884.0</ele><time>2026-05-02T13:36:33.999Z</time></trkpt><trkpt lat="40.44606799611534" lon="15.748785400589584"><ele>884.0000000000001</ele><time>2026-05-02T13:36:36.999Z</time></trkpt><trkpt lat="40.446122995037705" lon="15.748711071960477"><ele>884.0000000000001</ele><time>2026-05-02T13:36:38.999Z</time></trkpt><trkpt lat="40.446047449682716" lon="15.74858016272293"><ele>884.0</ele><time>2026-05-02T13:36:44.999Z</time></trkpt><trkpt lat="40.445952054791135" lon="15.748512235622654"><ele>884.0</ele><time>2026-05-02T13:36:46.999Z</time></trkpt><trkpt lat="40.445884849678166" lon="15.748413200813204"><ele>887.4000000000001</ele><time>2026-05-02T13:36:48.999Z</time></trkpt><trkpt lat="40.44581290104644" lon="15.748283901318857"><ele>890.8000000000001</ele><time>2026-05-02T13:36:50.999Z</time></trkpt><trkpt lat="40.445752034589205" lon="15.74816890807091"><ele>894.1999999999999</ele><time>2026-05-02T13:36:52.999Z</time></trkpt><trkpt lat="40.44572858626942" lon="15.748059055352783"><ele>897.5999999999999</ele><time>2026-05-02T13:36:54.999Z</time></trkpt><trkpt lat="40.44575521201772" lon="15.74793227547108"><ele>901.0</ele><time>2026-05-02T13:36:56.999Z</time></trkpt><trkpt lat="40.445804590051054" lon="15.747860923476154"><ele>900.9999999999999</ele><time>2026-05-02T13:36:58.999Z</time></trkpt><trkpt lat="40.44588597482039" lon="15.747844339005717"><ele>901.0</ele><time>2026-05-02T13:37:00.999Z</time></trkpt><trkpt lat="40.44595934312762" lon="15.74784144354369"><ele>901.0</ele><time>2026-05-02T13:37:02.999Z</time></trkpt><trkpt lat="40.44602483365194" lon="15.747859994994222"><ele>901.0</ele><time>2026-05-02T13:37:04.999Z</time></trkpt><trkpt lat="40.446094862647925" lon="15.747923659529471"><ele>900.9999999999999</ele><time>2026-05-02T13:37:06.999Z</time></trkpt><trkpt lat="40.44618412358201" lon="15.747944545413231"><ele>901.0</ele><time>2026-05-02T13:37:09.999Z</time></trkpt><trkpt lat="40.44623510368123" lon="15.7479987365276"><ele>905.3333333333333</ele><time>2026-05-02T13:37:11.999Z</time></trkpt><trkpt lat="40.44634861925889" lon="15.748049603506182"><ele>909.6666666666667</ele><time>2026-05-02T13:37:13.999Z</time></trkpt><trkpt lat="40.44657685116432" lon="15.748055096268288"><ele>914.0</ele><time>2026-05-02T13:37:17.999Z</time></trkpt><trkpt lat="40.446670166689636" lon="15.74799683818327"><ele>914.0</ele><time>2026-05-02T13:37:18.999Z</time></trkpt><trkpt lat="40.44681510861961" lon="15.747935642528539"><ele>914.0000000000001</ele><time>2026-05-02T13:37:21.999Z</time></trkpt><trkpt lat="40.446880339382886" lon="15.747921754403404"><ele>914.0000000000001</ele><time>2026-05-02T13:37:22.999Z</time></trkpt><trkpt lat="40.4469910532881" lon="15.747918578928424"><ele>914.0</ele><time>2026-05-02T13:37:24.999Z</time></trkpt><trkpt lat="40.447071652098664" lon="15.747897765608442"><ele>914.0</ele><time>2026-05-02T13:37:26.998Z</time></trkpt><trkpt lat="40.447175888532065" lon="15.747858846741702"><ele>917.1666666666667</ele><time>2026-05-02T13:37:29.998Z</time></trkpt><trkpt lat="40.44723434354624" lon="15.747766209077298"><ele>920.3333333333334</ele><time>2026-05-02T13:37:32.998Z</time></trkpt><trkpt lat="40.44728041130851" lon="15.747675130703803"><ele>923.5</ele><time>2026-05-02T13:37:34.998Z</time></trkpt><trkpt lat="40.447346453914115" lon="15.7476306477438"><ele>926.6666666666667</ele><time>2026-05-02T13:37:37.998Z</time></trkpt><trkpt lat="40.44743088139657" lon="15.747621007416248"><ele>929.8333333333334</ele><time>2026-05-02T13:37:41.998Z</time></trkpt><trkpt lat="40.44751323564961" lon="15.747628446550527"><ele>933.0</ele><time>2026-05-02T13:37:47Z</time></trkpt><trkpt lat="40.447618930586614" lon="15.747629314833256"><ele>933.0</ele><time>2026-05-02T13:37:49Z</time></trkpt><trkpt lat="40.44771492616975" lon="15.747626957515944"><ele>933.0</ele><time>2026-05-02T13:37:50Z</time></trkpt><trkpt lat="40.44778029113026" lon="15.747629159482813"><ele>933.0</ele><time>2026-05-02T13:37:51Z</time></trkpt><trkpt lat="40.447889406940206" lon="15.747680752219905"><ele>933.0</ele><time>2026-05-02T13:37:53Z</time></trkpt><trkpt lat="40.44794978247334" lon="15.747711247422346"><ele>933.0</ele><time>2026-05-02T13:37:54Z</time></trkpt><trkpt lat="40.44804359208849" lon="15.747713369426576"><ele>933.0</ele><time>2026-05-02T13:37:56Z</time></trkpt><trkpt lat="40.448121546407926" lon="15.747600182711087"><ele>936.3333333333334</ele><time>2026-05-02T13:37:58Z</time></trkpt><trkpt lat="40.448193206578225" lon="15.747564856592735"><ele>939.6666666666667</ele><time>2026-05-02T13:38:00Z</time></trkpt><trkpt lat="40.44823626278776" lon="15.747475581160693"><ele>943.0</ele><time>2026-05-02T13:38:03Z</time></trkpt><trkpt lat="40.44822244031248" lon="15.74734698707493"><ele>946.3333333333334</ele><time>2026-05-02T13:38:06Z</time></trkpt><trkpt lat="40.44818650768181" lon="15.747248465366464"><ele>949.6666666666667</ele><time>2026-05-02T13:38:08Z</time></trkpt><trkpt lat="40.44810411034997" lon="15.747183103732677"><ele>953.0</ele><time>2026-05-02T13:38:10Z</time></trkpt><trkpt lat="40.44803405609619" lon="15.747094645717503"><ele>953.0000000000001</ele><time>2026-05-02T13:38:12Z</time></trkpt><trkpt lat="40.44802932783778" lon="15.746994904791238"><ele>953.0</ele><time>2026-05-02T13:38:16Z</time></trkpt><trkpt lat="40.44805022013831" lon="15.74691510913799"><ele>953.0</ele><time>2026-05-02T13:38:17Z</time></trkpt><trkpt lat="40.44805886492805" lon="15.74682860820803"><ele>953.0</ele><time>2026-05-02T13:38:20Z</time></trkpt><trkpt lat="40.448081858694" lon="15.746735933902718"><ele>953.0000000000001</ele><time>2026-05-02T13:38:23Z</time></trkpt><trkpt lat="40.44812423324336" lon="15.746596927619384"><ele>953.0</ele><time>2026-05-02T13:38:26Z</time></trkpt><trkpt lat="40.4481493024078" lon="15.746474016650259"><ele>952.4</ele><time>2026-05-02T13:38:28Z</time></trkpt><trkpt lat="40.44809906911523" lon="15.746393804423686"><ele>951.8</ele><time>2026-05-02T13:38:31Z</time></trkpt><trkpt lat="40.44812270290303" lon="15.746309158298475"><ele>951.2</ele><time>2026-05-02T13:38:33Z</time></trkpt><trkpt lat="40.44811691306659" lon="15.746133930221598"><ele>950.6</ele><time>2026-05-02T13:38:36Z</time></trkpt><trkpt lat="40.448157326387836" lon="15.745986999857763"><ele>950.0</ele><time>2026-05-02T13:38:38.999Z</time></trkpt><trkpt lat="40.44817505109288" lon="15.745898944841837"><ele>951.1428571428572</ele><time>2026-05-02T13:38:41.999Z</time></trkpt><trkpt lat="40.448202792819416" lon="15.745817838924895"><ele>952.2857142857144</ele><time>2026-05-02T13:38:43.999Z</time></trkpt><trkpt lat="40.44820875156595" lon="15.74570992954329"><ele>953.4285714285714</ele><time>2026-05-02T13:38:47.999Z</time></trkpt><trkpt lat="40.44817457978361" lon="15.7456252499522"><ele>954.5714285714287</ele><time>2026-05-02T13:38:49.999Z</time></trkpt><trkpt lat="40.448164721968205" lon="15.74553573557481"><ele>955.7142857142858</ele><time>2026-05-02T13:38:51.999Z</time></trkpt><trkpt lat="40.448112009442106" lon="15.74548371635672"><ele>956.8571428571429</ele><time>2026-05-02T13:38:53.999Z</time></trkpt><trkpt lat="40.44802737249549" lon="15.745460261883462"><ele>958.0</ele><time>2026-05-02T13:38:55.999Z</time></trkpt><trkpt lat="40.44797598324189" lon="15.745407765544604"><ele>958.5714285714286</ele><time>2026-05-02T13:38:57.999Z</time></trkpt><trkpt lat="40.447904058723466" lon="15.74539808651634"><ele>959.1428571428571</ele><time>2026-05-02T13:39:00.999Z</time></trkpt><trkpt lat="40.44783611649153" lon="15.74540492703075"><ele>959.7142857142857</ele><time>2026-05-02T13:39:05.999Z</time></trkpt><trkpt lat="40.44777799249287" lon="15.745347154636146"><ele>960.2857142857142</ele><time>2026-05-02T13:39:08.999Z</time></trkpt><trkpt lat="40.447713414626385" lon="15.745306302174018"><ele>960.8571428571429</ele><time>2026-05-02T13:39:12.999Z</time></trkpt><trkpt lat="40.44764638606994" lon="15.745250170710241"><ele>961.4285714285713</ele><time>2026-05-02T13:39:17.999Z</time></trkpt><trkpt lat="40.44758956147242" lon="15.745191831575466"><ele>961.9999999999999</ele><time>2026-05-02T13:39:21.999Z</time></trkpt><trkpt lat="40.4475238654887" lon="15.7451362679413"><ele>962.0000000000001</ele><time>2026-05-02T13:39:25.999Z</time></trkpt><trkpt lat="40.4474698025161" lon="15.745064881137875"><ele>962.0</ele><time>2026-05-02T13:39:27.999Z</time></trkpt><trkpt lat="40.447435152295846" lon="15.744989151058926"><ele>962.0</ele><time>2026-05-02T13:39:29.999Z</time></trkpt><trkpt lat="40.44737004209599" lon="15.744967358249038"><ele>962.0</ele><time>2026-05-02T13:39:31.999Z</time></trkpt><trkpt lat="40.44728954108896" lon="15.744938603365595"><ele>962.0000000000001</ele><time>2026-05-02T13:39:33.999Z</time></trkpt><trkpt lat="40.44722807386851" lon="15.74491840850948"><ele>962.0</ele><time>2026-05-02T13:39:34.999Z</time></trkpt><trkpt lat="40.44712768092639" lon="15.744867810522434"><ele>963.0</ele><time>2026-05-02T13:39:36.999Z</time></trkpt><trkpt lat="40.44698532957954" lon="15.744892484612452"><ele>964.0</ele><time>2026-05-02T13:39:38.999Z</time></trkpt><trkpt lat="40.44685124357642" lon="15.744909951746216"><ele>965.0</ele><time>2026-05-02T13:39:40.999Z</time></trkpt><trkpt lat="40.44674633222806" lon="15.74499426399364"><ele>966.0</ele><time>2026-05-02T13:39:42.999Z</time></trkpt><trkpt lat="40.44667725190459" lon="15.744957128759484"><ele>966.0</ele><time>2026-05-02T13:39:45.999Z</time></trkpt><trkpt lat="40.446568397333564" lon="15.744965774378782"><ele>966.0</ele><time>2026-05-02T13:39:50.998Z</time></trkpt><trkpt lat="40.44650446011478" lon="15.744954242798544"><ele>966.0</ele><time>2026-05-02T13:39:56Z</time></trkpt><trkpt lat="40.44643489933125" lon="15.744973215558645"><ele>966.0</ele><time>2026-05-02T13:39:59Z</time></trkpt><trkpt lat="40.44636419489782" lon="15.744997526775583"><ele>966.0</ele><time>2026-05-02T13:40:03Z</time></trkpt><trkpt lat="40.44627754887116" lon="15.745038539308768"><ele>966.0</ele><time>2026-05-02T13:40:05Z</time></trkpt><trkpt lat="40.446193159824105" lon="15.74504248530468"><ele>965.8</ele><time>2026-05-02T13:40:07Z</time></trkpt><trkpt lat="40.446123246576825" lon="15.745065192191959"><ele>965.5999999999999</ele><time>2026-05-02T13:40:09Z</time></trkpt><trkpt lat="40.44606086544722" lon="15.745015815099528"><ele>965.4</ele><time>2026-05-02T13:40:11Z</time></trkpt><trkpt lat="40.44599033641273" lon="15.744974421058577"><ele>965.2</ele><time>2026-05-02T13:40:13Z</time></trkpt><trkpt lat="40.44604221615361" lon="15.744855115243137"><ele>965.0</ele><time>2026-05-02T13:40:16Z</time></trkpt><trkpt lat="40.44615378988901" lon="15.744783571091732"><ele>965.0</ele><time>2026-05-02T13:40:18Z</time></trkpt><trkpt lat="40.446171960481315" lon="15.744635132695446"><ele>965.0</ele><time>2026-05-02T13:40:20Z</time></trkpt><trkpt lat="40.44618956883147" lon="15.744541637689428"><ele>965.0</ele><time>2026-05-02T13:40:22Z</time></trkpt><trkpt lat="40.44630517218285" lon="15.744468478786576"><ele>965.0</ele><time>2026-05-02T13:40:24Z</time></trkpt><trkpt lat="40.446438587393146" lon="15.744395133940937"><ele>968.5000000000001</ele><time>2026-05-02T13:40:26Z</time></trkpt><trkpt lat="40.44651553183029" lon="15.744334905117704"><ele>972.0</ele><time>2026-05-02T13:40:27Z</time></trkpt><trkpt lat="40.44660073722836" lon="15.744276226411602"><ele>975.5</ele><time>2026-05-02T13:40:28Z</time></trkpt><trkpt lat="40.446691788826264" lon="15.744210616970664"><ele>979.0</ele><time>2026-05-02T13:40:29Z</time></trkpt><trkpt lat="40.44669425180049" lon="15.744122754870636"><ele>982.5000000000001</ele><time>2026-05-02T13:40:30Z</time></trkpt><trkpt lat="40.446735987882825" lon="15.744040602418877"><ele>986.0</ele><time>2026-05-02T13:40:34Z</time></trkpt><trkpt lat="40.44681822577344" lon="15.743946182597211"><ele>986.0</ele><time>2026-05-02T13:40:36Z</time></trkpt><trkpt lat="40.44687799536624" lon="15.743892612635268"><ele>986.0</ele><time>2026-05-02T13:40:38Z</time></trkpt><trkpt lat="40.44690810338003" lon="15.743805352911737"><ele>986.0</ele><time>2026-05-02T13:40:40Z</time></trkpt><trkpt lat="40.446935974150634" lon="15.74372537041654"><ele>986.0</ele><time>2026-05-02T13:40:42Z</time></trkpt><trkpt lat="40.44698956106764" lon="15.74366466609497"><ele>986.0</ele><time>2026-05-02T13:40:52.999Z</time></trkpt><trkpt lat="40.44703024342522" lon="15.743572393394942"><ele>986.0</ele><time>2026-05-02T13:40:54.999Z</time></trkpt><trkpt lat="40.44699936199315" lon="15.743471827359551"><ele>986.0</ele><time>2026-05-02T13:41:07.999Z</time></trkpt><trkpt lat="40.44696374297412" lon="15.743331613280759"><ele>988.0000000000001</ele><time>2026-05-02T13:41:09.999Z</time></trkpt><trkpt lat="40.446919768078466" lon="15.743248439357838"><ele>990.0</ele><time>2026-05-02T13:41:11.999Z</time></trkpt><trkpt lat="40.44687983180599" lon="15.743157445961394"><ele>992.0</ele><time>2026-05-02T13:41:14.999Z</time></trkpt><trkpt lat="40.44680920197349" lon="15.743079378588392"><ele>994.0</ele><time>2026-05-02T13:41:16.999Z</time></trkpt><trkpt lat="40.44671096573769" lon="15.743026791798417"><ele>996.0000000000001</ele><time>2026-05-02T13:41:18.999Z</time></trkpt><trkpt lat="40.44663513014804" lon="15.742971152354713"><ele>998.0</ele><time>2026-05-02T13:41:20.999Z</time></trkpt><trkpt lat="40.446575862773734" lon="15.742893757937242"><ele>998.0000000000001</ele><time>2026-05-02T13:41:22.999Z</time></trkpt><trkpt lat="40.446519228531166" lon="15.742812611582925"><ele>998.0</ele><time>2026-05-02T13:41:24.999Z</time></trkpt><trkpt lat="40.446473936060094" lon="15.74267464196644"><ele>998.0</ele><time>2026-05-02T13:41:26.999Z</time></trkpt><trkpt lat="40.446434442808815" lon="15.742575628429398"><ele>998.0</ele><time>2026-05-02T13:41:28.999Z</time></trkpt><trkpt lat="40.4463925446074" lon="15.742504150277838"><ele>998.0000000000001</ele><time>2026-05-02T13:41:30.999Z</time></trkpt><trkpt lat="40.446348146422075" lon="15.742418398436756"><ele>998.0</ele><time>2026-05-02T13:41:35.999Z</time></trkpt><trkpt lat="40.4463089241961" lon="15.742319026007205"><ele>998.0000000000001</ele><time>2026-05-02T13:41:40.999Z</time></trkpt><trkpt lat="40.446229407634576" lon="15.742257236483907"><ele>998.0</ele><time>2026-05-02T13:41:53.998Z</time></trkpt><trkpt lat="40.44616656134172" lon="15.742197403425969"><ele>998.0</ele><time>2026-05-02T13:41:56.998Z</time></trkpt><trkpt lat="40.446075057268416" lon="15.742156600714166"><ele>998.0</ele><time>2026-05-02T13:42:17Z</time></trkpt><trkpt lat="40.446092189081035" lon="15.742252440404778"><ele>998.0000000000001</ele><time>2026-05-02T13:42:23Z</time></trkpt><trkpt lat="40.446160513344786" lon="15.742226402876916"><ele>998.0</ele><time>2026-05-02T13:42:24Z</time></trkpt><trkpt lat="40.446224640928406" lon="15.742195254253792"><ele>1001.2</ele><time>2026-05-02T13:42:26Z</time></trkpt><trkpt lat="40.446298156074036" lon="15.742271546238964"><ele>1004.4</ele><time>2026-05-02T13:42:28Z</time></trkpt><trkpt lat="40.44637738759683" lon="15.742301033993545"><ele>1007.6000000000001</ele><time>2026-05-02T13:42:29Z</time></trkpt><trkpt lat="40.44645880476464" lon="15.742368789939551"><ele>1010.8000000000001</ele><time>2026-05-02T13:42:30Z</time></trkpt><trkpt lat="40.446538686395826" lon="15.742441303102165"><ele>1014.0</ele><time>2026-05-02T13:42:31Z</time></trkpt><trkpt lat="40.446623774319114" lon="15.742520491549703"><ele>1014.0</ele><time>2026-05-02T13:42:33Z</time></trkpt><trkpt lat="40.44668833259533" lon="15.742533012481843"><ele>1014.0</ele><time>2026-05-02T13:42:36Z</time></trkpt><trkpt lat="40.44675484269204" lon="15.742545761254084"><ele>1014.0</ele><time>2026-05-02T13:42:38Z</time></trkpt><trkpt lat="40.44683884338392" lon="15.742626237202806"><ele>1014.0</ele><time>2026-05-02T13:42:40Z</time></trkpt><trkpt lat="40.44691287763673" lon="15.7426648133297"><ele>1014.0</ele><time>2026-05-02T13:42:42Z</time></trkpt><trkpt lat="40.447009718759354" lon="15.742658898622707"><ele>1014.0</ele><time>2026-05-02T13:42:45Z</time></trkpt><trkpt lat="40.44709290753893" lon="15.742646371305792"><ele>1016.3333333333334</ele><time>2026-05-02T13:42:47Z</time></trkpt><trkpt lat="40.447169784017476" lon="15.742629703754472"><ele>1018.6666666666667</ele><time>2026-05-02T13:42:49Z</time></trkpt><trkpt lat="40.44725442138508" lon="15.742628748182126"><ele>1021.0</ele><time>2026-05-02T13:42:51Z</time></trkpt><trkpt lat="40.447343820110646" lon="15.742619373501672"><ele>1023.3333333333334</ele><time>2026-05-02T13:42:52.999Z</time></trkpt><trkpt lat="40.447431131478425" lon="15.742586529426074"><ele>1025.6666666666667</ele><time>2026-05-02T13:42:54.999Z</time></trkpt><trkpt lat="40.44749542132028" lon="15.742500547964326"><ele>1028.0</ele><time>2026-05-02T13:42:57.999Z</time></trkpt><trkpt lat="40.44756205321174" lon="15.742494220321214"><ele>1028.0</ele><time>2026-05-02T13:42:59.999Z</time></trkpt><trkpt lat="40.447622405311826" lon="15.742443277166853"><ele>1028.0</ele><time>2026-05-02T13:43:02.999Z</time></trkpt><trkpt lat="40.44772393360048" lon="15.742428873239708"><ele>1028.0</ele><time>2026-05-02T13:43:04.999Z</time></trkpt><trkpt lat="40.44780531761338" lon="15.74241010606013"><ele>1028.0</ele><time>2026-05-02T13:43:06.999Z</time></trkpt><trkpt lat="40.44789373412991" lon="15.742403920260621"><ele>1028.0</ele><time>2026-05-02T13:43:09.999Z</time></trkpt><trkpt lat="40.44797661853353" lon="15.742376366850234"><ele>1028.0</ele><time>2026-05-02T13:43:11.999Z</time></trkpt><trkpt lat="40.44804502098274" lon="15.742376594702877"><ele>1030.0</ele><time>2026-05-02T13:43:13.999Z</time></trkpt><trkpt lat="40.44811944351412" lon="15.742356320656326"><ele>1032.0</ele><time>2026-05-02T13:43:16.999Z</time></trkpt><trkpt lat="40.44821047768815" lon="15.742361550073593"><ele>1034.0</ele><time>2026-05-02T13:43:18.999Z</time></trkpt><trkpt lat="40.448252800239906" lon="15.742447420175543"><ele>1036.0</ele><time>2026-05-02T13:43:21.999Z</time></trkpt><trkpt lat="40.448355527769266" lon="15.74243606812297"><ele>1038.0</ele><time>2026-05-02T13:43:23.999Z</time></trkpt><trkpt lat="40.44842428548347" lon="15.742524872405347"><ele>1040.0</ele><time>2026-05-02T13:43:25.999Z</time></trkpt><trkpt lat="40.44849646410632" lon="15.742551674650072"><ele>1040.0</ele><time>2026-05-02T13:43:27.999Z</time></trkpt><trkpt lat="40.44854526885556" lon="15.742633309673407"><ele>1040.0</ele><time>2026-05-02T13:43:29.999Z</time></trkpt><trkpt lat="40.44857507677173" lon="15.742714097649511"><ele>1040.0</ele><time>2026-05-02T13:43:31.999Z</time></trkpt><trkpt lat="40.44856696268719" lon="15.742818825768074"><ele>1040.0</ele><time>2026-05-02T13:43:47.999Z</time></trkpt><trkpt lat="40.44861334686106" lon="15.742896645161862"><ele>1040.0</ele><time>2026-05-02T13:43:51.999Z</time></trkpt><trkpt lat="40.44868461572319" lon="15.742978506847754"><ele>1040.0</ele><time>2026-05-02T13:43:53.999Z</time></trkpt><trkpt lat="40.448767129807365" lon="15.743071532749928"><ele>1042.4</ele><time>2026-05-02T13:43:55.998Z</time></trkpt><trkpt lat="40.44884696764167" lon="15.743117065121572"><ele>1044.8</ele><time>2026-05-02T13:43:58.998Z</time></trkpt><trkpt lat="40.44891914364476" lon="15.743146637719992"><ele>1047.2</ele><time>2026-05-02T13:44:00.998Z</time></trkpt><trkpt lat="40.44901152711767" lon="15.743175715320197"><ele>1049.6</ele><time>2026-05-02T13:44:02.998Z</time></trkpt><trkpt lat="40.44919668405656" lon="15.743166529609704"><ele>1052.0</ele><time>2026-05-02T13:44:10Z</time></trkpt><trkpt lat="40.44926368487246" lon="15.743118157071383"><ele>1052.0</ele><time>2026-05-02T13:44:12Z</time></trkpt><trkpt lat="40.449328191128814" lon="15.743084508361425"><ele>1052.0</ele><time>2026-05-02T13:44:16Z</time></trkpt><trkpt lat="40.449415377150785" lon="15.74307450742212"><ele>1052.0</ele><time>2026-05-02T13:44:20Z</time></trkpt><trkpt lat="40.449520823198554" lon="15.743090794524695"><ele>1052.0</ele><time>2026-05-02T13:44:32Z</time></trkpt><trkpt lat="40.4496060163498" lon="15.743124234378968"><ele>1052.0</ele><time>2026-05-02T13:44:34Z</time></trkpt><trkpt lat="40.44966916640473" lon="15.743040471508706"><ele>1052.0</ele><time>2026-05-02T13:44:37Z</time></trkpt><trkpt lat="40.44976698509661" lon="15.742992597579661"><ele>1054.3333333333335</ele><time>2026-05-02T13:44:39Z</time></trkpt><trkpt lat="40.44983301609277" lon="15.74294256149768"><ele>1056.6666666666667</ele><time>2026-05-02T13:44:41Z</time></trkpt><trkpt lat="40.44991428693637" lon="15.742919857723173"><ele>1059.0</ele><time>2026-05-02T13:44:45Z</time></trkpt><trkpt lat="40.450012135048716" lon="15.742902745887651"><ele>1061.3333333333333</ele><time>2026-05-02T13:44:47.999Z</time></trkpt><trkpt lat="40.450082995450025" lon="15.742853274774165"><ele>1063.6666666666665</ele><time>2026-05-02T13:44:50.999Z</time></trkpt><trkpt lat="40.45016329920052" lon="15.742795178940373"><ele>1066.0</ele><time>2026-05-02T13:44:53.999Z</time></trkpt><trkpt lat="40.45023464969105" lon="15.742759769459575"><ele>1066.0</ele><time>2026-05-02T13:44:56.999Z</time></trkpt><trkpt lat="40.45029646038305" lon="15.742717035848417"><ele>1066.0</ele><time>2026-05-02T13:44:57.999Z</time></trkpt><trkpt lat="40.45036166003767" lon="15.74265742914"><ele>1066.0</ele><time>2026-05-02T13:44:59.999Z</time></trkpt><trkpt lat="40.450452038028025" lon="15.742578269388545"><ele>1066.0</ele><time>2026-05-02T13:45:09.999Z</time></trkpt><trkpt lat="40.450531595053825" lon="15.742596962754314"><ele>1066.0</ele><time>2026-05-02T13:45:16.999Z</time></trkpt><trkpt lat="40.450568392182895" lon="15.742690523726042"><ele>1066.0</ele><time>2026-05-02T13:45:20.999Z</time></trkpt><trkpt lat="40.450615908714866" lon="15.742758533483848"><ele>1066.6666666666665</ele><time>2026-05-02T13:45:22.999Z</time></trkpt><trkpt lat="40.45067396415908" lon="15.742790567233861"><ele>1067.3333333333333</ele><time>2026-05-02T13:46:37Z</time></trkpt><trkpt lat="40.450669260161305" lon="15.742693283182945"><ele>1068.0</ele><time>2026-05-02T13:46:42Z</time></trkpt><trkpt lat="40.45062689452489" lon="15.742618185259362"><ele>1068.6666666666667</ele><time>2026-05-02T13:46:46Z</time></trkpt><trkpt lat="40.45062314812272" lon="15.74250650760416"><ele>1069.3333333333335</ele><time>2026-05-02T13:46:51Z</time></trkpt><trkpt lat="40.45065891341665" lon="15.74243346878603"><ele>1070.0</ele><time>2026-05-02T13:46:56.999Z</time></trkpt><trkpt lat="40.450751517485934" lon="15.742371487970564"><ele>1073.0</ele><time>2026-05-02T13:47:00.999Z</time></trkpt><trkpt lat="40.45084674143194" lon="15.742375243311958"><ele>1076.0</ele><time>2026-05-02T13:47:02.999Z</time></trkpt><trkpt lat="40.45093313563942" lon="15.742407979147357"><ele>1079.0</ele><time>2026-05-02T13:47:04.999Z</time></trkpt><trkpt lat="40.45100571658885" lon="15.742356728159221"><ele>1082.0</ele><time>2026-05-02T13:47:06.999Z</time></trkpt><trkpt lat="40.451071387110346" lon="15.74229865242172"><ele>1085.0</ele><time>2026-05-02T13:47:07.999Z</time></trkpt><trkpt lat="40.451128864178536" lon="15.742249454104687"><ele>1088.0</ele><time>2026-05-02T13:47:08.999Z</time></trkpt><trkpt lat="40.451222333398576" lon="15.742197914551673"><ele>1089.4</ele><time>2026-05-02T13:47:10.999Z</time></trkpt><trkpt lat="40.4512978755973" lon="15.742174459824001"><ele>1090.8</ele><time>2026-05-02T13:47:15.999Z</time></trkpt><trkpt lat="40.451345188540635" lon="15.74207392626269"><ele>1092.2</ele><time>2026-05-02T13:47:17.999Z</time></trkpt><trkpt lat="40.45142651742368" lon="15.741938954622555"><ele>1093.6</ele><time>2026-05-02T13:47:19.999Z</time></trkpt><trkpt lat="40.451476345922146" lon="15.74187922995113"><ele>1095.0</ele><time>2026-05-02T13:47:20.999Z</time></trkpt><trkpt lat="40.451555559665195" lon="15.74179508190211"><ele>1096.8333333333333</ele><time>2026-05-02T13:47:22.999Z</time></trkpt><trkpt lat="40.45164516083692" lon="15.74177797243885"><ele>1098.6666666666667</ele><time>2026-05-02T13:47:24.999Z</time></trkpt><trkpt lat="40.451740858888265" lon="15.741752635698091"><ele>1100.5</ele><time>2026-05-02T13:47:26.999Z</time></trkpt><trkpt lat="40.45182429528776" lon="15.741734926476257"><ele>1102.3333333333335</ele><time>2026-05-02T13:47:28.999Z</time></trkpt><trkpt lat="40.451904035573726" lon="15.741716481802117"><ele>1104.1666666666667</ele><time>2026-05-02T13:47:31.999Z</time></trkpt><trkpt lat="40.45196675675436" lon="15.741691058153043"><ele>1106.0</ele><time>2026-05-02T13:47:32.999Z</time></trkpt><trkpt lat="40.45204490262476" lon="15.741650411012762"><ele>1106.0</ele><time>2026-05-02T13:47:34.999Z</time></trkpt><trkpt lat="40.45211673333275" lon="15.741593095057885"><ele>1106.0</ele><time>2026-05-02T13:47:36.999Z</time></trkpt><trkpt lat="40.45218918159085" lon="15.741541818768566"><ele>1106.0</ele><time>2026-05-02T13:47:47.999Z</time></trkpt><trkpt lat="40.45225135525025" lon="15.741463534487538"><ele>1106.0</ele><time>2026-05-02T13:47:49.999Z</time></trkpt><trkpt lat="40.452318053732256" lon="15.741458105680392"><ele>1106.0</ele><time>2026-05-02T13:47:50.999Z</time></trkpt><trkpt lat="40.452431363472016" lon="15.741367485982996"><ele>1106.0</ele><time>2026-05-02T13:47:52.999Z</time></trkpt><trkpt lat="40.45250396589579" lon="15.74133003818728"><ele>1106.0</ele><time>2026-05-02T13:47:53.999Z</time></trkpt><trkpt lat="40.45261742869841" lon="15.741236777810299"><ele>1106.0</ele><time>2026-05-02T13:47:54.999Z</time></trkpt><trkpt lat="40.45269892631458" lon="15.74119063249945"><ele>1106.0</ele><time>2026-05-02T13:47:55.999Z</time></trkpt><trkpt lat="40.452808338908014" lon="15.741105700259439"><ele>1106.0</ele><time>2026-05-02T13:47:58.998Z</time></trkpt><trkpt lat="40.45286954189596" lon="15.741059077496278"><ele>1106.1666666666667</ele><time>2026-05-02T13:47:59.998Z</time></trkpt><trkpt lat="40.45292569542673" lon="15.74099741769382"><ele>1106.3333333333335</ele><time>2026-05-02T13:48:00.998Z</time></trkpt><trkpt lat="40.45303633375634" lon="15.740937091953644"><ele>1106.5</ele><time>2026-05-02T13:48:02.998Z</time></trkpt><trkpt lat="40.45310428265921" lon="15.74091554543141"><ele>1106.6666666666667</ele><time>2026-05-02T13:48:03.998Z</time></trkpt><trkpt lat="40.45317341750923" lon="15.740962355800587"><ele>1106.8333333333333</ele><time>2026-05-02T13:48:05.998Z</time></trkpt><trkpt lat="40.453237026030614" lon="15.740925419240938"><ele>1107.0</ele><time>2026-05-02T13:48:07.998Z</time></trkpt><trkpt lat="40.45327928474589" lon="15.740839558193002"><ele>1108.3333333333333</ele><time>2026-05-02T13:48:09.998Z</time></trkpt><trkpt lat="40.4532904659197" lon="15.74075085223256"><ele>1109.6666666666667</ele><time>2026-05-02T13:48:15.998Z</time></trkpt><trkpt lat="40.45330992151178" lon="15.740660659491546"><ele>1111.0</ele><time>2026-05-02T13:48:17Z</time></trkpt><trkpt lat="40.45335407900482" lon="15.740577335137134"><ele>1112.3333333333335</ele><time>2026-05-02T13:48:18Z</time></trkpt><trkpt lat="40.453419512785295" lon="15.740509022450928"><ele>1113.6666666666667</ele><time>2026-05-02T13:48:19Z</time></trkpt><trkpt lat="40.45348265901263" lon="15.740433378109882"><ele>1115.0</ele><time>2026-05-02T13:48:20Z</time></trkpt><trkpt lat="40.4535452280211" lon="15.740353936193138"><ele>1115.0</ele><time>2026-05-02T13:48:21Z</time></trkpt><trkpt lat="40.45357306163555" lon="15.740232733532432"><ele>1115.0</ele><time>2026-05-02T13:48:23Z</time></trkpt><trkpt lat="40.45353543530957" lon="15.740098171273509"><ele>1115.0</ele><time>2026-05-02T13:48:25Z</time></trkpt><trkpt lat="40.45347487534959" lon="15.740014510586327"><ele>1115.0</ele><time>2026-05-02T13:48:26Z</time></trkpt><trkpt lat="40.45345415258474" lon="15.739935878463616"><ele>1115.0</ele><time>2026-05-02T13:48:27Z</time></trkpt><trkpt lat="40.45343065270632" lon="15.7398401515291"><ele>1115.0</ele><time>2026-05-02T13:48:28Z</time></trkpt><trkpt lat="40.45344815772281" lon="15.739711519195149"><ele>1115.0</ele><time>2026-05-02T13:48:30Z</time></trkpt><trkpt lat="40.453511163163874" lon="15.739673263535053"><ele>1115.0</ele><time>2026-05-02T13:48:32Z</time></trkpt><trkpt lat="40.45360776202609" lon="15.739650243086455"><ele>1115.0</ele><time>2026-05-02T13:48:35Z</time></trkpt><trkpt lat="40.45368005740791" lon="15.739600948563188"><ele>1115.0</ele><time>2026-05-02T13:48:37Z</time></trkpt><trkpt lat="40.45373641099257" lon="15.73955816914302"><ele>1115.0</ele><time>2026-05-02T13:48:39Z</time></trkpt><trkpt lat="40.45379634501075" lon="15.739509880839055"><ele>1115.0</ele><time>2026-05-02T13:49:30.999Z</time></trkpt><trkpt lat="40.45387867432787" lon="15.739421941151967"><ele>1116.5</ele><time>2026-05-02T13:49:32.999Z</time></trkpt><trkpt lat="40.45392287789689" lon="15.739319735418087"><ele>1118.0</ele><time>2026-05-02T13:49:34.999Z</time></trkpt><trkpt lat="40.453956696678176" lon="15.739240914663696"><ele>1119.5</ele><time>2026-05-02T13:49:36.999Z</time></trkpt><trkpt lat="40.45399198885807" lon="15.739161670562194"><ele>1121.0</ele><time>2026-05-02T13:49:39.999Z</time></trkpt><trkpt lat="40.4540218876728" lon="15.739065220818249"><ele>1122.5</ele><time>2026-05-02T13:49:41.999Z</time></trkpt><trkpt lat="40.45397006275685" lon="15.739011933228948"><ele>1124.0</ele><time>2026-05-02T13:49:43.999Z</time></trkpt><trkpt lat="40.453932689246095" lon="15.738902612294158"><ele>1124.0</ele><time>2026-05-02T13:49:46.999Z</time></trkpt><trkpt lat="40.453907775182856" lon="15.738789087299365"><ele>1124.0</ele><time>2026-05-02T13:49:49.999Z</time></trkpt><trkpt lat="40.45388797377136" lon="15.738698324854965"><ele>1124.0</ele><time>2026-05-02T13:49:52.999Z</time></trkpt><trkpt lat="40.45384295080579" lon="15.738618974071263"><ele>1124.0</ele><time>2026-05-02T13:49:54.999Z</time></trkpt><trkpt lat="40.453766573658214" lon="15.738523715877578"><ele>1124.0</ele><time>2026-05-02T13:49:56.999Z</time></trkpt><trkpt lat="40.4536965891272" lon="15.738436718594057"><ele>1124.0</ele><time>2026-05-02T13:49:58.999Z</time></trkpt><trkpt lat="40.453641889119524" lon="15.738389154206615"><ele>1120.8</ele><time>2026-05-02T13:50:00.998Z</time></trkpt><trkpt lat="40.45360275382136" lon="15.738295614368056"><ele>1117.6000000000001</ele><time>2026-05-02T13:50:01.998Z</time></trkpt><trkpt lat="40.45354332195842" lon="15.73817999350258"><ele>1114.4</ele><time>2026-05-02T13:50:03.998Z</time></trkpt><trkpt lat="40.45348763041513" lon="15.738061750918499"><ele>1111.2</ele><time>2026-05-02T13:50:05.998Z</time></trkpt><trkpt lat="40.453450166499984" lon="15.737974364959584"><ele>1108.0</ele><time>2026-05-02T13:50:07.998Z</time></trkpt><trkpt lat="40.453408617559745" lon="15.73786972667023"><ele>1108.0</ele><time>2026-05-02T13:50:09.998Z</time></trkpt><trkpt lat="40.453391173019405" lon="15.73778462508131"><ele>1108.0</ele><time>2026-05-02T13:50:14.998Z</time></trkpt><trkpt lat="40.45344296594047" lon="15.73768913698629"><ele>1108.0</ele><time>2026-05-02T13:50:59Z</time></trkpt><trkpt lat="40.45351817286267" lon="15.737641983495536"><ele>1108.0</ele><time>2026-05-02T13:51:02Z</time></trkpt><trkpt lat="40.453604040970546" lon="15.737592312898226"><ele>1108.0</ele><time>2026-05-02T13:51:04.999Z</time></trkpt><trkpt lat="40.453661281161374" lon="15.737517189926134"><ele>1108.0</ele><time>2026-05-02T13:51:07.999Z</time></trkpt><trkpt lat="40.45373423743817" lon="15.737499676098295"><ele>1108.0</ele><time>2026-05-02T13:51:09.999Z</time></trkpt><trkpt lat="40.45369006415771" lon="15.737437838699458"><ele>1108.0</ele><time>2026-05-02T13:51:12.999Z</time></trkpt><trkpt lat="40.453613487324034" lon="15.737501559809841"><ele>1108.0</ele><time>2026-05-02T13:51:14.999Z</time></trkpt><trkpt lat="40.453579979322846" lon="15.737594808164566"><ele>1108.0</ele><time>2026-05-02T13:51:16.999Z</time></trkpt><trkpt lat="40.45350854225034" lon="15.73770395415397"><ele>1108.0</ele><time>2026-05-02T13:51:18.999Z</time></trkpt><trkpt lat="40.453421032832644" lon="15.737746145094595"><ele>1108.0</ele><time>2026-05-02T13:51:20.999Z</time></trkpt><trkpt lat="40.45338458708431" lon="15.737862960336512"><ele>1108.0</ele><time>2026-05-02T13:51:22.999Z</time></trkpt><trkpt lat="40.45338854479691" lon="15.737953401535288"><ele>1108.0</ele><time>2026-05-02T13:51:24.999Z</time></trkpt><trkpt lat="40.45346606802319" lon="15.738030988195954"><ele>1108.0</ele><time>2026-05-02T13:51:26.999Z</time></trkpt><trkpt lat="40.45351108623547" lon="15.73812329936345"><ele>1108.0</ele><time>2026-05-02T13:51:28.999Z</time></trkpt><trkpt lat="40.45357054963603" lon="15.738237527622669"><ele>1108.0</ele><time>2026-05-02T13:51:31.999Z</time></trkpt><trkpt lat="40.45362587213266" lon="15.73833386842462"><ele>1108.0</ele><time>2026-05-02T13:51:34.999Z</time></trkpt><trkpt lat="40.453669829191185" lon="15.738418061173714"><ele>1108.0</ele><time>2026-05-02T13:51:36.999Z</time></trkpt><trkpt lat="40.453740455101325" lon="15.738504004529178"><ele>1108.0</ele><time>2026-05-02T13:51:38.999Z</time></trkpt><trkpt lat="40.45381722843746" lon="15.73857399718036"><ele>1108.0</ele><time>2026-05-02T13:51:40.999Z</time></trkpt><trkpt lat="40.453886238194364" lon="15.738685617390543"><ele>1108.0</ele><time>2026-05-02T13:51:42.999Z</time></trkpt><trkpt lat="40.45391439646262" lon="15.738776707784544"><ele>1108.0</ele><time>2026-05-02T13:51:44.999Z</time></trkpt><trkpt lat="40.453930181229325" lon="15.738868058216338"><ele>1108.0</ele><time>2026-05-02T13:51:45.999Z</time></trkpt><trkpt lat="40.4539475831739" lon="15.739007246393953"><ele>1109.1666666666665</ele><time>2026-05-02T13:51:47.999Z</time></trkpt><trkpt lat="40.45396914543808" lon="15.739125927225952"><ele>1110.3333333333333</ele><time>2026-05-02T13:51:49.999Z</time></trkpt><trkpt lat="40.45398793927319" lon="15.739236649226305"><ele>1111.5</ele><time>2026-05-02T13:51:50.999Z</time></trkpt><trkpt lat="40.45402023230464" lon="15.739313608481623"><ele>1112.6666666666667</ele><time>2026-05-02T13:51:59.999Z</time></trkpt><trkpt lat="40.45407613932875" lon="15.73935449042184"><ele>1113.8333333333335</ele><time>2026-05-02T13:52:04.999Z</time></trkpt><trkpt lat="40.45413910982561" lon="15.739384352907864"><ele>1115.0</ele><time>2026-05-02T13:52:06.999Z</time></trkpt><trkpt lat="40.45421660335045" lon="15.739368023421177"><ele>1116.5</ele><time>2026-05-02T13:52:14.998Z</time></trkpt><trkpt lat="40.454274684045856" lon="15.739334269971954"><ele>1118.0</ele><time>2026-05-02T13:52:17.998Z</time></trkpt><trkpt lat="40.45437426980286" lon="15.739286946845056"><ele>1119.5</ele><time>2026-05-02T13:52:20.998Z</time></trkpt><trkpt lat="40.45444974802969" lon="15.739261238604552"><ele>1121.0</ele><time>2026-05-02T13:52:23.998Z</time></trkpt><trkpt lat="40.454513465629496" lon="15.739255589617683"><ele>1122.5</ele><time>2026-05-02T13:52:25.998Z</time></trkpt><trkpt lat="40.45459066199489" lon="15.739281473240371"><ele>1124.0</ele><time>2026-05-02T13:52:30Z</time></trkpt><trkpt lat="40.45467229065258" lon="15.739337750093902"><ele>1124.0000000000002</ele><time>2026-05-02T13:52:34Z</time></trkpt><trkpt lat="40.45473248932101" lon="15.739378095621522"><ele>1124.0</ele><time>2026-05-02T13:52:36Z</time></trkpt><trkpt lat="40.45479265582532" lon="15.73941182513219"><ele>1124.0</ele><time>2026-05-02T13:52:39Z</time></trkpt><trkpt lat="40.45485192153168" lon="15.739443738114424"><ele>1124.0</ele><time>2026-05-02T13:52:44Z</time></trkpt><trkpt lat="40.45492145657856" lon="15.739465647545918"><ele>1124.0</ele><time>2026-05-02T13:52:57Z</time></trkpt><trkpt lat="40.4549790776172" lon="15.739521024577844"><ele>1124.0000000000002</ele><time>2026-05-02T13:53:00Z</time></trkpt><trkpt lat="40.455058373635495" lon="15.739497717855501"><ele>1124.0</ele><time>2026-05-02T13:53:02Z</time></trkpt><trkpt lat="40.45511569105864" lon="15.73954591929506"><ele>1122.2857142857144</ele><time>2026-05-02T13:53:06Z</time></trkpt><trkpt lat="40.45520173793926" lon="15.73956549290703"><ele>1120.5714285714287</ele><time>2026-05-02T13:53:18.999Z</time></trkpt><trkpt lat="40.455270163260174" lon="15.739544271638747"><ele>1118.857142857143</ele><time>2026-05-02T13:53:20.999Z</time></trkpt><trkpt lat="40.455334274358194" lon="15.73952336196963"><ele>1117.1428571428573</ele><time>2026-05-02T13:53:22.999Z</time></trkpt><trkpt lat="40.45541559018728" lon="15.739526344585412"><ele>1115.4285714285716</ele><time>2026-05-02T13:53:25.999Z</time></trkpt><trkpt lat="40.455486704658576" lon="15.739526061419978"><ele>1113.7142857142858</ele><time>2026-05-02T13:53:28.999Z</time></trkpt><trkpt lat="40.455553705611806" lon="15.739536576405838"><ele>1112.0</ele><time>2026-05-02T13:53:33.999Z</time></trkpt><trkpt lat="40.45562339031381" lon="15.739535424990725"><ele>1112.0</ele><time>2026-05-02T13:53:37.999Z</time></trkpt><trkpt lat="40.45570850303289" lon="15.739547512105641"><ele>1112.0</ele><time>2026-05-02T13:54:24.998Z</time></trkpt><trkpt lat="40.455777723503736" lon="15.739547694308275"><ele>1112.0</ele><time>2026-05-02T13:55:21.999Z</time></trkpt><trkpt lat="40.45579817659632" lon="15.739460846272245"><ele>1112.0</ele><time>2026-05-02T13:55:58.999Z</time></trkpt><trkpt lat="40.45589884498729" lon="15.739410408784762"><ele>1112.0</ele><time>2026-05-02T13:58:16.999Z</time></trkpt><trkpt lat="40.45597996994419" lon="15.7394224693515"><ele>1112.0</ele><time>2026-05-02T13:58:38.998Z</time></trkpt><trkpt lat="40.45606779422407" lon="15.739475339156296"><ele>1112.0</ele><time>2026-05-02T13:58:41.998Z</time></trkpt><trkpt lat="40.45611816406091" lon="15.73953989264019"><ele>1112.0</ele><time>2026-05-02T13:58:43.998Z</time></trkpt><trkpt lat="40.456186199700376" lon="15.739586618356684"><ele>1112.0</ele><time>2026-05-02T13:58:52Z</time></trkpt><trkpt lat="40.45622942686005" lon="15.73967380644591"><ele>1112.0</ele><time>2026-05-02T13:58:54Z</time></trkpt><trkpt lat="40.456261809811394" lon="15.739806918093127"><ele>1112.0</ele><time>2026-05-02T13:58:56Z</time></trkpt><trkpt lat="40.45628535838731" lon="15.73989818760702"><ele>1112.0</ele><time>2026-05-02T13:58:59Z</time></trkpt><trkpt lat="40.45635822024854" lon="15.739930701753934"><ele>1114.0</ele><time>2026-05-02T13:59:01Z</time></trkpt><trkpt lat="40.45641046572593" lon="15.740011287286581"><ele>1116.0</ele><time>2026-05-02T13:59:03Z</time></trkpt><trkpt lat="40.45648607958154" lon="15.740055167473477"><ele>1118.0</ele><time>2026-05-02T13:59:05Z</time></trkpt><trkpt lat="40.45657540178056" lon="15.740077518543167"><ele>1120.0</ele><time>2026-05-02T13:59:07Z</time></trkpt><trkpt lat="40.45667852917398" lon="15.740149414158907"><ele>1122.0</ele><time>2026-05-02T13:59:09Z</time></trkpt><trkpt lat="40.45674288360322" lon="15.740187169160844"><ele>1124.0</ele><time>2026-05-02T13:59:10Z</time></trkpt><trkpt lat="40.456825741922465" lon="15.74020082001283"><ele>1124.1666666666667</ele><time>2026-05-02T13:59:11Z</time></trkpt><trkpt lat="40.45691125199247" lon="15.740267338058139"><ele>1124.3333333333335</ele><time>2026-05-02T13:59:13Z</time></trkpt><trkpt lat="40.45694914224048" lon="15.740333641222374"><ele>1124.5</ele><time>2026-05-02T13:59:15Z</time></trkpt><trkpt lat="40.45698790620217" lon="15.74042437125875"><ele>1124.6666666666667</ele><time>2026-05-02T13:59:27Z</time></trkpt><trkpt lat="40.45703799075465" lon="15.740358529392113"><ele>1124.8333333333333</ele><time>2026-05-02T13:59:42.999Z</time></trkpt><trkpt lat="40.45710738719729" lon="15.740427711140192"><ele>1125.0</ele><time>2026-05-02T13:59:46.999Z</time></trkpt><trkpt lat="40.45723631669745" lon="15.740409353787008"><ele>1125.0</ele><time>2026-05-02T13:59:48.999Z</time></trkpt><trkpt lat="40.45729813089409" lon="15.740376248268559"><ele>1125.0</ele><time>2026-05-02T13:59:50.999Z</time></trkpt><trkpt lat="40.45736182198183" lon="15.740302704886918"><ele>1125.0</ele><time>2026-05-02T13:59:53.999Z</time></trkpt><trkpt lat="40.45743136697369" lon="15.740230670836631"><ele>1125.0</ele><time>2026-05-02T13:59:55.999Z</time></trkpt><trkpt lat="40.45751067532606" lon="15.740240788814477"><ele>1125.0</ele><time>2026-05-02T13:59:57.999Z</time></trkpt><trkpt lat="40.45759856374488" lon="15.740233662216376"><ele>1125.0</ele><time>2026-05-02T14:00:00.999Z</time></trkpt><trkpt lat="40.45765920417297" lon="15.740210099519274"><ele>1125.0</ele><time>2026-05-02T14:00:03.999Z</time></trkpt><trkpt lat="40.45772287780203" lon="15.740255108286677"><ele>1125.0</ele><time>2026-05-02T14:00:09.999Z</time></trkpt><trkpt lat="40.45764211666189" lon="15.740241986492496"><ele>1125.0</ele><time>2026-05-02T14:00:25.999Z</time></trkpt><trkpt lat="40.457553793820345" lon="15.740234779362652"><ele>1125.0</ele><time>2026-05-02T14:00:29.999Z</time></trkpt><trkpt lat="40.45747385300537" lon="15.740235093685131"><ele>1125.0</ele><time>2026-05-02T14:00:31.999Z</time></trkpt><trkpt lat="40.45741187388592" lon="15.74021028585331"><ele>1125.0</ele><time>2026-05-02T14:00:34.999Z</time></trkpt><trkpt lat="40.4573451165243" lon="15.740235859697437"><ele>1125.0</ele><time>2026-05-02T14:00:42.998Z</time></trkpt><trkpt lat="40.4573127943954" lon="15.740318800758436"><ele>1125.0</ele><time>2026-05-02T14:00:45.998Z</time></trkpt><trkpt lat="40.45727079956162" lon="15.740400894030158"><ele>1125.0</ele><time>2026-05-02T14:00:49.998Z</time></trkpt><trkpt lat="40.45723000013939" lon="15.740467499994256"><ele>1125.0</ele><time>2026-05-02T14:00:51.998Z</time></trkpt><trkpt lat="40.45712225141642" lon="15.740457546521315"><ele>1125.0</ele><time>2026-05-02T14:00:54Z</time></trkpt><trkpt lat="40.45706771826531" lon="15.740357719995782"><ele>1125.0</ele><time>2026-05-02T14:00:56Z</time></trkpt><trkpt lat="40.45701201479871" lon="15.74024129417681"><ele>1125.0</ele><time>2026-05-02T14:00:58Z</time></trkpt><trkpt lat="40.45694726046268" lon="15.740234127978475"><ele>1125.0</ele><time>2026-05-02T14:01:00Z</time></trkpt><trkpt lat="40.45695587726175" lon="15.740328476199695"><ele>1125.0</ele><time>2026-05-02T14:01:04Z</time></trkpt><trkpt lat="40.45699865880211" lon="15.740393667200612"><ele>1125.0</ele><time>2026-05-02T14:01:07Z</time></trkpt><trkpt lat="40.45704254575639" lon="15.740463791417001"><ele>1125.0</ele><time>2026-05-02T14:01:10Z</time></trkpt><trkpt lat="40.457089871410815" lon="15.74052721818279"><ele>1125.0</ele><time>2026-05-02T14:01:12Z</time></trkpt><trkpt lat="40.45712058841634" lon="15.740604584367643"><ele>1125.0</ele><time>2026-05-02T14:01:14Z</time></trkpt><trkpt lat="40.45720599939735" lon="15.740608630251858"><ele>1125.0</ele><time>2026-05-02T14:01:17Z</time></trkpt><trkpt lat="40.45723938250394" lon="15.74068280714175"><ele>1125.0</ele><time>2026-05-02T14:01:20Z</time></trkpt><trkpt lat="40.45731608744222" lon="15.740734788332835"><ele>1125.0</ele><time>2026-05-02T14:01:24Z</time></trkpt><trkpt lat="40.457378369390185" lon="15.740754811126525"><ele>1125.0</ele><time>2026-05-02T14:01:27Z</time></trkpt><trkpt lat="40.4575011255727" lon="15.740789358688838"><ele>1125.0</ele><time>2026-05-02T14:01:48.999Z</time></trkpt><trkpt lat="40.45761225634079" lon="15.740776092587282"><ele>1125.0</ele><time>2026-05-02T14:01:50.999Z</time></trkpt><trkpt lat="40.45759069081527" lon="15.740867491435742"><ele>1125.0</ele><time>2026-05-02T14:01:52.999Z</time></trkpt><trkpt lat="40.45766982855801" lon="15.740891866973406"><ele>1125.0</ele><time>2026-05-02T14:01:55.999Z</time></trkpt><trkpt lat="40.457719669876354" lon="15.740974565943002"><ele>1125.0</ele><time>2026-05-02T14:01:58.999Z</time></trkpt><trkpt lat="40.45778165588787" lon="15.741033161828293"><ele>1125.0</ele><time>2026-05-02T14:02:01.999Z</time></trkpt><trkpt lat="40.45782377016677" lon="15.741101246397342"><ele>1125.0</ele><time>2026-05-02T14:02:04.999Z</time></trkpt><trkpt lat="40.45785792913818" lon="15.741171576866861"><ele>1125.0</ele><time>2026-05-02T14:02:06.999Z</time></trkpt><trkpt lat="40.457918593444795" lon="15.741233399547541"><ele>1123.2857142857142</ele><time>2026-05-02T14:02:09.999Z</time></trkpt><trkpt lat="40.457973453411086" lon="15.741277812140844"><ele>1121.5714285714287</ele><time>2026-05-02T14:02:11.999Z</time></trkpt><trkpt lat="40.458028436425074" lon="15.741322434744436"><ele>1119.857142857143</ele><time>2026-05-02T14:02:13.999Z</time></trkpt><trkpt lat="40.45806923576661" lon="15.741386804079102"><ele>1118.142857142857</ele><time>2026-05-02T14:02:39.998Z</time></trkpt><trkpt lat="40.45814080957187" lon="15.741416693564567"><ele>1116.4285714285716</ele><time>2026-05-02T14:02:42.998Z</time></trkpt><trkpt lat="40.458218347667554" lon="15.741402026814999"><ele>1114.7142857142858</ele><time>2026-05-02T14:02:45.998Z</time></trkpt><trkpt lat="40.45827032636905" lon="15.74146352825549"><ele>1113.0</ele><time>2026-05-02T14:02:47.998Z</time></trkpt><trkpt lat="40.45831343309624" lon="15.741524927796059"><ele>1113.0</ele><time>2026-05-02T14:02:49.998Z</time></trkpt><trkpt lat="40.45837910021256" lon="15.741543210298357"><ele>1113.0</ele><time>2026-05-02T14:03:17Z</time></trkpt><trkpt lat="40.4584419290395" lon="15.741606137744919"><ele>1113.0</ele><time>2026-05-02T14:03:19Z</time></trkpt><trkpt lat="40.458512018357034" lon="15.741616866908307"><ele>1113.0</ele><time>2026-05-02T14:03:21Z</time></trkpt><trkpt lat="40.45859258299243" lon="15.741636604166043"><ele>1113.0</ele><time>2026-05-02T14:03:25Z</time></trkpt><trkpt lat="40.458662711694856" lon="15.741651707565056"><ele>1113.0</ele><time>2026-05-02T14:03:31Z</time></trkpt><trkpt lat="40.458760234833434" lon="15.741635384553334"><ele>1113.0</ele><time>2026-05-02T14:03:33Z</time></trkpt><trkpt lat="40.458833284801436" lon="15.741661852709862"><ele>1113.0</ele><time>2026-05-02T14:03:35Z</time></trkpt><trkpt lat="40.458916339867734" lon="15.741687184048624"><ele>1113.0</ele><time>2026-05-02T14:03:37Z</time></trkpt><trkpt lat="40.458991160518835" lon="15.741738620378271"><ele>1113.0</ele><time>2026-05-02T14:03:39Z</time></trkpt><trkpt lat="40.45905812856626" lon="15.741704327732878"><ele>1113.0</ele><time>2026-05-02T14:03:43Z</time></trkpt><trkpt lat="40.459125816507914" lon="15.741696225241268"><ele>1113.0</ele><time>2026-05-02T14:03:45.999Z</time></trkpt><trkpt lat="40.45920548284698" lon="15.741676393715583"><ele>1113.0</ele><time>2026-05-02T14:03:49.999Z</time></trkpt><trkpt lat="40.45929713520408" lon="15.741702145509098"><ele>1113.0</ele><time>2026-05-02T14:03:52.999Z</time></trkpt><trkpt lat="40.4593649620532" lon="15.741693864432953"><ele>1113.0</ele><time>2026-05-02T14:03:55.999Z</time></trkpt><trkpt lat="40.45948334189764" lon="15.741703255439152"><ele>1113.0</ele><time>2026-05-02T14:03:59.999Z</time></trkpt><trkpt lat="40.45955414897616" lon="15.741699877198982"><ele>1113.0</ele><time>2026-05-02T14:04:01.999Z</time></trkpt><trkpt lat="40.45963314935566" lon="15.741698699969152"><ele>1113.0</ele><time>2026-05-02T14:04:06.999Z</time></trkpt><trkpt lat="40.45970042829819" lon="15.741731882601682"><ele>1113.1666666666667</ele><time>2026-05-02T14:04:13.999Z</time></trkpt><trkpt lat="40.45976430500172" lon="15.74169318504532"><ele>1113.3333333333333</ele><time>2026-05-02T14:04:16.999Z</time></trkpt><trkpt lat="40.45984828949586" lon="15.74169921222672"><ele>1113.5</ele><time>2026-05-02T14:04:19.999Z</time></trkpt><trkpt lat="40.45993305329361" lon="15.741730998227515"><ele>1113.6666666666665</ele><time>2026-05-02T14:04:24.999Z</time></trkpt><trkpt lat="40.46000420490119" lon="15.741756736932716"><ele>1113.8333333333333</ele><time>2026-05-02T14:04:26.999Z</time></trkpt><trkpt lat="40.4600945230287" lon="15.74177251110466"><ele>1114.0</ele><time>2026-05-02T14:04:30.999Z</time></trkpt><trkpt lat="40.46018401973248" lon="15.741741234883436"><ele>1114.0</ele><time>2026-05-02T14:04:36.999Z</time></trkpt><trkpt lat="40.46027863620563" lon="15.741750715430156"><ele>1114.0</ele><time>2026-05-02T14:04:40.998Z</time></trkpt><trkpt lat="40.46035108522159" lon="15.741711783488169"><ele>1114.0</ele><time>2026-05-02T14:04:42.998Z</time></trkpt><trkpt lat="40.460438845469454" lon="15.74169927858152"><ele>1114.0</ele><time>2026-05-02T14:04:45.998Z</time></trkpt><trkpt lat="40.46048953418608" lon="15.741750408451274"><ele>1114.0</ele><time>2026-05-02T14:04:47.998Z</time></trkpt><trkpt lat="40.46054047231259" lon="15.741848306462723"><ele>1114.0</ele><time>2026-05-02T14:04:52.998Z</time></trkpt><trkpt lat="40.46057079927717" lon="15.741971547397663"><ele>1114.6666666666665</ele><time>2026-05-02T14:04:54.998Z</time></trkpt><trkpt lat="40.46061770123866" lon="15.742040131251757"><ele>1115.3333333333333</ele><time>2026-05-02T14:04:57.998Z</time></trkpt><trkpt lat="40.46057787820121" lon="15.74214278645775"><ele>1116.0</ele><time>2026-05-02T14:05:01.998Z</time></trkpt><trkpt lat="40.46062241800792" lon="15.742255966082695"><ele>1116.6666666666667</ele><time>2026-05-02T14:05:03.998Z</time></trkpt><trkpt lat="40.4606535589897" lon="15.742357651248387"><ele>1117.3333333333335</ele><time>2026-05-02T14:06:39.999Z</time></trkpt><trkpt lat="40.460625329114755" lon="15.7422822386791"><ele>1118.0</ele><time>2026-05-02T14:07:08.998Z</time></trkpt><trkpt lat="40.46069233228559" lon="15.742252604106648"><ele>1118.0</ele><time>2026-05-02T14:07:50.999Z</time></trkpt><trkpt lat="40.460625499062054" lon="15.742279008937023"><ele>1118.0</ele><time>2026-05-02T14:08:29.999Z</time></trkpt><trkpt lat="40.460655372574095" lon="15.742197974779588"><ele>1118.0</ele><time>2026-05-02T14:10:02.999Z</time></trkpt><trkpt lat="40.46060742381782" lon="15.742098811678506"><ele>1118.0</ele><time>2026-05-02T14:10:07.999Z</time></trkpt><trkpt lat="40.46057266068454" lon="15.741945719584537"><ele>1118.0</ele><time>2026-05-02T14:10:10.999Z</time></trkpt><trkpt lat="40.460569133297184" lon="15.741808228243228"><ele>1117.3333333333335</ele><time>2026-05-02T14:10:12.999Z</time></trkpt><trkpt lat="40.460502728164116" lon="15.741782880728767"><ele>1116.6666666666667</ele><time>2026-05-02T14:10:14.999Z</time></trkpt><trkpt lat="40.46042270193709" lon="15.741749934629855"><ele>1116.0</ele><time>2026-05-02T14:10:18.999Z</time></trkpt><trkpt lat="40.46035635340467" lon="15.741728208157971"><ele>1115.3333333333333</ele><time>2026-05-02T14:10:26.999Z</time></trkpt><trkpt lat="40.460353390289434" lon="15.741609832899693"><ele>1114.6666666666665</ele><time>2026-05-02T14:10:38.999Z</time></trkpt><trkpt lat="40.46040725419107" lon="15.7416761357626"><ele>1114.0</ele><time>2026-05-02T14:10:49.998Z</time></trkpt><trkpt lat="40.46039092853529" lon="15.741784845880575"><ele>1114.0</ele><time>2026-05-02T14:10:51.998Z</time></trkpt><trkpt lat="40.46029482780555" lon="15.74178302004985"><ele>1114.0</ele><time>2026-05-02T14:10:53.998Z</time></trkpt><trkpt lat="40.460226820432744" lon="15.741788705015729"><ele>1114.0</ele><time>2026-05-02T14:10:55.998Z</time></trkpt><trkpt lat="40.460179146361526" lon="15.741734472656207"><ele>1114.0</ele><time>2026-05-02T14:10:57.998Z</time></trkpt><trkpt lat="40.46010866803996" lon="15.741760338922324"><ele>1114.0</ele><time>2026-05-02T14:11:00.998Z</time></trkpt><trkpt lat="40.46001762366742" lon="15.741751882444648"><ele>1114.0</ele><time>2026-05-02T14:11:03.998Z</time></trkpt><trkpt lat="40.45996305800653" lon="15.74168865378385"><ele>1114.0</ele><time>2026-05-02T14:11:08.998Z</time></trkpt><trkpt lat="40.45989654467403" lon="15.741709772993113"><ele>1114.0</ele><time>2026-05-02T14:11:12.998Z</time></trkpt><trkpt lat="40.459804768968894" lon="15.741699751182223"><ele>1114.0</ele><time>2026-05-02T14:11:15.998Z</time></trkpt><trkpt lat="40.45972915666466" lon="15.74167079802596"><ele>1114.0</ele><time>2026-05-02T14:11:17.998Z</time></trkpt><trkpt lat="40.45962211157802" lon="15.741655638603243"><ele>1114.0</ele><time>2026-05-02T14:11:19.998Z</time></trkpt><trkpt lat="40.45954478836604" lon="15.741654574826509"><ele>1114.0</ele><time>2026-05-02T14:11:20.998Z</time></trkpt><trkpt lat="40.45949804524286" lon="15.741715208178478"><ele>1113.8333333333333</ele><time>2026-05-02T14:11:23Z</time></trkpt><trkpt lat="40.4594285057165" lon="15.741720798067954"><ele>1113.6666666666665</ele><time>2026-05-02T14:11:26Z</time></trkpt><trkpt lat="40.459351151786365" lon="15.741730256513668"><ele>1113.5</ele><time>2026-05-02T14:11:29Z</time></trkpt><trkpt lat="40.45927553448068" lon="15.741697442988674"><ele>1113.3333333333333</ele><time>2026-05-02T14:11:34Z</time></trkpt><trkpt lat="40.45919842323191" lon="15.741703132618225"><ele>1113.1666666666667</ele><time>2026-05-02T14:11:37Z</time></trkpt><trkpt lat="40.45911561040989" lon="15.741727787392144"><ele>1113.0</ele><time>2026-05-02T14:11:39Z</time></trkpt><trkpt lat="40.459043605687306" lon="15.74176030371011"><ele>1113.0</ele><time>2026-05-02T14:11:41Z</time></trkpt><trkpt lat="40.45896620412269" lon="15.74175839550256"><ele>1113.0</ele><time>2026-05-02T14:11:43Z</time></trkpt><trkpt lat="40.45890194244021" lon="15.741727930542996"><ele>1113.0</ele><time>2026-05-02T14:11:45Z</time></trkpt><trkpt lat="40.45883484178234" lon="15.74169932280453"><ele>1113.0</ele><time>2026-05-02T14:11:47Z</time></trkpt><trkpt lat="40.45875612299201" lon="15.741684680747024"><ele>1113.0</ele><time>2026-05-02T14:11:49Z</time></trkpt><trkpt lat="40.45866670522616" lon="15.741685547279802"><ele>1113.0</ele><time>2026-05-02T14:11:51Z</time></trkpt><trkpt lat="40.45859685127773" lon="15.741672717082057"><ele>1113.0</ele><time>2026-05-02T14:11:53Z</time></trkpt><trkpt lat="40.458520734758416" lon="15.741560124863954"><ele>1113.0</ele><time>2026-05-02T14:11:55Z</time></trkpt><trkpt lat="40.45843180103452" lon="15.74152184263142"><ele>1113.0</ele><time>2026-05-02T14:11:56Z</time></trkpt><trkpt lat="40.45834649239086" lon="15.74157029043014"><ele>1113.0</ele><time>2026-05-02T14:11:59Z</time></trkpt><trkpt lat="40.458265096823986" lon="15.741500982567796"><ele>1113.0</ele><time>2026-05-02T14:12:00Z</time></trkpt><trkpt lat="40.458188354269666" lon="15.74146996495346"><ele>1113.0</ele><time>2026-05-02T14:12:00.999Z</time></trkpt><trkpt lat="40.45810690774887" lon="15.741428509522965"><ele>1113.0</ele><time>2026-05-02T14:12:01.999Z</time></trkpt><trkpt lat="40.45804046096041" lon="15.741386478170094"><ele>1113.0</ele><time>2026-05-02T14:12:02.999Z</time></trkpt><trkpt lat="40.4579744346941" lon="15.7413278331108"><ele>1113.0</ele><time>2026-05-02T14:12:03.999Z</time></trkpt><trkpt lat="40.45791515810078" lon="15.741263933609256"><ele>1113.0</ele><time>2026-05-02T14:12:04.999Z</time></trkpt><trkpt lat="40.457846585150456" lon="15.741178014044454"><ele>1113.0</ele><time>2026-05-02T14:12:06.999Z</time></trkpt><trkpt lat="40.45778640798419" lon="15.741071104708347"><ele>1115.4</ele><time>2026-05-02T14:12:13.999Z</time></trkpt><trkpt lat="40.45769896407128" lon="15.74096658993636"><ele>1117.8</ele><time>2026-05-02T14:12:16.999Z</time></trkpt><trkpt lat="40.45761460629288" lon="15.740917304351973"><ele>1120.2</ele><time>2026-05-02T14:12:18.999Z</time></trkpt><trkpt lat="40.457484547180954" lon="15.740839834593887"><ele>1122.6</ele><time>2026-05-02T14:12:20.999Z</time></trkpt><trkpt lat="40.457409536187576" lon="15.740794321451494"><ele>1125.0</ele><time>2026-05-02T14:12:21.999Z</time></trkpt><trkpt lat="40.45734789525583" lon="15.740763689092237"><ele>1125.0</ele><time>2026-05-02T14:12:22.999Z</time></trkpt><trkpt lat="40.45726610745815" lon="15.740720744079267"><ele>1125.0</ele><time>2026-05-02T14:12:24.999Z</time></trkpt><trkpt lat="40.45722020434951" lon="15.740631451260498"><ele>1125.0</ele><time>2026-05-02T14:12:26.999Z</time></trkpt><trkpt lat="40.45721251523681" lon="15.740539327572252"><ele>1125.0</ele><time>2026-05-02T14:12:27.999Z</time></trkpt><trkpt lat="40.45708344012584" lon="15.740455134801072"><ele>1125.0</ele><time>2026-05-02T14:12:29.999Z</time></trkpt><trkpt lat="40.45701800541158" lon="15.740453819768524"><ele>1124.8333333333333</ele><time>2026-05-02T14:12:30.999Z</time></trkpt><trkpt lat="40.45696826416049" lon="15.740356462849071"><ele>1124.6666666666667</ele><time>2026-05-02T14:12:33.999Z</time></trkpt><trkpt lat="40.456936893218746" lon="15.740259736997617"><ele>1124.5</ele><time>2026-05-02T14:12:35.999Z</time></trkpt><trkpt lat="40.45686276998474" lon="15.740198877363659"><ele>1124.3333333333335</ele><time>2026-05-02T14:12:37.999Z</time></trkpt><trkpt lat="40.456772916418736" lon="15.740163073276682"><ele>1124.1666666666667</ele><time>2026-05-02T14:12:39.999Z</time></trkpt><trkpt lat="40.4566823147411" lon="15.740156137033328"><ele>1124.0</ele><time>2026-05-02T14:12:41.999Z</time></trkpt><trkpt lat="40.45662066870126" lon="15.74013337969198"><ele>1124.0</ele><time>2026-05-02T14:12:45.999Z</time></trkpt><trkpt lat="40.45656364905253" lon="15.740076362624459"><ele>1124.0</ele><time>2026-05-02T14:19:45.998Z</time></trkpt><trkpt lat="40.45650333070546" lon="15.740036647650314"><ele>1124.0</ele><time>2026-05-02T14:19:50Z</time></trkpt><trkpt lat="40.456427942656575" lon="15.74003828007008"><ele>1124.0</ele><time>2026-05-02T14:19:54Z</time></trkpt><trkpt lat="40.45635557608263" lon="15.73996957344723"><ele>1124.0</ele><time>2026-05-02T14:19:57Z</time></trkpt><trkpt lat="40.45632572040653" lon="15.739841356717688"><ele>1124.0</ele><time>2026-05-02T14:19:59Z</time></trkpt><trkpt lat="40.45626080371242" lon="15.739787557253619"><ele>1122.0</ele><time>2026-05-02T14:20:02Z</time></trkpt><trkpt lat="40.456239621562034" lon="15.739692611518045"><ele>1120.0</ele><time>2026-05-02T14:20:04Z</time></trkpt><trkpt lat="40.4562110012513" lon="15.739610207041878"><ele>1118.0</ele><time>2026-05-02T14:20:07Z</time></trkpt><trkpt lat="40.456150004984096" lon="15.739549429997025"><ele>1116.0</ele><time>2026-05-02T14:20:09Z</time></trkpt><trkpt lat="40.456052171846316" lon="15.739500782245466"><ele>1114.0</ele><time>2026-05-02T14:20:11Z</time></trkpt><trkpt lat="40.45600856144123" lon="15.739439682345838"><ele>1112.0</ele><time>2026-05-02T14:20:17Z</time></trkpt><trkpt lat="40.45595174176011" lon="15.739390225466032"><ele>1112.0</ele><time>2026-05-02T14:20:20Z</time></trkpt><trkpt lat="40.45588792297956" lon="15.739453296535633"><ele>1112.0</ele><time>2026-05-02T14:20:43.999Z</time></trkpt><trkpt lat="40.45580841970571" lon="15.739470335258892"><ele>1112.0</ele><time>2026-05-02T14:20:51.999Z</time></trkpt><trkpt lat="40.455735031228414" lon="15.739460282500508"><ele>1112.0</ele><time>2026-05-02T14:21:36.998Z</time></trkpt><trkpt lat="40.4557954595104" lon="15.739395268193789"><ele>1112.0</ele><time>2026-05-02T14:21:49.998Z</time></trkpt><trkpt lat="40.45579663843923" lon="15.739307095275883"><ele>1112.0</ele><time>2026-05-02T14:21:53Z</time></trkpt><trkpt lat="40.45574255646838" lon="15.739252105932788"><ele>1112.0</ele><time>2026-05-02T14:21:55Z</time></trkpt><trkpt lat="40.45568430748326" lon="15.739202276898894"><ele>1114.0</ele><time>2026-05-02T14:21:57Z</time></trkpt><trkpt lat="40.455624581384384" lon="15.739173578112469"><ele>1116.0</ele><time>2026-05-02T14:22:01Z</time></trkpt><trkpt lat="40.4555245195963" lon="15.7391793971813"><ele>1118.0</ele><time>2026-05-02T14:22:05Z</time></trkpt><trkpt lat="40.4555209597681" lon="15.739265119185099"><ele>1120.0</ele><time>2026-05-02T14:22:08Z</time></trkpt><trkpt lat="40.455460648277885" lon="15.739326805208018"><ele>1122.0</ele><time>2026-05-02T14:22:15Z</time></trkpt><trkpt lat="40.45539051916766" lon="15.739363935939718"><ele>1124.0</ele><time>2026-05-02T14:22:21Z</time></trkpt><trkpt lat="40.45531703046242" lon="15.739351897457764"><ele>1124.0</ele><time>2026-05-02T14:22:23Z</time></trkpt><trkpt lat="40.4552370036827" lon="15.739364064165228"><ele>1124.0</ele><time>2026-05-02T14:22:25.999Z</time></trkpt><trkpt lat="40.45518278306389" lon="15.73941712570586"><ele>1124.0</ele><time>2026-05-02T14:22:27.999Z</time></trkpt><trkpt lat="40.45512355366638" lon="15.739463357707029"><ele>1124.0</ele><time>2026-05-02T14:22:32.999Z</time></trkpt><trkpt lat="40.45504897003377" lon="15.739466046522653"><ele>1124.0</ele><time>2026-05-02T14:22:37.999Z</time></trkpt><trkpt lat="40.454979460896645" lon="15.739461539626898"><ele>1124.0</ele><time>2026-05-02T14:22:40.999Z</time></trkpt><trkpt lat="40.4548778879533" lon="15.739423329471427"><ele>1124.0</ele><time>2026-05-02T14:22:44.999Z</time></trkpt><trkpt lat="40.45480620180585" lon="15.739397208681165"><ele>1124.0</ele><time>2026-05-02T14:22:46.999Z</time></trkpt><trkpt lat="40.45473964240927" lon="15.739329918123948"><ele>1124.0</ele><time>2026-05-02T14:22:48.999Z</time></trkpt><trkpt lat="40.454673240922475" lon="15.739323435661946"><ele>1124.0</ele><time>2026-05-02T14:22:50.999Z</time></trkpt><trkpt lat="40.45459326375651" lon="15.73932556792457"><ele>1124.0</ele><time>2026-05-02T14:22:52.999Z</time></trkpt><trkpt lat="40.45451301433825" lon="15.739304004395215"><ele>1124.0</ele><time>2026-05-02T14:22:54.999Z</time></trkpt><trkpt lat="40.45443665936091" lon="15.739286394180128"><ele>1124.0</ele><time>2026-05-02T14:22:56.999Z</time></trkpt><trkpt lat="40.45435694960704" lon="15.739310201775771"><ele>1124.0</ele><time>2026-05-02T14:22:58.999Z</time></trkpt><trkpt lat="40.4542662858574" lon="15.739388661130109"><ele>1124.0</ele><time>2026-05-02T14:23:00.999Z</time></trkpt><trkpt lat="40.454188952337304" lon="15.73941740265226"><ele>1124.0</ele><time>2026-05-02T14:23:03.999Z</time></trkpt><trkpt lat="40.45408382745693" lon="15.739432058430792"><ele>1124.0</ele><time>2026-05-02T14:23:06.999Z</time></trkpt><trkpt lat="40.45400573467731" lon="15.73942283092031"><ele>1123.0000000000002</ele><time>2026-05-02T14:23:08.999Z</time></trkpt><trkpt lat="40.45394171065004" lon="15.739404721185718"><ele>1122.0</ele><time>2026-05-02T14:23:10.999Z</time></trkpt><trkpt lat="40.45388019146305" lon="15.739453196806194"><ele>1121.0</ele><time>2026-05-02T14:23:12.999Z</time></trkpt><trkpt lat="40.45382922278743" lon="15.7395172646215"><ele>1120.0</ele><time>2026-05-02T14:23:13.999Z</time></trkpt><trkpt lat="40.45378055093724" lon="15.739588213805419"><ele>1119.0</ele><time>2026-05-02T14:23:14.999Z</time></trkpt><trkpt lat="40.4537155181825" lon="15.739635568162344"><ele>1118.0000000000002</ele><time>2026-05-02T14:23:17.999Z</time></trkpt><trkpt lat="40.453653374471635" lon="15.739664204313433"><ele>1117.0</ele><time>2026-05-02T14:23:19.999Z</time></trkpt><trkpt lat="40.45358657872561" lon="15.73969689797486"><ele>1117.0</ele><time>2026-05-02T14:23:21.998Z</time></trkpt><trkpt lat="40.45350265415526" lon="15.739734264920186"><ele>1117.0</ele><time>2026-05-02T14:23:24.998Z</time></trkpt><trkpt lat="40.45349381248789" lon="15.73983126987432"><ele>1117.0</ele><time>2026-05-02T14:23:27.998Z</time></trkpt><trkpt lat="40.4535149523715" lon="15.739954251825726"><ele>1117.0</ele><time>2026-05-02T14:23:45.998Z</time></trkpt><trkpt lat="40.45354510260271" lon="15.740050976942078"><ele>1117.0</ele><time>2026-05-02T14:23:47.998Z</time></trkpt><trkpt lat="40.45358201816351" lon="15.740155657405863"><ele>1117.0</ele><time>2026-05-02T14:23:50.998Z</time></trkpt><trkpt lat="40.453596294917986" lon="15.740236745269181"><ele>1116.6666666666665</ele><time>2026-05-02T14:23:52.998Z</time></trkpt><trkpt lat="40.45356498508516" lon="15.740336145911833"><ele>1116.3333333333333</ele><time>2026-05-02T14:23:54.998Z</time></trkpt><trkpt lat="40.453510915241495" lon="15.740429087283394"><ele>1116.0</ele><time>2026-05-02T14:23:56.998Z</time></trkpt><trkpt lat="40.45345384338541" lon="15.740504999731735"><ele>1115.6666666666667</ele><time>2026-05-02T14:23:59Z</time></trkpt><trkpt lat="40.453385415966714" lon="15.740581231085915"><ele>1115.3333333333335</ele><time>2026-05-02T14:24:01Z</time></trkpt><trkpt lat="40.45334368408807" lon="15.740646490702336"><ele>1115.0</ele><time>2026-05-02T14:24:03Z</time></trkpt><trkpt lat="40.45331298580582" lon="15.740757434246827"><ele>1115.0</ele><time>2026-05-02T14:24:06Z</time></trkpt><trkpt lat="40.45332839390583" lon="15.740878214345088"><ele>1115.0</ele><time>2026-05-02T14:24:09Z</time></trkpt><trkpt lat="40.45337543153909" lon="15.740957478980842"><ele>1115.0</ele><time>2026-05-02T14:24:11Z</time></trkpt><trkpt lat="40.45343724199252" lon="15.741000990638899"><ele>1115.0</ele><time>2026-05-02T14:24:13Z</time></trkpt><trkpt lat="40.45351811551866" lon="15.741033262419846"><ele>1115.0</ele><time>2026-05-02T14:24:17Z</time></trkpt><trkpt lat="40.453598394200775" lon="15.741040602910223"><ele>1115.0</ele><time>2026-05-02T14:24:19Z</time></trkpt><trkpt lat="40.45366614867151" lon="15.741061858496593"><ele>1113.5</ele><time>2026-05-02T14:24:22Z</time></trkpt><trkpt lat="40.45373355240524" lon="15.741077758679635"><ele>1112.0</ele><time>2026-05-02T14:24:25Z</time></trkpt><trkpt lat="40.45381625247619" lon="15.741073684009256"><ele>1110.5</ele><time>2026-05-02T14:24:29Z</time></trkpt><trkpt lat="40.453915804772116" lon="15.741054661358639"><ele>1109.0</ele><time>2026-05-02T14:24:31Z</time></trkpt><trkpt lat="40.45399176649808" lon="15.741030656626927"><ele>1107.5</ele><time>2026-05-02T14:24:35.999Z</time></trkpt><trkpt lat="40.45402960404765" lon="15.740929921111084"><ele>1106.0</ele><time>2026-05-02T14:25:26.999Z</time></trkpt><trkpt lat="40.45405154122145" lon="15.740849644783646"><ele>1106.0</ele><time>2026-05-02T14:25:29.998Z</time></trkpt><trkpt lat="40.454096810168984" lon="15.740768807634458"><ele>1106.0</ele><time>2026-05-02T14:25:33.998Z</time></trkpt><trkpt lat="40.45416807246701" lon="15.74073337232454"><ele>1106.0</ele><time>2026-05-02T14:25:36.998Z</time></trkpt><trkpt lat="40.45422904334943" lon="15.740697322338985"><ele>1106.0</ele><time>2026-05-02T14:25:39.998Z</time></trkpt><trkpt lat="40.454328534256476" lon="15.740708923372825"><ele>1106.0</ele><time>2026-05-02T14:25:42.998Z</time></trkpt><trkpt lat="40.454399672761646" lon="15.740707433702774"><ele>1106.0</ele><time>2026-05-02T14:25:44.998Z</time></trkpt><trkpt lat="40.454469948416744" lon="15.74069843641627"><ele>1106.0</ele><time>2026-05-02T14:25:47.998Z</time></trkpt><trkpt lat="40.454555301798585" lon="15.740693946914726"><ele>1106.0</ele><time>2026-05-02T14:25:50.998Z</time></trkpt><trkpt lat="40.45463495736518" lon="15.740689621327872"><ele>1106.0</ele><time>2026-05-02T14:25:57.998Z</time></trkpt><trkpt lat="40.454691809680384" lon="15.740645638371808"><ele>1106.0</ele><time>2026-05-02T14:26:03.998Z</time></trkpt><trkpt lat="40.45474706435691" lon="15.740600282299845"><ele>1106.0</ele><time>2026-05-02T14:26:08Z</time></trkpt><trkpt lat="40.454823701207104" lon="15.740584822868591"><ele>1106.0</ele><time>2026-05-02T14:26:13Z</time></trkpt><trkpt lat="40.45489145780546" lon="15.740586817312492"><ele>1106.0</ele><time>2026-05-02T14:26:25Z</time></trkpt><trkpt lat="40.45495213732249" lon="15.740609850543676"><ele>1104.5</ele><time>2026-05-02T14:26:28Z</time></trkpt><trkpt lat="40.45503645229263" lon="15.740647810856386"><ele>1103.0</ele><time>2026-05-02T14:26:31Z</time></trkpt><trkpt lat="40.45509293646018" lon="15.74071876209355"><ele>1101.5</ele><time>2026-05-02T14:26:33Z</time></trkpt><trkpt lat="40.45513774363304" lon="15.740785476270911"><ele>1100.0</ele><time>2026-05-02T14:26:36Z</time></trkpt><trkpt lat="40.45517811107838" lon="15.740859108509813"><ele>1098.5</ele><time>2026-05-02T14:26:40Z</time></trkpt><trkpt lat="40.4552281140141" lon="15.740946333470925"><ele>1097.0</ele><time>2026-05-02T14:26:43.999Z</time></trkpt><trkpt lat="40.45527136415002" lon="15.741037983735065"><ele>1095.5</ele><time>2026-05-02T14:26:46.999Z</time></trkpt><trkpt lat="40.45533210066587" lon="15.741097427287764"><ele>1094.0</ele><time>2026-05-02T14:26:52.999Z</time></trkpt><trkpt lat="40.45542228418534" lon="15.741146491276083"><ele>1092.5</ele><time>2026-05-02T14:26:57.999Z</time></trkpt><trkpt lat="40.45549187302709" lon="15.741215582065923"><ele>1091.0</ele><time>2026-05-02T14:27:01.999Z</time></trkpt><trkpt lat="40.45554494903404" lon="15.741267818063736"><ele>1089.5</ele><time>2026-05-02T14:27:05.999Z</time></trkpt><trkpt lat="40.455601592845525" lon="15.741342322070544"><ele>1088.0</ele><time>2026-05-02T14:27:08.999Z</time></trkpt><trkpt lat="40.4556170934041" lon="15.7414320704511"><ele>1087.6666666666667</ele><time>2026-05-02T14:27:10.999Z</time></trkpt><trkpt lat="40.45568134279699" lon="15.741495056230972"><ele>1087.3333333333335</ele><time>2026-05-02T14:27:25.999Z</time></trkpt><trkpt lat="40.45572775419855" lon="15.741574930850765"><ele>1087.0</ele><time>2026-05-02T14:27:28.999Z</time></trkpt><trkpt lat="40.455772299833804" lon="15.741642036421656"><ele>1086.6666666666667</ele><time>2026-05-02T14:27:30.999Z</time></trkpt><trkpt lat="40.455831666600176" lon="15.741688954291911"><ele>1086.3333333333333</ele><time>2026-05-02T14:27:33.999Z</time></trkpt><trkpt lat="40.45590871058942" lon="15.741750304754362"><ele>1086.0</ele><time>2026-05-02T14:27:39.998Z</time></trkpt><trkpt lat="40.45595180386932" lon="15.741818596202629"><ele>1083.5</ele><time>2026-05-02T14:27:42.998Z</time></trkpt><trkpt lat="40.45597785072502" lon="15.741914521985903"><ele>1081.0</ele><time>2026-05-02T14:27:45.998Z</time></trkpt><trkpt lat="40.45601755313907" lon="15.742016337619026"><ele>1078.5</ele><time>2026-05-02T14:27:48.998Z</time></trkpt><trkpt lat="40.45607095389891" lon="15.742103980395003"><ele>1076.0</ele><time>2026-05-02T14:27:52.998Z</time></trkpt><trkpt lat="40.456142191358985" lon="15.742150184832445"><ele>1073.5</ele><time>2026-05-02T14:27:55.998Z</time></trkpt><trkpt lat="40.456209185642216" lon="15.742201501629646"><ele>1071.0</ele><time>2026-05-02T14:27:59.998Z</time></trkpt><trkpt lat="40.456246963953355" lon="15.742274525196033"><ele>1071.0</ele><time>2026-05-02T14:28:02.998Z</time></trkpt><trkpt lat="40.45627534793217" lon="15.742358108695868"><ele>1071.0</ele><time>2026-05-02T14:28:06.998Z</time></trkpt><trkpt lat="40.45631572120628" lon="15.74243224648395"><ele>1071.0</ele><time>2026-05-02T14:28:11Z</time></trkpt><trkpt lat="40.456348059274156" lon="15.742522799284394"><ele>1071.0</ele><time>2026-05-02T14:28:18Z</time></trkpt><trkpt lat="40.456366048505075" lon="15.742625453179997"><ele>1071.0</ele><time>2026-05-02T14:28:45.999Z</time></trkpt><trkpt lat="40.45634428818902" lon="15.742722182355786"><ele>1071.0</ele><time>2026-05-02T14:29:01.999Z</time></trkpt><trkpt lat="40.45635296080634" lon="15.742808182907215"><ele>1071.0</ele><time>2026-05-02T14:30:02.998Z</time></trkpt><trkpt lat="40.456373359129735" lon="15.742887929600144"><ele>1070.8333333333333</ele><time>2026-05-02T14:30:14.998Z</time></trkpt><trkpt lat="40.45636556118469" lon="15.742977126078262"><ele>1070.6666666666667</ele><time>2026-05-02T14:30:24Z</time></trkpt><trkpt lat="40.456360576538025" lon="15.743079617906547"><ele>1070.5</ele><time>2026-05-02T14:30:41Z</time></trkpt><trkpt lat="40.4562866775091" lon="15.743062566285525"><ele>1070.3333333333335</ele><time>2026-05-02T14:30:58Z</time></trkpt><trkpt lat="40.45620367435281" lon="15.743078328101996"><ele>1070.1666666666667</ele><time>2026-05-02T14:31:00.999Z</time></trkpt><trkpt lat="40.45615493355656" lon="15.74315695257715"><ele>1070.0</ele><time>2026-05-02T14:31:03.999Z</time></trkpt><trkpt lat="40.45620075316012" lon="15.743235266127837"><ele>1068.5714285714284</ele><time>2026-05-02T14:31:08.999Z</time></trkpt><trkpt lat="40.456173045428194" lon="15.743319747841158"><ele>1067.142857142857</ele><time>2026-05-02T14:31:16.999Z</time></trkpt><trkpt lat="40.45617488843106" lon="15.743409976432702"><ele>1065.7142857142858</ele><time>2026-05-02T14:31:31.999Z</time></trkpt><trkpt lat="40.45615986437185" lon="15.743504702871318"><ele>1064.2857142857142</ele><time>2026-05-02T14:31:35.999Z</time></trkpt><trkpt lat="40.45614169208677" lon="15.743593182366876"><ele>1062.857142857143</ele><time>2026-05-02T14:31:40.999Z</time></trkpt><trkpt lat="40.456116061071896" lon="15.743671516516928"><ele>1061.4285714285713</ele><time>2026-05-02T14:31:55.998Z</time></trkpt><trkpt lat="40.4561266337066" lon="15.743760876239028"><ele>1060.0</ele><time>2026-05-02T14:32:00.998Z</time></trkpt><trkpt lat="40.45613369730456" lon="15.743849702302189"><ele>1060.0</ele><time>2026-05-02T14:32:04.998Z</time></trkpt><trkpt lat="40.45618416140074" lon="15.743918861163971"><ele>1060.0</ele><time>2026-05-02T14:32:08.998Z</time></trkpt><trkpt lat="40.456244985159366" lon="15.743940668456819"><ele>1060.0</ele><time>2026-05-02T14:32:11.998Z</time></trkpt><trkpt lat="40.4563062704797" lon="15.743986114742414"><ele>1060.0</ele><time>2026-05-02T14:32:14.998Z</time></trkpt><trkpt lat="40.456391098733256" lon="15.744024162833245"><ele>1060.0</ele><time>2026-05-02T14:32:17.998Z</time></trkpt><trkpt lat="40.456453468958046" lon="15.744051552490065"><ele>1060.0</ele><time>2026-05-02T14:32:20.998Z</time></trkpt><trkpt lat="40.456365118523664" lon="15.744120312909287"><ele>1060.0</ele><time>2026-05-02T14:33:16.999Z</time></trkpt><trkpt lat="40.45642733634899" lon="15.744030646107188"><ele>1060.0</ele><time>2026-05-02T14:33:42.999Z</time></trkpt><trkpt lat="40.4564964345319" lon="15.7440693462493"><ele>1060.0</ele><time>2026-05-02T14:34:03.998Z</time></trkpt><trkpt lat="40.45641332101953" lon="15.744090654421516"><ele>1060.0</ele><time>2026-05-02T14:34:29Z</time></trkpt><trkpt lat="40.45643077527441" lon="15.744010475257351"><ele>1060.0</ele><time>2026-05-02T14:35:27.999Z</time></trkpt><trkpt lat="40.45647717075237" lon="15.744079824733518"><ele>1060.0</ele><time>2026-05-02T14:36:05.998Z</time></trkpt><trkpt lat="40.45640950787628" lon="15.744096494891927"><ele>1060.0</ele><time>2026-05-02T14:36:25.998Z</time></trkpt><trkpt lat="40.4564080285872" lon="15.744011857896025"><ele>1060.0</ele><time>2026-05-02T14:36:43Z</time></trkpt><trkpt lat="40.45646270620669" lon="15.744083245665356"><ele>1060.0</ele><time>2026-05-02T14:38:10.998Z</time></trkpt><trkpt lat="40.45640011732566" lon="15.744064777007218"><ele>1060.0</ele><time>2026-05-02T14:39:48.999Z</time></trkpt><trkpt lat="40.45648684740349" lon="15.74402367033496"><ele>1060.0</ele><time>2026-05-02T14:41:17Z</time></trkpt><trkpt lat="40.45642726999905" lon="15.74405366239891"><ele>1060.0</ele><time>2026-05-02T14:41:27.999Z</time></trkpt><trkpt lat="40.45629250038838" lon="15.744022030652438"><ele>1059.9999999999998</ele><time>2026-05-02T14:42:49.998Z</time></trkpt><trkpt lat="40.45636912485082" lon="15.744043287607994"><ele>1060.0</ele><time>2026-05-02T14:42:54Z</time></trkpt><trkpt lat="40.45643689738701" lon="15.744033233225046"><ele>1060.0</ele><time>2026-05-02T14:42:58Z</time></trkpt><trkpt lat="40.45638000734126" lon="15.74407555366144"><ele>1060.0</ele><time>2026-05-02T14:43:33.999Z</time></trkpt><trkpt lat="40.45640327336866" lon="15.743995852134361"><ele>1060.0</ele><time>2026-05-02T14:45:21Z</time></trkpt><trkpt lat="40.456402480089125" lon="15.74409896209106"><ele>1059.9999999999998</ele><time>2026-05-02T14:47:16Z</time></trkpt><trkpt lat="40.456443054516015" lon="15.744019346932129"><ele>1060.0</ele><time>2026-05-02T14:47:58.999Z</time></trkpt><trkpt lat="40.45653583806583" lon="15.743973364310813"><ele>1060.0</ele><time>2026-05-02T14:48:29.999Z</time></trkpt><trkpt lat="40.456454135919344" lon="15.744065173902332"><ele>1060.0</ele><time>2026-05-02T14:48:49.998Z</time></trkpt><trkpt lat="40.4563935363065" lon="15.744038757378922"><ele>1060.0</ele><time>2026-05-02T14:49:32Z</time></trkpt><trkpt lat="40.45637384322294" lon="15.744150157091319"><ele>1060.0</ele><time>2026-05-02T14:49:41Z</time></trkpt><trkpt lat="40.45640860166446" lon="15.74403522047235"><ele>1060.0</ele><time>2026-05-02T14:49:43Z</time></trkpt><trkpt lat="40.45636436391978" lon="15.744096599475304"><ele>1060.0</ele><time>2026-05-02T14:50:47.998Z</time></trkpt><trkpt lat="40.45633292045403" lon="15.744189452543031"><ele>1059.0</ele><time>2026-05-02T14:50:49.998Z</time></trkpt><trkpt lat="40.45626848251485" lon="15.744216417369724"><ele>1058.0</ele><time>2026-05-02T14:50:52.998Z</time></trkpt><trkpt lat="40.456197434071086" lon="15.744256460198201"><ele>1057.0</ele><time>2026-05-02T14:50:54.998Z</time></trkpt><trkpt lat="40.456153760601474" lon="15.744337472921748"><ele>1056.0</ele><time>2026-05-02T14:50:57.998Z</time></trkpt><trkpt lat="40.45614804765631" lon="15.74445221901273"><ele>1055.0</ele><time>2026-05-02T14:51:00.998Z</time></trkpt><trkpt lat="40.456148957465906" lon="15.744542613994014"><ele>1054.0</ele><time>2026-05-02T14:51:02.998Z</time></trkpt><trkpt lat="40.45617935833931" lon="15.744640766438877"><ele>1054.3333333333333</ele><time>2026-05-02T14:51:04.998Z</time></trkpt><trkpt lat="40.456186751912" lon="15.744737502982673"><ele>1054.6666666666665</ele><time>2026-05-02T14:51:08.998Z</time></trkpt><trkpt lat="40.45618759886696" lon="15.744872473429254"><ele>1055.0</ele><time>2026-05-02T14:51:10.998Z</time></trkpt><trkpt lat="40.45617276290577" lon="15.74495655781327"><ele>1055.3333333333333</ele><time>2026-05-02T14:51:13.998Z</time></trkpt><trkpt lat="40.45623772278502" lon="15.745043250603459"><ele>1055.6666666666667</ele><time>2026-05-02T14:51:17Z</time></trkpt><trkpt lat="40.45630271084608" lon="15.745014990522574"><ele>1056.0</ele><time>2026-05-02T14:51:21Z</time></trkpt><trkpt lat="40.45631001315457" lon="15.745097804426656"><ele>1054.6666666666667</ele><time>2026-05-02T14:51:27Z</time></trkpt><trkpt lat="40.45626766707833" lon="15.745191459083372"><ele>1053.3333333333333</ele><time>2026-05-02T14:51:30Z</time></trkpt><trkpt lat="40.45623699124711" lon="15.745270156342528"><ele>1052.0</ele><time>2026-05-02T14:51:31Z</time></trkpt><trkpt lat="40.4562089872319" lon="15.745376981592425"><ele>1050.6666666666665</ele><time>2026-05-02T14:51:34Z</time></trkpt><trkpt lat="40.4562603893286" lon="15.745491163093448"><ele>1049.3333333333333</ele><time>2026-05-02T14:51:40Z</time></trkpt><trkpt lat="40.45626562834696" lon="15.745576987755976"><ele>1048.0</ele><time>2026-05-02T14:51:48Z</time></trkpt><trkpt lat="40.45621634208732" lon="15.7456582541883"><ele>1047.8333333333333</ele><time>2026-05-02T14:52:06.999Z</time></trkpt><trkpt lat="40.456193444235296" lon="15.745764155452491"><ele>1047.6666666666665</ele><time>2026-05-02T14:52:10.999Z</time></trkpt><trkpt lat="40.456173732508546" lon="15.745855499581744"><ele>1047.5</ele><time>2026-05-02T14:52:13.999Z</time></trkpt><trkpt lat="40.45614603421383" lon="15.74594263225262"><ele>1047.3333333333333</ele><time>2026-05-02T14:52:14.999Z</time></trkpt><trkpt lat="40.456115123567685" lon="15.746081034536997"><ele>1047.1666666666667</ele><time>2026-05-02T14:52:16.999Z</time></trkpt><trkpt lat="40.45606507638159" lon="15.74613267652364"><ele>1047.0</ele><time>2026-05-02T14:52:17.999Z</time></trkpt><trkpt lat="40.456008850268304" lon="15.746196902907997"><ele>1046.8333333333333</ele><time>2026-05-02T14:52:20.999Z</time></trkpt><trkpt lat="40.455928229707546" lon="15.74619533459991"><ele>1046.6666666666667</ele><time>2026-05-02T14:52:35.999Z</time></trkpt><trkpt lat="40.45586816752837" lon="15.74623484826831"><ele>1046.5</ele><time>2026-05-02T14:52:37.999Z</time></trkpt><trkpt lat="40.455857925574314" lon="15.746317403254737"><ele>1046.3333333333335</ele><time>2026-05-02T14:52:40.999Z</time></trkpt><trkpt lat="40.455908572163516" lon="15.746266400221018"><ele>1046.1666666666667</ele><time>2026-05-02T14:52:43.999Z</time></trkpt><trkpt lat="40.455965149830796" lon="15.746168159245157"><ele>1046.0</ele><time>2026-05-02T14:52:45.999Z</time></trkpt><trkpt lat="40.456049106718744" lon="15.746058708349995"><ele>1046.1666666666667</ele><time>2026-05-02T14:52:47.999Z</time></trkpt><trkpt lat="40.45609064502658" lon="15.745984579285354"><ele>1046.3333333333335</ele><time>2026-05-02T14:52:48.999Z</time></trkpt><trkpt lat="40.45613790881372" lon="15.745854560845643"><ele>1046.5</ele><time>2026-05-02T14:52:50.999Z</time></trkpt><trkpt lat="40.45622087222142" lon="15.745808605780946"><ele>1046.6666666666667</ele><time>2026-05-02T14:52:53.998Z</time></trkpt><trkpt lat="40.45615868686975" lon="15.745788682510556"><ele>1046.8333333333333</ele><time>2026-05-02T14:52:55.998Z</time></trkpt><trkpt lat="40.45621730569502" lon="15.745685218913067"><ele>1047.0</ele><time>2026-05-02T14:52:57.998Z</time></trkpt><trkpt lat="40.45633600727614" lon="15.745663125333076"><ele>1047.8</ele><time>2026-05-02T14:52:59.998Z</time></trkpt><trkpt lat="40.45645627669127" lon="15.745574839923426"><ele>1048.6</ele><time>2026-05-02T14:53:01.998Z</time></trkpt><trkpt lat="40.456539904264204" lon="15.745559796986408"><ele>1049.3999999999999</ele><time>2026-05-02T14:53:03.998Z</time></trkpt><trkpt lat="40.45663268810577" lon="15.745595993266585"><ele>1050.2</ele><time>2026-05-02T14:53:05.998Z</time></trkpt><trkpt lat="40.45671394979252" lon="15.745620439629356"><ele>1051.0</ele><time>2026-05-02T14:53:07.998Z</time></trkpt><trkpt lat="40.45680920368873" lon="15.745654474574941"><ele>1051.0</ele><time>2026-05-02T14:53:09.998Z</time></trkpt><trkpt lat="40.45687832386317" lon="15.745618518271355"><ele>1051.0</ele><time>2026-05-02T14:53:30Z</time></trkpt><trkpt lat="40.4567962221147" lon="15.745666072746658"><ele>1051.0</ele><time>2026-05-02T14:53:32Z</time></trkpt><trkpt lat="40.45672546572575" lon="15.745673773797746"><ele>1051.0</ele><time>2026-05-02T14:53:45Z</time></trkpt><trkpt lat="40.45669816342238" lon="15.74559449810905"><ele>1051.0</ele><time>2026-05-02T14:53:50Z</time></trkpt><trkpt lat="40.45675707388537" lon="15.745539278146639"><ele>1051.0</ele><time>2026-05-02T14:53:54Z</time></trkpt><trkpt lat="40.45682611300308" lon="15.745516690495771"><ele>1051.0</ele><time>2026-05-02T14:54:02Z</time></trkpt><trkpt lat="40.456826613595915" lon="15.745429546740262"><ele>1051.0</ele><time>2026-05-02T14:54:11.999Z</time></trkpt><trkpt lat="40.4568614262659" lon="15.745556473788943"><ele>1051.0</ele><time>2026-05-02T14:54:14.999Z</time></trkpt><trkpt lat="40.45680018923818" lon="15.74563114231635"><ele>1051.0</ele><time>2026-05-02T14:54:16.999Z</time></trkpt><trkpt lat="40.45671145166678" lon="15.745594812783999"><ele>1051.0</ele><time>2026-05-02T14:54:18.999Z</time></trkpt><trkpt lat="40.456647247260804" lon="15.745602930707143"><ele>1051.0</ele><time>2026-05-02T14:54:19.999Z</time></trkpt><trkpt lat="40.45655753589847" lon="15.745584966756404"><ele>1051.0</ele><time>2026-05-02T14:54:21.999Z</time></trkpt><trkpt lat="40.45649085660507" lon="15.745584969878182"><ele>1051.0</ele><time>2026-05-02T14:54:23.999Z</time></trkpt><trkpt lat="40.45641304298557" lon="15.745587322564988"><ele>1051.0</ele><time>2026-05-02T14:54:26.999Z</time></trkpt><trkpt lat="40.456296924030504" lon="15.745518745285931"><ele>1051.0</ele><time>2026-05-02T14:54:29.999Z</time></trkpt><trkpt lat="40.45625537996638" lon="15.745442908408465"><ele>1051.0</ele><time>2026-05-02T14:54:32.999Z</time></trkpt><trkpt lat="40.456308242195114" lon="15.745386575634546"><ele>1051.0</ele><time>2026-05-02T14:54:33.999Z</time></trkpt><trkpt lat="40.45638809535731" lon="15.745353451871804"><ele>1051.0</ele><time>2026-05-02T14:54:37.999Z</time></trkpt><trkpt lat="40.45651167612656" lon="15.745358042217545"><ele>1051.0</ele><time>2026-05-02T14:54:39.999Z</time></trkpt><trkpt lat="40.45659181878187" lon="15.745296039709412"><ele>1051.0</ele><time>2026-05-02T14:54:41.999Z</time></trkpt><trkpt lat="40.45676141576586" lon="15.745238519944335"><ele>1051.0</ele><time>2026-05-02T14:54:42.999Z</time></trkpt><trkpt lat="40.45684069108313" lon="15.74524768550788"><ele>1051.0</ele><time>2026-05-02T14:54:44.999Z</time></trkpt><trkpt lat="40.45693226404307" lon="15.745264005797065"><ele>1051.0</ele><time>2026-05-02T14:54:46.999Z</time></trkpt><trkpt lat="40.457003397429524" lon="15.745287817681179"><ele>1051.0</ele><time>2026-05-02T14:54:47.999Z</time></trkpt><trkpt lat="40.45709636165062" lon="15.74528859962402"><ele>1051.0</ele><time>2026-05-02T14:54:49.999Z</time></trkpt><trkpt lat="40.4571865108358" lon="15.745329373476993"><ele>1051.0</ele><time>2026-05-02T14:54:51.999Z</time></trkpt><trkpt lat="40.4572682595702" lon="15.745369597655387"><ele>1051.0</ele><time>2026-05-02T14:54:53.999Z</time></trkpt><trkpt lat="40.45733897745764" lon="15.745333740434427"><ele>1051.0</ele><time>2026-05-02T14:54:59.998Z</time></trkpt><trkpt lat="40.45743415777771" lon="15.7453189009973"><ele>1051.0</ele><time>2026-05-02T14:55:02.998Z</time></trkpt><trkpt lat="40.45749526252994" lon="15.745276449791582"><ele>1052.8</ele><time>2026-05-02T14:55:04.998Z</time></trkpt><trkpt lat="40.457610342526934" lon="15.745191216585146"><ele>1054.6</ele><time>2026-05-02T14:55:06.998Z</time></trkpt><trkpt lat="40.457723230892995" lon="15.745150701272463"><ele>1056.4</ele><time>2026-05-02T14:55:07.998Z</time></trkpt><trkpt lat="40.457815008020454" lon="15.745138562834219"><ele>1058.2</ele><time>2026-05-02T14:55:08.998Z</time></trkpt><trkpt lat="40.457922160810234" lon="15.74512434197663"><ele>1060.0</ele><time>2026-05-02T14:55:10.998Z</time></trkpt><trkpt lat="40.45800311844013" lon="15.7452412053763"><ele>1060.5</ele><time>2026-05-02T14:55:12.998Z</time></trkpt><trkpt lat="40.45812330685604" lon="15.745323114237056"><ele>1061.0</ele><time>2026-05-02T14:55:14.998Z</time></trkpt><trkpt lat="40.45819039753094" lon="15.7453524175243"><ele>1061.5</ele><time>2026-05-02T14:55:15.998Z</time></trkpt><trkpt lat="40.45826992985653" lon="15.745393330050764"><ele>1062.0</ele><time>2026-05-02T14:55:16.998Z</time></trkpt><trkpt lat="40.458329212898875" lon="15.74545248123245"><ele>1062.5</ele><time>2026-05-02T14:55:18.998Z</time></trkpt><trkpt lat="40.45838636690784" lon="15.745493981173585"><ele>1063.0</ele><time>2026-05-02T14:55:21.998Z</time></trkpt><trkpt lat="40.45847826240757" lon="15.745544639442613"><ele>1063.0</ele><time>2026-05-02T14:55:23.998Z</time></trkpt><trkpt lat="40.458618215902234" lon="15.7455436382688"><ele>1063.0</ele><time>2026-05-02T14:55:25.998Z</time></trkpt><trkpt lat="40.458674804530254" lon="15.745591116748697"><ele>1063.0</ele><time>2026-05-02T14:55:36Z</time></trkpt><trkpt lat="40.45866607269633" lon="15.745710705228491"><ele>1063.0</ele><time>2026-05-02T14:55:53Z</time></trkpt><trkpt lat="40.45871526594966" lon="15.74578770840381"><ele>1063.0</ele><time>2026-05-02T14:55:59Z</time></trkpt><trkpt lat="40.45878047136797" lon="15.745753851281734"><ele>1063.0</ele><time>2026-05-02T14:56:02Z</time></trkpt><trkpt lat="40.45885091451716" lon="15.74570838066023"><ele>1061.5714285714284</ele><time>2026-05-02T14:56:05Z</time></trkpt><trkpt lat="40.45889680045709" lon="15.745650914929838"><ele>1060.142857142857</ele><time>2026-05-02T14:56:21.999Z</time></trkpt><trkpt lat="40.458951610212175" lon="15.745605665915233"><ele>1058.7142857142858</ele><time>2026-05-02T14:56:26.999Z</time></trkpt><trkpt lat="40.45889274679785" lon="15.745663173185488"><ele>1057.2857142857142</ele><time>2026-05-02T14:56:47.999Z</time></trkpt><trkpt lat="40.45894829305977" lon="15.74561846272183"><ele>1055.857142857143</ele><time>2026-05-02T14:57:11.998Z</time></trkpt><trkpt lat="40.458993568047724" lon="15.745556410950467"><ele>1054.4285714285713</ele><time>2026-05-02T14:57:16.998Z</time></trkpt><trkpt lat="40.45904470897622" lon="15.74549729640493"><ele>1053.0</ele><time>2026-05-02T14:57:25.998Z</time></trkpt><trkpt lat="40.45910473087179" lon="15.745430782875866"><ele>1053.0</ele><time>2026-05-02T14:57:37Z</time></trkpt><trkpt lat="40.45916119088768" lon="15.74551683768632"><ele>1053.0</ele><time>2026-05-02T14:57:41Z</time></trkpt><trkpt lat="40.459211417186836" lon="15.745573378012681"><ele>1053.0</ele><time>2026-05-02T14:57:43Z</time></trkpt><trkpt lat="40.45925339766586" lon="15.74564501613933"><ele>1053.0</ele><time>2026-05-02T14:57:51Z</time></trkpt><trkpt lat="40.45932018446543" lon="15.745745183773408"><ele>1053.0</ele><time>2026-05-02T14:57:57Z</time></trkpt><trkpt lat="40.459338268626006" lon="15.745825571682992"><ele>1053.0</ele><time>2026-05-02T14:58:19.999Z</time></trkpt><trkpt lat="40.4593825085466" lon="15.745892754679064"><ele>1053.0</ele><time>2026-05-02T14:58:33.999Z</time></trkpt><trkpt lat="40.45931165035123" lon="15.745847145222632"><ele>1053.0</ele><time>2026-05-02T15:01:40.998Z</time></trkpt><trkpt lat="40.4594075996868" lon="15.745882223910654"><ele>1053.0</ele><time>2026-05-02T15:02:46.999Z</time></trkpt><trkpt lat="40.4595108877886" lon="15.745864731583648"><ele>1053.0</ele><time>2026-05-02T15:02:56.999Z</time></trkpt><trkpt lat="40.45958355524524" lon="15.745806303942341"><ele>1053.0</ele><time>2026-05-02T15:03:02.999Z</time></trkpt><trkpt lat="40.45964689301843" lon="15.745763757907389"><ele>1053.0</ele><time>2026-05-02T15:03:07.999Z</time></trkpt><trkpt lat="40.45970434586891" lon="15.745702913084807"><ele>1053.4285714285713</ele><time>2026-05-02T15:03:29.998Z</time></trkpt><trkpt lat="40.459710185380914" lon="15.74578839441069"><ele>1053.857142857143</ele><time>2026-05-02T15:03:48.998Z</time></trkpt><trkpt lat="40.459752530774566" lon="15.74585815623941"><ele>1054.2857142857142</ele><time>2026-05-02T15:04:03Z</time></trkpt><trkpt lat="40.45981788543942" lon="15.745861355574219"><ele>1054.7142857142858</ele><time>2026-05-02T15:04:31.999Z</time></trkpt><trkpt lat="40.45984247162251" lon="15.745944135326475"><ele>1055.142857142857</ele><time>2026-05-02T15:06:15Z</time></trkpt><trkpt lat="40.45990011432048" lon="15.746003032281374"><ele>1055.5714285714284</ele><time>2026-05-02T15:06:20Z</time></trkpt><trkpt lat="40.45987390453837" lon="15.746115201679284"><ele>1056.0</ele><time>2026-05-02T15:06:26Z</time></trkpt><trkpt lat="40.459857915384646" lon="15.746203488734677"><ele>1056.2857142857142</ele><time>2026-05-02T15:06:35Z</time></trkpt><trkpt lat="40.45986655511477" lon="15.746290508704407"><ele>1056.5714285714287</ele><time>2026-05-02T15:06:40Z</time></trkpt><trkpt lat="40.45984203568425" lon="15.746372385419209"><ele>1056.857142857143</ele><time>2026-05-02T15:06:46Z</time></trkpt><trkpt lat="40.459847514090086" lon="15.746456975590002"><ele>1057.142857142857</ele><time>2026-05-02T15:06:52.999Z</time></trkpt><trkpt lat="40.45984542616436" lon="15.746542431557904"><ele>1057.4285714285713</ele><time>2026-05-02T15:07:10.999Z</time></trkpt><trkpt lat="40.459810956985926" lon="15.746626629214859"><ele>1057.7142857142858</ele><time>2026-05-02T15:07:31.999Z</time></trkpt><trkpt lat="40.45988144900594" lon="15.746626790509708"><ele>1058.0</ele><time>2026-05-02T15:07:59.998Z</time></trkpt><trkpt lat="40.45985572700322" lon="15.746705476535471"><ele>1058.0</ele><time>2026-05-02T15:08:02.998Z</time></trkpt><trkpt lat="40.45983778451934" lon="15.746607123079317"><ele>1058.0</ele><time>2026-05-02T15:08:06Z</time></trkpt><trkpt lat="40.45991985638553" lon="15.74666522801255"><ele>1058.0</ele><time>2026-05-02T15:08:11Z</time></trkpt><trkpt lat="40.45997219285366" lon="15.746718932222189"><ele>1058.0</ele><time>2026-05-02T15:08:19Z</time></trkpt><trkpt lat="40.460007087779324" lon="15.746804148075675"><ele>1058.0</ele><time>2026-05-02T15:08:33Z</time></trkpt><trkpt lat="40.46003721452143" lon="15.746893270375958"><ele>1058.0</ele><time>2026-05-02T15:08:37Z</time></trkpt><trkpt lat="40.46006526925309" lon="15.746972351704432"><ele>1058.8333333333335</ele><time>2026-05-02T15:08:43Z</time></trkpt><trkpt lat="40.46005835173585" lon="15.747073913249263"><ele>1059.6666666666667</ele><time>2026-05-02T15:08:53Z</time></trkpt><trkpt lat="40.460104204849785" lon="15.747198720742633"><ele>1060.5</ele><time>2026-05-02T15:08:54.999Z</time></trkpt><trkpt lat="40.46001333005237" lon="15.747300478398618"><ele>1061.3333333333333</ele><time>2026-05-02T15:08:56.999Z</time></trkpt><trkpt lat="40.45997845686497" lon="15.747377550046227"><ele>1062.1666666666665</ele><time>2026-05-02T15:08:57.999Z</time></trkpt><trkpt lat="40.459939976918655" lon="15.747454543858804"><ele>1063.0</ele><time>2026-05-02T15:08:59.999Z</time></trkpt><trkpt lat="40.45995721535498" lon="15.747541380865018"><ele>1063.0</ele><time>2026-05-02T15:09:01.999Z</time></trkpt><trkpt lat="40.45997632010401" lon="15.74762899188034"><ele>1063.0</ele><time>2026-05-02T15:09:04.999Z</time></trkpt><trkpt lat="40.459962740855275" lon="15.747712351188198"><ele>1063.0</ele><time>2026-05-02T15:09:06.999Z</time></trkpt><trkpt lat="40.459906353956185" lon="15.74781995306617"><ele>1063.0</ele><time>2026-05-02T15:09:59.998Z</time></trkpt><trkpt lat="40.459952843565226" lon="15.747751123030728"><ele>1063.0</ele><time>2026-05-02T15:10:17Z</time></trkpt><trkpt lat="40.459974633037405" lon="15.747658573734792"><ele>1063.0</ele><time>2026-05-02T15:12:05.998Z</time></trkpt><trkpt lat="40.46002289953125" lon="15.747748601532786"><ele>1064.142857142857</ele><time>2026-05-02T15:12:18Z</time></trkpt><trkpt lat="40.460054934219734" lon="15.74784810454584"><ele>1065.2857142857142</ele><time>2026-05-02T15:12:20Z</time></trkpt><trkpt lat="40.46011982913976" lon="15.747876833820733"><ele>1066.4285714285716</ele><time>2026-05-02T15:12:29Z</time></trkpt><trkpt lat="40.46017236355106" lon="15.747926531649016"><ele>1067.5714285714284</ele><time>2026-05-02T15:12:33Z</time></trkpt><trkpt lat="40.4602327218128" lon="15.747954856462936"><ele>1068.7142857142858</ele><time>2026-05-02T15:12:37Z</time></trkpt><trkpt lat="40.460308357053414" lon="15.747946836076839"><ele>1069.857142857143</ele><time>2026-05-02T15:13:11.999Z</time></trkpt><trkpt lat="40.4602782793643" lon="15.748022733195526"><ele>1071.0</ele><time>2026-05-02T15:13:44.999Z</time></trkpt><trkpt lat="40.46029413520148" lon="15.747916125752559"><ele>1071.0</ele><time>2026-05-02T15:13:47.999Z</time></trkpt><trkpt lat="40.46032842110044" lon="15.747820017940157"><ele>1071.0</ele><time>2026-05-02T15:13:48.999Z</time></trkpt><trkpt lat="40.46031320814754" lon="15.747952719804182"><ele>1071.0</ele><time>2026-05-02T15:13:51.999Z</time></trkpt><trkpt lat="40.46039084852436" lon="15.747969171127052"><ele>1071.0</ele><time>2026-05-02T15:14:17.998Z</time></trkpt><trkpt lat="40.46032502993284" lon="15.74803382691742"><ele>1071.0</ele><time>2026-05-02T15:15:24.999Z</time></trkpt><trkpt lat="40.46038182456497" lon="15.747996103431698"><ele>1071.0</ele><time>2026-05-02T15:15:32.999Z</time></trkpt><trkpt lat="40.46042722241069" lon="15.748083568846386"><ele>1071.0</ele><time>2026-05-02T15:16:27.998Z</time></trkpt><trkpt lat="40.46041902224372" lon="15.747970622246811"><ele>1071.0</ele><time>2026-05-02T15:16:34Z</time></trkpt><trkpt lat="40.46036285369267" lon="15.748010409821081"><ele>1071.0</ele><time>2026-05-02T15:21:13Z</time></trkpt><trkpt lat="40.46028873727045" lon="15.748017940958409"><ele>1071.0</ele><time>2026-05-02T15:22:31.998Z</time></trkpt><trkpt lat="40.46036859833783" lon="15.748013534262691"><ele>1071.0</ele><time>2026-05-02T15:22:42.998Z</time></trkpt><trkpt lat="40.4603128406111" lon="15.748067336973591"><ele>1071.0</ele><time>2026-05-02T15:22:46Z</time></trkpt><trkpt lat="40.46035406096132" lon="15.747965502531933"><ele>1071.0</ele><time>2026-05-02T15:22:54Z</time></trkpt><trkpt lat="40.46027472522972" lon="15.747969858351361"><ele>1071.0</ele><time>2026-05-02T15:23:00Z</time></trkpt><trkpt lat="40.46019740095103" lon="15.74795136300464"><ele>1071.0</ele><time>2026-05-02T15:23:08Z</time></trkpt><trkpt lat="40.46012926799633" lon="15.747919532639465"><ele>1071.0</ele><time>2026-05-02T15:23:11Z</time></trkpt><trkpt lat="40.46007169026566" lon="15.74788091921038"><ele>1071.0</ele><time>2026-05-02T15:23:14Z</time></trkpt><trkpt lat="40.46002612142789" lon="15.747792657950232"><ele>1071.0</ele><time>2026-05-02T15:23:17Z</time></trkpt><trkpt lat="40.45997938332285" lon="15.747732607637028"><ele>1071.0</ele><time>2026-05-02T15:23:19Z</time></trkpt><trkpt lat="40.459928947954005" lon="15.747632354516641"><ele>1069.6666666666667</ele><time>2026-05-02T15:23:22Z</time></trkpt><trkpt lat="40.45991492775852" lon="15.747521847259636"><ele>1068.3333333333333</ele><time>2026-05-02T15:23:26Z</time></trkpt><trkpt lat="40.45992001881557" lon="15.747434819488682"><ele>1067.0</ele><time>2026-05-02T15:23:28.999Z</time></trkpt><trkpt lat="40.45993220298182" lon="15.747342672624994"><ele>1065.6666666666665</ele><time>2026-05-02T15:23:30.999Z</time></trkpt><trkpt lat="40.459964093177334" lon="15.747262649611137"><ele>1064.3333333333333</ele><time>2026-05-02T15:23:32.999Z</time></trkpt><trkpt lat="40.45997217267778" lon="15.747158176651613"><ele>1063.0</ele><time>2026-05-02T15:23:35.999Z</time></trkpt><trkpt lat="40.46001589579398" lon="15.74705059849337"><ele>1063.0</ele><time>2026-05-02T15:23:39.999Z</time></trkpt><trkpt lat="40.46004066165632" lon="15.746954810061373"><ele>1063.0</ele><time>2026-05-02T15:23:43.999Z</time></trkpt><trkpt lat="40.46001648525669" lon="15.746876836716822"><ele>1063.0</ele><time>2026-05-02T15:23:45.999Z</time></trkpt><trkpt lat="40.45996807678552" lon="15.746788572351377"><ele>1063.0</ele><time>2026-05-02T15:23:52.999Z</time></trkpt><trkpt lat="40.45990894900561" lon="15.74674860366523"><ele>1063.0</ele><time>2026-05-02T15:23:54.999Z</time></trkpt><trkpt lat="40.45987253473934" lon="15.746652876085637"><ele>1063.0</ele><time>2026-05-02T15:23:58.999Z</time></trkpt><trkpt lat="40.45981256349882" lon="15.746617288880426"><ele>1063.0</ele><time>2026-05-02T15:24:02.999Z</time></trkpt><trkpt lat="40.45980018800555" lon="15.746497159197576"><ele>1062.2857142857142</ele><time>2026-05-02T15:24:09.999Z</time></trkpt><trkpt lat="40.459812447523376" lon="15.746408972124515"><ele>1061.5714285714287</ele><time>2026-05-02T15:24:14.999Z</time></trkpt><trkpt lat="40.45983572462958" lon="15.746297239290643"><ele>1060.857142857143</ele><time>2026-05-02T15:24:16.999Z</time></trkpt><trkpt lat="40.45982486880914" lon="15.746214186278628"><ele>1060.142857142857</ele><time>2026-05-02T15:24:18.999Z</time></trkpt><trkpt lat="40.459830541718276" lon="15.746109473393474"><ele>1059.4285714285713</ele><time>2026-05-02T15:24:25.998Z</time></trkpt><trkpt lat="40.45982635010796" lon="15.746002139744263"><ele>1058.7142857142858</ele><time>2026-05-02T15:24:30.998Z</time></trkpt><trkpt lat="40.459767875967245" lon="15.74596089994023"><ele>1058.0</ele><time>2026-05-02T15:24:34.998Z</time></trkpt><trkpt lat="40.45971599778023" lon="15.745877328351662"><ele>1057.6666666666667</ele><time>2026-05-02T15:24:37.998Z</time></trkpt><trkpt lat="40.45967877905942" lon="15.745775448326699"><ele>1057.3333333333335</ele><time>2026-05-02T15:24:44.998Z</time></trkpt><trkpt lat="40.459624339098575" lon="15.745837389166576"><ele>1057.0</ele><time>2026-05-02T15:24:48.998Z</time></trkpt><trkpt lat="40.459535080053904" lon="15.745889463791494"><ele>1056.6666666666667</ele><time>2026-05-02T15:24:50.998Z</time></trkpt><trkpt lat="40.459453392047216" lon="15.745908368934286"><ele>1056.3333333333333</ele><time>2026-05-02T15:24:55Z</time></trkpt><trkpt lat="40.45938334602926" lon="15.745889155929868"><ele>1056.0</ele><time>2026-05-02T15:24:57Z</time></trkpt><trkpt lat="40.45934061337141" lon="15.745820661426263"><ele>1055.5</ele><time>2026-05-02T15:25:00Z</time></trkpt><trkpt lat="40.45929323703696" lon="15.745739304494387"><ele>1055.0</ele><time>2026-05-02T15:25:02Z</time></trkpt><trkpt lat="40.45926358600181" lon="15.745654532478557"><ele>1054.5</ele><time>2026-05-02T15:25:04Z</time></trkpt><trkpt lat="40.45920645667899" lon="15.745583638767112"><ele>1054.0</ele><time>2026-05-02T15:25:07Z</time></trkpt><trkpt lat="40.45916555467851" lon="15.745478900816796"><ele>1053.5</ele><time>2026-05-02T15:25:09Z</time></trkpt><trkpt lat="40.459108617987575" lon="15.745428256801418"><ele>1053.0</ele><time>2026-05-02T15:25:12Z</time></trkpt><trkpt lat="40.45903509097123" lon="15.745449518826657"><ele>1053.0</ele><time>2026-05-02T15:25:16Z</time></trkpt><trkpt lat="40.459035424749324" lon="15.745544427115117"><ele>1053.0</ele><time>2026-05-02T15:25:19Z</time></trkpt><trkpt lat="40.458959754538014" lon="15.745638955717196"><ele>1053.0</ele><time>2026-05-02T15:25:21Z</time></trkpt><trkpt lat="40.45885609583454" lon="15.74574482594682"><ele>1053.0</ele><time>2026-05-02T15:25:23Z</time></trkpt><trkpt lat="40.45875592864554" lon="15.745772234896322"><ele>1053.0</ele><time>2026-05-02T15:25:25Z</time></trkpt><trkpt lat="40.458670941029695" lon="15.745805769948861"><ele>1054.6666666666667</ele><time>2026-05-02T15:25:27Z</time></trkpt><trkpt lat="40.45860525602166" lon="15.745810177725321"><ele>1056.3333333333333</ele><time>2026-05-02T15:25:29Z</time></trkpt><trkpt lat="40.4585392109668" lon="15.745815836191634"><ele>1058.0</ele><time>2026-05-02T15:25:31Z</time></trkpt><trkpt lat="40.45843866011731" lon="15.745819866665517"><ele>1059.6666666666665</ele><time>2026-05-02T15:25:35.999Z</time></trkpt><trkpt lat="40.4585133420399" lon="15.745783276229494"><ele>1061.3333333333333</ele><time>2026-05-02T15:25:42.999Z</time></trkpt><trkpt lat="40.458410688538486" lon="15.745772676033942"><ele>1063.0</ele><time>2026-05-02T15:25:47.999Z</time></trkpt><trkpt lat="40.45837546867943" lon="15.745686112423215"><ele>1063.0</ele><time>2026-05-02T15:26:19.999Z</time></trkpt><trkpt lat="40.45838095135408" lon="15.745549335269697"><ele>1063.0</ele><time>2026-05-02T15:26:22.999Z</time></trkpt><trkpt lat="40.4584120753802" lon="15.74546233236767"><ele>1063.0</ele><time>2026-05-02T15:26:26.998Z</time></trkpt><trkpt lat="40.4584585405427" lon="15.745388726108997"><ele>1063.0</ele><time>2026-05-02T15:26:30.998Z</time></trkpt><trkpt lat="40.45852664627903" lon="15.745414275357888"><ele>1063.0</ele><time>2026-05-02T15:26:33.998Z</time></trkpt><trkpt lat="40.45845023109415" lon="15.745459385533431"><ele>1063.0</ele><time>2026-05-02T15:26:38.998Z</time></trkpt><trkpt lat="40.458382732494634" lon="15.745497763132636"><ele>1063.0</ele><time>2026-05-02T15:26:43.998Z</time></trkpt><trkpt lat="40.45835011843902" lon="15.745590000432987"><ele>1063.0</ele><time>2026-05-02T15:26:56.998Z</time></trkpt><trkpt lat="40.45841296010561" lon="15.745549572503592"><ele>1063.0</ele><time>2026-05-02T15:27:12Z</time></trkpt><trkpt lat="40.45839866664142" lon="15.74546484407927"><ele>1063.0</ele><time>2026-05-02T15:27:22Z</time></trkpt><trkpt lat="40.458433554689314" lon="15.745339336630549"><ele>1063.0</ele><time>2026-05-02T15:27:26Z</time></trkpt><trkpt lat="40.458483292184184" lon="15.745215866049103"><ele>1063.0</ele><time>2026-05-02T15:27:28Z</time></trkpt><trkpt lat="40.45853478305323" lon="15.74513292206597"><ele>1063.1666666666665</ele><time>2026-05-02T15:27:29Z</time></trkpt><trkpt lat="40.45857622804706" lon="15.745069617092767"><ele>1063.3333333333333</ele><time>2026-05-02T15:27:30Z</time></trkpt><trkpt lat="40.45861626466576" lon="15.74494904653694"><ele>1063.5</ele><time>2026-05-02T15:27:33Z</time></trkpt><trkpt lat="40.45864450228179" lon="15.744874059058322"><ele>1063.6666666666667</ele><time>2026-05-02T15:27:34Z</time></trkpt><trkpt lat="40.45869885074673" lon="15.744780641993303"><ele>1063.8333333333335</ele><time>2026-05-02T15:27:36Z</time></trkpt><trkpt lat="40.45874497772098" lon="15.744715187696753"><ele>1064.0</ele><time>2026-05-02T15:27:38Z</time></trkpt><trkpt lat="40.458713551967854" lon="15.744833290302058"><ele>1064.0</ele><time>2026-05-02T15:28:29.999Z</time></trkpt><trkpt lat="40.458630711374106" lon="15.744883598249594"><ele>1064.0</ele><time>2026-05-02T15:28:31.998Z</time></trkpt><trkpt lat="40.45853616253375" lon="15.744853338936936"><ele>1064.0</ele><time>2026-05-02T15:28:33.998Z</time></trkpt><trkpt lat="40.45846114090003" lon="15.744817511216421"><ele>1064.0</ele><time>2026-05-02T15:28:35.998Z</time></trkpt><trkpt lat="40.45839511229394" lon="15.744782245001367"><ele>1064.0</ele><time>2026-05-02T15:28:39.998Z</time></trkpt><trkpt lat="40.4583696047264" lon="15.744698859365133"><ele>1064.0</ele><time>2026-05-02T15:28:42.998Z</time></trkpt><trkpt lat="40.458419600834475" lon="15.744611917670442"><ele>1064.0</ele><time>2026-05-02T15:28:45.998Z</time></trkpt><trkpt lat="40.45845162145492" lon="15.744517708284858"><ele>1064.0</ele><time>2026-05-02T15:28:51.998Z</time></trkpt><trkpt lat="40.45851735746631" lon="15.744453484351984"><ele>1064.0</ele><time>2026-05-02T15:28:55.998Z</time></trkpt><trkpt lat="40.4585270719553" lon="15.744333854932956"><ele>1064.0</ele><time>2026-05-02T15:28:58.998Z</time></trkpt><trkpt lat="40.45852682522534" lon="15.744227884704847"><ele>1064.0</ele><time>2026-05-02T15:29:07Z</time></trkpt><trkpt lat="40.458535951601455" lon="15.744105505269664"><ele>1064.0</ele><time>2026-05-02T15:29:14Z</time></trkpt><trkpt lat="40.45855575745697" lon="15.743998860468738"><ele>1065.0</ele><time>2026-05-02T15:29:41Z</time></trkpt><trkpt lat="40.4586039074388" lon="15.743848746717113"><ele>1066.0</ele><time>2026-05-02T15:29:53.999Z</time></trkpt><trkpt lat="40.45858389391289" lon="15.743937903072217"><ele>1067.0</ele><time>2026-05-02T15:30:37.999Z</time></trkpt><trkpt lat="40.45854912521107" lon="15.744058390945998"><ele>1068.0</ele><time>2026-05-02T15:30:49.998Z</time></trkpt><trkpt lat="40.458546308378466" lon="15.744141858410934"><ele>1069.0</ele><time>2026-05-02T15:30:52.998Z</time></trkpt><trkpt lat="40.45859686394868" lon="15.744209024630555"><ele>1070.0</ele><time>2026-05-02T15:30:55.998Z</time></trkpt><trkpt lat="40.458614620419425" lon="15.744292550140386"><ele>1070.0</ele><time>2026-05-02T15:30:58.998Z</time></trkpt><trkpt lat="40.45854684226153" lon="15.744352790971051"><ele>1070.0</ele><time>2026-05-02T15:31:04.998Z</time></trkpt><trkpt lat="40.45854118260887" lon="15.744442623442502"><ele>1070.0</ele><time>2026-05-02T15:31:07.998Z</time></trkpt><trkpt lat="40.4584823897226" lon="15.744507096022986"><ele>1070.0</ele><time>2026-05-02T15:31:13Z</time></trkpt><trkpt lat="40.458466006773804" lon="15.744591773946617"><ele>1070.0</ele><time>2026-05-02T15:31:16Z</time></trkpt><trkpt lat="40.45844805080162" lon="15.74470245431201"><ele>1070.0</ele><time>2026-05-02T15:31:19Z</time></trkpt><trkpt lat="40.458412635949294" lon="15.74478219246377"><ele>1069.0</ele><time>2026-05-02T15:31:22Z</time></trkpt><trkpt lat="40.458346867624115" lon="15.744810525377854"><ele>1068.0</ele><time>2026-05-02T15:31:27Z</time></trkpt><trkpt lat="40.45825353327545" lon="15.744814215335227"><ele>1067.0</ele><time>2026-05-02T15:31:31Z</time></trkpt><trkpt lat="40.458179771682886" lon="15.744846329990207"><ele>1066.0</ele><time>2026-05-02T15:31:35Z</time></trkpt><trkpt lat="40.45812271649587" lon="15.744881678838727"><ele>1065.0</ele><time>2026-05-02T15:31:40Z</time></trkpt><trkpt lat="40.458050047059096" lon="15.744922013566459"><ele>1064.0</ele><time>2026-05-02T15:31:44Z</time></trkpt><trkpt lat="40.45797011371593" lon="15.744977589339786"><ele>1063.2</ele><time>2026-05-02T15:31:47Z</time></trkpt><trkpt lat="40.457861326491255" lon="15.745023921547249"><ele>1062.4</ele><time>2026-05-02T15:31:48Z</time></trkpt><trkpt lat="40.457740808806676" lon="15.745059329834126"><ele>1061.6</ele><time>2026-05-02T15:31:50Z</time></trkpt><trkpt lat="40.45762282133241" lon="15.745115411980445"><ele>1060.8</ele><time>2026-05-02T15:31:51.999Z</time></trkpt><trkpt lat="40.45755032036839" lon="15.74512109298033"><ele>1060.0</ele><time>2026-05-02T15:31:52.999Z</time></trkpt><trkpt lat="40.45748506499479" lon="15.745117649226518"><ele>1060.0</ele><time>2026-05-02T15:31:53.999Z</time></trkpt><trkpt lat="40.45742111414311" lon="15.745090647895204"><ele>1060.0</ele><time>2026-05-02T15:31:55.999Z</time></trkpt><trkpt lat="40.45734542197466" lon="15.745048483350141"><ele>1060.0</ele><time>2026-05-02T15:31:58.999Z</time></trkpt><trkpt lat="40.4572763643273" lon="15.744996572029986"><ele>1060.0</ele><time>2026-05-02T15:32:01.999Z</time></trkpt><trkpt lat="40.45718131037743" lon="15.745051834768152"><ele>1060.0</ele><time>2026-05-02T15:32:05.999Z</time></trkpt><trkpt lat="40.45711014328967" lon="15.74503900462518"><ele>1060.0</ele><time>2026-05-02T15:32:07.999Z</time></trkpt><trkpt lat="40.457042186831096" lon="15.745073713035705"><ele>1059.3333333333333</ele><time>2026-05-02T15:32:09.999Z</time></trkpt><trkpt lat="40.456946554370695" lon="15.745029657229855"><ele>1058.6666666666665</ele><time>2026-05-02T15:32:12.999Z</time></trkpt><trkpt lat="40.456884545070736" lon="15.745077202186145"><ele>1058.0</ele><time>2026-05-02T15:32:15.999Z</time></trkpt><trkpt lat="40.45681646261107" lon="15.745079602553535"><ele>1057.3333333333333</ele><time>2026-05-02T15:32:18.999Z</time></trkpt><trkpt lat="40.456685578581876" lon="15.745157858119496"><ele>1056.6666666666667</ele><time>2026-05-02T15:32:22.999Z</time></trkpt><trkpt lat="40.456632396815706" lon="15.745205260125946"><ele>1056.0</ele><time>2026-05-02T15:32:23.999Z</time></trkpt><trkpt lat="40.45653222344319" lon="15.745284736539746"><ele>1055.1666666666667</ele><time>2026-05-02T15:32:26.999Z</time></trkpt><trkpt lat="40.45648128186378" lon="15.745347273307676"><ele>1054.3333333333333</ele><time>2026-05-02T15:32:27.999Z</time></trkpt><trkpt lat="40.456402240871284" lon="15.74538905766847"><ele>1053.5</ele><time>2026-05-02T15:32:29.999Z</time></trkpt><trkpt lat="40.45630906358197" lon="15.745404958902522"><ele>1052.6666666666665</ele><time>2026-05-02T15:32:31.999Z</time></trkpt><trkpt lat="40.45624158122394" lon="15.74540804131194"><ele>1051.8333333333333</ele><time>2026-05-02T15:32:34.999Z</time></trkpt><trkpt lat="40.456213474012074" lon="15.745315554038468"><ele>1051.0</ele><time>2026-05-02T15:32:36.999Z</time></trkpt><trkpt lat="40.45616567464269" lon="15.745382592878435"><ele>1050.5</ele><time>2026-05-02T15:32:43.998Z</time></trkpt><trkpt lat="40.456186869699685" lon="15.74526103774718"><ele>1050.0</ele><time>2026-05-02T15:32:47.998Z</time></trkpt><trkpt lat="40.45622973346749" lon="15.745172106864246"><ele>1049.5</ele><time>2026-05-02T15:32:55.998Z</time></trkpt><trkpt lat="40.456230052635405" lon="15.745260849489538"><ele>1049.0</ele><time>2026-05-02T15:32:59.998Z</time></trkpt><trkpt lat="40.456189406832" lon="15.745328711840417"><ele>1048.5</ele><time>2026-05-02T15:33:01.998Z</time></trkpt><trkpt lat="40.45617525511107" lon="15.745432740486535"><ele>1048.0</ele><time>2026-05-02T15:33:03.998Z</time></trkpt><trkpt lat="40.456173866144866" lon="15.745538115050216"><ele>1047.8</ele><time>2026-05-02T15:33:05.998Z</time></trkpt><trkpt lat="40.456161605553426" lon="15.74566506509618"><ele>1047.6</ele><time>2026-05-02T15:33:08.998Z</time></trkpt><trkpt lat="40.456195688232" lon="15.745753018087452"><ele>1047.4</ele><time>2026-05-02T15:33:12.998Z</time></trkpt><trkpt lat="40.456124290165974" lon="15.745847283300488"><ele>1047.2</ele><time>2026-05-02T15:33:16Z</time></trkpt><trkpt lat="40.456067602066994" lon="15.745951420484507"><ele>1047.0</ele><time>2026-05-02T15:33:17Z</time></trkpt><trkpt lat="40.455997853426695" lon="15.746029590161292"><ele>1046.857142857143</ele><time>2026-05-02T15:33:18Z</time></trkpt><trkpt lat="40.4559609068465" lon="15.746103675713995"><ele>1046.7142857142858</ele><time>2026-05-02T15:33:19Z</time></trkpt><trkpt lat="40.45597059882547" lon="15.746190605474085"><ele>1046.5714285714284</ele><time>2026-05-02T15:33:23Z</time></trkpt><trkpt lat="40.4559067312122" lon="15.746220238118052"><ele>1046.4285714285716</ele><time>2026-05-02T15:33:26Z</time></trkpt><trkpt lat="40.455837479589746" lon="15.746247918276563"><ele>1046.2857142857142</ele><time>2026-05-02T15:33:29Z</time></trkpt><trkpt lat="40.45575447742559" lon="15.746263900634986"><ele>1046.142857142857</ele><time>2026-05-02T15:33:33Z</time></trkpt><trkpt lat="40.455679961665886" lon="15.746290811444206"><ele>1046.0</ele><time>2026-05-02T15:33:42Z</time></trkpt><trkpt lat="40.45560533531069" lon="15.746318077861304"><ele>1046.0</ele><time>2026-05-02T15:33:44Z</time></trkpt><trkpt lat="40.45554473915311" lon="15.746370648751682"><ele>1046.0</ele><time>2026-05-02T15:33:47Z</time></trkpt><trkpt lat="40.455466537216026" lon="15.746366281207127"><ele>1046.0</ele><time>2026-05-02T15:33:50Z</time></trkpt><trkpt lat="40.455402411208375" lon="15.746440954409813"><ele>1046.0</ele><time>2026-05-02T15:34:00.999Z</time></trkpt><trkpt lat="40.455356849911226" lon="15.746358249315334"><ele>1046.0</ele><time>2026-05-02T15:34:06.999Z</time></trkpt><trkpt lat="40.45533417949914" lon="15.746279105346135"><ele>1046.0</ele><time>2026-05-02T15:34:09.999Z</time></trkpt><trkpt lat="40.4552623820536" lon="15.746287150874817"><ele>1044.3333333333335</ele><time>2026-05-02T15:34:12.999Z</time></trkpt><trkpt lat="40.45517710394748" lon="15.746245364955936"><ele>1042.6666666666667</ele><time>2026-05-02T15:34:15.999Z</time></trkpt><trkpt lat="40.45510235571445" lon="15.746245992702644"><ele>1041.0</ele><time>2026-05-02T15:34:19.999Z</time></trkpt><trkpt lat="40.455038176384484" lon="15.74620742688443"><ele>1039.3333333333333</ele><time>2026-05-02T15:34:27.999Z</time></trkpt><trkpt lat="40.45496243673919" lon="15.746236569370916"><ele>1037.6666666666665</ele><time>2026-05-02T15:34:32.999Z</time></trkpt><trkpt lat="40.45487576836533" lon="15.74621907132673"><ele>1036.0</ele><time>2026-05-02T15:35:01.998Z</time></trkpt><trkpt lat="40.45480105003705" lon="15.746220001487984"><ele>1036.0</ele><time>2026-05-02T15:35:09.998Z</time></trkpt><trkpt lat="40.45471133362586" lon="15.746201529446449"><ele>1036.0</ele><time>2026-05-02T15:35:13.998Z</time></trkpt><trkpt lat="40.45468233605411" lon="15.746126251085613"><ele>1036.0</ele><time>2026-05-02T15:35:17.998Z</time></trkpt><trkpt lat="40.45464444172498" lon="15.746055156349257"><ele>1036.0</ele><time>2026-05-02T15:35:22Z</time></trkpt><trkpt lat="40.454594311611565" lon="15.745996604249493"><ele>1036.0</ele><time>2026-05-02T15:35:36Z</time></trkpt><trkpt lat="40.45453114211841" lon="15.745964595865335"><ele>1036.0</ele><time>2026-05-02T15:35:42Z</time></trkpt><trkpt lat="40.454440546434405" lon="15.746007305366435"><ele>1035.2</ele><time>2026-05-02T15:35:50Z</time></trkpt><trkpt lat="40.454334741311904" lon="15.74599964730984"><ele>1034.3999999999999</ele><time>2026-05-02T15:35:54Z</time></trkpt><trkpt lat="40.454238904939764" lon="15.746061753752631"><ele>1033.6</ele><time>2026-05-02T15:35:58Z</time></trkpt><trkpt lat="40.4541848075301" lon="15.746116354839856"><ele>1032.8</ele><time>2026-05-02T15:36:00Z</time></trkpt><trkpt lat="40.45424941279679" lon="15.746077348638957"><ele>1032.0</ele><time>2026-05-02T15:36:01Z</time></trkpt><trkpt lat="40.45414703571129" lon="15.74613565133508"><ele>1030.0</ele><time>2026-05-02T15:36:03.999Z</time></trkpt><trkpt lat="40.454076009136344" lon="15.746160267162946"><ele>1028.0</ele><time>2026-05-02T15:36:05.999Z</time></trkpt><trkpt lat="40.4539259455196" lon="15.746217503882553"><ele>1026.0</ele><time>2026-05-02T15:36:11.999Z</time></trkpt><trkpt lat="40.453812156156275" lon="15.746275362089266"><ele>1024.0</ele><time>2026-05-02T15:36:13.999Z</time></trkpt><trkpt lat="40.453759889959706" lon="15.746353051194934"><ele>1022.0</ele><time>2026-05-02T15:36:16.999Z</time></trkpt><trkpt lat="40.45369031824571" lon="15.74634686890895"><ele>1021.5000000000001</ele><time>2026-05-02T15:36:18.999Z</time></trkpt><trkpt lat="40.4535876290099" lon="15.746332259450272"><ele>1021.0</ele><time>2026-05-02T15:36:20.999Z</time></trkpt><trkpt lat="40.453515860588666" lon="15.746334160538057"><ele>1020.5</ele><time>2026-05-02T15:36:23.999Z</time></trkpt><trkpt lat="40.453482981320136" lon="15.74626323082515"><ele>1020.0</ele><time>2026-05-02T15:37:15.998Z</time></trkpt><trkpt lat="40.453540628909145" lon="15.746315588470445"><ele>1019.5000000000001</ele><time>2026-05-02T15:37:32Z</time></trkpt><trkpt lat="40.45347827443367" lon="15.746372024283916"><ele>1019.0</ele><time>2026-05-02T15:37:56Z</time></trkpt><trkpt lat="40.45352669387022" lon="15.746287822183518"><ele>1019.0000000000001</ele><time>2026-05-02T15:38:00Z</time></trkpt><trkpt lat="40.45345632852061" lon="15.746336801883883"><ele>1019.0</ele><time>2026-05-02T15:38:04.999Z</time></trkpt><trkpt lat="40.45352297165238" lon="15.7462736970457"><ele>1019.0</ele><time>2026-05-02T15:38:26.999Z</time></trkpt><trkpt lat="40.453447493087026" lon="15.746338119939077"><ele>1019.0</ele><time>2026-05-02T15:38:42.999Z</time></trkpt><trkpt lat="40.453464167629285" lon="15.746255695447209"><ele>1019.0000000000001</ele><time>2026-05-02T15:38:45.999Z</time></trkpt><trkpt lat="40.45349014341692" lon="15.746352533786624"><ele>1019.0</ele><time>2026-05-02T15:38:48.999Z</time></trkpt><trkpt lat="40.45341782136821" lon="15.74630321801169"><ele>1019.0000000000001</ele><time>2026-05-02T15:38:57.998Z</time></trkpt><trkpt lat="40.45339913106581" lon="15.746382435343731"><ele>1019.0</ele><time>2026-05-02T15:39:01.998Z</time></trkpt><trkpt lat="40.453335227476266" lon="15.746404580677753"><ele>1019.0000000000001</ele><time>2026-05-02T15:39:04.998Z</time></trkpt><trkpt lat="40.45331653608074" lon="15.746489377910407"><ele>1019.0000000000001</ele><time>2026-05-02T15:39:09.998Z</time></trkpt><trkpt lat="40.45322668117098" lon="15.746586753694064"><ele>1019.0</ele><time>2026-05-02T15:39:15.998Z</time></trkpt><trkpt lat="40.45316376562801" lon="15.746607453964348"><ele>1019.0000000000001</ele><time>2026-05-02T15:39:18.998Z</time></trkpt><trkpt lat="40.4530965923789" lon="15.746592501510696"><ele>1019.0000000000001</ele><time>2026-05-02T15:39:24.998Z</time></trkpt><trkpt lat="40.453047816692894" lon="15.746515301335112"><ele>1019.0000000000001</ele><time>2026-05-02T15:39:27.998Z</time></trkpt><trkpt lat="40.45297426109829" lon="15.746486101756613"><ele>1019.0</ele><time>2026-05-02T15:41:27.998Z</time></trkpt><trkpt lat="40.453039343157954" lon="15.746545902943726"><ele>1019.0000000000001</ele><time>2026-05-02T15:41:41Z</time></trkpt><trkpt lat="40.45299979859021" lon="15.746471191041406"><ele>1019.0000000000001</ele><time>2026-05-02T15:42:18.999Z</time></trkpt><trkpt lat="40.45306335860738" lon="15.74645361754672"><ele>1019.0</ele><time>2026-05-02T15:46:26Z</time></trkpt><trkpt lat="40.45299110417186" lon="15.746447585286363"><ele>1019.0000000000001</ele><time>2026-05-02T15:49:42.998Z</time></trkpt><trkpt lat="40.453053876501194" lon="15.746465249089562"><ele>1019.0000000000001</ele><time>2026-05-02T15:50:25Z</time></trkpt><trkpt lat="40.4529983777102" lon="15.746418341841265"><ele>1019.0000000000001</ele><time>2026-05-02T15:57:22.999Z</time></trkpt><trkpt lat="40.45294318038594" lon="15.746362545336243"><ele>1019.0</ele><time>2026-05-02T15:57:30.999Z</time></trkpt><trkpt lat="40.45286882974543" lon="15.746353762363322"><ele>1019.0000000000001</ele><time>2026-05-02T15:57:48.998Z</time></trkpt><trkpt lat="40.452797382975064" lon="15.746334280756109"><ele>1019.0000000000001</ele><time>2026-05-02T15:57:57.998Z</time></trkpt><trkpt lat="40.45272424361523" lon="15.746342095486588"><ele>1019.0</ele><time>2026-05-02T15:58:01.998Z</time></trkpt><trkpt lat="40.452656522207235" lon="15.746335254822164"><ele>1019.0000000000001</ele><time>2026-05-02T15:58:29Z</time></trkpt><trkpt lat="40.4526702309011" lon="15.746246173351754"><ele>1019.0000000000001</ele><time>2026-05-02T15:58:52Z</time></trkpt><trkpt lat="40.452627450333146" lon="15.746184464298526"><ele>1019.0000000000001</ele><time>2026-05-02T15:59:01Z</time></trkpt><trkpt lat="40.45256640689785" lon="15.74616005163357"><ele>1019.0</ele><time>2026-05-02T15:59:24.999Z</time></trkpt><trkpt lat="40.45253936904463" lon="15.746054376853087"><ele>1019.0</ele><time>2026-05-02T15:59:29.999Z</time></trkpt><trkpt lat="40.452472564168986" lon="15.745976220921591"><ele>1019.0</ele><time>2026-05-02T15:59:38.999Z</time></trkpt><trkpt lat="40.452372470210015" lon="15.745924913072148"><ele>1019.0000000000001</ele><time>2026-05-02T15:59:41.999Z</time></trkpt><trkpt lat="40.45229342980869" lon="15.745929146060082"><ele>1019.0</ele><time>2026-05-02T15:59:47.999Z</time></trkpt><trkpt lat="40.45222881430582" lon="15.745932073298688"><ele>1018.8333333333334</ele><time>2026-05-02T15:59:51.998Z</time></trkpt><trkpt lat="40.45217074326986" lon="15.745987802441316"><ele>1018.6666666666667</ele><time>2026-05-02T16:00:08.998Z</time></trkpt><trkpt lat="40.452238355359384" lon="15.745950584353077"><ele>1018.5</ele><time>2026-05-02T16:00:29.998Z</time></trkpt><trkpt lat="40.45216220487154" lon="15.745988869606613"><ele>1018.3333333333333</ele><time>2026-05-02T16:00:37Z</time></trkpt><trkpt lat="40.45208077552745" lon="15.745993237324557"><ele>1018.1666666666666</ele><time>2026-05-02T16:00:42Z</time></trkpt><trkpt lat="40.4520450041697" lon="15.746079786357116"><ele>1018.0</ele><time>2026-05-02T16:00:44Z</time></trkpt><trkpt lat="40.451990894750786" lon="15.746148400594413"><ele>1017.9999999999999</ele><time>2026-05-02T16:00:46Z</time></trkpt><trkpt lat="40.45191132218867" lon="15.746143837796321"><ele>1018.0</ele><time>2026-05-02T16:00:49Z</time></trkpt><trkpt lat="40.45182905097162" lon="15.746262631292492"><ele>1018.0</ele><time>2026-05-02T16:00:54Z</time></trkpt><trkpt lat="40.451787598532654" lon="15.746349574658387"><ele>1018.0</ele><time>2026-05-02T16:00:59Z</time></trkpt><trkpt lat="40.45179175548095" lon="15.74644226896991"><ele>1017.9999999999999</ele><time>2026-05-02T16:01:04Z</time></trkpt><trkpt lat="40.45177060728299" lon="15.746538098270989"><ele>1018.0</ele><time>2026-05-02T16:01:09Z</time></trkpt><trkpt lat="40.45171396260995" lon="15.746611127380765"><ele>1017.9999999999999</ele><time>2026-05-02T16:01:11.999Z</time></trkpt><trkpt lat="40.45163492132438" lon="15.74660217065733"><ele>1018.0</ele><time>2026-05-02T16:01:15.999Z</time></trkpt><trkpt lat="40.45154734910978" lon="15.746652866161986"><ele>1018.0</ele><time>2026-05-02T16:01:20.999Z</time></trkpt><trkpt lat="40.45148233509189" lon="15.746672045169552"><ele>1018.0</ele><time>2026-05-02T16:01:23.999Z</time></trkpt><trkpt lat="40.45140430921698" lon="15.746730752691674"><ele>1017.9999999999999</ele><time>2026-05-02T16:01:27.999Z</time></trkpt><trkpt lat="40.45132480143861" lon="15.746749344828626"><ele>1018.0</ele><time>2026-05-02T16:01:33.999Z</time></trkpt><trkpt lat="40.45123831260981" lon="15.7467781624447"><ele>1016.6666666666666</ele><time>2026-05-02T16:01:40.999Z</time></trkpt><trkpt lat="40.45114965429798" lon="15.74682668581277"><ele>1015.3333333333333</ele><time>2026-05-02T16:01:43.999Z</time></trkpt><trkpt lat="40.451116323604076" lon="15.74692482320605"><ele>1014.0</ele><time>2026-05-02T16:01:47.999Z</time></trkpt><trkpt lat="40.451067942628676" lon="15.747015069495438"><ele>1012.6666666666667</ele><time>2026-05-02T16:01:52.999Z</time></trkpt><trkpt lat="40.45100235311638" lon="15.747105398448529"><ele>1011.3333333333334</ele><time>2026-05-02T16:01:56.999Z</time></trkpt><trkpt lat="40.45096971119905" lon="15.747197914126463"><ele>1010.0</ele><time>2026-05-02T16:02:02.998Z</time></trkpt><trkpt lat="40.450896426069136" lon="15.74722600041019"><ele>1008.8333333333334</ele><time>2026-05-02T16:02:20.998Z</time></trkpt><trkpt lat="40.45091800394957" lon="15.74732692838762"><ele>1007.6666666666667</ele><time>2026-05-02T16:02:28.998Z</time></trkpt><trkpt lat="40.4509113606958" lon="15.747418366081723"><ele>1006.5</ele><time>2026-05-02T16:02:32.998Z</time></trkpt><trkpt lat="40.45086373825327" lon="15.747554284430738"><ele>1005.3333333333333</ele><time>2026-05-02T16:02:36.998Z</time></trkpt><trkpt lat="40.45079517450869" lon="15.747519482911965"><ele>1004.1666666666666</ele><time>2026-05-02T16:02:42Z</time></trkpt><trkpt lat="40.45074029659199" lon="15.747438024184095"><ele>1003.0</ele><time>2026-05-02T16:02:49Z</time></trkpt><trkpt lat="40.4506767606583" lon="15.747428047408253"><ele>1002.9999999999999</ele><time>2026-05-02T16:03:03Z</time></trkpt><trkpt lat="40.45060302449128" lon="15.747450341804672"><ele>1003.0</ele><time>2026-05-02T16:03:08Z</time></trkpt><trkpt lat="40.450561291763684" lon="15.74737353459056"><ele>1003.0</ele><time>2026-05-02T16:03:12Z</time></trkpt><trkpt lat="40.4504974526644" lon="15.747399318940886"><ele>1003.0</ele><time>2026-05-02T16:03:13Z</time></trkpt><trkpt lat="40.45040835235118" lon="15.747411902810985"><ele>1002.9999999999999</ele><time>2026-05-02T16:03:15Z</time></trkpt><trkpt lat="40.450346565905456" lon="15.747305955261547"><ele>1003.0</ele><time>2026-05-02T16:03:17.999Z</time></trkpt><trkpt lat="40.45030011695547" lon="15.747390515883566"><ele>1000.9999999999999</ele><time>2026-05-02T16:03:20.999Z</time></trkpt><trkpt lat="40.45023022786886" lon="15.74741648761986"><ele>999.0</ele><time>2026-05-02T16:03:24.999Z</time></trkpt><trkpt lat="40.450163919748874" lon="15.747497495030157"><ele>997.0</ele><time>2026-05-02T16:03:54.999Z</time></trkpt><trkpt lat="40.45011108861885" lon="15.747558818089843"><ele>995.0</ele><time>2026-05-02T16:03:58.999Z</time></trkpt><trkpt lat="40.45002721443787" lon="15.747511256704295"><ele>992.9999999999999</ele><time>2026-05-02T16:04:00.999Z</time></trkpt><trkpt lat="40.449946011707674" lon="15.747539990329068"><ele>991.0</ele><time>2026-05-02T16:04:02.999Z</time></trkpt><trkpt lat="40.44985764814341" lon="15.747504906790446"><ele>991.0000000000001</ele><time>2026-05-02T16:04:04.999Z</time></trkpt><trkpt lat="40.44979614329773" lon="15.747526872526462"><ele>991.0</ele><time>2026-05-02T16:04:09.998Z</time></trkpt><trkpt lat="40.449735584423976" lon="15.747560728721357"><ele>991.0000000000001</ele><time>2026-05-02T16:04:12.998Z</time></trkpt><trkpt lat="40.44973944409775" lon="15.747650913235173"><ele>991.0000000000001</ele><time>2026-05-02T16:04:18.998Z</time></trkpt><trkpt lat="40.44967821868574" lon="15.747692886632173"><ele>991.0</ele><time>2026-05-02T16:04:38.998Z</time></trkpt><trkpt lat="40.449617440171586" lon="15.7477408884083"><ele>991.0000000000001</ele><time>2026-05-02T16:04:42.998Z</time></trkpt><trkpt lat="40.44957906964556" lon="15.747815721667642"><ele>991.0000000000001</ele><time>2026-05-02T16:04:44.998Z</time></trkpt><trkpt lat="40.44954924601544" lon="15.74789734744008"><ele>988.8333333333333</ele><time>2026-05-02T16:04:49Z</time></trkpt><trkpt lat="40.44947547839802" lon="15.74794124241341"><ele>986.6666666666666</ele><time>2026-05-02T16:04:51Z</time></trkpt><trkpt lat="40.449434085749814" lon="15.7480047035827"><ele>984.5</ele><time>2026-05-02T16:04:54Z</time></trkpt><trkpt lat="40.449351209091326" lon="15.748049607292106"><ele>982.3333333333333</ele><time>2026-05-02T16:04:57Z</time></trkpt><trkpt lat="40.449286040185854" lon="15.748108403840998"><ele>980.1666666666666</ele><time>2026-05-02T16:05:03Z</time></trkpt><trkpt lat="40.449215981553316" lon="15.748149690995959"><ele>978.0</ele><time>2026-05-02T16:05:07Z</time></trkpt><trkpt lat="40.44913138589439" lon="15.748195642588792"><ele>978.0</ele><time>2026-05-02T16:05:12Z</time></trkpt><trkpt lat="40.44905965413709" lon="15.74824421700151"><ele>978.0000000000001</ele><time>2026-05-02T16:05:15Z</time></trkpt><trkpt lat="40.448983013890604" lon="15.748285931572793"><ele>978.0</ele><time>2026-05-02T16:05:18Z</time></trkpt><trkpt lat="40.44890801680054" lon="15.74831089166842"><ele>978.0</ele><time>2026-05-02T16:05:21Z</time></trkpt><trkpt lat="40.44884493177716" lon="15.748338072969421"><ele>978.0000000000001</ele><time>2026-05-02T16:05:23.999Z</time></trkpt><trkpt lat="40.4487805115058" lon="15.748297030447345"><ele>978.0</ele><time>2026-05-02T16:05:26.999Z</time></trkpt><trkpt lat="40.448727848636985" lon="15.74824420072853"><ele>978.0</ele><time>2026-05-02T16:05:29.999Z</time></trkpt><trkpt lat="40.44863731162749" lon="15.748212618937627"><ele>974.6666666666666</ele><time>2026-05-02T16:05:31.999Z</time></trkpt><trkpt lat="40.44854495326917" lon="15.748143460332825"><ele>971.3333333333333</ele><time>2026-05-02T16:05:33.999Z</time></trkpt><trkpt lat="40.44856353454776" lon="15.748059998472463"><ele>968.0</ele><time>2026-05-02T16:05:34.999Z</time></trkpt><trkpt lat="40.44847704336687" lon="15.748105848746007"><ele>964.6666666666666</ele><time>2026-05-02T16:05:39.999Z</time></trkpt><trkpt lat="40.448409158920235" lon="15.748066013808065"><ele>961.3333333333333</ele><time>2026-05-02T16:05:42.999Z</time></trkpt><trkpt lat="40.448332869523924" lon="15.748076101553307"><ele>958.0</ele><time>2026-05-02T16:05:47.999Z</time></trkpt><trkpt lat="40.44828167021349" lon="15.748126930256127"><ele>958.0</ele><time>2026-05-02T16:05:57.999Z</time></trkpt><trkpt lat="40.448220779629175" lon="15.74810000043207"><ele>958.0</ele><time>2026-05-02T16:06:01.999Z</time></trkpt><trkpt lat="40.448157705334644" lon="15.748138820307688"><ele>958.0</ele><time>2026-05-02T16:06:03.999Z</time></trkpt><trkpt lat="40.44809605595239" lon="15.748103307755558"><ele>958.0</ele><time>2026-05-02T16:06:05.999Z</time></trkpt><trkpt lat="40.448047302120415" lon="15.7480452344536"><ele>958.0</ele><time>2026-05-02T16:06:08.999Z</time></trkpt><trkpt lat="40.44795578310819" lon="15.74803176753517"><ele>958.0</ele><time>2026-05-02T16:06:13.998Z</time></trkpt><trkpt lat="40.447896736572204" lon="15.748060683883505"><ele>958.0</ele><time>2026-05-02T16:06:19.998Z</time></trkpt><trkpt lat="40.447829127977684" lon="15.74808543544195"><ele>953.8333333333333</ele><time>2026-05-02T16:06:42.998Z</time></trkpt><trkpt lat="40.447759197161666" lon="15.748089611871876"><ele>949.6666666666666</ele><time>2026-05-02T16:06:46.998Z</time></trkpt><trkpt lat="40.44769138222068" lon="15.748116302056765"><ele>945.5</ele><time>2026-05-02T16:06:49.998Z</time></trkpt><trkpt lat="40.447627208694264" lon="15.748093352203806"><ele>941.3333333333333</ele><time>2026-05-02T16:06:54Z</time></trkpt><trkpt lat="40.447532572631445" lon="15.7480901093216"><ele>937.1666666666666</ele><time>2026-05-02T16:06:59Z</time></trkpt><trkpt lat="40.44746753474198" lon="15.748098053570052"><ele>933.0</ele><time>2026-05-02T16:07:01Z</time></trkpt><trkpt lat="40.44738329153395" lon="15.748077570940252"><ele>933.0</ele><time>2026-05-02T16:07:04Z</time></trkpt><trkpt lat="40.447318807026335" lon="15.747999198202141"><ele>933.0</ele><time>2026-05-02T16:07:08Z</time></trkpt><trkpt lat="40.44726733691471" lon="15.74791070362541"><ele>933.0</ele><time>2026-05-02T16:07:10Z</time></trkpt><trkpt lat="40.447187060200136" lon="15.747913414174539"><ele>933.0</ele><time>2026-05-02T16:07:15Z</time></trkpt><trkpt lat="40.44708175789247" lon="15.747909433081887"><ele>933.0</ele><time>2026-05-02T16:07:18Z</time></trkpt><trkpt lat="40.44698775722204" lon="15.747936336885942"><ele>929.8333333333334</ele><time>2026-05-02T16:07:20Z</time></trkpt><trkpt lat="40.446915271344835" lon="15.747955164497295"><ele>926.6666666666667</ele><time>2026-05-02T16:07:21Z</time></trkpt><trkpt lat="40.44685407244097" lon="15.747977696667975"><ele>923.5</ele><time>2026-05-02T16:07:22Z</time></trkpt><trkpt lat="40.44678050687588" lon="15.747990020570368"><ele>920.3333333333334</ele><time>2026-05-02T16:07:23Z</time></trkpt><trkpt lat="40.44670669970965" lon="15.748006439453697"><ele>917.1666666666667</ele><time>2026-05-02T16:07:24Z</time></trkpt><trkpt lat="40.44660272267063" lon="15.748034542474553"><ele>914.0</ele><time>2026-05-02T16:07:26Z</time></trkpt><trkpt lat="40.44653391492321" lon="15.74803958689751"><ele>914.0000000000001</ele><time>2026-05-02T16:07:27Z</time></trkpt><trkpt lat="40.446431041645326" lon="15.748012407122197"><ele>914.0</ele><time>2026-05-02T16:07:28.999Z</time></trkpt><trkpt lat="40.44636544453247" lon="15.747999781545152"><ele>914.0</ele><time>2026-05-02T16:07:29.999Z</time></trkpt><trkpt lat="40.44630178718388" lon="15.748005517967274"><ele>914.0</ele><time>2026-05-02T16:07:30.999Z</time></trkpt><trkpt lat="40.44620427299144" lon="15.747974796603287"><ele>914.0000000000001</ele><time>2026-05-02T16:07:32.999Z</time></trkpt><trkpt lat="40.446122420557025" lon="15.747912650648441"><ele>914.0</ele><time>2026-05-02T16:07:34.999Z</time></trkpt><trkpt lat="40.446034531637906" lon="15.747860579371382"><ele>911.8333333333334</ele><time>2026-05-02T16:07:36.999Z</time></trkpt><trkpt lat="40.445962734397845" lon="15.747835562134277"><ele>909.6666666666667</ele><time>2026-05-02T16:07:39.999Z</time></trkpt><trkpt lat="40.44589942642176" lon="15.747863399453127"><ele>907.5</ele><time>2026-05-02T16:07:40.999Z</time></trkpt><trkpt lat="40.44579641275152" lon="15.747886032743514"><ele>905.3333333333333</ele><time>2026-05-02T16:07:42.999Z</time></trkpt><trkpt lat="40.4457444954594" lon="15.74799686874236"><ele>903.1666666666666</ele><time>2026-05-02T16:07:45.999Z</time></trkpt><trkpt lat="40.44574455726398" lon="15.748104670059938"><ele>901.0</ele><time>2026-05-02T16:07:48.999Z</time></trkpt><trkpt lat="40.44576708736381" lon="15.748236840074513"><ele>900.9999999999999</ele><time>2026-05-02T16:07:50.999Z</time></trkpt><trkpt lat="40.44583917326759" lon="15.748294317973661"><ele>901.0</ele><time>2026-05-02T16:07:52.999Z</time></trkpt><trkpt lat="40.44588882065899" lon="15.74838125200156"><ele>901.0</ele><time>2026-05-02T16:07:54.999Z</time></trkpt><trkpt lat="40.44593117339453" lon="15.748468565805275"><ele>901.0</ele><time>2026-05-02T16:07:56.999Z</time></trkpt><trkpt lat="40.44597985201318" lon="15.748549147423052"><ele>900.9999999999999</ele><time>2026-05-02T16:07:58.999Z</time></trkpt><trkpt lat="40.44605576821938" lon="15.748586422557334"><ele>901.0</ele><time>2026-05-02T16:08:00.999Z</time></trkpt><trkpt lat="40.4461206529076" lon="15.748638979806302"><ele>899.5999999999999</ele><time>2026-05-02T16:08:02.999Z</time></trkpt><trkpt lat="40.44620684497322" lon="15.748661530659227"><ele>898.1999999999999</ele><time>2026-05-02T16:08:06.999Z</time></trkpt><trkpt lat="40.4463041203169" lon="15.748620413805504"><ele>896.8000000000001</ele><time>2026-05-02T16:08:08.999Z</time></trkpt><trkpt lat="40.44638831968379" lon="15.748609225113794"><ele>895.4000000000001</ele><time>2026-05-02T16:08:09.999Z</time></trkpt><trkpt lat="40.44648707203901" lon="15.748600881603071"><ele>894.0</ele><time>2026-05-02T16:08:10.999Z</time></trkpt><trkpt lat="40.446589377186704" lon="15.748588313390421"><ele>894.0</ele><time>2026-05-02T16:08:11.999Z</time></trkpt><trkpt lat="40.44674451265791" lon="15.748599404393213"><ele>894.0</ele><time>2026-05-02T16:08:12.999Z</time></trkpt><trkpt lat="40.44689540840022" lon="15.748634436862524"><ele>894.0</ele><time>2026-05-02T16:08:13.999Z</time></trkpt><trkpt lat="40.4470300266071" lon="15.748681521035001"><ele>894.0</ele><time>2026-05-02T16:08:14.999Z</time></trkpt><trkpt lat="40.4471347235444" lon="15.74872875912605"><ele>897.0</ele><time>2026-05-02T16:08:15.998Z</time></trkpt><trkpt lat="40.44721728567702" lon="15.748756745092752"><ele>900.0</ele><time>2026-05-02T16:08:16.998Z</time></trkpt><trkpt lat="40.447275137511475" lon="15.74883089647149"><ele>903.0</ele><time>2026-05-02T16:08:17.998Z</time></trkpt><trkpt lat="40.44735039272193" lon="15.748877999670135"><ele>906.0</ele><time>2026-05-02T16:08:18.998Z</time></trkpt><trkpt lat="40.4474029617369" lon="15.748988564170434"><ele>909.0</ele><time>2026-05-02T16:08:19.998Z</time></trkpt><trkpt lat="40.44746414234612" lon="15.749025460287315"><ele>912.0</ele><time>2026-05-02T16:08:20.998Z</time></trkpt><trkpt lat="40.44756356911008" lon="15.749063315310377"><ele>912.0</ele><time>2026-05-02T16:08:21.998Z</time></trkpt><trkpt lat="40.44767365705731" lon="15.749097718439678"><ele>912.0</ele><time>2026-05-02T16:08:22.998Z</time></trkpt><trkpt lat="40.44778813300443" lon="15.749136732427484"><ele>912.0</ele><time>2026-05-02T16:08:23.998Z</time></trkpt><trkpt lat="40.44786643480563" lon="15.749188849458783"><ele>912.0</ele><time>2026-05-02T16:08:24.998Z</time></trkpt><trkpt lat="40.44797286876841" lon="15.749301730446305"><ele>913.2</ele><time>2026-05-02T16:08:26.998Z</time></trkpt><trkpt lat="40.448032869318546" lon="15.74937299703347"><ele>914.4000000000001</ele><time>2026-05-02T16:08:27.998Z</time></trkpt><trkpt lat="40.44809179759153" lon="15.7494884020699"><ele>915.5999999999999</ele><time>2026-05-02T16:08:28.998Z</time></trkpt><trkpt lat="40.448160687087494" lon="15.749605406250566"><ele>916.8</ele><time>2026-05-02T16:08:29.998Z</time></trkpt><trkpt lat="40.448231338702314" lon="15.749688264869896"><ele>918.0</ele><time>2026-05-02T16:08:30.998Z</time></trkpt><trkpt lat="40.448318726344596" lon="15.74976485749173"><ele>918.0</ele><time>2026-05-02T16:08:31.998Z</time></trkpt><trkpt lat="40.44842337348412" lon="15.74986439906484"><ele>918.0</ele><time>2026-05-02T16:08:32.998Z</time></trkpt><trkpt lat="40.448505576718794" lon="15.749940043573456"><ele>918.0</ele><time>2026-05-02T16:08:33.998Z</time></trkpt><trkpt lat="40.44858775881126" lon="15.749979630857311"><ele>918.0</ele><time>2026-05-02T16:08:34.998Z</time></trkpt><trkpt lat="40.448644683298454" lon="15.750015010538604"><ele>918.0</ele><time>2026-05-02T16:08:35.998Z</time></trkpt><trkpt lat="40.44871467480957" lon="15.750072681737821"><ele>918.0</ele><time>2026-05-02T16:08:36.998Z</time></trkpt><trkpt lat="40.448762109063814" lon="15.7501686280846"><ele>918.0</ele><time>2026-05-02T16:08:37.998Z</time></trkpt><trkpt lat="40.448809024512244" lon="15.750273580885398"><ele>918.0</ele><time>2026-05-02T16:08:38.998Z</time></trkpt><trkpt lat="40.44886588214272" lon="15.750333817592098"><ele>918.0</ele><time>2026-05-02T16:08:39.998Z</time></trkpt><trkpt lat="40.44899208695237" lon="15.750431971321877"><ele>918.0</ele><time>2026-05-02T16:08:41.998Z</time></trkpt><trkpt lat="40.44906709050514" lon="15.7504815962891"><ele>918.8</ele><time>2026-05-02T16:08:42.998Z</time></trkpt><trkpt lat="40.44914523316226" lon="15.75053298132035"><ele>919.5999999999999</ele><time>2026-05-02T16:08:43.998Z</time></trkpt><trkpt lat="40.449215175283726" lon="15.750559043279372"><ele>920.4000000000001</ele><time>2026-05-02T16:08:44.998Z</time></trkpt><trkpt lat="40.44927730850106" lon="15.750617118820205"><ele>921.2</ele><time>2026-05-02T16:08:45.998Z</time></trkpt><trkpt lat="40.449373122057175" lon="15.750754753495666"><ele>922.0</ele><time>2026-05-02T16:08:46.998Z</time></trkpt><trkpt lat="40.44943283085741" lon="15.750853655005455"><ele>922.0</ele><time>2026-05-02T16:08:47.998Z</time></trkpt><trkpt lat="40.44947813095824" lon="15.750949878687964"><ele>922.0</ele><time>2026-05-02T16:08:48.998Z</time></trkpt><trkpt lat="40.44955945916119" lon="15.75100832217546"><ele>922.0</ele><time>2026-05-02T16:08:49.998Z</time></trkpt><trkpt lat="40.449649832401455" lon="15.75107393697696"><ele>922.0</ele><time>2026-05-02T16:08:50.998Z</time></trkpt><trkpt lat="40.449766550626855" lon="15.751169356769884"><ele>922.0</ele><time>2026-05-02T16:08:51.998Z</time></trkpt><trkpt lat="40.44982425554875" lon="15.751244196908262"><ele>922.2</ele><time>2026-05-02T16:08:52.998Z</time></trkpt><trkpt lat="40.4498890797031" lon="15.75130615134448"><ele>922.4000000000001</ele><time>2026-05-02T16:08:53.998Z</time></trkpt><trkpt lat="40.449958253774334" lon="15.751327941091642"><ele>922.5999999999999</ele><time>2026-05-02T16:08:55.998Z</time></trkpt><trkpt lat="40.450017749310426" lon="15.75138935591643"><ele>922.8</ele><time>2026-05-02T16:09:12Z</time></trkpt><trkpt lat="40.45010766663901" lon="15.751431454933677"><ele>923.0</ele><time>2026-05-02T16:09:14Z</time></trkpt><trkpt lat="40.45029511241461" lon="15.75147501934016"><ele>923.0000000000001</ele><time>2026-05-02T16:09:22Z</time></trkpt><trkpt lat="40.45033411895002" lon="15.751562034768803"><ele>923.0</ele><time>2026-05-02T16:09:25Z</time></trkpt><trkpt lat="40.45039277082281" lon="15.751651849591832"><ele>923.0</ele><time>2026-05-02T16:09:28Z</time></trkpt><trkpt lat="40.45043135046935" lon="15.751725122113426"><ele>923.0</ele><time>2026-05-02T16:09:30Z</time></trkpt><trkpt lat="40.45047865686302" lon="15.751823563606532"><ele>923.0000000000001</ele><time>2026-05-02T16:09:32Z</time></trkpt><trkpt lat="40.45053244867479" lon="15.75191232491998"><ele>923.0</ele><time>2026-05-02T16:09:34Z</time></trkpt><trkpt lat="40.45061659090337" lon="15.75199030920097"><ele>923.4</ele><time>2026-05-02T16:09:35.999Z</time></trkpt><trkpt lat="40.45067268061475" lon="15.752041047764775"><ele>923.8</ele><time>2026-05-02T16:09:36.999Z</time></trkpt><trkpt lat="40.45075654302609" lon="15.752147688351279"><ele>924.2</ele><time>2026-05-02T16:09:38.999Z</time></trkpt><trkpt lat="40.450829542087355" lon="15.752219732736803"><ele>924.6</ele><time>2026-05-02T16:09:40.999Z</time></trkpt><trkpt lat="40.45085661549442" lon="15.752303735054031"><ele>925.0</ele><time>2026-05-02T16:09:41.999Z</time></trkpt><trkpt lat="40.45087906070289" lon="15.752469861765537"><ele>925.0</ele><time>2026-05-02T16:09:43.999Z</time></trkpt><trkpt lat="40.45088137023531" lon="15.752607709276104"><ele>925.0</ele><time>2026-05-02T16:09:45.999Z</time></trkpt><trkpt lat="40.4508838463554" lon="15.752698899226305"><ele>925.0</ele><time>2026-05-02T16:09:47.999Z</time></trkpt><trkpt lat="40.450876071931205" lon="15.75279937701358"><ele>925.0</ele><time>2026-05-02T16:09:54.999Z</time></trkpt><trkpt lat="40.45109465294877" lon="15.752873642558583"><ele>926.8333333333333</ele><time>2026-05-02T16:09:56.999Z</time></trkpt><trkpt lat="40.45116372789025" lon="15.7529001754442"><ele>928.6666666666666</ele><time>2026-05-02T16:09:58.999Z</time></trkpt><trkpt lat="40.4512412828616" lon="15.75294930792655"><ele>930.5</ele><time>2026-05-02T16:10:01.999Z</time></trkpt><trkpt lat="40.451296664914615" lon="15.753001539151239"><ele>932.3333333333333</ele><time>2026-05-02T16:10:03.999Z</time></trkpt><trkpt lat="40.45140083029931" lon="15.753095368488534"><ele>934.1666666666666</ele><time>2026-05-02T16:10:05.999Z</time></trkpt><trkpt lat="40.451466591135656" lon="15.753137346041127"><ele>936.0</ele><time>2026-05-02T16:10:06.999Z</time></trkpt><trkpt lat="40.451536019187714" lon="15.753183275696962"><ele>936.0</ele><time>2026-05-02T16:10:07.999Z</time></trkpt><trkpt lat="40.45159863035713" lon="15.753197263008804"><ele>935.9999999999999</ele><time>2026-05-02T16:10:08.999Z</time></trkpt><trkpt lat="40.45170269079918" lon="15.753240456761302"><ele>935.9999999999999</ele><time>2026-05-02T16:10:10.999Z</time></trkpt><trkpt lat="40.45181047168647" lon="15.75329007677145"><ele>936.0</ele><time>2026-05-02T16:10:12.999Z</time></trkpt><trkpt lat="40.451863599407055" lon="15.753346679672923"><ele>936.0</ele><time>2026-05-02T16:10:13.999Z</time></trkpt><trkpt lat="40.45194508597093" lon="15.753414903399593"><ele>936.0</ele><time>2026-05-02T16:10:15.999Z</time></trkpt><trkpt lat="40.452004388043385" lon="15.753456041405336"><ele>935.9999999999999</ele><time>2026-05-02T16:10:16.999Z</time></trkpt><trkpt lat="40.45211259758706" lon="15.753491763669272"><ele>935.9999999999999</ele><time>2026-05-02T16:10:18.999Z</time></trkpt><trkpt lat="40.45223011158775" lon="15.75352015344811"><ele>936.0</ele><time>2026-05-02T16:10:20.999Z</time></trkpt><trkpt lat="40.45235302242978" lon="15.753549499467091"><ele>936.0</ele><time>2026-05-02T16:10:22.998Z</time></trkpt><trkpt lat="40.452425460366165" lon="15.753545938761519"><ele>939.5</ele><time>2026-05-02T16:10:23.998Z</time></trkpt><trkpt lat="40.45249545547804" lon="15.753563142544351"><ele>943.0</ele><time>2026-05-02T16:10:24.998Z</time></trkpt><trkpt lat="40.452564718849615" lon="15.753595239718896"><ele>946.5</ele><time>2026-05-02T16:10:25.998Z</time></trkpt><trkpt lat="40.45264192939128" lon="15.753606276201614"><ele>950.0</ele><time>2026-05-02T16:10:26.998Z</time></trkpt><trkpt lat="40.45272263002419" lon="15.753609705844507"><ele>953.5</ele><time>2026-05-02T16:10:27.998Z</time></trkpt><trkpt lat="40.452806908788645" lon="15.753613409848374"><ele>957.0</ele><time>2026-05-02T16:10:28.998Z</time></trkpt><trkpt lat="40.4528846553561" lon="15.753618417225356"><ele>958.5</ele><time>2026-05-02T16:10:29.998Z</time></trkpt><trkpt lat="40.45297441714145" lon="15.753595957116348"><ele>960.0</ele><time>2026-05-02T16:10:30.998Z</time></trkpt><trkpt lat="40.45303810453139" lon="15.753573754684046"><ele>961.5</ele><time>2026-05-02T16:10:31.998Z</time></trkpt><trkpt lat="40.45310605125069" lon="15.75355384545424"><ele>963.0</ele><time>2026-05-02T16:10:32.998Z</time></trkpt><trkpt lat="40.4531996082029" lon="15.753467997252262"><ele>964.5</ele><time>2026-05-02T16:10:34.998Z</time></trkpt><trkpt lat="40.45326120252089" lon="15.75340797487497"><ele>966.0</ele><time>2026-05-02T16:10:35.998Z</time></trkpt><trkpt lat="40.453332896079" lon="15.753325431741414"><ele>964.4</ele><time>2026-05-02T16:10:37.998Z</time></trkpt><trkpt lat="40.45343188478288" lon="15.75326198463803"><ele>962.8</ele><time>2026-05-02T16:10:39.998Z</time></trkpt><trkpt lat="40.45354665368709" lon="15.753189290423265"><ele>961.1999999999999</ele><time>2026-05-02T16:10:41.998Z</time></trkpt><trkpt lat="40.453634870841256" lon="15.753206751549238"><ele>959.5999999999999</ele><time>2026-05-02T16:10:43.998Z</time></trkpt><trkpt lat="40.453695000149104" lon="15.753235743290263"><ele>958.0</ele><time>2026-05-02T16:10:44.998Z</time></trkpt><trkpt lat="40.453790949234524" lon="15.75320962378951"><ele>957.9999999999999</ele><time>2026-05-02T16:10:46.998Z</time></trkpt><trkpt lat="40.45386821199717" lon="15.753149339618206"><ele>958.0</ele><time>2026-05-02T16:10:48.998Z</time></trkpt><trkpt lat="40.4539493944313" lon="15.753090672952187"><ele>958.0</ele><time>2026-05-02T16:10:50.998Z</time></trkpt><trkpt lat="40.45400496422825" lon="15.753045766247105"><ele>958.0</ele><time>2026-05-02T16:10:51.998Z</time></trkpt><trkpt lat="40.45409040383058" lon="15.75302772129598"><ele>957.9999999999999</ele><time>2026-05-02T16:10:53.998Z</time></trkpt><trkpt lat="40.45415090326706" lon="15.753053282295042"><ele>958.0</ele><time>2026-05-02T16:10:54.998Z</time></trkpt><trkpt lat="40.4542286082175" lon="15.753101153808103"><ele>957.9999999999999</ele><time>2026-05-02T16:10:55.998Z</time></trkpt><trkpt lat="40.454301080281276" lon="15.753149198988508"><ele>958.0</ele><time>2026-05-02T16:10:56.998Z</time></trkpt><trkpt lat="40.454360773459975" lon="15.753217693193749"><ele>958.0</ele><time>2026-05-02T16:10:57.998Z</time></trkpt><trkpt lat="40.45443839349005" lon="15.753272313868852"><ele>958.0</ele><time>2026-05-02T16:10:58.998Z</time></trkpt><trkpt lat="40.4545032169094" lon="15.753328535368741"><ele>957.9999999999999</ele><time>2026-05-02T16:10:59.998Z</time></trkpt><trkpt lat="40.45457503745542" lon="15.753378721515462"><ele>958.0</ele><time>2026-05-02T16:11:00.998Z</time></trkpt><trkpt lat="40.45466467359709" lon="15.753431116622973"><ele>960.0</ele><time>2026-05-02T16:11:01.998Z</time></trkpt><trkpt lat="40.45472987248441" lon="15.753463282570968"><ele>962.0</ele><time>2026-05-02T16:11:02.998Z</time></trkpt><trkpt lat="40.454827603314534" lon="15.753532976203122"><ele>964.0</ele><time>2026-05-02T16:11:05Z</time></trkpt><trkpt lat="40.45491546361997" lon="15.753592542054204"><ele>966.0</ele><time>2026-05-02T16:11:07Z</time></trkpt><trkpt lat="40.45511374948486" lon="15.753597995407619"><ele>972.4</ele><time>2026-05-02T16:11:09Z</time></trkpt><trkpt lat="40.45522694198954" lon="15.75358422453797"><ele>978.8</ele><time>2026-05-02T16:11:10Z</time></trkpt><trkpt lat="40.45532659376531" lon="15.753575855525522"><ele>985.1999999999999</ele><time>2026-05-02T16:11:12Z</time></trkpt><trkpt lat="40.455380345915415" lon="15.753632374049738"><ele>991.5999999999999</ele><time>2026-05-02T16:11:18Z</time></trkpt><trkpt lat="40.45548845144678" lon="15.753585812665927"><ele>998.0</ele><time>2026-05-02T16:11:20Z</time></trkpt><trkpt lat="40.45557773642127" lon="15.753595580789295"><ele>995.0</ele><time>2026-05-02T16:11:22Z</time></trkpt><trkpt lat="40.45567120076821" lon="15.753571529815671"><ele>992.0</ele><time>2026-05-02T16:11:23Z</time></trkpt><trkpt lat="40.45578737793274" lon="15.753545806102691"><ele>989.0</ele><time>2026-05-02T16:11:24Z</time></trkpt><trkpt lat="40.45588609539612" lon="15.75346613629618"><ele>986.0</ele><time>2026-05-02T16:11:25Z</time></trkpt><trkpt lat="40.45596937670941" lon="15.753433906798431"><ele>983.0</ele><time>2026-05-02T16:11:26Z</time></trkpt><trkpt lat="40.45604074332879" lon="15.753415290774344"><ele>983.0000000000001</ele><time>2026-05-02T16:11:27Z</time></trkpt><trkpt lat="40.45612195391476" lon="15.753399580759885"><ele>983.0</ele><time>2026-05-02T16:11:28Z</time></trkpt><trkpt lat="40.45620125246368" lon="15.753385786389314"><ele>983.0</ele><time>2026-05-02T16:11:29Z</time></trkpt><trkpt lat="40.456271708184026" lon="15.753377113616096"><ele>983.0</ele><time>2026-05-02T16:11:30Z</time></trkpt><trkpt lat="40.456357197501966" lon="15.75337574910196"><ele>983.0000000000001</ele><time>2026-05-02T16:11:31Z</time></trkpt><trkpt lat="40.45644144614576" lon="15.753369886433745"><ele>983.0</ele><time>2026-05-02T16:11:32Z</time></trkpt><trkpt lat="40.45651208840275" lon="15.753359683981378"><ele>985.4</ele><time>2026-05-02T16:11:33Z</time></trkpt><trkpt lat="40.456591439950465" lon="15.753355335931868"><ele>987.8</ele><time>2026-05-02T16:11:34Z</time></trkpt><trkpt lat="40.45668260714445" lon="15.753364497426224"><ele>990.2</ele><time>2026-05-02T16:11:35Z</time></trkpt><trkpt lat="40.45677343660003" lon="15.75334699892001"><ele>992.6</ele><time>2026-05-02T16:11:35.999Z</time></trkpt><trkpt lat="40.4569005780002" lon="15.753352160454133"><ele>995.0</ele><time>2026-05-02T16:11:36.999Z</time></trkpt><trkpt lat="40.457008315503685" lon="15.753373180981832"><ele>997.3333333333334</ele><time>2026-05-02T16:11:38.999Z</time></trkpt><trkpt lat="40.45711923801443" lon="15.753362241692574"><ele>999.6666666666667</ele><time>2026-05-02T16:11:40.999Z</time></trkpt><trkpt lat="40.45718294253" lon="15.753352493687098"><ele>1002.0</ele><time>2026-05-02T16:11:42.999Z</time></trkpt><trkpt lat="40.45721992802353" lon="15.753421648440177"><ele>1004.3333333333333</ele><time>2026-05-02T16:11:51.999Z</time></trkpt><trkpt lat="40.45720246278507" lon="15.753329152215677"><ele>1006.6666666666666</ele><time>2026-05-02T16:12:00.999Z</time></trkpt><trkpt lat="40.45716488221562" lon="15.753406126680142"><ele>1009.0</ele><time>2026-05-02T16:12:54.998Z</time></trkpt><trkpt lat="40.45718051911856" lon="15.753303608291395"><ele>1008.9999999999999</ele><time>2026-05-02T16:12:58.998Z</time></trkpt><trkpt lat="40.45715099627155" lon="15.75340417409"><ele>1009.0</ele><time>2026-05-02T16:13:27Z</time></trkpt><trkpt lat="40.45720474699781" lon="15.753354486267943"><ele>1009.0</ele><time>2026-05-02T16:14:28.999Z</time></trkpt><trkpt lat="40.45715341190465" lon="15.753413038956559"><ele>1009.0</ele><time>2026-05-02T16:15:51.999Z</time></trkpt><trkpt lat="40.45720045213411" lon="15.753328166619646"><ele>1008.9999999999999</ele><time>2026-05-02T16:16:04.999Z</time></trkpt><trkpt lat="40.45714051092844" lon="15.753416476248608"><ele>1009.0</ele><time>2026-05-02T16:16:26.999Z</time></trkpt><trkpt lat="40.457165371275316" lon="15.75333538305233"><ele>1009.0</ele><time>2026-05-02T16:16:34.999Z</time></trkpt><trkpt lat="40.457209592339396" lon="15.753400285940678"><ele>1009.0</ele><time>2026-05-02T16:17:12.998Z</time></trkpt><trkpt lat="40.457130249552776" lon="15.753326110361726"><ele>1009.0</ele><time>2026-05-02T16:21:31.998Z</time></trkpt><trkpt lat="40.45718376093589" lon="15.753378476680465"><ele>1009.0</ele><time>2026-05-02T16:23:54Z</time></trkpt><trkpt lat="40.457115672726644" lon="15.75336277661092"><ele>1009.0</ele><time>2026-05-02T16:24:25.999Z</time></trkpt><trkpt lat="40.457045971089066" lon="15.753354142284001"><ele>1009.0</ele><time>2026-05-02T16:24:30.999Z</time></trkpt><trkpt lat="40.45697489309067" lon="15.753343447580065"><ele>1009.0</ele><time>2026-05-02T16:24:34.999Z</time></trkpt><trkpt lat="40.456911027184944" lon="15.753338293141534"><ele>1007.0</ele><time>2026-05-02T16:24:38.999Z</time></trkpt><trkpt lat="40.45684649388312" lon="15.75331220867232"><ele>1005.0</ele><time>2026-05-02T16:24:41.999Z</time></trkpt><trkpt lat="40.45677704950144" lon="15.753333286202816"><ele>1003.0</ele><time>2026-05-02T16:24:45.999Z</time></trkpt><trkpt lat="40.45670678579852" lon="15.753322208763192"><ele>1001.0</ele><time>2026-05-02T16:24:48.999Z</time></trkpt><trkpt lat="40.45662887187187" lon="15.753324860540443"><ele>999.0</ele><time>2026-05-02T16:24:51.999Z</time></trkpt><trkpt lat="40.4565641891632" lon="15.753325488638312"><ele>997.0</ele><time>2026-05-02T16:24:53.999Z</time></trkpt><trkpt lat="40.45647925652506" lon="15.75332015986306"><ele>995.0</ele><time>2026-05-02T16:24:56.999Z</time></trkpt><trkpt lat="40.45638704876724" lon="15.753338035550309"><ele>995.0000000000001</ele><time>2026-05-02T16:24:59.999Z</time></trkpt><trkpt lat="40.456287101666135" lon="15.753339963989701"><ele>995.0</ele><time>2026-05-02T16:25:03.999Z</time></trkpt><trkpt lat="40.4562052672989" lon="15.753345521197595"><ele>995.0</ele><time>2026-05-02T16:25:06.999Z</time></trkpt><trkpt lat="40.45611358132517" lon="15.753367066395331"><ele>995.0</ele><time>2026-05-02T16:25:09.999Z</time></trkpt><trkpt lat="40.456043663134174" lon="15.753379347075487"><ele>995.0000000000001</ele><time>2026-05-02T16:25:11.998Z</time></trkpt><trkpt lat="40.45598520419843" lon="15.753430859848159"><ele>995.0</ele><time>2026-05-02T16:25:13.998Z</time></trkpt><trkpt lat="40.45592155525059" lon="15.753434714538088"><ele>995.5000000000001</ele><time>2026-05-02T16:25:15.998Z</time></trkpt><trkpt lat="40.455843654968554" lon="15.753459185883441"><ele>996.0</ele><time>2026-05-02T16:25:17.998Z</time></trkpt><trkpt lat="40.45577552750478" lon="15.753489022367354"><ele>996.5</ele><time>2026-05-02T16:25:19.998Z</time></trkpt><trkpt lat="40.455700601023935" lon="15.753511390187086"><ele>997.0</ele><time>2026-05-02T16:25:21.998Z</time></trkpt><trkpt lat="40.455617541746776" lon="15.753544749906691"><ele>997.5000000000001</ele><time>2026-05-02T16:25:23.998Z</time></trkpt><trkpt lat="40.455532305837956" lon="15.753574193968838"><ele>998.0</ele><time>2026-05-02T16:25:25.998Z</time></trkpt><trkpt lat="40.45542569318182" lon="15.753587829533368"><ele>998.0000000000001</ele><time>2026-05-02T16:25:28.998Z</time></trkpt><trkpt lat="40.45534125482933" lon="15.753622981444774"><ele>998.0</ele><time>2026-05-02T16:25:30.998Z</time></trkpt><trkpt lat="40.4552474831697" lon="15.753657528246706"><ele>998.0</ele><time>2026-05-02T16:25:32.998Z</time></trkpt><trkpt lat="40.455168121453454" lon="15.753718317048193"><ele>998.0</ele><time>2026-05-02T16:25:34.998Z</time></trkpt><trkpt lat="40.45509745001846" lon="15.753729789792736"><ele>998.0000000000001</ele><time>2026-05-02T16:25:36.998Z</time></trkpt><trkpt lat="40.45503477673451" lon="15.75375476858222"><ele>998.0</ele><time>2026-05-02T16:25:38.998Z</time></trkpt><trkpt lat="40.454936843714705" lon="15.753799299762358"><ele>998.0000000000001</ele><time>2026-05-02T16:25:41.998Z</time></trkpt><trkpt lat="40.45486928171424" lon="15.753817468962941"><ele>998.0</ele><time>2026-05-02T16:25:43.998Z</time></trkpt><trkpt lat="40.45480355409701" lon="15.753857727546594"><ele>998.0</ele><time>2026-05-02T16:25:46Z</time></trkpt><trkpt lat="40.4547193896613" lon="15.753885837379833"><ele>998.0</ele><time>2026-05-02T16:25:48Z</time></trkpt><trkpt lat="40.454603281495785" lon="15.753947285355554"><ele>998.0000000000001</ele><time>2026-05-02T16:25:50Z</time></trkpt><trkpt lat="40.4545370460722" lon="15.753984350443497"><ele>998.0</ele><time>2026-05-02T16:25:51Z</time></trkpt><trkpt lat="40.454446241950485" lon="15.754063083659686"><ele>995.6666666666667</ele><time>2026-05-02T16:25:53Z</time></trkpt><trkpt lat="40.454358741519655" lon="15.754144148003236"><ele>993.3333333333334</ele><time>2026-05-02T16:25:56Z</time></trkpt><trkpt lat="40.454297638369965" lon="15.754209995783881"><ele>991.0</ele><time>2026-05-02T16:25:58Z</time></trkpt><trkpt lat="40.45424369959247" lon="15.75427466314581"><ele>988.6666666666667</ele><time>2026-05-02T16:26:00Z</time></trkpt><trkpt lat="40.4541789652438" lon="15.754335016591867"><ele>986.3333333333334</ele><time>2026-05-02T16:26:02Z</time></trkpt><trkpt lat="40.454111081848524" lon="15.754402503143467"><ele>984.0</ele><time>2026-05-02T16:26:04Z</time></trkpt><trkpt lat="40.45405538350186" lon="15.75444121878204"><ele>985.8333333333334</ele><time>2026-05-02T16:26:06Z</time></trkpt><trkpt lat="40.45398079066835" lon="15.754504061252442"><ele>987.6666666666667</ele><time>2026-05-02T16:26:08Z</time></trkpt><trkpt lat="40.45390160108691" lon="15.754576888470433"><ele>989.5</ele><time>2026-05-02T16:26:10Z</time></trkpt><trkpt lat="40.453848190446415" lon="15.754625582137438"><ele>991.3333333333334</ele><time>2026-05-02T16:26:11Z</time></trkpt><trkpt lat="40.45377078771755" lon="15.75467498435929"><ele>993.1666666666667</ele><time>2026-05-02T16:26:13Z</time></trkpt><trkpt lat="40.453711593081955" lon="15.75474229673823"><ele>995.0</ele><time>2026-05-02T16:26:15Z</time></trkpt><trkpt lat="40.453606301861726" lon="15.75476313172189"><ele>995.0000000000001</ele><time>2026-05-02T16:26:17Z</time></trkpt><trkpt lat="40.453492388605724" lon="15.754821991198872"><ele>995.0</ele><time>2026-05-02T16:26:19Z</time></trkpt><trkpt lat="40.4534299108644" lon="15.754870234259647"><ele>995.0</ele><time>2026-05-02T16:26:21Z</time></trkpt><trkpt lat="40.45335547505149" lon="15.75489455002823"><ele>995.0</ele><time>2026-05-02T16:26:22Z</time></trkpt><trkpt lat="40.45328666901622" lon="15.754923004955383"><ele>995.0000000000001</ele><time>2026-05-02T16:26:23Z</time></trkpt><trkpt lat="40.453212539115405" lon="15.754952172818554"><ele>995.0</ele><time>2026-05-02T16:26:24Z</time></trkpt><trkpt lat="40.45309693895856" lon="15.755040138310932"><ele>993.5</ele><time>2026-05-02T16:26:25Z</time></trkpt><trkpt lat="40.45293778434488" lon="15.755141255739026"><ele>992.0</ele><time>2026-05-02T16:26:25.999Z</time></trkpt><trkpt lat="40.45282971312611" lon="15.755204486526983"><ele>990.5</ele><time>2026-05-02T16:26:26.999Z</time></trkpt><trkpt lat="40.45274789618031" lon="15.755257692319129"><ele>989.0</ele><time>2026-05-02T16:26:27.999Z</time></trkpt><trkpt lat="40.45267276136736" lon="15.755275436650107"><ele>994.8000000000001</ele><time>2026-05-02T16:26:28.999Z</time></trkpt><trkpt lat="40.45261112508102" lon="15.755303007770294"><ele>1000.6000000000001</ele><time>2026-05-02T16:26:29.999Z</time></trkpt><trkpt lat="40.45253234923933" lon="15.755300695278072"><ele>1006.4</ele><time>2026-05-02T16:27:00.999Z</time></trkpt><trkpt lat="40.45243483936174" lon="15.755285964073302"><ele>1012.2</ele><time>2026-05-02T16:27:02.999Z</time></trkpt><trkpt lat="40.45232670628131" lon="15.755262729456646"><ele>1018.0</ele><time>2026-05-02T16:27:04.999Z</time></trkpt><trkpt lat="40.45222432853511" lon="15.755247107126758"><ele>1017.9999999999999</ele><time>2026-05-02T16:27:06.999Z</time></trkpt><trkpt lat="40.45215320914571" lon="15.755260816388592"><ele>1018.0</ele><time>2026-05-02T16:27:08.999Z</time></trkpt><trkpt lat="40.45207889961689" lon="15.755248477594764"><ele>1018.0</ele><time>2026-05-02T16:27:10.999Z</time></trkpt><trkpt lat="40.452006890741245" lon="15.75525089084666"><ele>1018.0</ele><time>2026-05-02T16:27:12.999Z</time></trkpt><trkpt lat="40.451935746544386" lon="15.75524704571682"><ele>1017.9999999999999</ele><time>2026-05-02T16:27:14.998Z</time></trkpt><trkpt lat="40.451847917520816" lon="15.755248336834816"><ele>1018.0</ele><time>2026-05-02T16:27:16.998Z</time></trkpt><trkpt lat="40.45173911634496" lon="15.75525316559248"><ele>1014.3333333333333</ele><time>2026-05-02T16:27:18.998Z</time></trkpt><trkpt lat="40.45167253006425" lon="15.755241828693906"><ele>1010.6666666666666</ele><time>2026-05-02T16:27:19.998Z</time></trkpt><trkpt lat="40.4515989982417" lon="15.755236916028219"><ele>1007.0</ele><time>2026-05-02T16:27:20.998Z</time></trkpt><trkpt lat="40.45152711919253" lon="15.755241573840372"><ele>1003.3333333333333</ele><time>2026-05-02T16:27:21.998Z</time></trkpt><trkpt lat="40.451459687729404" lon="15.755245527976589"><ele>999.6666666666666</ele><time>2026-05-02T16:27:22.998Z</time></trkpt><trkpt lat="40.451327595759075" lon="15.755260816196182"><ele>996.0</ele><time>2026-05-02T16:27:24.998Z</time></trkpt><trkpt lat="40.45124069574381" lon="15.755273132421998"><ele>993.1666666666666</ele><time>2026-05-02T16:27:25.998Z</time></trkpt><trkpt lat="40.45116490269203" lon="15.755281555044842"><ele>990.3333333333333</ele><time>2026-05-02T16:27:26.998Z</time></trkpt><trkpt lat="40.451083831039384" lon="15.755256561352859"><ele>987.5</ele><time>2026-05-02T16:27:27.998Z</time></trkpt><trkpt lat="40.45101545206139" lon="15.755248680916917"><ele>984.6666666666666</ele><time>2026-05-02T16:27:28.998Z</time></trkpt><trkpt lat="40.45093565547704" lon="15.755224771254449"><ele>981.8333333333333</ele><time>2026-05-02T16:27:30.998Z</time></trkpt><trkpt lat="40.45088077059461" lon="15.755173891402931"><ele>979.0</ele><time>2026-05-02T16:27:32.998Z</time></trkpt><trkpt lat="40.450809725685176" lon="15.755136127109468"><ele>978.4000000000001</ele><time>2026-05-02T16:27:34.998Z</time></trkpt><trkpt lat="40.45071110208529" lon="15.755099377592643"><ele>977.8000000000001</ele><time>2026-05-02T16:27:36.998Z</time></trkpt><trkpt lat="40.45060707851816" lon="15.755111457853731"><ele>977.1999999999999</ele><time>2026-05-02T16:27:38.998Z</time></trkpt><trkpt lat="40.45050252105431" lon="15.755136059919074"><ele>976.5999999999999</ele><time>2026-05-02T16:27:40.998Z</time></trkpt><trkpt lat="40.4504035868212" lon="15.755162447481291"><ele>976.0</ele><time>2026-05-02T16:27:42.998Z</time></trkpt><trkpt lat="40.45032892660261" lon="15.755208141070769"><ele>974.6666666666666</ele><time>2026-05-02T16:27:45.998Z</time></trkpt><trkpt lat="40.4502383559247" lon="15.75523080590665"><ele>973.3333333333333</ele><time>2026-05-02T16:27:48.998Z</time></trkpt><trkpt lat="40.45016204230024" lon="15.755287678649566"><ele>972.0</ele><time>2026-05-02T16:27:50.998Z</time></trkpt><trkpt lat="40.45011204384033" lon="15.755341076154279"><ele>970.6666666666667</ele><time>2026-05-02T16:27:57Z</time></trkpt><trkpt lat="40.45005094464047" lon="15.755365028195008"><ele>969.3333333333334</ele><time>2026-05-02T16:28:08Z</time></trkpt><trkpt lat="40.44998382022078" lon="15.755389816639699"><ele>968.0</ele><time>2026-05-02T16:29:06.999Z</time></trkpt><trkpt lat="40.44991607614468" lon="15.755477523239936"><ele>968.0000000000001</ele><time>2026-05-02T16:29:31.998Z</time></trkpt><trkpt lat="40.449852422496726" lon="15.755543249917837"><ele>968.0</ele><time>2026-05-02T16:29:35.998Z</time></trkpt><trkpt lat="40.44978282059406" lon="15.755597023520453"><ele>968.0</ele><time>2026-05-02T16:29:38.998Z</time></trkpt><trkpt lat="40.44969921230424" lon="15.755628522424276"><ele>968.0</ele><time>2026-05-02T16:29:40.998Z</time></trkpt><trkpt lat="40.44961541318661" lon="15.755641311114273"><ele>968.0000000000001</ele><time>2026-05-02T16:29:42.998Z</time></trkpt><trkpt lat="40.449510615149734" lon="15.75566006108435"><ele>968.0</ele><time>2026-05-02T16:29:44.998Z</time></trkpt><trkpt lat="40.44941318734537" lon="15.755654615119886"><ele>967.5000000000001</ele><time>2026-05-02T16:29:46.998Z</time></trkpt><trkpt lat="40.449311735832964" lon="15.755620726384784"><ele>967.0</ele><time>2026-05-02T16:29:48.998Z</time></trkpt><trkpt lat="40.44921981635882" lon="15.755581990926725"><ele>966.5</ele><time>2026-05-02T16:29:50.998Z</time></trkpt><trkpt lat="40.44911776643436" lon="15.755530865948481"><ele>966.0</ele><time>2026-05-02T16:29:52.998Z</time></trkpt><trkpt lat="40.44905517171354" lon="15.755517867204253"><ele>965.5000000000001</ele><time>2026-05-02T16:29:53.998Z</time></trkpt><trkpt lat="40.448984336059155" lon="15.755513019979476"><ele>965.0</ele><time>2026-05-02T16:29:54.998Z</time></trkpt><trkpt lat="40.44889537057897" lon="15.755513849382943"><ele>965.0000000000001</ele><time>2026-05-02T16:29:55.998Z</time></trkpt><trkpt lat="40.448801255037296" lon="15.75552556184413"><ele>965.0</ele><time>2026-05-02T16:29:56.998Z</time></trkpt><trkpt lat="40.44870985525446" lon="15.755525552712605"><ele>965.0</ele><time>2026-05-02T16:29:58Z</time></trkpt><trkpt lat="40.448624408772076" lon="15.755543691858112"><ele>965.0</ele><time>2026-05-02T16:29:59Z</time></trkpt><trkpt lat="40.44856161446338" lon="15.755568612587439"><ele>965.0000000000001</ele><time>2026-05-02T16:30:00Z</time></trkpt><trkpt lat="40.44846128518233" lon="15.755586225346345"><ele>965.0</ele><time>2026-05-02T16:30:02Z</time></trkpt><trkpt lat="40.44839414877052" lon="15.755595575245502"><ele>965.6666666666667</ele><time>2026-05-02T16:30:04Z</time></trkpt><trkpt lat="40.44833309592969" lon="15.755632395542381"><ele>966.3333333333334</ele><time>2026-05-02T16:30:07Z</time></trkpt><trkpt lat="40.44826903915996" lon="15.755688096998016"><ele>967.0</ele><time>2026-05-02T16:30:10Z</time></trkpt><trkpt lat="40.448187043989705" lon="15.755712909742956"><ele>967.6666666666667</ele><time>2026-05-02T16:30:14Z</time></trkpt><trkpt lat="40.448123030942234" lon="15.755748348778964"><ele>968.3333333333334</ele><time>2026-05-02T16:30:17Z</time></trkpt><trkpt lat="40.448091082581115" lon="15.755821418106262"><ele>969.0</ele><time>2026-05-02T16:30:29Z</time></trkpt><trkpt lat="40.44816027282436" lon="15.75573575482786"><ele>969.0</ele><time>2026-05-02T16:30:36.999Z</time></trkpt><trkpt lat="40.44827713100738" lon="15.75565951246568"><ele>969.0</ele><time>2026-05-02T16:30:37.999Z</time></trkpt><trkpt lat="40.44835764169287" lon="15.755604275599156"><ele>969.0</ele><time>2026-05-02T16:30:38.999Z</time></trkpt><trkpt lat="40.44841647712896" lon="15.75556652665725"><ele>969.0</ele><time>2026-05-02T16:30:39.999Z</time></trkpt><trkpt lat="40.44848753206683" lon="15.755557077978173"><ele>969.0</ele><time>2026-05-02T16:30:40.999Z</time></trkpt><trkpt lat="40.448550743016725" lon="15.755550478175994"><ele>969.0</ele><time>2026-05-02T16:30:41.999Z</time></trkpt><trkpt lat="40.44865858812961" lon="15.755580764674741"><ele>969.0</ele><time>2026-05-02T16:30:43.999Z</time></trkpt><trkpt lat="40.44868248941314" lon="15.755689063278568"><ele>969.0</ele><time>2026-05-02T16:30:45.999Z</time></trkpt><trkpt lat="40.448694955540944" lon="15.755788317996693"><ele>969.0</ele><time>2026-05-02T16:30:46.999Z</time></trkpt><trkpt lat="40.44872234952137" lon="15.755907491980025"><ele>969.0</ele><time>2026-05-02T16:30:47.999Z</time></trkpt><trkpt lat="40.44874322927068" lon="15.756003824064981"><ele>969.0</ele><time>2026-05-02T16:30:48.999Z</time></trkpt><trkpt lat="40.44871386810656" lon="15.756090817838702"><ele>969.0</ele><time>2026-05-02T16:30:51.999Z</time></trkpt><trkpt lat="40.44867655206645" lon="15.756177897666081"><ele>969.6666666666666</ele><time>2026-05-02T16:30:53.999Z</time></trkpt><trkpt lat="40.44870863474577" lon="15.756263564870691"><ele>970.3333333333333</ele><time>2026-05-02T16:30:56.999Z</time></trkpt><trkpt lat="40.448749499851615" lon="15.756353383078276"><ele>971.0</ele><time>2026-05-02T16:30:59.999Z</time></trkpt><trkpt lat="40.448779815961295" lon="15.756439280570019"><ele>971.6666666666666</ele><time>2026-05-02T16:31:02.999Z</time></trkpt><trkpt lat="40.44876352325005" lon="15.756556438535807"><ele>972.3333333333333</ele><time>2026-05-02T16:31:05.999Z</time></trkpt><trkpt lat="40.44874739918466" lon="15.756653259281673"><ele>973.0</ele><time>2026-05-02T16:31:10.999Z</time></trkpt><trkpt lat="40.4486666547306" lon="15.756664185596598"><ele>972.9999999999999</ele><time>2026-05-02T16:31:13.999Z</time></trkpt><trkpt lat="40.44862103194409" lon="15.756568471821796"><ele>973.0</ele><time>2026-05-02T16:31:16.999Z</time></trkpt><trkpt lat="40.448559963820294" lon="15.7564855765074"><ele>973.0</ele><time>2026-05-02T16:31:19.999Z</time></trkpt><trkpt lat="40.448446624348946" lon="15.756451726984"><ele>973.0</ele><time>2026-05-02T16:31:23.998Z</time></trkpt><trkpt lat="40.44838270529855" lon="15.756502282858728"><ele>972.9999999999999</ele><time>2026-05-02T16:31:27.998Z</time></trkpt><trkpt lat="40.44831511588462" lon="15.756558920708228"><ele>973.0</ele><time>2026-05-02T16:31:30.998Z</time></trkpt><trkpt lat="40.448230146574964" lon="15.756591942935723"><ele>972.9999999999999</ele><time>2026-05-02T16:31:32.998Z</time></trkpt><trkpt lat="40.44816973096303" lon="15.756665270010087"><ele>973.0</ele><time>2026-05-02T16:31:35.998Z</time></trkpt><trkpt lat="40.448171919092815" lon="15.756756848811806"><ele>973.0</ele><time>2026-05-02T16:31:38.998Z</time></trkpt><trkpt lat="40.448175750921884" lon="15.756850800201251"><ele>973.0</ele><time>2026-05-02T16:31:41.998Z</time></trkpt><trkpt lat="40.44813985801067" lon="15.756921461180768"><ele>972.9999999999999</ele><time>2026-05-02T16:31:43.998Z</time></trkpt><trkpt lat="40.448093530309556" lon="15.757009446515443"><ele>973.0</ele><time>2026-05-02T16:31:46.998Z</time></trkpt><trkpt lat="40.448117378716525" lon="15.757143544389928"><ele>974.4999999999999</ele><time>2026-05-02T16:31:49.998Z</time></trkpt><trkpt lat="40.448112973205475" lon="15.757255225518666"><ele>976.0</ele><time>2026-05-02T16:31:52.998Z</time></trkpt><trkpt lat="40.44807416273281" lon="15.757350556166589"><ele>977.5</ele><time>2026-05-02T16:31:56.998Z</time></trkpt><trkpt lat="40.44802673557236" lon="15.75743761790439"><ele>979.0</ele><time>2026-05-02T16:31:59.998Z</time></trkpt><trkpt lat="40.447972314692315" lon="15.757530251362644"><ele>980.4999999999999</ele><time>2026-05-02T16:32:02.998Z</time></trkpt><trkpt lat="40.44791836948727" lon="15.757611081883942"><ele>982.0</ele><time>2026-05-02T16:32:06Z</time></trkpt><trkpt lat="40.44786458198419" lon="15.757702338148295"><ele>983.4999999999999</ele><time>2026-05-02T16:32:09Z</time></trkpt><trkpt lat="40.447806758736036" lon="15.757752288290623"><ele>985.0</ele><time>2026-05-02T16:32:27Z</time></trkpt><trkpt lat="40.44773210595198" lon="15.757758049488642"><ele>986.5</ele><time>2026-05-02T16:32:34Z</time></trkpt><trkpt lat="40.44781027829535" lon="15.757783093173044"><ele>988.0</ele><time>2026-05-02T16:33:26.999Z</time></trkpt><trkpt lat="40.447850837022294" lon="15.757716294514282"><ele>989.4999999999999</ele><time>2026-05-02T16:33:28.999Z</time></trkpt><trkpt lat="40.44788464487673" lon="15.757636071446326"><ele>991.0</ele><time>2026-05-02T16:33:30.998Z</time></trkpt><trkpt lat="40.44795535590487" lon="15.757559933903883"><ele>989.4999999999999</ele><time>2026-05-02T16:33:33.998Z</time></trkpt><trkpt lat="40.44798596464301" lon="15.757478362523699"><ele>988.0</ele><time>2026-05-02T16:33:35.998Z</time></trkpt><trkpt lat="40.44804140974704" lon="15.75741801765088"><ele>986.5</ele><time>2026-05-02T16:33:39.998Z</time></trkpt><trkpt lat="40.44816001917168" lon="15.757421969740475"><ele>985.0</ele><time>2026-05-02T16:33:42.998Z</time></trkpt><trkpt lat="40.44825685076814" lon="15.757447968752823"><ele>983.4999999999999</ele><time>2026-05-02T16:33:44.998Z</time></trkpt><trkpt lat="40.44832641930998" lon="15.757476511300132"><ele>982.0</ele><time>2026-05-02T16:33:49.998Z</time></trkpt><trkpt lat="40.448366360232015" lon="15.757571650157733"><ele>981.9999999999999</ele><time>2026-05-02T16:34:32Z</time></trkpt><trkpt lat="40.44840079067657" lon="15.757650941913287"><ele>982.0</ele><time>2026-05-02T16:34:48.999Z</time></trkpt><trkpt lat="40.44833532389924" lon="15.757584110108702"><ele>982.0</ele><time>2026-05-02T16:34:53.999Z</time></trkpt><trkpt lat="40.448294358466384" lon="15.757516173632938"><ele>982.0</ele><time>2026-05-02T16:34:58.999Z</time></trkpt><trkpt lat="40.448235149573556" lon="15.757477174654243"><ele>981.9999999999999</ele><time>2026-05-02T16:35:00.999Z</time></trkpt><trkpt lat="40.44813722454855" lon="15.757442075578194"><ele>982.0</ele><time>2026-05-02T16:35:02.999Z</time></trkpt><trkpt lat="40.44813260841534" lon="15.757350266658555"><ele>981.9999999999999</ele><time>2026-05-02T16:35:05.999Z</time></trkpt><trkpt lat="40.448133986113895" lon="15.757194584649223"><ele>982.0</ele><time>2026-05-02T16:35:07.999Z</time></trkpt><trkpt lat="40.44808953654533" lon="15.75710144334704"><ele>982.0</ele><time>2026-05-02T16:35:09.999Z</time></trkpt><trkpt lat="40.44813786388555" lon="15.757000558957047"><ele>982.0</ele><time>2026-05-02T16:35:12.999Z</time></trkpt><trkpt lat="40.44816529124249" lon="15.756916662256396"><ele>981.9999999999999</ele><time>2026-05-02T16:35:14.999Z</time></trkpt><trkpt lat="40.44815295405714" lon="15.75680864329526"><ele>982.0</ele><time>2026-05-02T16:35:16.999Z</time></trkpt><trkpt lat="40.44815108211876" lon="15.756693133713421"><ele>980.4999999999999</ele><time>2026-05-02T16:35:18.999Z</time></trkpt><trkpt lat="40.448187552776275" lon="15.756625399757484"><ele>979.0</ele><time>2026-05-02T16:35:20.999Z</time></trkpt><trkpt lat="40.448250359385845" lon="15.75659643294931"><ele>977.5</ele><time>2026-05-02T16:35:22.999Z</time></trkpt><trkpt lat="40.448310545373495" lon="15.756562220648926"><ele>976.0</ele><time>2026-05-02T16:35:24.999Z</time></trkpt><trkpt lat="40.44837997394756" lon="15.756501406783443"><ele>974.4999999999999</ele><time>2026-05-02T16:35:26.999Z</time></trkpt><trkpt lat="40.448478951888056" lon="15.756439832578442"><ele>973.0</ele><time>2026-05-02T16:35:28.999Z</time></trkpt><trkpt lat="40.44856303462899" lon="15.756442915678289"><ele>973.0</ele><time>2026-05-02T16:35:30.999Z</time></trkpt><trkpt lat="40.448657902918455" lon="15.756467169524228"><ele>973.0</ele><time>2026-05-02T16:35:32.999Z</time></trkpt><trkpt lat="40.44874668531345" lon="15.756450223225553"><ele>973.0</ele><time>2026-05-02T16:35:34.999Z</time></trkpt><trkpt lat="40.44882600315221" lon="15.756377611201986"><ele>973.0</ele><time>2026-05-02T16:35:36.998Z</time></trkpt><trkpt lat="40.448808866500784" lon="15.756242325408882"><ele>973.0</ele><time>2026-05-02T16:35:38.998Z</time></trkpt><trkpt lat="40.44873782940404" lon="15.75611069562237"><ele>972.3333333333333</ele><time>2026-05-02T16:35:40.998Z</time></trkpt><trkpt lat="40.448686971904145" lon="15.755990022736114"><ele>971.6666666666666</ele><time>2026-05-02T16:35:42.998Z</time></trkpt><trkpt lat="40.44867080666364" lon="15.755894294661838"><ele>971.0</ele><time>2026-05-02T16:35:44.998Z</time></trkpt><trkpt lat="40.4486590736632" lon="15.75580737901357"><ele>970.3333333333333</ele><time>2026-05-02T16:35:46.998Z</time></trkpt><trkpt lat="40.448654705495585" lon="15.755693177299246"><ele>969.6666666666666</ele><time>2026-05-02T16:35:48.998Z</time></trkpt><trkpt lat="40.44863342663466" lon="15.755614022153086"><ele>969.0</ele><time>2026-05-02T16:35:50.998Z</time></trkpt><trkpt lat="40.448554375719944" lon="15.755615997248626"><ele>969.0</ele><time>2026-05-02T16:35:55.998Z</time></trkpt><trkpt lat="40.44848841491064" lon="15.755614329805672"><ele>969.0</ele><time>2026-05-02T16:35:57.998Z</time></trkpt><trkpt lat="40.448263318944015" lon="15.755759603003243"><ele>969.0</ele><time>2026-05-02T16:36:00.998Z</time></trkpt><trkpt lat="40.448167375987616" lon="15.755841556443205"><ele>969.0</ele><time>2026-05-02T16:36:01.998Z</time></trkpt><trkpt lat="40.44806745120245" lon="15.755947861674091"><ele>973.6666666666667</ele><time>2026-05-02T16:36:02.998Z</time></trkpt><trkpt lat="40.447957436980595" lon="15.75607304443447"><ele>978.3333333333334</ele><time>2026-05-02T16:36:03.998Z</time></trkpt><trkpt lat="40.447814201456815" lon="15.756214370030168"><ele>983.0</ele><time>2026-05-02T16:36:04.998Z</time></trkpt><trkpt lat="40.447710328557335" lon="15.756306281007115"><ele>983.0</ele><time>2026-05-02T16:36:05.998Z</time></trkpt><trkpt lat="40.44764569660006" lon="15.756382784732468"><ele>983.0</ele><time>2026-05-02T16:36:06.998Z</time></trkpt><trkpt lat="40.44756136826374" lon="15.75647840615565"><ele>983.0</ele><time>2026-05-02T16:36:07.998Z</time></trkpt><trkpt lat="40.44748602348961" lon="15.756555902564411"><ele>983.0</ele><time>2026-05-02T16:36:08.998Z</time></trkpt><trkpt lat="40.447412209998994" lon="15.756607623582566"><ele>983.0</ele><time>2026-05-02T16:36:09.998Z</time></trkpt><trkpt lat="40.447328888001536" lon="15.75668357762253"><ele>983.0000000000001</ele><time>2026-05-02T16:36:11.998Z</time></trkpt><trkpt lat="40.44722742282573" lon="15.756710895500445"><ele>983.0</ele><time>2026-05-02T16:36:12.998Z</time></trkpt><trkpt lat="40.44714017694645" lon="15.756766448802958"><ele>983.0</ele><time>2026-05-02T16:36:13.998Z</time></trkpt><trkpt lat="40.44707391368163" lon="15.756787691061202"><ele>983.0</ele><time>2026-05-02T16:36:14.998Z</time></trkpt><trkpt lat="40.44701248077369" lon="15.75682516795488"><ele>983.0000000000001</ele><time>2026-05-02T16:36:16Z</time></trkpt><trkpt lat="40.44694481682069" lon="15.756822218091957"><ele>983.0</ele><time>2026-05-02T16:36:18Z</time></trkpt><trkpt lat="40.446873055962485" lon="15.756822900659644"><ele>983.5999999999999</ele><time>2026-05-02T16:36:19Z</time></trkpt><trkpt lat="40.4467394816098" lon="15.75679645065277"><ele>984.1999999999999</ele><time>2026-05-02T16:36:21Z</time></trkpt><trkpt lat="40.44666835721349" lon="15.756765251111513"><ele>984.8</ele><time>2026-05-02T16:36:22Z</time></trkpt><trkpt lat="40.44654474861782" lon="15.756716143783445"><ele>985.4</ele><time>2026-05-02T16:36:24Z</time></trkpt><trkpt lat="40.44647631463587" lon="15.756723825959266"><ele>986.0</ele><time>2026-05-02T16:36:26Z</time></trkpt><trkpt lat="40.4465064547055" lon="15.756803357172004"><ele>986.0000000000001</ele><time>2026-05-02T16:36:29Z</time></trkpt><trkpt lat="40.446565113977954" lon="15.756848224286976"><ele>986.0</ele><time>2026-05-02T16:36:30Z</time></trkpt><trkpt lat="40.44664463086558" lon="15.756892557982678"><ele>986.0</ele><time>2026-05-02T16:36:31Z</time></trkpt><trkpt lat="40.44673069828529" lon="15.75693621884452"><ele>986.0</ele><time>2026-05-02T16:36:32Z</time></trkpt><trkpt lat="40.446832076782506" lon="15.756962110119012"><ele>986.0000000000001</ele><time>2026-05-02T16:36:33Z</time></trkpt><trkpt lat="40.446896518752155" lon="15.756976425598545"><ele>986.0</ele><time>2026-05-02T16:36:34Z</time></trkpt><trkpt lat="40.44695790735726" lon="15.757021859735945"><ele>986.8333333333334</ele><time>2026-05-02T16:36:35Z</time></trkpt><trkpt lat="40.44701395109516" lon="15.757074072158199"><ele>987.6666666666667</ele><time>2026-05-02T16:36:36Z</time></trkpt><trkpt lat="40.44706364923025" lon="15.757132661741142"><ele>988.5</ele><time>2026-05-02T16:36:37Z</time></trkpt><trkpt lat="40.447127090604546" lon="15.75723176041237"><ele>989.3333333333333</ele><time>2026-05-02T16:36:39Z</time></trkpt><trkpt lat="40.44715242137633" lon="15.757364147911552"><ele>990.1666666666666</ele><time>2026-05-02T16:36:42Z</time></trkpt><trkpt lat="40.44717917939242" lon="15.757495989072979"><ele>991.0</ele><time>2026-05-02T16:36:44Z</time></trkpt><trkpt lat="40.44719827189988" lon="15.75763734289863"><ele>992.5999999999999</ele><time>2026-05-02T16:36:46Z</time></trkpt><trkpt lat="40.44719775135087" lon="15.757761881126335"><ele>994.1999999999999</ele><time>2026-05-02T16:36:48Z</time></trkpt><trkpt lat="40.44718908686508" lon="15.757895675243779"><ele>995.8000000000001</ele><time>2026-05-02T16:36:49.999Z</time></trkpt><trkpt lat="40.4471857951254" lon="15.757999240898751"><ele>997.4000000000001</ele><time>2026-05-02T16:36:51.999Z</time></trkpt><trkpt lat="40.4471571710804" lon="15.758087458918615"><ele>999.0</ele><time>2026-05-02T16:36:52.999Z</time></trkpt><trkpt lat="40.44717531561532" lon="15.758221927540697"><ele>999.0</ele><time>2026-05-02T16:36:54.999Z</time></trkpt><trkpt lat="40.44718903140776" lon="15.758326925798617"><ele>999.0000000000001</ele><time>2026-05-02T16:36:56.999Z</time></trkpt><trkpt lat="40.44722384098265" lon="15.758446988426085"><ele>999.0000000000001</ele><time>2026-05-02T16:36:58.999Z</time></trkpt><trkpt lat="40.44725318254074" lon="15.758591206209845"><ele>999.0</ele><time>2026-05-02T16:37:00.999Z</time></trkpt><trkpt lat="40.44727898998055" lon="15.758699606345386"><ele>999.0</ele><time>2026-05-02T16:37:02.999Z</time></trkpt><trkpt lat="40.447271305424145" lon="15.758792482715354"><ele>1001.2</ele><time>2026-05-02T16:37:11.999Z</time></trkpt><trkpt lat="40.4472096102227" lon="15.758850684326884"><ele>1003.4000000000001</ele><time>2026-05-02T16:37:13.999Z</time></trkpt><trkpt lat="40.4471641891399" lon="15.758909304525377"><ele>1005.6</ele><time>2026-05-02T16:37:15.999Z</time></trkpt><trkpt lat="40.44711800350594" lon="15.759042215506868"><ele>1007.8</ele><time>2026-05-02T16:37:17.999Z</time></trkpt><trkpt lat="40.447036841689574" lon="15.759141963635335"><ele>1010.0</ele><time>2026-05-02T16:37:19.999Z</time></trkpt><trkpt lat="40.44696290501102" lon="15.759211777511423"><ele>1011.6666666666667</ele><time>2026-05-02T16:37:21.999Z</time></trkpt><trkpt lat="40.44689883916415" lon="15.759275919614883"><ele>1013.3333333333334</ele><time>2026-05-02T16:37:23.999Z</time></trkpt><trkpt lat="40.446842914263186" lon="15.759377108575247"><ele>1015.0</ele><time>2026-05-02T16:37:26.999Z</time></trkpt><trkpt lat="40.44684693075349" lon="15.759461254083018"><ele>1016.6666666666667</ele><time>2026-05-02T16:37:28.999Z</time></trkpt><trkpt lat="40.446884893690566" lon="15.759563601395346"><ele>1018.3333333333334</ele><time>2026-05-02T16:37:30.999Z</time></trkpt><trkpt lat="40.44690251442525" lon="15.759681528844622"><ele>1020.0</ele><time>2026-05-02T16:37:32.999Z</time></trkpt><trkpt lat="40.44687950967194" lon="15.759784501265068"><ele>1021.1666666666666</ele><time>2026-05-02T16:37:34.999Z</time></trkpt><trkpt lat="40.44686181102314" lon="15.759912751918321"><ele>1022.3333333333333</ele><time>2026-05-02T16:37:36.999Z</time></trkpt><trkpt lat="40.44683723010851" lon="15.760023140130283"><ele>1023.5</ele><time>2026-05-02T16:37:38.998Z</time></trkpt><trkpt lat="40.446812869333954" lon="15.760134311654927"><ele>1024.6666666666665</ele><time>2026-05-02T16:37:40.998Z</time></trkpt><trkpt lat="40.44680866746775" lon="15.760222933856712"><ele>1025.8333333333333</ele><time>2026-05-02T16:37:42.998Z</time></trkpt><trkpt lat="40.446795365670376" lon="15.760333657224805"><ele>1027.0</ele><time>2026-05-02T16:37:44.998Z</time></trkpt><trkpt lat="40.446766080133024" lon="15.760418347958646"><ele>1028.1666666666665</ele><time>2026-05-02T16:37:46.998Z</time></trkpt><trkpt lat="40.446751212529215" lon="15.76050585524725"><ele>1029.3333333333333</ele><time>2026-05-02T16:37:48.998Z</time></trkpt><trkpt lat="40.44671022432116" lon="15.7605695586312"><ele>1030.5</ele><time>2026-05-02T16:37:50.998Z</time></trkpt><trkpt lat="40.44660855573599" lon="15.760586369168646"><ele>1031.6666666666667</ele><time>2026-05-02T16:38:29Z</time></trkpt><trkpt lat="40.446507573189535" lon="15.760575657255364"><ele>1032.8333333333335</ele><time>2026-05-02T16:38:31Z</time></trkpt><trkpt lat="40.44644609229395" lon="15.760593489359282"><ele>1034.0</ele><time>2026-05-02T16:38:40Z</time></trkpt><trkpt lat="40.44638554929224" lon="15.760617153184167"><ele>1034.0</ele><time>2026-05-02T16:38:53.999Z</time></trkpt><trkpt lat="40.446386159600046" lon="15.760700233194504"><ele>1034.0</ele><time>2026-05-02T16:38:55.999Z</time></trkpt><trkpt lat="40.44636718150022" lon="15.760785529643378"><ele>1034.0</ele><time>2026-05-02T16:38:57.999Z</time></trkpt><trkpt lat="40.44633979018786" lon="15.760860056746528"><ele>1034.0</ele><time>2026-05-02T16:38:59.999Z</time></trkpt><trkpt lat="40.44630280171697" lon="15.760963758489956"><ele>1034.0</ele><time>2026-05-02T16:39:02.999Z</time></trkpt><trkpt lat="40.44628001391184" lon="15.761085850472398"><ele>1034.0</ele><time>2026-05-02T16:39:05.999Z</time></trkpt><trkpt lat="40.44627947121525" lon="15.761172063457883"><ele>1034.0</ele><time>2026-05-02T16:39:09.999Z</time></trkpt><trkpt lat="40.446239076273734" lon="15.761249782555444"><ele>1036.4285714285716</ele><time>2026-05-02T16:39:12.999Z</time></trkpt><trkpt lat="40.44618849305212" lon="15.761317428647573"><ele>1038.857142857143</ele><time>2026-05-02T16:39:15.999Z</time></trkpt><trkpt lat="40.44615807945304" lon="15.761389924074548"><ele>1041.2857142857142</ele><time>2026-05-02T16:39:18.999Z</time></trkpt><trkpt lat="40.44611122243013" lon="15.76148995147846"><ele>1043.7142857142858</ele><time>2026-05-02T16:39:29.999Z</time></trkpt><trkpt lat="40.446077164395255" lon="15.76157007022107"><ele>1046.142857142857</ele><time>2026-05-02T16:39:32.999Z</time></trkpt><trkpt lat="40.44605292884494" lon="15.761660042783582"><ele>1048.5714285714287</ele><time>2026-05-02T16:39:34.999Z</time></trkpt><trkpt lat="40.44601796515821" lon="15.76174987764896"><ele>1051.0</ele><time>2026-05-02T16:39:37.999Z</time></trkpt><trkpt lat="40.445967177089294" lon="15.761816050619066"><ele>1052.5714285714287</ele><time>2026-05-02T16:39:40.999Z</time></trkpt><trkpt lat="40.44592832372848" lon="15.761893345217869"><ele>1054.142857142857</ele><time>2026-05-02T16:40:03.998Z</time></trkpt><trkpt lat="40.445883143700044" lon="15.761984186549688"><ele>1055.7142857142858</ele><time>2026-05-02T16:40:06.998Z</time></trkpt><trkpt lat="40.44590925167966" lon="15.762074017986908"><ele>1057.2857142857142</ele><time>2026-05-02T16:40:12.998Z</time></trkpt><trkpt lat="40.445859864274546" lon="15.76216242395856"><ele>1058.857142857143</ele><time>2026-05-02T16:40:21.998Z</time></trkpt><trkpt lat="40.44585726043466" lon="15.762253199349262"><ele>1060.4285714285716</ele><time>2026-05-02T16:42:12.998Z</time></trkpt><trkpt lat="40.44583246090949" lon="15.762334112179616"><ele>1062.0</ele><time>2026-05-02T16:42:18.998Z</time></trkpt><trkpt lat="40.44574561335491" lon="15.762383802732153"><ele>1062.0</ele><time>2026-05-02T16:42:58Z</time></trkpt><trkpt lat="40.445756801414596" lon="15.76229537064203"><ele>1062.0</ele><time>2026-05-02T16:43:05Z</time></trkpt><trkpt lat="40.44579798756871" lon="15.762220293269227"><ele>1062.0</ele><time>2026-05-02T16:43:08Z</time></trkpt><trkpt lat="40.445845746731045" lon="15.76215925703239"><ele>1062.0</ele><time>2026-05-02T16:43:11Z</time></trkpt><trkpt lat="40.44589017227393" lon="15.762092502408047"><ele>1062.0</ele><time>2026-05-02T16:43:16.999Z</time></trkpt><trkpt lat="40.445860322396214" lon="15.762000893937401"><ele>1062.0</ele><time>2026-05-02T16:43:21.999Z</time></trkpt><trkpt lat="40.44582157971291" lon="15.761922246981468"><ele>1062.0</ele><time>2026-05-02T16:43:28.999Z</time></trkpt><trkpt lat="40.445827784908296" lon="15.761816736501995"><ele>1060.4285714285716</ele><time>2026-05-02T16:43:32.999Z</time></trkpt><trkpt lat="40.445862555025464" lon="15.761745681365936"><ele>1058.857142857143</ele><time>2026-05-02T16:43:34.999Z</time></trkpt><trkpt lat="40.44593431019292" lon="15.761666398299912"><ele>1057.2857142857142</ele><time>2026-05-02T16:43:39.999Z</time></trkpt><trkpt lat="40.44598726061356" lon="15.761618964249566"><ele>1055.7142857142858</ele><time>2026-05-02T16:43:46.999Z</time></trkpt><trkpt lat="40.44605251534992" lon="15.761577773746053"><ele>1054.142857142857</ele><time>2026-05-02T16:43:49.999Z</time></trkpt><trkpt lat="40.446086304398875" lon="15.761503038410119"><ele>1052.5714285714287</ele><time>2026-05-02T16:43:52.999Z</time></trkpt><trkpt lat="40.446119867083794" lon="15.761421028805024"><ele>1051.0</ele><time>2026-05-02T16:43:55.999Z</time></trkpt><trkpt lat="40.4461752691698" lon="15.761329053626604"><ele>1051.0</ele><time>2026-05-02T16:43:57.999Z</time></trkpt><trkpt lat="40.44620829026525" lon="15.76123150591099"><ele>1051.0</ele><time>2026-05-02T16:44:01.999Z</time></trkpt><trkpt lat="40.4462375621314" lon="15.761155986530541"><ele>1051.0</ele><time>2026-05-02T16:44:04.998Z</time></trkpt><trkpt lat="40.44624901916885" lon="15.761071275355413"><ele>1051.0</ele><time>2026-05-02T16:44:17.998Z</time></trkpt><trkpt lat="40.446271635760276" lon="15.760991230248152"><ele>1051.0</ele><time>2026-05-02T16:44:19.998Z</time></trkpt><trkpt lat="40.446310221631066" lon="15.760886097467933"><ele>1051.0</ele><time>2026-05-02T16:44:22.998Z</time></trkpt><trkpt lat="40.44635169435676" lon="15.760782516509208"><ele>1048.1666666666665</ele><time>2026-05-02T16:44:25.998Z</time></trkpt><trkpt lat="40.44638344161292" lon="15.760697754664431"><ele>1045.3333333333333</ele><time>2026-05-02T16:44:28.998Z</time></trkpt><trkpt lat="40.44640324051788" lon="15.760618012133307"><ele>1042.5</ele><time>2026-05-02T16:44:31.998Z</time></trkpt><trkpt lat="40.44650256437596" lon="15.760597554809921"><ele>1039.6666666666667</ele><time>2026-05-02T16:44:36.998Z</time></trkpt><trkpt lat="40.446583372874635" lon="15.76059298036438"><ele>1036.8333333333335</ele><time>2026-05-02T16:44:38.998Z</time></trkpt><trkpt lat="40.44665381493532" lon="15.760600039793497"><ele>1034.0</ele><time>2026-05-02T16:44:41Z</time></trkpt><trkpt lat="40.446714234961824" lon="15.760673913196431"><ele>1034.0</ele><time>2026-05-02T16:44:45Z</time></trkpt><trkpt lat="40.44674409652089" lon="15.760751539751594"><ele>1034.0</ele><time>2026-05-02T16:44:49Z</time></trkpt><trkpt lat="40.446762090943615" lon="15.7608537512625"><ele>1034.0</ele><time>2026-05-02T16:44:56Z</time></trkpt><trkpt lat="40.44675430297167" lon="15.76094594003766"><ele>1034.0</ele><time>2026-05-02T16:45:09Z</time></trkpt><trkpt lat="40.4467257698844" lon="15.761026475335125"><ele>1034.0</ele><time>2026-05-02T16:45:12Z</time></trkpt><trkpt lat="40.44669794839184" lon="15.761121618410655"><ele>1034.0</ele><time>2026-05-02T16:45:17Z</time></trkpt><trkpt lat="40.446663462615106" lon="15.76119531048579"><ele>1034.0</ele><time>2026-05-02T16:45:25.999Z</time></trkpt><trkpt lat="40.44659604034214" lon="15.761247455411716"><ele>1035.142857142857</ele><time>2026-05-02T16:45:29.999Z</time></trkpt><trkpt lat="40.446519917667885" lon="15.76125578361934"><ele>1036.2857142857144</ele><time>2026-05-02T16:45:33.999Z</time></trkpt><trkpt lat="40.44645100664849" lon="15.761320397112241"><ele>1037.4285714285716</ele><time>2026-05-02T16:45:37.999Z</time></trkpt><trkpt lat="40.44639131827132" lon="15.761381811203469"><ele>1038.5714285714287</ele><time>2026-05-02T16:45:54.999Z</time></trkpt><trkpt lat="40.446363493950166" lon="15.761464859253076"><ele>1039.7142857142858</ele><time>2026-05-02T16:45:56.999Z</time></trkpt><trkpt lat="40.44634349581491" lon="15.76154547839751"><ele>1040.857142857143</ele><time>2026-05-02T16:45:58.999Z</time></trkpt><trkpt lat="40.446296776002896" lon="15.761607514789334"><ele>1042.0</ele><time>2026-05-02T16:46:00.999Z</time></trkpt><trkpt lat="40.44626155532973" lon="15.761682595864178"><ele>1043.5</ele><time>2026-05-02T16:46:03.999Z</time></trkpt><trkpt lat="40.446251492526464" lon="15.761765719885732"><ele>1045.0</ele><time>2026-05-02T16:46:06.999Z</time></trkpt><trkpt lat="40.44625976979651" lon="15.761860615740327"><ele>1046.5</ele><time>2026-05-02T16:46:08.999Z</time></trkpt><trkpt lat="40.44624493698395" lon="15.761961959459413"><ele>1048.0</ele><time>2026-05-02T16:46:10.998Z</time></trkpt><trkpt lat="40.44621837165254" lon="15.762061953874083"><ele>1049.5</ele><time>2026-05-02T16:46:35.998Z</time></trkpt><trkpt lat="40.44617094653962" lon="15.762117363721503"><ele>1051.0</ele><time>2026-05-02T16:50:48.998Z</time></trkpt><trkpt lat="40.44625825931466" lon="15.762181270598587"><ele>1051.3333333333333</ele><time>2026-05-02T16:50:55.998Z</time></trkpt><trkpt lat="40.446336265438134" lon="15.762286868998286"><ele>1051.6666666666665</ele><time>2026-05-02T16:51:09Z</time></trkpt><trkpt lat="40.446383204613944" lon="15.762366211661353"><ele>1052.0</ele><time>2026-05-02T16:51:15Z</time></trkpt><trkpt lat="40.44639506277543" lon="15.76245021168146"><ele>1052.3333333333333</ele><time>2026-05-02T16:51:31Z</time></trkpt><trkpt lat="40.44636893524223" lon="15.76236632528284"><ele>1052.6666666666667</ele><time>2026-05-02T16:51:38.999Z</time></trkpt><trkpt lat="40.44644872448978" lon="15.762291846237401"><ele>1053.0</ele><time>2026-05-02T16:58:21.999Z</time></trkpt><trkpt lat="40.44639096865188" lon="15.76224651887274"><ele>1052.9999999999998</ele><time>2026-05-02T16:58:25.999Z</time></trkpt><trkpt lat="40.44632566882045" lon="15.762223943387484"><ele>1053.0</ele><time>2026-05-02T16:58:30.999Z</time></trkpt><trkpt lat="40.44625876874472" lon="15.762200990543972"><ele>1053.0</ele><time>2026-05-02T16:59:04.998Z</time></trkpt><trkpt lat="40.446211289186294" lon="15.76229072341972"><ele>1053.0</ele><time>2026-05-02T16:59:11.998Z</time></trkpt><trkpt lat="40.446135902637174" lon="15.762338941727828"><ele>1053.0</ele><time>2026-05-02T16:59:15.998Z</time></trkpt><trkpt lat="40.44607881763869" lon="15.762384794590195"><ele>1052.9999999999998</ele><time>2026-05-02T16:59:18.998Z</time></trkpt><trkpt lat="40.44605857080449" lon="15.76247212864292"><ele>1053.0</ele><time>2026-05-02T16:59:22Z</time></trkpt><trkpt lat="40.446061359138454" lon="15.762565046711936"><ele>1054.2857142857142</ele><time>2026-05-02T16:59:27Z</time></trkpt><trkpt lat="40.446059362193495" lon="15.762668262547004"><ele>1055.5714285714284</ele><time>2026-05-02T16:59:31Z</time></trkpt><trkpt lat="40.44603824889366" lon="15.762753364884158"><ele>1056.857142857143</ele><time>2026-05-02T16:59:35Z</time></trkpt><trkpt lat="40.44605065548514" lon="15.76283738746701"><ele>1058.142857142857</ele><time>2026-05-02T16:59:38Z</time></trkpt><trkpt lat="40.44605729970184" lon="15.762921906171856"><ele>1059.4285714285716</ele><time>2026-05-02T16:59:46Z</time></trkpt><trkpt lat="40.44607209286561" lon="15.763002705197653"><ele>1060.7142857142858</ele><time>2026-05-02T17:00:22.999Z</time></trkpt><trkpt lat="40.44603923173181" lon="15.763089043979905"><ele>1062.0</ele><time>2026-05-02T17:00:26.999Z</time></trkpt><trkpt lat="40.44599809674164" lon="15.763177591685166"><ele>1064.142857142857</ele><time>2026-05-02T17:00:28.999Z</time></trkpt><trkpt lat="40.445966488408764" lon="15.76326498779153"><ele>1066.2857142857144</ele><time>2026-05-02T17:00:32.999Z</time></trkpt><trkpt lat="40.44592502402924" lon="15.763331906991715"><ele>1068.4285714285716</ele><time>2026-05-02T17:00:38.999Z</time></trkpt><trkpt lat="40.44585787609872" lon="15.763356300772028"><ele>1070.5714285714287</ele><time>2026-05-02T17:00:49.998Z</time></trkpt><trkpt lat="40.445823551666216" lon="15.763433732457806"><ele>1072.7142857142858</ele><time>2026-05-02T17:01:05.998Z</time></trkpt><trkpt lat="40.445869600637" lon="15.763495551113413"><ele>1074.857142857143</ele><time>2026-05-02T17:01:42Z</time></trkpt><trkpt lat="40.44594397561872" lon="15.763460643919613"><ele>1077.0</ele><time>2026-05-02T17:02:14.999Z</time></trkpt><trkpt lat="40.44600772553984" lon="15.763470763204815"><ele>1077.0</ele><time>2026-05-02T17:02:28.999Z</time></trkpt><trkpt lat="40.44609919462574" lon="15.763482899062351"><ele>1077.0</ele><time>2026-05-02T17:02:38.999Z</time></trkpt><trkpt lat="40.446136590884976" lon="15.763415641292719"><ele>1077.0</ele><time>2026-05-02T17:04:03Z</time></trkpt><trkpt lat="40.4460953364467" lon="15.763339787704584"><ele>1077.0</ele><time>2026-05-02T17:04:26.999Z</time></trkpt><trkpt lat="40.44604725482957" lon="15.763268851442415"><ele>1077.0</ele><time>2026-05-02T17:04:30.999Z</time></trkpt><trkpt lat="40.446000200225434" lon="15.763195018323998"><ele>1077.0</ele><time>2026-05-02T17:04:34.999Z</time></trkpt><trkpt lat="40.446029776766885" lon="15.763112257874763"><ele>1077.0</ele><time>2026-05-02T17:04:37.999Z</time></trkpt><trkpt lat="40.44604968481217" lon="15.76303189792714"><ele>1077.0</ele><time>2026-05-02T17:04:42.999Z</time></trkpt><trkpt lat="40.44605063290934" lon="15.762947826221158"><ele>1077.0</ele><time>2026-05-02T17:04:49.999Z</time></trkpt><trkpt lat="40.44613189279603" lon="15.762921515653948"><ele>1077.0</ele><time>2026-05-02T17:06:41.999Z</time></trkpt><trkpt lat="40.44606773435693" lon="15.762834553543966"><ele>1077.0</ele><time>2026-05-02T17:07:08.998Z</time></trkpt><trkpt lat="40.44607345139888" lon="15.762750404022952"><ele>1077.0</ele><time>2026-05-02T17:07:11.998Z</time></trkpt><trkpt lat="40.44607513205816" lon="15.762649033891332"><ele>1077.0</ele><time>2026-05-02T17:07:13.998Z</time></trkpt><trkpt lat="40.446058506851365" lon="15.762531179402664"><ele>1074.857142857143</ele><time>2026-05-02T17:07:17.998Z</time></trkpt><trkpt lat="40.446075846587085" lon="15.762442835927956"><ele>1072.7142857142858</ele><time>2026-05-02T17:07:22.998Z</time></trkpt><trkpt lat="40.44611123749259" lon="15.762363562999598"><ele>1070.5714285714287</ele><time>2026-05-02T17:07:35.998Z</time></trkpt><trkpt lat="40.44617663197368" lon="15.762306570337001"><ele>1068.4285714285716</ele><time>2026-05-02T17:07:40.998Z</time></trkpt><trkpt lat="40.44622319715883" lon="15.76221292987609"><ele>1066.2857142857144</ele><time>2026-05-02T17:07:43.998Z</time></trkpt><trkpt lat="40.44625431278158" lon="15.762127047300945"><ele>1064.142857142857</ele><time>2026-05-02T17:07:49Z</time></trkpt><trkpt lat="40.446194411916885" lon="15.762084233775129"><ele>1062.0</ele><time>2026-05-02T17:08:03Z</time></trkpt><trkpt lat="40.44620562965738" lon="15.761998500295602"><ele>1062.0</ele><time>2026-05-02T17:08:06Z</time></trkpt><trkpt lat="40.446225456996345" lon="15.761895889330898"><ele>1062.0</ele><time>2026-05-02T17:08:09Z</time></trkpt><trkpt lat="40.44619416414957" lon="15.761820842150604"><ele>1062.0</ele><time>2026-05-02T17:08:14Z</time></trkpt><trkpt lat="40.44620645888556" lon="15.76173887996536"><ele>1062.0</ele><time>2026-05-02T17:08:17Z</time></trkpt><trkpt lat="40.44625233267722" lon="15.761680932143596"><ele>1062.0</ele><time>2026-05-02T17:08:22Z</time></trkpt><trkpt lat="40.4462877923697" lon="15.761592107127987"><ele>1062.0</ele><time>2026-05-02T17:08:29.999Z</time></trkpt><trkpt lat="40.44631008416065" lon="15.761502905238988"><ele>1062.0</ele><time>2026-05-02T17:08:37.999Z</time></trkpt><trkpt lat="40.44634322658355" lon="15.761400947830683"><ele>1059.142857142857</ele><time>2026-05-02T17:08:40.999Z</time></trkpt><trkpt lat="40.4464056828888" lon="15.761339255497203"><ele>1056.2857142857144</ele><time>2026-05-02T17:08:42.999Z</time></trkpt><trkpt lat="40.44646052047201" lon="15.761297911638511"><ele>1053.4285714285716</ele><time>2026-05-02T17:08:44.999Z</time></trkpt><trkpt lat="40.446544862390105" lon="15.761261275840784"><ele>1050.5714285714287</ele><time>2026-05-02T17:08:48.999Z</time></trkpt><trkpt lat="40.4466154794689" lon="15.761238133697844"><ele>1047.7142857142858</ele><time>2026-05-02T17:08:51.999Z</time></trkpt><trkpt lat="40.446671137077594" lon="15.761171918337867"><ele>1044.857142857143</ele><time>2026-05-02T17:08:54.999Z</time></trkpt><trkpt lat="40.44670183166761" lon="15.761091374582557"><ele>1042.0</ele><time>2026-05-02T17:08:57.999Z</time></trkpt><trkpt lat="40.44672764212684" lon="15.761014926237218"><ele>1040.6666666666665</ele><time>2026-05-02T17:09:00.999Z</time></trkpt><trkpt lat="40.446758344651855" lon="15.760942657362333"><ele>1039.3333333333333</ele><time>2026-05-02T17:09:02.999Z</time></trkpt><trkpt lat="40.446765072266246" lon="15.760839936624162"><ele>1038.0</ele><time>2026-05-02T17:09:05.999Z</time></trkpt><trkpt lat="40.44674214082786" lon="15.760745381264467"><ele>1036.6666666666667</ele><time>2026-05-02T17:09:07.999Z</time></trkpt><trkpt lat="40.44671385497553" lon="15.760612414322098"><ele>1035.3333333333335</ele><time>2026-05-02T17:09:10.999Z</time></trkpt><trkpt lat="40.446761842333146" lon="15.76052881349855"><ele>1034.0</ele><time>2026-05-02T17:09:13.998Z</time></trkpt><trkpt lat="40.44680901366514" lon="15.76040095408835"><ele>1034.0</ele><time>2026-05-02T17:09:16.998Z</time></trkpt><trkpt lat="40.44680705789083" lon="15.76030450116418"><ele>1034.0</ele><time>2026-05-02T17:09:19.998Z</time></trkpt><trkpt lat="40.44681034496375" lon="15.760205917483349"><ele>1034.0</ele><time>2026-05-02T17:09:24.998Z</time></trkpt><trkpt lat="40.4467988961042" lon="15.760119128246185"><ele>1034.0</ele><time>2026-05-02T17:09:38.998Z</time></trkpt><trkpt lat="40.446853679047464" lon="15.760225178798327"><ele>1034.0</ele><time>2026-05-02T17:09:50.998Z</time></trkpt><trkpt lat="40.4469418264996" lon="15.760287080743376"><ele>1034.0</ele><time>2026-05-02T17:09:54Z</time></trkpt><trkpt lat="40.44699482599577" lon="15.760394800820473"><ele>1034.0</ele><time>2026-05-02T17:09:56Z</time></trkpt><trkpt lat="40.44703887302587" lon="15.760484079331272"><ele>1034.0</ele><time>2026-05-02T17:09:59Z</time></trkpt><trkpt lat="40.44709346426707" lon="15.760530023371636"><ele>1034.0</ele><time>2026-05-02T17:10:02Z</time></trkpt><trkpt lat="40.447130717284956" lon="15.760616458181584"><ele>1034.0</ele><time>2026-05-02T17:10:04Z</time></trkpt><trkpt lat="40.447192811209916" lon="15.760633136735464"><ele>1034.0</ele><time>2026-05-02T17:10:08Z</time></trkpt><trkpt lat="40.44726224549333" lon="15.760671579112172"><ele>1034.0</ele><time>2026-05-02T17:10:13Z</time></trkpt><trkpt lat="40.447181163332345" lon="15.760671768663135"><ele>1034.0</ele><time>2026-05-02T17:10:27.999Z</time></trkpt><trkpt lat="40.44712538268469" lon="15.760625896235341"><ele>1034.0</ele><time>2026-05-02T17:10:29.999Z</time></trkpt><trkpt lat="40.44706065349377" lon="15.760627915498297"><ele>1034.0</ele><time>2026-05-02T17:10:33.999Z</time></trkpt><trkpt lat="40.44699258680475" lon="15.760632913054415"><ele>1034.0</ele><time>2026-05-02T17:10:36.999Z</time></trkpt><trkpt lat="40.446894200093176" lon="15.76063111220364"><ele>1034.0</ele><time>2026-05-02T17:10:38.999Z</time></trkpt><trkpt lat="40.44681016313289" lon="15.760584001358932"><ele>1034.0</ele><time>2026-05-02T17:10:40.999Z</time></trkpt><trkpt lat="40.44675979621779" lon="15.760524967506491"><ele>1034.0</ele><time>2026-05-02T17:10:42.999Z</time></trkpt><trkpt lat="40.446766484142245" lon="15.760417787308224"><ele>1034.0</ele><time>2026-05-02T17:10:44.999Z</time></trkpt><trkpt lat="40.44680450378489" lon="15.760344635144898"><ele>1034.0</ele><time>2026-05-02T17:10:45.999Z</time></trkpt><trkpt lat="40.446813531818385" lon="15.760203368033363"><ele>1034.0</ele><time>2026-05-02T17:10:47.999Z</time></trkpt><trkpt lat="40.44682335085789" lon="15.760069481828712"><ele>1034.0</ele><time>2026-05-02T17:10:49.999Z</time></trkpt><trkpt lat="40.446856770660794" lon="15.759955930269465"><ele>1034.0</ele><time>2026-05-02T17:10:51.999Z</time></trkpt><trkpt lat="40.4468688999226" lon="15.759860095301258"><ele>1034.0</ele><time>2026-05-02T17:10:54.999Z</time></trkpt><trkpt lat="40.44683265656048" lon="15.759790988081322"><ele>1032.8333333333335</ele><time>2026-05-02T17:10:56.999Z</time></trkpt><trkpt lat="40.446829996254976" lon="15.759704021690935"><ele>1031.6666666666667</ele><time>2026-05-02T17:10:59.999Z</time></trkpt><trkpt lat="40.44682858492377" lon="15.759614630909176"><ele>1030.5</ele><time>2026-05-02T17:11:00.999Z</time></trkpt><trkpt lat="40.4468077800141" lon="15.7594926456852"><ele>1029.3333333333333</ele><time>2026-05-02T17:11:02.999Z</time></trkpt><trkpt lat="40.446852815621696" lon="15.759392010665303"><ele>1028.1666666666665</ele><time>2026-05-02T17:11:04.999Z</time></trkpt><trkpt lat="40.44690508584658" lon="15.759317675998961"><ele>1027.0</ele><time>2026-05-02T17:11:05.999Z</time></trkpt><trkpt lat="40.4469631167419" lon="15.75925433312316"><ele>1025.8333333333333</ele><time>2026-05-02T17:11:06.999Z</time></trkpt><trkpt lat="40.4470425331158" lon="15.759167879920248"><ele>1024.6666666666665</ele><time>2026-05-02T17:11:08.999Z</time></trkpt><trkpt lat="40.44712154166888" lon="15.759045442063423"><ele>1023.5</ele><time>2026-05-02T17:11:10.999Z</time></trkpt><trkpt lat="40.44715022059564" lon="15.758953222700061"><ele>1022.3333333333333</ele><time>2026-05-02T17:11:12.999Z</time></trkpt><trkpt lat="40.44719552582307" lon="15.758890695368038"><ele>1021.1666666666666</ele><time>2026-05-02T17:11:14.998Z</time></trkpt><trkpt lat="40.447241507033006" lon="15.758828707486717"><ele>1020.0</ele><time>2026-05-02T17:11:19.998Z</time></trkpt><trkpt lat="40.44732186139092" lon="15.758852321403468"><ele>1018.3333333333334</ele><time>2026-05-02T17:11:29.998Z</time></trkpt><trkpt lat="40.44734441251755" lon="15.758935566609642"><ele>1016.6666666666667</ele><time>2026-05-02T17:11:30.998Z</time></trkpt><trkpt lat="40.4473646643499" lon="15.759054443915181"><ele>1015.0</ele><time>2026-05-02T17:11:32.998Z</time></trkpt><trkpt lat="40.44744201938587" lon="15.75912794104787"><ele>1013.3333333333334</ele><time>2026-05-02T17:11:34.998Z</time></trkpt><trkpt lat="40.447517739037224" lon="15.75919062965617"><ele>1011.6666666666667</ele><time>2026-05-02T17:11:36.998Z</time></trkpt><trkpt lat="40.44758383125953" lon="15.759237944092087"><ele>1010.0</ele><time>2026-05-02T17:11:38.998Z</time></trkpt><trkpt lat="40.44766552734118" lon="15.759281294676903"><ele>1010.0000000000001</ele><time>2026-05-02T17:11:40.998Z</time></trkpt><trkpt lat="40.44774564706033" lon="15.759308606266229"><ele>1010.0</ele><time>2026-05-02T17:11:43.998Z</time></trkpt><trkpt lat="40.447847806648326" lon="15.759302686036238"><ele>1010.0</ele><time>2026-05-02T17:11:45.998Z</time></trkpt><trkpt lat="40.447925685819904" lon="15.7593039200641"><ele>1010.0</ele><time>2026-05-02T17:11:47.998Z</time></trkpt><trkpt lat="40.4479966798381" lon="15.759309048448104"><ele>1010.0000000000001</ele><time>2026-05-02T17:11:49.998Z</time></trkpt><trkpt lat="40.44808435136032" lon="15.759318705937059"><ele>1010.0</ele><time>2026-05-02T17:11:51.998Z</time></trkpt><trkpt lat="40.44815542217893" lon="15.75936107579941"><ele>1011.7142857142857</ele><time>2026-05-02T17:11:53.998Z</time></trkpt><trkpt lat="40.448207124555914" lon="15.759435829152467"><ele>1013.4285714285713</ele><time>2026-05-02T17:11:55.998Z</time></trkpt><trkpt lat="40.4482538629098" lon="15.759512871511276"><ele>1015.1428571428571</ele><time>2026-05-02T17:11:58Z</time></trkpt><trkpt lat="40.44829809179562" lon="15.759574914975165"><ele>1016.8571428571429</ele><time>2026-05-02T17:12:00Z</time></trkpt><trkpt lat="40.448367448846604" lon="15.759620308029966"><ele>1018.5714285714286</ele><time>2026-05-02T17:12:03Z</time></trkpt><trkpt lat="40.448432811279545" lon="15.759660587590272"><ele>1020.2857142857142</ele><time>2026-05-02T17:12:06Z</time></trkpt><trkpt lat="40.44847206774083" lon="15.759745801983843"><ele>1022.0</ele><time>2026-05-02T17:12:08Z</time></trkpt><trkpt lat="40.44851710253157" lon="15.759876643047331"><ele>1022.0000000000001</ele><time>2026-05-02T17:12:10Z</time></trkpt><trkpt lat="40.448556992806644" lon="15.759949196706176"><ele>1022.0</ele><time>2026-05-02T17:12:11Z</time></trkpt><trkpt lat="40.448589601356524" lon="15.76004617081513"><ele>1022.0</ele><time>2026-05-02T17:12:12Z</time></trkpt><trkpt lat="40.44863686305603" lon="15.760132498513947"><ele>1022.0</ele><time>2026-05-02T17:12:14Z</time></trkpt><trkpt lat="40.448662454649394" lon="15.760208715592995"><ele>1022.0000000000001</ele><time>2026-05-02T17:12:16Z</time></trkpt><trkpt lat="40.44869324904097" lon="15.760329568156385"><ele>1022.0</ele><time>2026-05-02T17:12:18Z</time></trkpt><trkpt lat="40.44874800545024" lon="15.760439127485341"><ele>1022.6666666666667</ele><time>2026-05-02T17:12:20Z</time></trkpt><trkpt lat="40.44878221830495" lon="15.760510881016527"><ele>1023.3333333333334</ele><time>2026-05-02T17:12:21Z</time></trkpt><trkpt lat="40.44883308670272" lon="15.760630728767072"><ele>1024.0</ele><time>2026-05-02T17:12:23Z</time></trkpt><trkpt lat="40.448850873929025" lon="15.76074314158223"><ele>1024.6666666666667</ele><time>2026-05-02T17:12:24.999Z</time></trkpt><trkpt lat="40.44888595824198" lon="15.76086780437207"><ele>1025.3333333333333</ele><time>2026-05-02T17:12:26.999Z</time></trkpt><trkpt lat="40.44892431981335" lon="15.760962594839329"><ele>1026.0</ele><time>2026-05-02T17:12:28.999Z</time></trkpt><trkpt lat="40.44899086265185" lon="15.761050781255964"><ele>1027.0000000000002</ele><time>2026-05-02T17:12:32.999Z</time></trkpt><trkpt lat="40.44903568395771" lon="15.761132659912029"><ele>1028.0</ele><time>2026-05-02T17:12:34.999Z</time></trkpt><trkpt lat="40.44906197838006" lon="15.76120999148867"><ele>1029.0</ele><time>2026-05-02T17:12:36.999Z</time></trkpt><trkpt lat="40.449114889904706" lon="15.761293579004128"><ele>1030.0</ele><time>2026-05-02T17:12:38.999Z</time></trkpt><trkpt lat="40.44917148810419" lon="15.76137169540173"><ele>1031.0</ele><time>2026-05-02T17:12:40.999Z</time></trkpt><trkpt lat="40.44921599287968" lon="15.761439239339401"><ele>1032.0000000000002</ele><time>2026-05-02T17:12:42.999Z</time></trkpt><trkpt lat="40.4492439932167" lon="15.76152215621036"><ele>1033.0</ele><time>2026-05-02T17:12:45.999Z</time></trkpt><trkpt lat="40.44931036723779" lon="15.761509754743809"><ele>1033.0000000000002</ele><time>2026-05-02T17:12:49.999Z</time></trkpt><trkpt lat="40.44926689205216" lon="15.761425770794858"><ele>1033.0</ele><time>2026-05-02T17:12:53.999Z</time></trkpt><trkpt lat="40.449208375514935" lon="15.761476353856946"><ele>1033.0</ele><time>2026-05-02T17:21:40.999Z</time></trkpt><trkpt lat="40.449164103108906" lon="15.761544229110857"><ele>1033.0</ele><time>2026-05-02T17:21:44.999Z</time></trkpt><trkpt lat="40.44912209384941" lon="15.761624867332726"><ele>1033.0</ele><time>2026-05-02T17:21:49.999Z</time></trkpt><trkpt lat="40.44916741738785" lon="15.761693202092477"><ele>1033.0000000000002</ele><time>2026-05-02T17:21:53.999Z</time></trkpt><trkpt lat="40.44922906383933" lon="15.76174858059082"><ele>1033.0</ele><time>2026-05-02T17:21:58.999Z</time></trkpt><trkpt lat="40.44920801292286" lon="15.761836958161545"><ele>1033.0000000000002</ele><time>2026-05-02T17:22:02.998Z</time></trkpt><trkpt lat="40.44926825674447" lon="15.761877897499543"><ele>1033.0</ele><time>2026-05-02T17:22:12.998Z</time></trkpt><trkpt lat="40.44933694115192" lon="15.761884981317152"><ele>1033.0</ele><time>2026-05-02T17:22:21.998Z</time></trkpt><trkpt lat="40.449326207004894" lon="15.761790978522608"><ele>1033.0</ele><time>2026-05-02T17:22:31Z</time></trkpt><trkpt lat="40.449330555138225" lon="15.76169158034568"><ele>1033.0</ele><time>2026-05-02T17:22:35Z</time></trkpt><trkpt lat="40.44929887593544" lon="15.761611096571546"><ele>1033.0000000000002</ele><time>2026-05-02T17:22:38Z</time></trkpt><trkpt lat="40.4493014153117" lon="15.761527190849346"><ele>1033.0</ele><time>2026-05-02T17:22:42Z</time></trkpt><trkpt lat="40.44926801885068" lon="15.761455340197168"><ele>1033.0000000000002</ele><time>2026-05-02T17:22:45Z</time></trkpt><trkpt lat="40.4492020316504" lon="15.761477532672775"><ele>1033.0</ele><time>2026-05-02T17:22:49Z</time></trkpt><trkpt lat="40.44926528901717" lon="15.761521689788893"><ele>1033.0</ele><time>2026-05-02T17:22:54Z</time></trkpt><trkpt lat="40.44933063461492" lon="15.761517510528229"><ele>1033.0</ele><time>2026-05-02T17:22:58Z</time></trkpt><trkpt lat="40.44937367632977" lon="15.761597377968567"><ele>1033.0</ele><time>2026-05-02T17:23:03Z</time></trkpt><trkpt lat="40.44935848306519" lon="15.76168170995607"><ele>1033.0000000000002</ele><time>2026-05-02T17:23:07Z</time></trkpt><trkpt lat="40.44933754126226" lon="15.761771104731784"><ele>1033.0</ele><time>2026-05-02T17:23:11Z</time></trkpt><trkpt lat="40.449364553856185" lon="15.761858625388026"><ele>1033.0</ele><time>2026-05-02T17:23:40.999Z</time></trkpt><trkpt lat="40.449324637172936" lon="15.761776619602688"><ele>1033.0</ele><time>2026-05-02T17:23:49.999Z</time></trkpt><trkpt lat="40.44929958336886" lon="15.761651182260549"><ele>1033.0</ele><time>2026-05-02T17:23:52.999Z</time></trkpt><trkpt lat="40.44928577085273" lon="15.761563312687334"><ele>1033.0</ele><time>2026-05-02T17:23:54.999Z</time></trkpt><trkpt lat="40.449220004446005" lon="15.761488507331562"><ele>1033.0</ele><time>2026-05-02T17:23:56.999Z</time></trkpt><trkpt lat="40.44917795136589" lon="15.761395218354583"><ele>1033.0</ele><time>2026-05-02T17:23:59.999Z</time></trkpt><trkpt lat="40.4491118320985" lon="15.761292820012446"><ele>1033.0</ele><time>2026-05-02T17:24:02.998Z</time></trkpt><trkpt lat="40.449065713810356" lon="15.761222297678884"><ele>1033.0</ele><time>2026-05-02T17:24:04.998Z</time></trkpt><trkpt lat="40.44904204390822" lon="15.761135302885345"><ele>1033.0</ele><time>2026-05-02T17:24:06.998Z</time></trkpt><trkpt lat="40.448979579081644" lon="15.761042856930889"><ele>1033.0</ele><time>2026-05-02T17:24:08.998Z</time></trkpt><trkpt lat="40.4489296294277" lon="15.76097505163568"><ele>1033.0</ele><time>2026-05-02T17:24:10.998Z</time></trkpt><trkpt lat="40.44890967213932" lon="15.760876628761883"><ele>1033.0</ele><time>2026-05-02T17:24:14.998Z</time></trkpt><trkpt lat="40.44888526034131" lon="15.76077949889727"><ele>1032.2</ele><time>2026-05-02T17:24:18.998Z</time></trkpt><trkpt lat="40.4488408187537" lon="15.76070246040433"><ele>1031.4</ele><time>2026-05-02T17:24:22.998Z</time></trkpt><trkpt lat="40.4487808912321" lon="15.760576766267675"><ele>1030.6000000000001</ele><time>2026-05-02T17:24:24.998Z</time></trkpt><trkpt lat="40.44872316555264" lon="15.760447367813969"><ele>1029.8</ele><time>2026-05-02T17:24:26.998Z</time></trkpt><trkpt lat="40.44869129210746" lon="15.760318316921136"><ele>1029.0</ele><time>2026-05-02T17:24:28.998Z</time></trkpt><trkpt lat="40.44866047549947" lon="15.760200987160344"><ele>1027.6000000000001</ele><time>2026-05-02T17:24:30.998Z</time></trkpt><trkpt lat="40.44861746419399" lon="15.76007786550807"><ele>1026.2</ele><time>2026-05-02T17:24:32.998Z</time></trkpt><trkpt lat="40.44857913083714" lon="15.75997967467789"><ele>1024.8000000000002</ele><time>2026-05-02T17:24:35Z</time></trkpt><trkpt lat="40.448527613903956" lon="15.759857407299943"><ele>1023.4000000000001</ele><time>2026-05-02T17:24:37Z</time></trkpt><trkpt lat="40.44849128924029" lon="15.75974189181612"><ele>1022.0</ele><time>2026-05-02T17:24:39Z</time></trkpt><trkpt lat="40.44844566146414" lon="15.759664652588611"><ele>1022.0000000000001</ele><time>2026-05-02T17:24:41Z</time></trkpt><trkpt lat="40.44833820449826" lon="15.759603873935616"><ele>1022.0</ele><time>2026-05-02T17:24:44Z</time></trkpt><trkpt lat="40.4482707636693" lon="15.759526202009338"><ele>1022.0</ele><time>2026-05-02T17:24:46Z</time></trkpt><trkpt lat="40.44822661359632" lon="15.759438423694808"><ele>1022.0</ele><time>2026-05-02T17:24:48Z</time></trkpt><trkpt lat="40.44817740034586" lon="15.75937102329502"><ele>1022.0000000000001</ele><time>2026-05-02T17:24:49Z</time></trkpt><trkpt lat="40.44809489642889" lon="15.759322993960957"><ele>1022.0</ele><time>2026-05-02T17:24:51Z</time></trkpt><trkpt lat="40.44800571084887" lon="15.75932109682008"><ele>1020.0000000000001</ele><time>2026-05-02T17:24:53Z</time></trkpt><trkpt lat="40.447917454677764" lon="15.759316347808667"><ele>1018.0</ele><time>2026-05-02T17:24:55Z</time></trkpt><trkpt lat="40.44784141465762" lon="15.759306307749183"><ele>1016.0</ele><time>2026-05-02T17:24:57Z</time></trkpt><trkpt lat="40.44773658609944" lon="15.759329611299524"><ele>1014.0</ele><time>2026-05-02T17:24:59Z</time></trkpt><trkpt lat="40.44765172755298" lon="15.75931027785412"><ele>1012.0000000000001</ele><time>2026-05-02T17:25:01Z</time></trkpt><trkpt lat="40.44759907053681" lon="15.75925733938199"><ele>1010.0</ele><time>2026-05-02T17:25:03Z</time></trkpt><trkpt lat="40.447534850756384" lon="15.759198279338401"><ele>1010.0</ele><time>2026-05-02T17:25:05Z</time></trkpt><trkpt lat="40.44745269579052" lon="15.75913730662943"><ele>1010.0</ele><time>2026-05-02T17:25:06.999Z</time></trkpt><trkpt lat="40.447368280204685" lon="15.759032336898322"><ele>1010.0</ele><time>2026-05-02T17:25:08.999Z</time></trkpt><trkpt lat="40.44732795307753" lon="15.758892143176709"><ele>1010.0</ele><time>2026-05-02T17:25:10.999Z</time></trkpt><trkpt lat="40.44730372660712" lon="15.758815746503176"><ele>1010.0</ele><time>2026-05-02T17:25:12.999Z</time></trkpt><trkpt lat="40.44727878217472" lon="15.758716226729812"><ele>1010.0000000000001</ele><time>2026-05-02T17:25:14.999Z</time></trkpt><trkpt lat="40.447270696792074" lon="15.758630356318752"><ele>1010.0</ele><time>2026-05-02T17:25:15.999Z</time></trkpt><trkpt lat="40.44723346217313" lon="15.758471874710636"><ele>1010.0</ele><time>2026-05-02T17:25:17.999Z</time></trkpt><trkpt lat="40.447207916969454" lon="15.758369121611581"><ele>1010.0</ele><time>2026-05-02T17:25:18.999Z</time></trkpt><trkpt lat="40.447201036321566" lon="15.758283224634251"><ele>1010.0000000000001</ele><time>2026-05-02T17:25:19.999Z</time></trkpt><trkpt lat="40.447187577000896" lon="15.75818815327364"><ele>1010.0</ele><time>2026-05-02T17:25:20.999Z</time></trkpt><trkpt lat="40.44717379882108" lon="15.758094446184252"><ele>1007.8</ele><time>2026-05-02T17:25:21.999Z</time></trkpt><trkpt lat="40.44717059038794" lon="15.757964526011191"><ele>1005.6</ele><time>2026-05-02T17:25:23.999Z</time></trkpt><trkpt lat="40.447189763990856" lon="15.757830954175308"><ele>1003.4000000000001</ele><time>2026-05-02T17:25:25.999Z</time></trkpt><trkpt lat="40.44719430717857" lon="15.757676199920423"><ele>1001.2</ele><time>2026-05-02T17:25:27.999Z</time></trkpt><trkpt lat="40.44717913931249" lon="15.75758998585579"><ele>999.0</ele><time>2026-05-02T17:25:28.999Z</time></trkpt><trkpt lat="40.44715147966844" lon="15.757417005367703"><ele>1000.0</ele><time>2026-05-02T17:25:30.999Z</time></trkpt><trkpt lat="40.44713051227038" lon="15.757329060186592"><ele>1001.0000000000001</ele><time>2026-05-02T17:25:31.999Z</time></trkpt><trkpt lat="40.44707748285526" lon="15.757197209110979"><ele>1002.0000000000001</ele><time>2026-05-02T17:25:33.999Z</time></trkpt><trkpt lat="40.44699441037123" lon="15.7571096878506"><ele>1003.0</ele><time>2026-05-02T17:25:35.999Z</time></trkpt><trkpt lat="40.44690521274748" lon="15.757025462763204"><ele>1004.0</ele><time>2026-05-02T17:25:37.999Z</time></trkpt><trkpt lat="40.4468182846419" lon="15.756977099720203"><ele>1004.0000000000001</ele><time>2026-05-02T17:25:39.999Z</time></trkpt><trkpt lat="40.44672145200391" lon="15.756941168188876"><ele>1004.0</ele><time>2026-05-02T17:25:41.999Z</time></trkpt><trkpt lat="40.44662717621901" lon="15.756894319154796"><ele>1004.0</ele><time>2026-05-02T17:25:43.999Z</time></trkpt><trkpt lat="40.44656225381449" lon="15.756827721916867"><ele>1004.0</ele><time>2026-05-02T17:25:45.999Z</time></trkpt><trkpt lat="40.446500845878546" lon="15.756785773148115"><ele>1004.0000000000001</ele><time>2026-05-02T17:25:46.999Z</time></trkpt><trkpt lat="40.446414127221054" lon="15.756741339933331"><ele>1004.0</ele><time>2026-05-02T17:25:48.999Z</time></trkpt><trkpt lat="40.446311243384876" lon="15.75670707618751"><ele>1001.0</ele><time>2026-05-02T17:25:51.999Z</time></trkpt><trkpt lat="40.44622748198435" lon="15.756688047514603"><ele>998.0000000000001</ele><time>2026-05-02T17:25:52.999Z</time></trkpt><trkpt lat="40.44611270003613" lon="15.756672368287512"><ele>995.0000000000001</ele><time>2026-05-02T17:25:54.999Z</time></trkpt><trkpt lat="40.44599931052149" lon="15.75666177487435"><ele>992.0</ele><time>2026-05-02T17:25:56.999Z</time></trkpt><trkpt lat="40.445907511680694" lon="15.756647551855382"><ele>989.0</ele><time>2026-05-02T17:25:58.998Z</time></trkpt><trkpt lat="40.44579702707304" lon="15.756602754636223"><ele>989.0</ele><time>2026-05-02T17:26:00.998Z</time></trkpt><trkpt lat="40.44572404673172" lon="15.756561644730114"><ele>989.0000000000001</ele><time>2026-05-02T17:26:01.998Z</time></trkpt><trkpt lat="40.44565487631254" lon="15.756521240630066"><ele>989.0000000000001</ele><time>2026-05-02T17:26:02.998Z</time></trkpt><trkpt lat="40.4455447642764" lon="15.756474073671994"><ele>989.0</ele><time>2026-05-02T17:26:04.998Z</time></trkpt><trkpt lat="40.44548695599431" lon="15.756356721561362"><ele>989.0</ele><time>2026-05-02T17:26:06.998Z</time></trkpt><trkpt lat="40.44541620337629" lon="15.756313956276667"><ele>989.3333333333334</ele><time>2026-05-02T17:26:07.998Z</time></trkpt><trkpt lat="40.44533531954961" lon="15.756268068529653"><ele>989.6666666666667</ele><time>2026-05-02T17:26:08.998Z</time></trkpt><trkpt lat="40.445268302741354" lon="15.756224491569549"><ele>990.0</ele><time>2026-05-02T17:26:09.998Z</time></trkpt><trkpt lat="40.44520313492525" lon="15.756158620346442"><ele>990.3333333333333</ele><time>2026-05-02T17:26:10.998Z</time></trkpt><trkpt lat="40.44513897008195" lon="15.756087118781963"><ele>990.6666666666666</ele><time>2026-05-02T17:26:11.998Z</time></trkpt><trkpt lat="40.44505013844584" lon="15.75602976012063"><ele>991.0</ele><time>2026-05-02T17:26:13.998Z</time></trkpt><trkpt lat="40.444983252944226" lon="15.756003777931143"><ele>988.8333333333333</ele><time>2026-05-02T17:26:15.998Z</time></trkpt><trkpt lat="40.44491870999213" lon="15.755964779851851"><ele>986.6666666666666</ele><time>2026-05-02T17:26:34.998Z</time></trkpt><trkpt lat="40.44485917848847" lon="15.755924321805017"><ele>984.5</ele><time>2026-05-02T17:26:38.998Z</time></trkpt><trkpt lat="40.44478792169619" lon="15.755893691368806"><ele>982.3333333333333</ele><time>2026-05-02T17:26:43Z</time></trkpt><trkpt lat="40.44469736976936" lon="15.755864989598718"><ele>980.1666666666666</ele><time>2026-05-02T17:26:46Z</time></trkpt><trkpt lat="40.4446192303202" lon="15.755844152798456"><ele>978.0</ele><time>2026-05-02T17:26:49Z</time></trkpt><trkpt lat="40.444534664600916" lon="15.75580764545471"><ele>978.0</ele><time>2026-05-02T17:26:53Z</time></trkpt><trkpt lat="40.444468969317214" lon="15.755792376161315"><ele>978.0</ele><time>2026-05-02T17:26:56Z</time></trkpt><trkpt lat="40.44438664560978" lon="15.75579853250614"><ele>978.0</ele><time>2026-05-02T17:26:59Z</time></trkpt><trkpt lat="40.444319666407296" lon="15.755764693924826"><ele>978.0</ele><time>2026-05-02T17:27:02Z</time></trkpt><trkpt lat="40.44424954428808" lon="15.755743359497338"><ele>978.0</ele><time>2026-05-02T17:27:05Z</time></trkpt><trkpt lat="40.44415343864005" lon="15.755695758235264"><ele>978.0</ele><time>2026-05-02T17:27:07Z</time></trkpt><trkpt lat="40.4440814487702" lon="15.755645350602752"><ele>978.0</ele><time>2026-05-02T17:27:09Z</time></trkpt><trkpt lat="40.44403399183377" lon="15.755580935132718"><ele>978.0</ele><time>2026-05-02T17:27:12Z</time></trkpt><trkpt lat="40.44362893051964" lon="15.755394082549168"><ele>976.75</ele><time>2026-05-02T17:27:13Z</time></trkpt><trkpt lat="40.4435588436073" lon="15.755356413002906"><ele>975.5</ele><time>2026-05-02T17:27:14Z</time></trkpt><trkpt lat="40.443429342992" lon="15.755318078410244"><ele>974.25</ele><time>2026-05-02T17:27:15Z</time></trkpt><trkpt lat="40.443304658995544" lon="15.755275162648724"><ele>973.0</ele><time>2026-05-02T17:27:16Z</time></trkpt><trkpt lat="40.44317521426627" lon="15.754986962039059"><ele>969.75</ele><time>2026-05-02T17:27:17Z</time></trkpt><trkpt lat="40.443017996669596" lon="15.755078197190622"><ele>966.5</ele><time>2026-05-02T17:27:18Z</time></trkpt><trkpt lat="40.442872225793636" lon="15.755072914957106"><ele>963.25</ele><time>2026-05-02T17:27:19.999Z</time></trkpt><trkpt lat="40.44278538225059" lon="15.755041232929235"><ele>960.0</ele><time>2026-05-02T17:27:20.999Z</time></trkpt><trkpt lat="40.442719330204774" lon="15.755022357526986"><ele>960.0</ele><time>2026-05-02T17:27:21.999Z</time></trkpt><trkpt lat="40.4426156022476" lon="15.754991723051218"><ele>960.0</ele><time>2026-05-02T17:27:23.999Z</time></trkpt><trkpt lat="40.44252968244275" lon="15.754969201397563"><ele>960.0</ele><time>2026-05-02T17:27:24.999Z</time></trkpt><trkpt lat="40.44244653983681" lon="15.754954616419065"><ele>960.0</ele><time>2026-05-02T17:27:25.999Z</time></trkpt><trkpt lat="40.44236755576375" lon="15.7549469381813"><ele>960.0</ele><time>2026-05-02T17:27:26.999Z</time></trkpt><trkpt lat="40.44229243796646" lon="15.754939943189553"><ele>960.0</ele><time>2026-05-02T17:27:27.999Z</time></trkpt><trkpt lat="40.44219887444684" lon="15.754920449203826"><ele>960.8</ele><time>2026-05-02T17:27:29.999Z</time></trkpt><trkpt lat="40.442114542579596" lon="15.754930665740268"><ele>961.6</ele><time>2026-05-02T17:27:31.999Z</time></trkpt><trkpt lat="40.44204977692285" lon="15.754853457008048"><ele>962.4000000000001</ele><time>2026-05-02T17:27:33.999Z</time></trkpt><trkpt lat="40.44196255049854" lon="15.754808222951521"><ele>963.2</ele><time>2026-05-02T17:27:35.999Z</time></trkpt><trkpt lat="40.44187424946129" lon="15.754756600188484"><ele>964.0</ele><time>2026-05-02T17:27:37.999Z</time></trkpt><trkpt lat="40.441785566265224" lon="15.754717859844865"><ele>963.9999999999999</ele><time>2026-05-02T17:27:39.999Z</time></trkpt><trkpt lat="40.441700827941666" lon="15.754711936874697"><ele>964.0</ele><time>2026-05-02T17:27:41.999Z</time></trkpt><trkpt lat="40.44159579327001" lon="15.75473913093377"><ele>964.0</ele><time>2026-05-02T17:27:43.999Z</time></trkpt><trkpt lat="40.441508769970085" lon="15.754797501846303"><ele>964.0</ele><time>2026-05-02T17:27:45.999Z</time></trkpt><trkpt lat="40.44145873313625" lon="15.75485093360299"><ele>963.9999999999999</ele><time>2026-05-02T17:27:46.999Z</time></trkpt><trkpt lat="40.4414065786693" lon="15.75491215586571"><ele>964.0</ele><time>2026-05-02T17:27:47.999Z</time></trkpt><trkpt lat="40.44130892661704" lon="15.754900661051039"><ele>964.1666666666666</ele><time>2026-05-02T17:27:48.999Z</time></trkpt><trkpt lat="40.44121265200098" lon="15.754946492191127"><ele>964.3333333333333</ele><time>2026-05-02T17:27:50.999Z</time></trkpt><trkpt lat="40.441108184947225" lon="15.754921475886148"><ele>964.5</ele><time>2026-05-02T17:27:52.999Z</time></trkpt><trkpt lat="40.44103886533645" lon="15.754889396595917"><ele>964.6666666666667</ele><time>2026-05-02T17:27:53.999Z</time></trkpt><trkpt lat="40.440961932346916" lon="15.754862876696627"><ele>964.8333333333334</ele><time>2026-05-02T17:27:54.999Z</time></trkpt><trkpt lat="40.44089845124741" lon="15.754816368834268"><ele>965.0</ele><time>2026-05-02T17:27:55.999Z</time></trkpt><trkpt lat="40.44084250191286" lon="15.754767142193677"><ele>965.0</ele><time>2026-05-02T17:27:56.999Z</time></trkpt><trkpt lat="40.44072484754693" lon="15.754781689595323"><ele>965.0</ele><time>2026-05-02T17:27:58.999Z</time></trkpt><trkpt lat="40.44061743221214" lon="15.754845341981174"><ele>965.0</ele><time>2026-05-02T17:28:00.999Z</time></trkpt><trkpt lat="40.44052384413203" lon="15.754929765777478"><ele>965.0</ele><time>2026-05-02T17:28:02.999Z</time></trkpt><trkpt lat="40.44043078984545" lon="15.754997338843971"><ele>962.75</ele><time>2026-05-02T17:28:04.999Z</time></trkpt><trkpt lat="40.4403324201316" lon="15.755046041368788"><ele>960.5</ele><time>2026-05-02T17:28:06.999Z</time></trkpt><trkpt lat="40.44022036016618" lon="15.755075896460829"><ele>958.25</ele><time>2026-05-02T17:28:08.999Z</time></trkpt><trkpt lat="40.44010147262996" lon="15.755102180978152"><ele>956.0</ele><time>2026-05-02T17:28:10.999Z</time></trkpt><trkpt lat="40.43996350488811" lon="15.755131174195991"><ele>956.0000000000001</ele><time>2026-05-02T17:28:12.998Z</time></trkpt><trkpt lat="40.43988297029153" lon="15.75514809813134"><ele>956.0</ele><time>2026-05-02T17:28:13.998Z</time></trkpt><trkpt lat="40.43980549919347" lon="15.755163905823046"><ele>956.0</ele><time>2026-05-02T17:28:14.998Z</time></trkpt><trkpt lat="40.43973416079754" lon="15.755177142779212"><ele>956.0</ele><time>2026-05-02T17:28:15.998Z</time></trkpt><trkpt lat="40.43966854173935" lon="15.755189318511626"><ele>956.0000000000001</ele><time>2026-05-02T17:28:16.998Z</time></trkpt><trkpt lat="40.4396012852498" lon="15.755239835287668"><ele>956.0</ele><time>2026-05-02T17:28:17.998Z</time></trkpt><trkpt lat="40.43952247161039" lon="15.755269564221699"><ele>957.0000000000001</ele><time>2026-05-02T17:28:18.998Z</time></trkpt><trkpt lat="40.43943515522186" lon="15.755308499293612"><ele>958.0</ele><time>2026-05-02T17:28:19.998Z</time></trkpt><trkpt lat="40.439348537298315" lon="15.755317780937434"><ele>959.0</ele><time>2026-05-02T17:28:20.998Z</time></trkpt><trkpt lat="40.439272933539634" lon="15.755336580222279"><ele>960.0</ele><time>2026-05-02T17:28:21.998Z</time></trkpt><trkpt lat="40.43919130297141" lon="15.755347951440903"><ele>961.0000000000001</ele><time>2026-05-02T17:28:22.998Z</time></trkpt><trkpt lat="40.43911308671161" lon="15.75534948559789"><ele>962.0</ele><time>2026-05-02T17:28:23.998Z</time></trkpt><trkpt lat="40.43904084795848" lon="15.755370903342065"><ele>962.0000000000001</ele><time>2026-05-02T17:28:24.998Z</time></trkpt><trkpt lat="40.43897229871008" lon="15.755349066423905"><ele>962.0</ele><time>2026-05-02T17:28:25.998Z</time></trkpt><trkpt lat="40.438911173664316" lon="15.75531906043706"><ele>962.0</ele><time>2026-05-02T17:28:26.998Z</time></trkpt><trkpt lat="40.43885288805179" lon="15.755281233237264"><ele>962.0</ele><time>2026-05-02T17:28:27.998Z</time></trkpt><trkpt lat="40.43879676653174" lon="15.755243373280791"><ele>962.0000000000001</ele><time>2026-05-02T17:28:28.998Z</time></trkpt><trkpt lat="40.438669526407345" lon="15.755225206263665"><ele>962.0</ele><time>2026-05-02T17:28:30.998Z</time></trkpt><trkpt lat="40.4385688747145" lon="15.755248196703278"><ele>960.2</ele><time>2026-05-02T17:28:31.998Z</time></trkpt><trkpt lat="40.43845236385225" lon="15.755261613163093"><ele>958.4000000000001</ele><time>2026-05-02T17:28:32.998Z</time></trkpt><trkpt lat="40.43832948774447" lon="15.755270492942245"><ele>956.5999999999999</ele><time>2026-05-02T17:28:33.998Z</time></trkpt><trkpt lat="40.43822057281432" lon="15.755282921591283"><ele>954.8</ele><time>2026-05-02T17:28:34.998Z</time></trkpt><trkpt lat="40.43813168911993" lon="15.755293844542042"><ele>953.0</ele><time>2026-05-02T17:28:35.998Z</time></trkpt><trkpt lat="40.438054543381575" lon="15.75531402603293"><ele>953.0000000000001</ele><time>2026-05-02T17:28:36.998Z</time></trkpt><trkpt lat="40.43798926331663" lon="15.755345695013721"><ele>953.0</ele><time>2026-05-02T17:28:37.998Z</time></trkpt><trkpt lat="40.43791334356394" lon="15.755387677350535"><ele>953.0</ele><time>2026-05-02T17:28:38.998Z</time></trkpt><trkpt lat="40.43784128662426" lon="15.755427591238"><ele>953.0</ele><time>2026-05-02T17:28:39.998Z</time></trkpt><trkpt lat="40.43777755058521" lon="15.755472335798318"><ele>953.0000000000001</ele><time>2026-05-02T17:28:40.998Z</time></trkpt><trkpt lat="40.4377002938136" lon="15.7555201066798"><ele>953.0</ele><time>2026-05-02T17:28:41.998Z</time></trkpt><trkpt lat="40.437632373971745" lon="15.755567856394944"><ele>951.5000000000001</ele><time>2026-05-02T17:28:42.998Z</time></trkpt><trkpt lat="40.43756498989904" lon="15.755611770525155"><ele>950.0</ele><time>2026-05-02T17:28:43.998Z</time></trkpt><trkpt lat="40.43748017714526" lon="15.75562434059581"><ele>948.5</ele><time>2026-05-02T17:28:44.998Z</time></trkpt><trkpt lat="40.43738840695429" lon="15.755609145266014"><ele>947.0</ele><time>2026-05-02T17:28:46Z</time></trkpt><trkpt lat="40.43730643634152" lon="15.755604002186875"><ele>945.5000000000001</ele><time>2026-05-02T17:28:47Z</time></trkpt><trkpt lat="40.43722938631294" lon="15.755608027170219"><ele>944.0</ele><time>2026-05-02T17:28:48Z</time></trkpt><trkpt lat="40.43713946499284" lon="15.755598705820262"><ele>943.4000000000001</ele><time>2026-05-02T17:28:49Z</time></trkpt><trkpt lat="40.43703803020986" lon="15.755581813499237"><ele>942.8000000000001</ele><time>2026-05-02T17:28:50Z</time></trkpt><trkpt lat="40.43694002294289" lon="15.755551402611207"><ele>942.1999999999999</ele><time>2026-05-02T17:28:51Z</time></trkpt><trkpt lat="40.43684666110376" lon="15.755525680000808"><ele>941.5999999999999</ele><time>2026-05-02T17:28:52Z</time></trkpt><trkpt lat="40.43673809454748" lon="15.755511379697621"><ele>941.0</ele><time>2026-05-02T17:28:53Z</time></trkpt><trkpt lat="40.43661615109065" lon="15.755526002991514"><ele>941.0000000000001</ele><time>2026-05-02T17:28:54Z</time></trkpt><trkpt lat="40.43651247664795" lon="15.755532553200778"><ele>941.0</ele><time>2026-05-02T17:28:55Z</time></trkpt><trkpt lat="40.436411427430784" lon="15.75551455713524"><ele>941.0</ele><time>2026-05-02T17:28:56Z</time></trkpt><trkpt lat="40.43632525384408" lon="15.755492788781268"><ele>941.0</ele><time>2026-05-02T17:28:57Z</time></trkpt><trkpt lat="40.43624130126938" lon="15.755482261247133"><ele>941.0000000000001</ele><time>2026-05-02T17:28:58Z</time></trkpt><trkpt lat="40.436171363820506" lon="15.75547843858734"><ele>941.0</ele><time>2026-05-02T17:28:59Z</time></trkpt><trkpt lat="40.436108572231994" lon="15.755495449571914"><ele>940.0000000000001</ele><time>2026-05-02T17:29:00Z</time></trkpt><trkpt lat="40.4360444042695" lon="15.755505551179649"><ele>939.0</ele><time>2026-05-02T17:29:01Z</time></trkpt><trkpt lat="40.435977424568655" lon="15.755495269097684"><ele>938.0</ele><time>2026-05-02T17:29:02Z</time></trkpt><trkpt lat="40.435856882935674" lon="15.75547078436964"><ele>937.0</ele><time>2026-05-02T17:29:04Z</time></trkpt><trkpt lat="40.43577628953482" lon="15.755481868243782"><ele>936.0000000000001</ele><time>2026-05-02T17:29:05Z</time></trkpt><trkpt lat="40.43569811928956" lon="15.75548837889468"><ele>935.0</ele><time>2026-05-02T17:29:06Z</time></trkpt><trkpt lat="40.435619989609016" lon="15.75548136819467"><ele>935.0000000000001</ele><time>2026-05-02T17:29:07Z</time></trkpt><trkpt lat="40.43555002552326" lon="15.755461021962821"><ele>935.0</ele><time>2026-05-02T17:29:08Z</time></trkpt><trkpt lat="40.43548433087047" lon="15.75543366701874"><ele>935.0</ele><time>2026-05-02T17:29:09Z</time></trkpt><trkpt lat="40.43541385476757" lon="15.755404457491927"><ele>935.0</ele><time>2026-05-02T17:29:10Z</time></trkpt><trkpt lat="40.435338178485985" lon="15.755387823443302"><ele>935.0000000000001</ele><time>2026-05-02T17:29:11Z</time></trkpt><trkpt lat="40.43526162741885" lon="15.755349424669177"><ele>935.0</ele><time>2026-05-02T17:29:12Z</time></trkpt><trkpt lat="40.43517999271119" lon="15.755299813607596"><ele>934.0</ele><time>2026-05-02T17:29:13Z</time></trkpt><trkpt lat="40.435104346756425" lon="15.75525529324551"><ele>933.0</ele><time>2026-05-02T17:29:14Z</time></trkpt><trkpt lat="40.435024436496626" lon="15.755222877916571"><ele>932.0</ele><time>2026-05-02T17:29:15Z</time></trkpt><trkpt lat="40.434922951976546" lon="15.755202961973566"><ele>931.0</ele><time>2026-05-02T17:29:16Z</time></trkpt><trkpt lat="40.43480150909323" lon="15.755177464365666"><ele>930.0</ele><time>2026-05-02T17:29:17Z</time></trkpt><trkpt lat="40.434695953951866" lon="15.755144834090759"><ele>929.0</ele><time>2026-05-02T17:29:18Z</time></trkpt><trkpt lat="40.43458995422927" lon="15.755104341691442"><ele>928.0</ele><time>2026-05-02T17:29:19Z</time></trkpt><trkpt lat="40.43449529656921" lon="15.755072064506644"><ele>927.0</ele><time>2026-05-02T17:29:20Z</time></trkpt><trkpt lat="40.43440181817903" lon="15.755023982893197"><ele>926.0</ele><time>2026-05-02T17:29:21Z</time></trkpt><trkpt lat="40.43430108969562" lon="15.754952521607617"><ele>925.0</ele><time>2026-05-02T17:29:22Z</time></trkpt><trkpt lat="40.434197200520586" lon="15.754867075185258"><ele>924.9999999999999</ele><time>2026-05-02T17:29:23Z</time></trkpt><trkpt lat="40.43410586897858" lon="15.754805072967079"><ele>925.0</ele><time>2026-05-02T17:29:24Z</time></trkpt><trkpt lat="40.43402499951356" lon="15.754743027059861"><ele>925.0</ele><time>2026-05-02T17:29:25Z</time></trkpt><trkpt lat="40.43396399138424" lon="15.754672749645442"><ele>925.0</ele><time>2026-05-02T17:29:26Z</time></trkpt><trkpt lat="40.43389607923076" lon="15.754614767576522"><ele>924.9999999999999</ele><time>2026-05-02T17:29:26.999Z</time></trkpt><trkpt lat="40.43381944858172" lon="15.754557149538886"><ele>925.0</ele><time>2026-05-02T17:29:27.999Z</time></trkpt><trkpt lat="40.43372982579306" lon="15.754526191413747"><ele>925.0</ele><time>2026-05-02T17:29:28.999Z</time></trkpt><trkpt lat="40.4336324420398" lon="15.754511228867944"><ele>925.0</ele><time>2026-05-02T17:29:29.999Z</time></trkpt><trkpt lat="40.43352847284939" lon="15.754509123364953"><ele>925.0</ele><time>2026-05-02T17:29:30.999Z</time></trkpt><trkpt lat="40.433428933063716" lon="15.754510649558938"><ele>925.0</ele><time>2026-05-02T17:29:31.999Z</time></trkpt><trkpt lat="40.43335225947158" lon="15.75449729022952"><ele>925.0</ele><time>2026-05-02T17:29:32.999Z</time></trkpt><trkpt lat="40.43325865335017" lon="15.754489520483494"><ele>924.9999999999999</ele><time>2026-05-02T17:29:33.999Z</time></trkpt><trkpt lat="40.43318125422573" lon="15.754488201361854"><ele>925.0</ele><time>2026-05-02T17:29:34.999Z</time></trkpt><trkpt lat="40.43311049363129" lon="15.754493944750202"><ele>925.0</ele><time>2026-05-02T17:29:35.999Z</time></trkpt><trkpt lat="40.43304728180596" lon="15.754484124048005"><ele>925.0</ele><time>2026-05-02T17:29:36.999Z</time></trkpt><trkpt lat="40.43296207631773" lon="15.754425119736332"><ele>924.9999999999999</ele><time>2026-05-02T17:29:38.999Z</time></trkpt><trkpt lat="40.43293363309483" lon="15.754318485727383"><ele>925.0</ele><time>2026-05-02T17:29:40.999Z</time></trkpt><trkpt lat="40.43294594024282" lon="15.754172841289659"><ele>920.75</ele><time>2026-05-02T17:29:42.999Z</time></trkpt><trkpt lat="40.43294418655771" lon="15.75402139911679"><ele>916.5</ele><time>2026-05-02T17:29:44.999Z</time></trkpt><trkpt lat="40.4329456461211" lon="15.75385904741747"><ele>912.25</ele><time>2026-05-02T17:29:46.999Z</time></trkpt><trkpt lat="40.43294104090979" lon="15.75369436805945"><ele>908.0</ele><time>2026-05-02T17:29:48.999Z</time></trkpt><trkpt lat="40.432940373487874" lon="15.753529793108962"><ele>907.25</ele><time>2026-05-02T17:29:50.999Z</time></trkpt><trkpt lat="40.43293980907472" lon="15.753369741507854"><ele>906.5</ele><time>2026-05-02T17:29:52.999Z</time></trkpt><trkpt lat="40.43294002309554" lon="15.753209786658811"><ele>905.75</ele><time>2026-05-02T17:29:54.999Z</time></trkpt><trkpt lat="40.432941182170765" lon="15.753067019869405"><ele>905.0</ele><time>2026-05-02T17:29:56.999Z</time></trkpt><trkpt lat="40.43293848927949" lon="15.752922105108826"><ele>905.0</ele><time>2026-05-02T17:29:58.999Z</time></trkpt><trkpt lat="40.432938238818444" lon="15.752796132394126"><ele>905.0</ele><time>2026-05-02T17:30:00.999Z</time></trkpt><trkpt lat="40.432931367239576" lon="15.752689493373431"><ele>905.0</ele><time>2026-05-02T17:30:02.999Z</time></trkpt><trkpt lat="40.43291948100793" lon="15.752558713693245"><ele>905.0</ele><time>2026-05-02T17:30:04.999Z</time></trkpt><trkpt lat="40.432878990744285" lon="15.752445847060848"><ele>905.0</ele><time>2026-05-02T17:30:06.999Z</time></trkpt><trkpt lat="40.432833829195125" lon="15.752343393675172"><ele>903.6</ele><time>2026-05-02T17:30:08.999Z</time></trkpt><trkpt lat="40.43275989655992" lon="15.752258833966625"><ele>902.2</ele><time>2026-05-02T17:30:10.999Z</time></trkpt><trkpt lat="40.4327022048482" lon="15.752218614762311"><ele>900.8</ele><time>2026-05-02T17:30:11.999Z</time></trkpt><trkpt lat="40.43260597274579" lon="15.75214312411438"><ele>899.4</ele><time>2026-05-02T17:30:13.999Z</time></trkpt><trkpt lat="40.43251414115435" lon="15.75206983421023"><ele>898.0</ele><time>2026-05-02T17:30:15.999Z</time></trkpt><trkpt lat="40.43245437632787" lon="15.751932565571908"><ele>897.0</ele><time>2026-05-02T17:30:17.999Z</time></trkpt><trkpt lat="40.4323939684331" lon="15.751808149952405"><ele>896.0</ele><time>2026-05-02T17:30:19.998Z</time></trkpt><trkpt lat="40.432309454762695" lon="15.751687976838895"><ele>895.0</ele><time>2026-05-02T17:30:21.998Z</time></trkpt><trkpt lat="40.432223277116876" lon="15.751665260515209"><ele>894.0</ele><time>2026-05-02T17:30:22.998Z</time></trkpt><trkpt lat="40.432135403777814" lon="15.751658265713036"><ele>893.0</ele><time>2026-05-02T17:30:23.998Z</time></trkpt><trkpt lat="40.432046280352964" lon="15.751629752868602"><ele>893.0000000000001</ele><time>2026-05-02T17:30:24.998Z</time></trkpt><trkpt lat="40.431996233352244" lon="15.751536298000516"><ele>893.0</ele><time>2026-05-02T17:30:25.998Z</time></trkpt><trkpt lat="40.43194480620628" lon="15.751440965798869"><ele>893.0</ele><time>2026-05-02T17:30:26.998Z</time></trkpt><trkpt lat="40.43188066393828" lon="15.751348907843012"><ele>893.0</ele><time>2026-05-02T17:30:27.998Z</time></trkpt><trkpt lat="40.43185269632839" lon="15.751232792239966"><ele>893.0000000000001</ele><time>2026-05-02T17:30:28.998Z</time></trkpt><trkpt lat="40.431822088706994" lon="15.75115351208822"><ele>893.0</ele><time>2026-05-02T17:30:29.998Z</time></trkpt><trkpt lat="40.431747720845905" lon="15.751085074147557"><ele>893.0000000000001</ele><time>2026-05-02T17:30:30.998Z</time></trkpt><trkpt lat="40.431646449701105" lon="15.751062264237067"><ele>893.0</ele><time>2026-05-02T17:30:31.998Z</time></trkpt><trkpt lat="40.43156665362365" lon="15.75103693381411"><ele>893.0</ele><time>2026-05-02T17:30:32.998Z</time></trkpt><trkpt lat="40.43148554061328" lon="15.751004728552601"><ele>893.0</ele><time>2026-05-02T17:30:33.998Z</time></trkpt><trkpt lat="40.43143507778149" lon="15.750910261744389"><ele>893.0000000000001</ele><time>2026-05-02T17:30:34.998Z</time></trkpt><trkpt lat="40.431360877292676" lon="15.750850886008099"><ele>893.0</ele><time>2026-05-02T17:30:35.998Z</time></trkpt><trkpt lat="40.43129317305049" lon="15.750788015235832"><ele>889.5999999999999</ele><time>2026-05-02T17:30:36.998Z</time></trkpt><trkpt lat="40.431225695996154" lon="15.750724872471226"><ele>886.1999999999999</ele><time>2026-05-02T17:30:37.998Z</time></trkpt><trkpt lat="40.43113679780465" lon="15.750672631560386"><ele>882.8</ele><time>2026-05-02T17:30:38.998Z</time></trkpt><trkpt lat="40.43104645421652" lon="15.7506210351717"><ele>879.4</ele><time>2026-05-02T17:30:39.998Z</time></trkpt><trkpt lat="40.43095910598036" lon="15.750570151319694"><ele>876.0</ele><time>2026-05-02T17:30:40.998Z</time></trkpt><trkpt lat="40.43088588775419" lon="15.75052307255998"><ele>876.0</ele><time>2026-05-02T17:30:41.998Z</time></trkpt><trkpt lat="40.43082714760057" lon="15.750474414786275"><ele>876.0</ele><time>2026-05-02T17:30:42.998Z</time></trkpt><trkpt lat="40.43074966506906" lon="15.750455367661814"><ele>876.0</ele><time>2026-05-02T17:30:43.998Z</time></trkpt><trkpt lat="40.430700665071626" lon="15.75037955454969"><ele>876.0</ele><time>2026-05-02T17:30:44.998Z</time></trkpt><trkpt lat="40.430657962357316" lon="15.750305985696357"><ele>876.0</ele><time>2026-05-02T17:30:45.998Z</time></trkpt><trkpt lat="40.430636174481315" lon="15.750214654798881"><ele>876.0</ele><time>2026-05-02T17:30:46.998Z</time></trkpt><trkpt lat="40.43058498834387" lon="15.750161014464966"><ele>876.0</ele><time>2026-05-02T17:30:47.998Z</time></trkpt><trkpt lat="40.43055190611918" lon="15.750068663472025"><ele>870.0</ele><time>2026-05-02T17:30:49.998Z</time></trkpt><trkpt lat="40.43068334939647" lon="15.749890843456068"><ele>864.0</ele><time>2026-05-02T17:30:57Z</time></trkpt><trkpt lat="40.43074783116888" lon="15.749880199703906"><ele>858.0</ele><time>2026-05-02T17:30:58Z</time></trkpt><trkpt lat="40.430854873496415" lon="15.749981666469903"><ele>852.0</ele><time>2026-05-02T17:31:00Z</time></trkpt><trkpt lat="40.43086759473994" lon="15.750107057925357"><ele>852.0</ele><time>2026-05-02T17:31:01Z</time></trkpt><trkpt lat="40.4308865700959" lon="15.750195236975882"><ele>852.0</ele><time>2026-05-02T17:31:02Z</time></trkpt><trkpt lat="40.43095120215686" lon="15.750243117305056"><ele>852.0</ele><time>2026-05-02T17:31:03Z</time></trkpt><trkpt lat="40.43099574264563" lon="15.750307382333002"><ele>852.0</ele><time>2026-05-02T17:31:04Z</time></trkpt><trkpt lat="40.431060200383364" lon="15.750302788755393"><ele>852.0</ele><time>2026-05-02T17:31:05Z</time></trkpt><trkpt lat="40.431122729673454" lon="15.750317086666197"><ele>852.0</ele><time>2026-05-02T17:31:06Z</time></trkpt><trkpt lat="40.431269995251796" lon="15.750318362038492"><ele>853.8333333333334</ele><time>2026-05-02T17:31:08Z</time></trkpt><trkpt lat="40.431363203567166" lon="15.750292561280434"><ele>855.6666666666667</ele><time>2026-05-02T17:31:09Z</time></trkpt><trkpt lat="40.43145043096171" lon="15.750304987900233"><ele>857.5</ele><time>2026-05-02T17:31:10Z</time></trkpt><trkpt lat="40.431523176341365" lon="15.75030331406498"><ele>859.3333333333334</ele><time>2026-05-02T17:31:11Z</time></trkpt><trkpt lat="40.431590444212056" lon="15.750301934997955"><ele>861.1666666666667</ele><time>2026-05-02T17:31:12Z</time></trkpt><trkpt lat="40.43166363060006" lon="15.750302576817479"><ele>863.0</ele><time>2026-05-02T17:31:13Z</time></trkpt><trkpt lat="40.43174654208409" lon="15.750286737968027"><ele>863.0</ele><time>2026-05-02T17:31:14Z</time></trkpt><trkpt lat="40.431835568613955" lon="15.750304249861323"><ele>863.0</ele><time>2026-05-02T17:31:15Z</time></trkpt><trkpt lat="40.43192382794431" lon="15.750324597267321"><ele>863.0</ele><time>2026-05-02T17:31:16Z</time></trkpt><trkpt lat="40.43200276276744" lon="15.750356811368935"><ele>863.0</ele><time>2026-05-02T17:31:17Z</time></trkpt><trkpt lat="40.43208657557965" lon="15.750389748741698"><ele>863.0</ele><time>2026-05-02T17:31:18Z</time></trkpt><trkpt lat="40.432184568575906" lon="15.75041727055999"><ele>859.0</ele><time>2026-05-02T17:31:19Z</time></trkpt><trkpt lat="40.43229417834508" lon="15.750454094201448"><ele>855.0</ele><time>2026-05-02T17:31:20Z</time></trkpt><trkpt lat="40.43238507629964" lon="15.750508784973842"><ele>851.0</ele><time>2026-05-02T17:31:21Z</time></trkpt><trkpt lat="40.43247123874148" lon="15.750553149502007"><ele>847.0</ele><time>2026-05-02T17:31:22Z</time></trkpt><trkpt lat="40.432558579557" lon="15.750599863024927"><ele>843.0</ele><time>2026-05-02T17:31:23Z</time></trkpt><trkpt lat="40.4326294119249" lon="15.750631565226067"><ele>843.0</ele><time>2026-05-02T17:31:24Z</time></trkpt><trkpt lat="40.43270038761571" lon="15.750641835773344"><ele>843.0</ele><time>2026-05-02T17:31:25Z</time></trkpt><trkpt lat="40.43280166170084" lon="15.750689931585812"><ele>843.0</ele><time>2026-05-02T17:31:27Z</time></trkpt><trkpt lat="40.432882047612495" lon="15.750666664857095"><ele>843.0</ele><time>2026-05-02T17:31:29Z</time></trkpt><trkpt lat="40.432967074644814" lon="15.75058444106342"><ele>843.0</ele><time>2026-05-02T17:31:31Z</time></trkpt><trkpt lat="40.433050832517594" lon="15.750475514451887"><ele>842.0</ele><time>2026-05-02T17:31:32.999Z</time></trkpt><trkpt lat="40.43311602616759" lon="15.750352210696349"><ele>841.0</ele><time>2026-05-02T17:31:34.999Z</time></trkpt><trkpt lat="40.43319586901012" lon="15.750270555654142"><ele>840.0</ele><time>2026-05-02T17:31:36.999Z</time></trkpt><trkpt lat="40.433273755667344" lon="15.750173569151103"><ele>839.0</ele><time>2026-05-02T17:31:38.999Z</time></trkpt><trkpt lat="40.433351980718" lon="15.750139729508389"><ele>838.0</ele><time>2026-05-02T17:31:40.999Z</time></trkpt><trkpt lat="40.43340397773622" lon="15.750055341059104"><ele>837.9999999999999</ele><time>2026-05-02T17:31:43.999Z</time></trkpt><trkpt lat="40.43338381313643" lon="15.75013414666065"><ele>838.0</ele><time>2026-05-02T17:31:58.999Z</time></trkpt><trkpt lat="40.4334533120516" lon="15.750131403960484"><ele>838.0</ele><time>2026-05-02T17:32:02.999Z</time></trkpt><trkpt lat="40.4335049140469" lon="15.75007672854105"><ele>838.0</ele><time>2026-05-02T17:32:05.999Z</time></trkpt><trkpt lat="40.433587647373336" lon="15.750049594322343"><ele>838.0</ele><time>2026-05-02T17:32:09.999Z</time></trkpt><trkpt lat="40.43365198404717" lon="15.750068380453566"><ele>837.9999999999999</ele><time>2026-05-02T17:32:11.999Z</time></trkpt><trkpt lat="40.4337139715842" lon="15.750140415688504"><ele>838.0</ele><time>2026-05-02T17:32:13.999Z</time></trkpt><trkpt lat="40.43378424530469" lon="15.750285599164549"><ele>837.8333333333333</ele><time>2026-05-02T17:32:15.999Z</time></trkpt><trkpt lat="40.43383819778478" lon="15.75036947877066"><ele>837.6666666666666</ele><time>2026-05-02T17:32:17.999Z</time></trkpt><trkpt lat="40.43393749853137" lon="15.750372470376073"><ele>837.5</ele><time>2026-05-02T17:32:20.999Z</time></trkpt><trkpt lat="40.43401417219166" lon="15.750421097933131"><ele>837.3333333333333</ele><time>2026-05-02T17:32:22.999Z</time></trkpt><trkpt lat="40.43409022963358" lon="15.750442814704103"><ele>837.1666666666666</ele><time>2026-05-02T17:32:24.998Z</time></trkpt><trkpt lat="40.43418749367189" lon="15.750451908465243"><ele>837.0</ele><time>2026-05-02T17:32:26.998Z</time></trkpt><trkpt lat="40.43428616958393" lon="15.750420843271016"><ele>837.0</ele><time>2026-05-02T17:32:28.998Z</time></trkpt><trkpt lat="40.43435413949844" lon="15.750313039157087"><ele>837.0</ele><time>2026-05-02T17:32:30.998Z</time></trkpt><trkpt lat="40.43440251902052" lon="15.750241536514368"><ele>837.0</ele><time>2026-05-02T17:32:31.998Z</time></trkpt><trkpt lat="40.43449679080462" lon="15.750169090852866"><ele>837.0</ele><time>2026-05-02T17:32:33.998Z</time></trkpt><trkpt lat="40.434583409856884" lon="15.750122050038785"><ele>837.0</ele><time>2026-05-02T17:32:35.998Z</time></trkpt><trkpt lat="40.434668967264855" lon="15.7500765453063"><ele>836.0</ele><time>2026-05-02T17:32:37.998Z</time></trkpt><trkpt lat="40.43474076229271" lon="15.750002465012276"><ele>835.0</ele><time>2026-05-02T17:32:39.998Z</time></trkpt><trkpt lat="40.43479505779587" lon="15.74995041809104"><ele>834.0</ele><time>2026-05-02T17:32:41.998Z</time></trkpt><trkpt lat="40.434855766689154" lon="15.749908841388597"><ele>833.0</ele><time>2026-05-02T17:32:44.998Z</time></trkpt><trkpt lat="40.434937715197464" lon="15.749850312010333"><ele>832.0</ele><time>2026-05-02T17:32:47.998Z</time></trkpt><trkpt lat="40.43492718649649" lon="15.749740753081543"><ele>831.0</ele><time>2026-05-02T17:32:50.998Z</time></trkpt><trkpt lat="40.43485638489145" lon="15.749694510569242"><ele>830.9999999999999</ele><time>2026-05-02T17:32:53.998Z</time></trkpt><trkpt lat="40.43478822743489" lon="15.749663526361292"><ele>831.0</ele><time>2026-05-02T17:32:56.998Z</time></trkpt><trkpt lat="40.43475130602929" lon="15.749563613099804"><ele>831.0</ele><time>2026-05-02T17:33:02Z</time></trkpt><trkpt lat="40.43471481481421" lon="15.749468487635253"><ele>831.0</ele><time>2026-05-02T17:33:06Z</time></trkpt><trkpt lat="40.434660779587325" lon="15.74942467865588"><ele>831.0</ele><time>2026-05-02T17:33:11Z</time></trkpt><trkpt lat="40.43459590098882" lon="15.74937489545283"><ele>830.9999999999999</ele><time>2026-05-02T17:33:16Z</time></trkpt><trkpt lat="40.43454950378155" lon="15.749304535616384"><ele>831.0</ele><time>2026-05-02T17:33:18Z</time></trkpt><trkpt lat="40.43448982612924" lon="15.749134550995525"><ele>828.5999999999999</ele><time>2026-05-02T17:33:20Z</time></trkpt><trkpt lat="40.43439960743196" lon="15.749039722237253"><ele>826.2</ele><time>2026-05-02T17:33:22Z</time></trkpt><trkpt lat="40.43433162371967" lon="15.748962616994135"><ele>823.8</ele><time>2026-05-02T17:33:24Z</time></trkpt><trkpt lat="40.43432163458999" lon="15.74886385031932"><ele>821.4000000000001</ele><time>2026-05-02T17:33:25Z</time></trkpt><trkpt lat="40.434291862184715" lon="15.748766831780587"><ele>819.0</ele><time>2026-05-02T17:33:27Z</time></trkpt><trkpt lat="40.434382948497365" lon="15.748750096361606"><ele>819.0</ele><time>2026-05-02T17:33:28.999Z</time></trkpt><trkpt lat="40.43443757725991" lon="15.748688777704293"><ele>819.0</ele><time>2026-05-02T17:33:29.999Z</time></trkpt><trkpt lat="40.43449804147472" lon="15.748563984526804"><ele>819.0</ele><time>2026-05-02T17:33:31.999Z</time></trkpt><trkpt lat="40.434565796688254" lon="15.748464067539064"><ele>819.0</ele><time>2026-05-02T17:33:33.999Z</time></trkpt><trkpt lat="40.43462572829907" lon="15.748386887581319"><ele>819.0</ele><time>2026-05-02T17:33:35.999Z</time></trkpt><trkpt lat="40.43469379167344" lon="15.748296302621812"><ele>817.5</ele><time>2026-05-02T17:33:37.999Z</time></trkpt><trkpt lat="40.43468451398877" lon="15.748207709874828"><ele>816.0</ele><time>2026-05-02T17:33:38.999Z</time></trkpt><trkpt lat="40.43473690725485" lon="15.748111464927925"><ele>814.5</ele><time>2026-05-02T17:33:40.999Z</time></trkpt><trkpt lat="40.434755972895424" lon="15.748008501956766"><ele>813.0</ele><time>2026-05-02T17:33:42.999Z</time></trkpt><trkpt lat="40.43465627561849" lon="15.7479562778484"><ele>811.5</ele><time>2026-05-02T17:33:46.999Z</time></trkpt><trkpt lat="40.434588836628684" lon="15.747917004874102"><ele>810.0</ele><time>2026-05-02T17:33:47.999Z</time></trkpt><trkpt lat="40.434530466193905" lon="15.7478818803444"><ele>810.0</ele><time>2026-05-02T17:33:48.999Z</time></trkpt><trkpt lat="40.43449747196729" lon="15.747792540006902"><ele>810.0</ele><time>2026-05-02T17:33:50.999Z</time></trkpt><trkpt lat="40.43452906319803" lon="15.747674213973573"><ele>810.0</ele><time>2026-05-02T17:33:52.999Z</time></trkpt><trkpt lat="40.4345073701049" lon="15.747548573844803"><ele>810.0</ele><time>2026-05-02T17:33:54.999Z</time></trkpt><trkpt lat="40.434445336184645" lon="15.747465384332397"><ele>810.0</ele><time>2026-05-02T17:33:56.999Z</time></trkpt><trkpt lat="40.434378446968594" lon="15.747399712067297"><ele>810.0</ele><time>2026-05-02T17:33:58.999Z</time></trkpt><trkpt lat="40.43428051546795" lon="15.74738429737099"><ele>807.6666666666666</ele><time>2026-05-02T17:34:01.999Z</time></trkpt><trkpt lat="40.43421915878277" lon="15.747338980250138"><ele>805.3333333333333</ele><time>2026-05-02T17:34:04.999Z</time></trkpt><trkpt lat="40.43421242327652" lon="15.747246802186732"><ele>803.0</ele><time>2026-05-02T17:34:07.999Z</time></trkpt><trkpt lat="40.43420480906973" lon="15.747159747728276"><ele>800.6666666666666</ele><time>2026-05-02T17:34:09.999Z</time></trkpt><trkpt lat="40.43416252124411" lon="15.747039319088072"><ele>798.3333333333333</ele><time>2026-05-02T17:34:11.999Z</time></trkpt><trkpt lat="40.43406367020879" lon="15.74692449728951"><ele>796.0</ele><time>2026-05-02T17:34:12.999Z</time></trkpt><trkpt lat="40.433963284234416" lon="15.746839909302118"><ele>796.0</ele><time>2026-05-02T17:34:13.999Z</time></trkpt><trkpt lat="40.43386287630521" lon="15.746753432977812"><ele>796.0</ele><time>2026-05-02T17:34:14.999Z</time></trkpt><trkpt lat="40.433745561594854" lon="15.746651191339007"><ele>796.0</ele><time>2026-05-02T17:34:15.999Z</time></trkpt><trkpt lat="40.4336005441246" lon="15.746517567777362"><ele>796.0</ele><time>2026-05-02T17:34:16.999Z</time></trkpt><trkpt lat="40.43347403077685" lon="15.746391210963775"><ele>798.0</ele><time>2026-05-02T17:34:17.999Z</time></trkpt><trkpt lat="40.433368382823616" lon="15.746304026424468"><ele>800.0</ele><time>2026-05-02T17:34:18.999Z</time></trkpt><trkpt lat="40.43328013652779" lon="15.746222747709922"><ele>802.0</ele><time>2026-05-02T17:34:19.999Z</time></trkpt><trkpt lat="40.43319390356972" lon="15.746131395410455"><ele>804.0</ele><time>2026-05-02T17:34:20.999Z</time></trkpt><trkpt lat="40.433104759884195" lon="15.746014607708407"><ele>804.0</ele><time>2026-05-02T17:34:21.998Z</time></trkpt><trkpt lat="40.432993495809484" lon="15.745892635670481"><ele>804.0</ele><time>2026-05-02T17:34:22.998Z</time></trkpt><trkpt lat="40.43288727679733" lon="15.745792927652724"><ele>804.0</ele><time>2026-05-02T17:34:23.998Z</time></trkpt><trkpt lat="40.43278919644458" lon="15.745714672405944"><ele>804.0</ele><time>2026-05-02T17:34:24.998Z</time></trkpt><trkpt lat="40.43271030020693" lon="15.745640135721512"><ele>802.0</ele><time>2026-05-02T17:34:25.998Z</time></trkpt><trkpt lat="40.43265281359667" lon="15.74555562432941"><ele>800.0</ele><time>2026-05-02T17:34:26.998Z</time></trkpt><trkpt lat="40.432621693487064" lon="15.745457816395424"><ele>798.0</ele><time>2026-05-02T17:34:27.998Z</time></trkpt><trkpt lat="40.432591470650465" lon="15.745337574648225"><ele>796.0</ele><time>2026-05-02T17:34:28.998Z</time></trkpt><trkpt lat="40.43258112634181" lon="15.745232311361185"><ele>794.0</ele><time>2026-05-02T17:34:29.998Z</time></trkpt><trkpt lat="40.43261720457526" lon="15.745115605829804"><ele>792.0</ele><time>2026-05-02T17:34:31.998Z</time></trkpt><trkpt lat="40.432737908709726" lon="15.745032999906346"><ele>792.0</ele><time>2026-05-02T17:34:33.998Z</time></trkpt><trkpt lat="40.43282769198349" lon="15.744963176555904"><ele>792.0</ele><time>2026-05-02T17:34:34.998Z</time></trkpt><trkpt lat="40.43291313304361" lon="15.744850988430901"><ele>792.0</ele><time>2026-05-02T17:34:35.998Z</time></trkpt><trkpt lat="40.43297826264565" lon="15.744720775378712"><ele>792.0</ele><time>2026-05-02T17:34:36.998Z</time></trkpt><trkpt lat="40.43301346144891" lon="15.744620240419218"><ele>792.0</ele><time>2026-05-02T17:34:37.998Z</time></trkpt><trkpt lat="40.43302309295915" lon="15.744526662205644"><ele>791.2</ele><time>2026-05-02T17:34:38.998Z</time></trkpt><trkpt lat="40.43304094002865" lon="15.74441935838416"><ele>790.4000000000001</ele><time>2026-05-02T17:34:39.998Z</time></trkpt><trkpt lat="40.43303741335183" lon="15.744304946902345"><ele>789.5999999999999</ele><time>2026-05-02T17:34:40.998Z</time></trkpt><trkpt lat="40.43301083241852" lon="15.744140889020315"><ele>788.8</ele><time>2026-05-02T17:34:41.998Z</time></trkpt><trkpt lat="40.432969474937394" lon="15.743977613392708"><ele>788.0</ele><time>2026-05-02T17:34:42.998Z</time></trkpt><trkpt lat="40.432943046026644" lon="15.743865579274647"><ele>788.0</ele><time>2026-05-02T17:34:43.998Z</time></trkpt><trkpt lat="40.432917219433904" lon="15.743770565822084"><ele>788.0</ele><time>2026-05-02T17:34:44.998Z</time></trkpt><trkpt lat="40.43289176599249" lon="15.743691797763944"><ele>788.0</ele><time>2026-05-02T17:34:45.998Z</time></trkpt><trkpt lat="40.43290189028483" lon="15.743515305455443"><ele>788.0</ele><time>2026-05-02T17:34:47.998Z</time></trkpt><trkpt lat="40.432939924144925" lon="15.74339143545003"><ele>788.0</ele><time>2026-05-02T17:34:48.998Z</time></trkpt><trkpt lat="40.43298335640005" lon="15.743242950274663"><ele>789.75</ele><time>2026-05-02T17:34:49.998Z</time></trkpt><trkpt lat="40.43302899848906" lon="15.743085922652817"><ele>791.5</ele><time>2026-05-02T17:34:50.998Z</time></trkpt><trkpt lat="40.43307053433302" lon="15.74294427226526"><ele>793.25</ele><time>2026-05-02T17:34:51.998Z</time></trkpt><trkpt lat="40.43310551018153" lon="15.7428102411569"><ele>795.0</ele><time>2026-05-02T17:34:52.998Z</time></trkpt><trkpt lat="40.433144464659314" lon="15.74267413795945"><ele>795.0</ele><time>2026-05-02T17:34:53.998Z</time></trkpt><trkpt lat="40.43318004997945" lon="15.742554916260863"><ele>795.0</ele><time>2026-05-02T17:34:54.998Z</time></trkpt><trkpt lat="40.43322509455147" lon="15.74244041616419"><ele>795.0</ele><time>2026-05-02T17:34:55.998Z</time></trkpt><trkpt lat="40.43326974125326" lon="15.742339928634776"><ele>795.0</ele><time>2026-05-02T17:34:56.998Z</time></trkpt><trkpt lat="40.433314789816286" lon="15.742236101112699"><ele>795.0</ele><time>2026-05-02T17:34:57.998Z</time></trkpt><trkpt lat="40.433340369550265" lon="15.742127451565874"><ele>795.0</ele><time>2026-05-02T17:34:58.998Z</time></trkpt><trkpt lat="40.433328980609126" lon="15.742016963346085"><ele>795.0</ele><time>2026-05-02T17:34:59.998Z</time></trkpt><trkpt lat="40.43331450123434" lon="15.741923940101069"><ele>795.0</ele><time>2026-05-02T17:35:00.998Z</time></trkpt><trkpt lat="40.43335346385689" lon="15.741752470345382"><ele>795.0</ele><time>2026-05-02T17:35:02.998Z</time></trkpt><trkpt lat="40.43339175326567" lon="15.74164388653053"><ele>795.0</ele><time>2026-05-02T17:35:03.999Z</time></trkpt><trkpt lat="40.433403327531515" lon="15.74153065607669"><ele>794.6</ele><time>2026-05-02T17:35:04.999Z</time></trkpt><trkpt lat="40.43337919330851" lon="15.741428682252803"><ele>794.2</ele><time>2026-05-02T17:35:05.999Z</time></trkpt><trkpt lat="40.43332866119533" lon="15.74131982140613"><ele>793.8</ele><time>2026-05-02T17:35:06.999Z</time></trkpt><trkpt lat="40.43326225529022" lon="15.741199335179132"><ele>793.4</ele><time>2026-05-02T17:35:08Z</time></trkpt><trkpt lat="40.43319375781357" lon="15.741113141446137"><ele>793.0</ele><time>2026-05-02T17:35:08.999Z</time></trkpt><trkpt lat="40.43312620092961" lon="15.741057858545808"><ele>792.4</ele><time>2026-05-02T17:35:10Z</time></trkpt><trkpt lat="40.43304974401006" lon="15.74103669059413"><ele>791.8</ele><time>2026-05-02T17:35:11Z</time></trkpt><trkpt lat="40.432958328148715" lon="15.74104036834221"><ele>791.2</ele><time>2026-05-02T17:35:12Z</time></trkpt><trkpt lat="40.43284072876798" lon="15.741041160042899"><ele>790.6</ele><time>2026-05-02T17:35:13Z</time></trkpt><trkpt lat="40.43272629715819" lon="15.741028009696667"><ele>790.0</ele><time>2026-05-02T17:35:14Z</time></trkpt><trkpt lat="40.43263174401451" lon="15.741024975375653"><ele>790.0</ele><time>2026-05-02T17:35:15Z</time></trkpt><trkpt lat="40.43255941091055" lon="15.741006739776966"><ele>790.0</ele><time>2026-05-02T17:35:16Z</time></trkpt><trkpt lat="40.432464300863316" lon="15.740886854237612"><ele>790.0</ele><time>2026-05-02T17:35:18Z</time></trkpt><trkpt lat="40.43242945854952" lon="15.740803244779599"><ele>790.0</ele><time>2026-05-02T17:35:19Z</time></trkpt><trkpt lat="40.43238626900196" lon="15.740667013571747"><ele>790.0</ele><time>2026-05-02T17:35:20Z</time></trkpt><trkpt lat="40.432360364399365" lon="15.740562102200029"><ele>789.9999999999999</ele><time>2026-05-02T17:35:21Z</time></trkpt><trkpt lat="40.43236078188778" lon="15.740478922485702"><ele>790.0</ele><time>2026-05-02T17:35:22Z</time></trkpt><trkpt lat="40.43238882923708" lon="15.740386272971124"><ele>790.0</ele><time>2026-05-02T17:35:23Z</time></trkpt><trkpt lat="40.432422765720624" lon="15.740296712833908"><ele>790.0</ele><time>2026-05-02T17:35:24Z</time></trkpt><trkpt lat="40.432438454658026" lon="15.740190901338403"><ele>789.9999999999999</ele><time>2026-05-02T17:35:26Z</time></trkpt><trkpt lat="40.43243285388761" lon="15.740063383566252"><ele>790.0</ele><time>2026-05-02T17:35:29Z</time></trkpt><trkpt lat="40.43241472796673" lon="15.739893385762477"><ele>790.8333333333333</ele><time>2026-05-02T17:35:30.999Z</time></trkpt><trkpt lat="40.432407983441" lon="15.739776614486564"><ele>791.6666666666666</ele><time>2026-05-02T17:35:31.999Z</time></trkpt><trkpt lat="40.43242686094551" lon="15.739659459619235"><ele>792.5</ele><time>2026-05-02T17:35:32.999Z</time></trkpt><trkpt lat="40.43246649546185" lon="15.739559922833456"><ele>793.3333333333333</ele><time>2026-05-02T17:35:33.999Z</time></trkpt><trkpt lat="40.43250476807669" lon="15.7394619174209"><ele>794.1666666666666</ele><time>2026-05-02T17:35:34.999Z</time></trkpt><trkpt lat="40.43252261591468" lon="15.739363656193843"><ele>795.0</ele><time>2026-05-02T17:35:35.999Z</time></trkpt><trkpt lat="40.43251860311549" lon="15.739271999929816"><ele>795.5</ele><time>2026-05-02T17:35:36.999Z</time></trkpt><trkpt lat="40.432490702041626" lon="15.739195433735134"><ele>796.0</ele><time>2026-05-02T17:35:37.999Z</time></trkpt><trkpt lat="40.432424013701855" lon="15.739136607800912"><ele>796.5</ele><time>2026-05-02T17:35:38.999Z</time></trkpt><trkpt lat="40.432336450322694" lon="15.739091618629542"><ele>797.0</ele><time>2026-05-02T17:35:39.999Z</time></trkpt><trkpt lat="40.43223608365187" lon="15.739101619441467"><ele>797.5</ele><time>2026-05-02T17:35:40.999Z</time></trkpt><trkpt lat="40.43212861861927" lon="15.739129406663613"><ele>798.0</ele><time>2026-05-02T17:35:41.999Z</time></trkpt><trkpt lat="40.43201764340126" lon="15.739150947243719"><ele>796.2</ele><time>2026-05-02T17:35:42.999Z</time></trkpt><trkpt lat="40.431923414481844" lon="15.739163623731603"><ele>794.4</ele><time>2026-05-02T17:35:43.999Z</time></trkpt><trkpt lat="40.43183464999316" lon="15.739160067549125"><ele>792.6</ele><time>2026-05-02T17:35:44.999Z</time></trkpt><trkpt lat="40.43174732659588" lon="15.739129781372432"><ele>790.8000000000001</ele><time>2026-05-02T17:35:45.999Z</time></trkpt><trkpt lat="40.43164967904708" lon="15.739074954672853"><ele>789.0</ele><time>2026-05-02T17:35:46.999Z</time></trkpt><trkpt lat="40.43155018544006" lon="15.738989675310377"><ele>789.0</ele><time>2026-05-02T17:35:47.999Z</time></trkpt><trkpt lat="40.43146237325898" lon="15.73891873314958"><ele>789.0</ele><time>2026-05-02T17:35:48.999Z</time></trkpt><trkpt lat="40.43141089723794" lon="15.738846977331637"><ele>789.0</ele><time>2026-05-02T17:35:49.999Z</time></trkpt><trkpt lat="40.43138844700709" lon="15.738765598771288"><ele>789.0</ele><time>2026-05-02T17:35:50.999Z</time></trkpt><trkpt lat="40.43138234077656" lon="15.738675162551747"><ele>789.0</ele><time>2026-05-02T17:35:51.999Z</time></trkpt><trkpt lat="40.43137485532407" lon="15.738549821452237"><ele>789.0</ele><time>2026-05-02T17:35:52.999Z</time></trkpt><trkpt lat="40.43136929271395" lon="15.7383952427028"><ele>791.2</ele><time>2026-05-02T17:35:53.999Z</time></trkpt><trkpt lat="40.4313718212176" lon="15.738254303420742"><ele>793.4000000000001</ele><time>2026-05-02T17:35:54.999Z</time></trkpt><trkpt lat="40.43134595970923" lon="15.738119459706224"><ele>795.6</ele><time>2026-05-02T17:35:56.999Z</time></trkpt><trkpt lat="40.43126390663269" lon="15.738089522088584"><ele>797.8</ele><time>2026-05-02T17:35:58.999Z</time></trkpt><trkpt lat="40.431189062091164" lon="15.738060760787434"><ele>800.0</ele><time>2026-05-02T17:36:00.999Z</time></trkpt><trkpt lat="40.431080781748065" lon="15.737999783771055"><ele>800.0000000000001</ele><time>2026-05-02T17:36:02.999Z</time></trkpt><trkpt lat="40.431028106289126" lon="15.737952830655091"><ele>800.0</ele><time>2026-05-02T17:36:03.999Z</time></trkpt><trkpt lat="40.43094147520005" lon="15.737893964314638"><ele>800.0</ele><time>2026-05-02T17:36:04.999Z</time></trkpt><trkpt lat="40.430890955366976" lon="15.737843505873983"><ele>800.0</ele><time>2026-05-02T17:36:05.999Z</time></trkpt><trkpt lat="40.43085629825696" lon="15.737771253430935"><ele>800.0</ele><time>2026-05-02T17:36:06.999Z</time></trkpt><trkpt lat="40.43083843246971" lon="15.737674884776585"><ele>800.0000000000001</ele><time>2026-05-02T17:36:07.999Z</time></trkpt><trkpt lat="40.43080754809072" lon="15.737590749698093"><ele>800.0</ele><time>2026-05-02T17:36:08.999Z</time></trkpt><trkpt lat="40.430753374692735" lon="15.737526634572955"><ele>800.1428571428572</ele><time>2026-05-02T17:36:09.999Z</time></trkpt><trkpt lat="40.43068071487828" lon="15.737463806063008"><ele>800.2857142857143</ele><time>2026-05-02T17:36:10.999Z</time></trkpt><trkpt lat="40.43061604254624" lon="15.737419963783173"><ele>800.4285714285714</ele><time>2026-05-02T17:36:11.999Z</time></trkpt><trkpt lat="40.4305570968676" lon="15.737387000833717"><ele>800.5714285714287</ele><time>2026-05-02T17:36:12.999Z</time></trkpt><trkpt lat="40.4305167931966" lon="15.737307133443583"><ele>800.7142857142857</ele><time>2026-05-02T17:36:13.999Z</time></trkpt><trkpt lat="40.430447288185576" lon="15.737278234664108"><ele>800.8571428571429</ele><time>2026-05-02T17:36:14.999Z</time></trkpt><trkpt lat="40.43037701762669" lon="15.737267589850308"><ele>801.0</ele><time>2026-05-02T17:36:15.999Z</time></trkpt><trkpt lat="40.430273304032966" lon="15.7371566236204"><ele>801.0</ele><time>2026-05-02T17:36:17.999Z</time></trkpt><trkpt lat="40.43024393950238" lon="15.737080577622297"><ele>801.0</ele><time>2026-05-02T17:36:18.999Z</time></trkpt><trkpt lat="40.43022433207305" lon="15.73699733851539"><ele>801.0</ele><time>2026-05-02T17:36:19.999Z</time></trkpt><trkpt lat="40.43025271062147" lon="15.736850375668519"><ele>801.0</ele><time>2026-05-02T17:36:21.999Z</time></trkpt><trkpt lat="40.43031464090387" lon="15.736817330607213"><ele>801.0</ele><time>2026-05-02T17:36:22.999Z</time></trkpt><trkpt lat="40.43033756172119" lon="15.736710155010494"><ele>801.0</ele><time>2026-05-02T17:36:24.999Z</time></trkpt><trkpt lat="40.43031571039559" lon="15.736611621085068"><ele>802.8</ele><time>2026-05-02T17:36:25.999Z</time></trkpt><trkpt lat="40.43029028452667" lon="15.736519891816705"><ele>804.5999999999999</ele><time>2026-05-02T17:36:26.999Z</time></trkpt><trkpt lat="40.43026206312911" lon="15.736407389004052"><ele>806.4</ele><time>2026-05-02T17:36:28.999Z</time></trkpt><trkpt lat="40.4302390281388" lon="15.73632172216788"><ele>808.2</ele><time>2026-05-02T17:51:26.998Z</time></trkpt><trkpt lat="40.43015047332549" lon="15.736180831338933"><ele>810.0</ele><time>2026-05-02T17:51:28.998Z</time></trkpt><trkpt lat="40.4300898424067" lon="15.7361004967677"><ele>811.2</ele><time>2026-05-02T17:51:29.998Z</time></trkpt><trkpt lat="40.430016570317036" lon="15.73602196686193"><ele>812.4</ele><time>2026-05-02T17:51:30.998Z</time></trkpt><trkpt lat="40.42993639544923" lon="15.73593993412271"><ele>813.5999999999999</ele><time>2026-05-02T17:51:31.998Z</time></trkpt><trkpt lat="40.429858388776786" lon="15.735910649665295"><ele>814.8</ele><time>2026-05-02T17:51:32.998Z</time></trkpt><trkpt lat="40.42984566819162" lon="15.73577838539258"><ele>816.0</ele><time>2026-05-02T17:51:33.998Z</time></trkpt><trkpt lat="40.42977784093053" lon="15.73567103932207"><ele>816.0</ele><time>2026-05-02T17:51:34.998Z</time></trkpt><trkpt lat="40.42970139075637" lon="15.735547881799015"><ele>816.0</ele><time>2026-05-02T17:51:35.998Z</time></trkpt><trkpt lat="40.429615927666056" lon="15.73540187976578"><ele>816.0</ele><time>2026-05-02T17:51:36.998Z</time></trkpt><trkpt lat="40.42954878672543" lon="15.735286588972913"><ele>816.0</ele><time>2026-05-02T17:51:37.998Z</time></trkpt><trkpt lat="40.42949950866441" lon="15.73520154108689"><ele>817.0</ele><time>2026-05-02T17:51:38.998Z</time></trkpt><trkpt lat="40.429443625929146" lon="15.735105094281632"><ele>818.0</ele><time>2026-05-02T17:51:40.998Z</time></trkpt><trkpt lat="40.42952652515756" lon="15.734998272086987"><ele>819.0</ele><time>2026-05-02T17:51:44.998Z</time></trkpt><trkpt lat="40.42958266695969" lon="15.73495917345414"><ele>820.0</ele><time>2026-05-02T17:51:45.998Z</time></trkpt><trkpt lat="40.429651842748626" lon="15.73490883117842"><ele>821.0</ele><time>2026-05-02T17:51:46.998Z</time></trkpt><trkpt lat="40.42970716285147" lon="15.734860176923473"><ele>822.0</ele><time>2026-05-02T17:51:47.998Z</time></trkpt><trkpt lat="40.42977477630014" lon="15.734816303189172"><ele>822.8333333333334</ele><time>2026-05-02T17:51:48.998Z</time></trkpt><trkpt lat="40.4298528493174" lon="15.734738979845849"><ele>823.6666666666667</ele><time>2026-05-02T17:51:50.998Z</time></trkpt><trkpt lat="40.429859500357274" lon="15.73459218756023"><ele>824.5</ele><time>2026-05-02T17:51:53Z</time></trkpt><trkpt lat="40.42984080125705" lon="15.73447943195825"><ele>825.3333333333334</ele><time>2026-05-02T17:51:55Z</time></trkpt><trkpt lat="40.42986402477687" lon="15.734386141711504"><ele>826.1666666666667</ele><time>2026-05-02T17:51:57Z</time></trkpt><trkpt lat="40.42987050851783" lon="15.7342967998079"><ele>827.0</ele><time>2026-05-02T17:52:10Z</time></trkpt><trkpt lat="40.42992836600981" lon="15.734366604810074"><ele>827.0</ele><time>2026-05-02T17:52:15Z</time></trkpt></trkseg></trk></gpx>